<?xml version="1.0" encoding="UTF-8" standalone="no" ?><gpx xmlns="http://www.topografix.com/GPX/1/1" xmlns:gpxx="http://www.garmin.com/xmlschemas/GpxExtensions/v3" xmlns:wptx1="http://www.garmin.com/xmlschemas/WaypointExtension/v1" xmlns:gpxtpx="http://www.garmin.com/xmlschemas/TrackPointExtension/v1" creator="GuideVTT.com" version="1.1" xmlns:xsi="http://www.w3.org/2001/XMLSchema-instance" xsi:schemaLocation="http://www.topografix.com/GPX/1/1 http://www.topografix.com/GPX/1/1/gpx.xsd http://www.garmin.com/xmlschemas/GpxExtensions/v3 http://www8.garmin.com/xmlschemas/GpxExtensionsv3.xsd http://www.garmin.com/xmlschemas/WaypointExtension/v1 http://www8.garmin.com/xmlschemas/WaypointExtensionv1.xsd http://www.garmin.com/xmlschemas/TrackPointExtension/v1 http://www.garmin.com/xmlschemas/TrackPointExtensionv1.xsd">
<metadata><link href="http://www.garmin.com"><text>Garmin International</text></link><time>2013-06-22T15:13:50Z</time></metadata>
<trk><name>rp2026-04.gpx</name><extensions><gpxx:TrackExtension><gpxx:DisplayColor>Cyan</gpxx:DisplayColor></gpxx:TrackExtension></extensions><trkseg>
<trkpt lat="46.49473" lon="6.70898"><ele>386.6</ele><time>2026-04-23T13:47:01Z</time></trkpt>
<trkpt lat="46.49472" lon="6.70901"><ele>386.6</ele><time>2026-04-23T13:47:04Z</time></trkpt>
<trkpt lat="46.49472" lon="6.70901"><ele>386.6</ele><time>2026-04-23T13:47:05Z</time></trkpt>
<trkpt lat="46.49471" lon="6.709"><ele>386.6</ele><time>2026-04-23T13:47:11Z</time></trkpt>
<trkpt lat="46.49471" lon="6.709"><ele>386.6</ele><time>2026-04-23T13:47:13Z</time></trkpt>
<trkpt lat="46.49471" lon="6.709"><ele>386.6</ele><time>2026-04-23T13:47:19Z</time></trkpt>
<trkpt lat="46.49471" lon="6.709"><ele>386.6</ele><time>2026-04-23T13:47:26Z</time></trkpt>
<trkpt lat="46.49471" lon="6.70899"><ele>386.6</ele><time>2026-04-23T13:47:31Z</time></trkpt>
<trkpt lat="46.49472" lon="6.70898"><ele>386.6</ele><time>2026-04-23T13:47:33Z</time></trkpt>
<trkpt lat="46.49472" lon="6.70899"><ele>386.6</ele><time>2026-04-23T13:47:35Z</time></trkpt>
<trkpt lat="46.49472" lon="6.70898"><ele>386.6</ele><time>2026-04-23T13:47:40Z</time></trkpt>
<trkpt lat="46.49472" lon="6.70899"><ele>386.6</ele><time>2026-04-23T13:47:45Z</time></trkpt>
<trkpt lat="46.49471" lon="6.709"><ele>386.6</ele><time>2026-04-23T13:47:49Z</time></trkpt>
<trkpt lat="46.49471" lon="6.70899"><ele>386.6</ele><time>2026-04-23T13:47:51Z</time></trkpt>
<trkpt lat="46.49471" lon="6.709"><ele>386.6</ele><time>2026-04-23T13:47:52Z</time></trkpt>
<trkpt lat="46.49471" lon="6.709"><ele>386.6</ele><time>2026-04-23T13:47:54Z</time></trkpt>
<trkpt lat="46.49471" lon="6.70899"><ele>386.6</ele><time>2026-04-23T13:48:00Z</time></trkpt>
<trkpt lat="46.49472" lon="6.70898"><ele>386.6</ele><time>2026-04-23T13:48:02Z</time></trkpt>
<trkpt lat="46.49473" lon="6.70895"><ele>386.8</ele><time>2026-04-23T13:48:05Z</time></trkpt>
<trkpt lat="46.49475" lon="6.70894"><ele>386.8</ele><time>2026-04-23T13:48:06Z</time></trkpt>
<trkpt lat="46.49481" lon="6.70896"><ele>387</ele><time>2026-04-23T13:48:09Z</time></trkpt>
<trkpt lat="46.49485" lon="6.70899"><ele>387.6</ele><time>2026-04-23T13:48:12Z</time></trkpt>
<trkpt lat="46.49486" lon="6.70901"><ele>387.8</ele><time>2026-04-23T13:48:13Z</time></trkpt>
<trkpt lat="46.49487" lon="6.70902"><ele>388</ele><time>2026-04-23T13:48:14Z</time></trkpt>
<trkpt lat="46.49488" lon="6.70906"><ele>388.4</ele><time>2026-04-23T13:48:16Z</time></trkpt>
<trkpt lat="46.4949" lon="6.70911"><ele>388.8</ele><time>2026-04-23T13:48:19Z</time></trkpt>
<trkpt lat="46.49492" lon="6.70915"><ele>389.4</ele><time>2026-04-23T13:48:22Z</time></trkpt>
<trkpt lat="46.49494" lon="6.7092"><ele>389.8</ele><time>2026-04-23T13:48:25Z</time></trkpt>
<trkpt lat="46.49493" lon="6.70922"><ele>390.2</ele><time>2026-04-23T13:48:27Z</time></trkpt>
<trkpt lat="46.49493" lon="6.70923"><ele>390.4</ele><time>2026-04-23T13:48:28Z</time></trkpt>
<trkpt lat="46.49493" lon="6.70927"><ele>390.8</ele><time>2026-04-23T13:48:31Z</time></trkpt>
<trkpt lat="46.49491" lon="6.70934"><ele>391.2</ele><time>2026-04-23T13:48:34Z</time></trkpt>
<trkpt lat="46.49488" lon="6.70945"><ele>392</ele><time>2026-04-23T13:48:40Z</time></trkpt>
<trkpt lat="46.49481" lon="6.70959"><ele>392.8</ele><time>2026-04-23T13:48:47Z</time></trkpt>
<trkpt lat="46.49479" lon="6.70965"><ele>393</ele><time>2026-04-23T13:48:50Z</time></trkpt>
<trkpt lat="46.49473" lon="6.70978"><ele>393.8</ele><time>2026-04-23T13:48:57Z</time></trkpt>
<trkpt lat="46.4947" lon="6.70983"><ele>394</ele><time>2026-04-23T13:49:00Z</time></trkpt>
<trkpt lat="46.49467" lon="6.7099"><ele>394.6</ele><time>2026-04-23T13:49:05Z</time></trkpt>
<trkpt lat="46.49463" lon="6.70998"><ele>395</ele><time>2026-04-23T13:49:10Z</time></trkpt>
<trkpt lat="46.49462" lon="6.71001"><ele>395.2</ele><time>2026-04-23T13:49:12Z</time></trkpt>
<trkpt lat="46.49458" lon="6.71006"><ele>395.6</ele><time>2026-04-23T13:49:16Z</time></trkpt>
<trkpt lat="46.49458" lon="6.71008"><ele>395.8</ele><time>2026-04-23T13:49:17Z</time></trkpt>
<trkpt lat="46.49457" lon="6.7101"><ele>395.8</ele><time>2026-04-23T13:49:18Z</time></trkpt>
<trkpt lat="46.49456" lon="6.71011"><ele>396</ele><time>2026-04-23T13:49:19Z</time></trkpt>
<trkpt lat="46.49455" lon="6.71013"><ele>396.2</ele><time>2026-04-23T13:49:20Z</time></trkpt>
<trkpt lat="46.49446" lon="6.71023"><ele>396.6</ele><time>2026-04-23T13:49:26Z</time></trkpt>
<trkpt lat="46.4943" lon="6.71035"><ele>396.2</ele><time>2026-04-23T13:49:33Z</time></trkpt>
<trkpt lat="46.4942" lon="6.71047"><ele>396.6</ele><time>2026-04-23T13:49:38Z</time></trkpt>
<trkpt lat="46.49414" lon="6.71053"><ele>397</ele><time>2026-04-23T13:49:43Z</time></trkpt>
<trkpt lat="46.49413" lon="6.71053"><ele>397.2</ele><time>2026-04-23T13:49:44Z</time></trkpt>
<trkpt lat="46.49404" lon="6.7106"><ele>397.4</ele><time>2026-04-23T13:49:48Z</time></trkpt>
<trkpt lat="46.49387" lon="6.71066"><ele>396.4</ele><time>2026-04-23T13:49:53Z</time></trkpt>
<trkpt lat="46.49384" lon="6.71068"><ele>396</ele><time>2026-04-23T13:49:54Z</time></trkpt>
<trkpt lat="46.49373" lon="6.71077"><ele>395</ele><time>2026-04-23T13:49:57Z</time></trkpt>
<trkpt lat="46.49366" lon="6.71083"><ele>394.6</ele><time>2026-04-23T13:49:59Z</time></trkpt>
<trkpt lat="46.49352" lon="6.71097"><ele>394</ele><time>2026-04-23T13:50:03Z</time></trkpt>
<trkpt lat="46.49345" lon="6.71105"><ele>393.8</ele><time>2026-04-23T13:50:05Z</time></trkpt>
<trkpt lat="46.49342" lon="6.7111"><ele>393.6</ele><time>2026-04-23T13:50:06Z</time></trkpt>
<trkpt lat="46.49335" lon="6.7112"><ele>393.2</ele><time>2026-04-23T13:50:08Z</time></trkpt>
<trkpt lat="46.49332" lon="6.71126"><ele>393</ele><time>2026-04-23T13:50:09Z</time></trkpt>
<trkpt lat="46.49326" lon="6.71139"><ele>393.4</ele><time>2026-04-23T13:50:12Z</time></trkpt>
<trkpt lat="46.49324" lon="6.71143"><ele>394</ele><time>2026-04-23T13:50:14Z</time></trkpt>
<trkpt lat="46.49322" lon="6.71146"><ele>394.6</ele><time>2026-04-23T13:50:16Z</time></trkpt>
<trkpt lat="46.49321" lon="6.71146"><ele>394.8</ele><time>2026-04-23T13:50:17Z</time></trkpt>
<trkpt lat="46.49321" lon="6.71147"><ele>395</ele><time>2026-04-23T13:50:18Z</time></trkpt>
<trkpt lat="46.49319" lon="6.71155"><ele>396</ele><time>2026-04-23T13:50:23Z</time></trkpt>
<trkpt lat="46.49318" lon="6.71156"><ele>396.2</ele><time>2026-04-23T13:50:24Z</time></trkpt>
<trkpt lat="46.49314" lon="6.7116"><ele>396.8</ele><time>2026-04-23T13:50:28Z</time></trkpt>
<trkpt lat="46.49313" lon="6.71164"><ele>397.2</ele><time>2026-04-23T13:50:31Z</time></trkpt>
<trkpt lat="46.49309" lon="6.71168"><ele>397.8</ele><time>2026-04-23T13:50:35Z</time></trkpt>
<trkpt lat="46.49308" lon="6.7117"><ele>398</ele><time>2026-04-23T13:50:37Z</time></trkpt>
<trkpt lat="46.49307" lon="6.71173"><ele>398.4</ele><time>2026-04-23T13:50:39Z</time></trkpt>
<trkpt lat="46.49302" lon="6.71183"><ele>399.2</ele><time>2026-04-23T13:50:46Z</time></trkpt>
<trkpt lat="46.493" lon="6.71186"><ele>399.4</ele><time>2026-04-23T13:50:48Z</time></trkpt>
<trkpt lat="46.49296" lon="6.71193"><ele>400</ele><time>2026-04-23T13:50:53Z</time></trkpt>
<trkpt lat="46.49292" lon="6.71203"><ele>400.6</ele><time>2026-04-23T13:50:59Z</time></trkpt>
<trkpt lat="46.4929" lon="6.71204"><ele>400.6</ele><time>2026-04-23T13:51:00Z</time></trkpt>
<trkpt lat="46.4928" lon="6.71215"><ele>401.2</ele><time>2026-04-23T13:51:08Z</time></trkpt>
<trkpt lat="46.49277" lon="6.71218"><ele>401.4</ele><time>2026-04-23T13:51:10Z</time></trkpt>
<trkpt lat="46.49272" lon="6.71223"><ele>402</ele><time>2026-04-23T13:51:14Z</time></trkpt>
<trkpt lat="46.49269" lon="6.71225"><ele>402.2</ele><time>2026-04-23T13:51:16Z</time></trkpt>
<trkpt lat="46.49267" lon="6.71227"><ele>402.2</ele><time>2026-04-23T13:51:18Z</time></trkpt>
<trkpt lat="46.49264" lon="6.7123"><ele>402.4</ele><time>2026-04-23T13:51:21Z</time></trkpt>
<trkpt lat="46.49264" lon="6.7123"><ele>402.6</ele><time>2026-04-23T13:51:28Z</time></trkpt>
<trkpt lat="46.49264" lon="6.7123"><ele>402.6</ele><time>2026-04-23T13:51:30Z</time></trkpt>
<trkpt lat="46.49264" lon="6.7123"><ele>402.6</ele><time>2026-04-23T13:51:38Z</time></trkpt>
<trkpt lat="46.49264" lon="6.7123"><ele>402.4</ele><time>2026-04-23T13:51:46Z</time></trkpt>
<trkpt lat="46.49264" lon="6.7123"><ele>402.4</ele><time>2026-04-23T13:51:49Z</time></trkpt>
<trkpt lat="46.49264" lon="6.7123"><ele>402.4</ele><time>2026-04-23T13:51:51Z</time></trkpt>
<trkpt lat="46.49264" lon="6.7123"><ele>402.4</ele><time>2026-04-23T13:51:56Z</time></trkpt>
<trkpt lat="46.49264" lon="6.7123"><ele>402.4</ele><time>2026-04-23T13:51:58Z</time></trkpt>
<trkpt lat="46.49264" lon="6.7123"><ele>402.4</ele><time>2026-04-23T13:52:00Z</time></trkpt>
<trkpt lat="46.49264" lon="6.7123"><ele>402.4</ele><time>2026-04-23T13:52:02Z</time></trkpt>
<trkpt lat="46.49264" lon="6.7123"><ele>402.6</ele><time>2026-04-23T13:52:07Z</time></trkpt>
<trkpt lat="46.49264" lon="6.7123"><ele>402.6</ele><time>2026-04-23T13:52:10Z</time></trkpt>
<trkpt lat="46.49264" lon="6.7123"><ele>402.6</ele><time>2026-04-23T13:52:24Z</time></trkpt>
<trkpt lat="46.49263" lon="6.71234"><ele>402.6</ele><time>2026-04-23T13:52:33Z</time></trkpt>
<trkpt lat="46.49253" lon="6.71246"><ele>403</ele><time>2026-04-23T13:52:39Z</time></trkpt>
<trkpt lat="46.49245" lon="6.71253"><ele>403.6</ele><time>2026-04-23T13:52:43Z</time></trkpt>
<trkpt lat="46.49243" lon="6.71255"><ele>403.6</ele><time>2026-04-23T13:52:44Z</time></trkpt>
<trkpt lat="46.49232" lon="6.7127"><ele>404.4</ele><time>2026-04-23T13:52:50Z</time></trkpt>
<trkpt lat="46.49228" lon="6.71277"><ele>404.8</ele><time>2026-04-23T13:52:53Z</time></trkpt>
<trkpt lat="46.49226" lon="6.7128"><ele>405</ele><time>2026-04-23T13:52:54Z</time></trkpt>
<trkpt lat="46.49221" lon="6.7129"><ele>406</ele><time>2026-04-23T13:52:58Z</time></trkpt>
<trkpt lat="46.49217" lon="6.71296"><ele>406.6</ele><time>2026-04-23T13:53:01Z</time></trkpt>
<trkpt lat="46.49215" lon="6.713"><ele>407.2</ele><time>2026-04-23T13:53:03Z</time></trkpt>
<trkpt lat="46.4921" lon="6.71311"><ele>407.6</ele><time>2026-04-23T13:53:07Z</time></trkpt>
<trkpt lat="46.49208" lon="6.71315"><ele>407.4</ele><time>2026-04-23T13:53:08Z</time></trkpt>
<trkpt lat="46.49203" lon="6.71326"><ele>407</ele><time>2026-04-23T13:53:10Z</time></trkpt>
<trkpt lat="46.49201" lon="6.71339"><ele>406.8</ele><time>2026-04-23T13:53:12Z</time></trkpt>
<trkpt lat="46.492" lon="6.71344"><ele>406.8</ele><time>2026-04-23T13:53:13Z</time></trkpt>
<trkpt lat="46.49198" lon="6.7137"><ele>408</ele><time>2026-04-23T13:53:19Z</time></trkpt>
<trkpt lat="46.49198" lon="6.71374"><ele>408.4</ele><time>2026-04-23T13:53:20Z</time></trkpt>
<trkpt lat="46.49198" lon="6.71381"><ele>409</ele><time>2026-04-23T13:53:22Z</time></trkpt>
<trkpt lat="46.49198" lon="6.71385"><ele>409.2</ele><time>2026-04-23T13:53:23Z</time></trkpt>
<trkpt lat="46.49198" lon="6.71393"><ele>409.4</ele><time>2026-04-23T13:53:25Z</time></trkpt>
<trkpt lat="46.49198" lon="6.71397"><ele>409.6</ele><time>2026-04-23T13:53:26Z</time></trkpt>
<trkpt lat="46.49198" lon="6.71415"><ele>409.4</ele><time>2026-04-23T13:53:29Z</time></trkpt>
<trkpt lat="46.49197" lon="6.7143"><ele>408.8</ele><time>2026-04-23T13:53:31Z</time></trkpt>
<trkpt lat="46.49196" lon="6.71439"><ele>408.4</ele><time>2026-04-23T13:53:32Z</time></trkpt>
<trkpt lat="46.49192" lon="6.71458"><ele>407.2</ele><time>2026-04-23T13:53:34Z</time></trkpt>
<trkpt lat="46.4919" lon="6.71467"><ele>406.6</ele><time>2026-04-23T13:53:35Z</time></trkpt>
<trkpt lat="46.49177" lon="6.71514"><ele>407.2</ele><time>2026-04-23T13:53:41Z</time></trkpt>
<trkpt lat="46.49174" lon="6.7153"><ele>408</ele><time>2026-04-23T13:53:45Z</time></trkpt>
<trkpt lat="46.49174" lon="6.71533"><ele>408.4</ele><time>2026-04-23T13:53:46Z</time></trkpt>
<trkpt lat="46.49166" lon="6.71551"><ele>409</ele><time>2026-04-23T13:53:52Z</time></trkpt>
<trkpt lat="46.49161" lon="6.71561"><ele>409.4</ele><time>2026-04-23T13:53:55Z</time></trkpt>
<trkpt lat="46.49154" lon="6.71573"><ele>409.8</ele><time>2026-04-23T13:53:58Z</time></trkpt>
<trkpt lat="46.49148" lon="6.71584"><ele>410.6</ele><time>2026-04-23T13:54:01Z</time></trkpt>
<trkpt lat="46.49145" lon="6.71589"><ele>411.2</ele><time>2026-04-23T13:54:03Z</time></trkpt>
<trkpt lat="46.49144" lon="6.71591"><ele>411.4</ele><time>2026-04-23T13:54:04Z</time></trkpt>
<trkpt lat="46.49144" lon="6.71594"><ele>411.6</ele><time>2026-04-23T13:54:05Z</time></trkpt>
<trkpt lat="46.49138" lon="6.71603"><ele>412.8</ele><time>2026-04-23T13:54:09Z</time></trkpt>
<trkpt lat="46.49128" lon="6.71622"><ele>413.4</ele><time>2026-04-23T13:54:15Z</time></trkpt>
<trkpt lat="46.49109" lon="6.71649"><ele>413.6</ele><time>2026-04-23T13:54:22Z</time></trkpt>
<trkpt lat="46.49103" lon="6.71657"><ele>413.8</ele><time>2026-04-23T13:54:24Z</time></trkpt>
<trkpt lat="46.49087" lon="6.71683"><ele>413.2</ele><time>2026-04-23T13:54:29Z</time></trkpt>
<trkpt lat="46.49079" lon="6.71697"><ele>412.8</ele><time>2026-04-23T13:54:31Z</time></trkpt>
<trkpt lat="46.49063" lon="6.71721"><ele>411.4</ele><time>2026-04-23T13:54:34Z</time></trkpt>
<trkpt lat="46.49056" lon="6.71727"><ele>411</ele><time>2026-04-23T13:54:35Z</time></trkpt>
<trkpt lat="46.49048" lon="6.71734"><ele>410</ele><time>2026-04-23T13:54:36Z</time></trkpt>
<trkpt lat="46.4904" lon="6.71741"><ele>408.8</ele><time>2026-04-23T13:54:37Z</time></trkpt>
<trkpt lat="46.49031" lon="6.71749"><ele>407.4</ele><time>2026-04-23T13:54:38Z</time></trkpt>
<trkpt lat="46.49024" lon="6.71758"><ele>407</ele><time>2026-04-23T13:54:39Z</time></trkpt>
<trkpt lat="46.49016" lon="6.71768"><ele>406</ele><time>2026-04-23T13:54:40Z</time></trkpt>
<trkpt lat="46.49008" lon="6.71776"><ele>405.2</ele><time>2026-04-23T13:54:41Z</time></trkpt>
<trkpt lat="46.48999" lon="6.71782"><ele>404.6</ele><time>2026-04-23T13:54:42Z</time></trkpt>
<trkpt lat="46.48991" lon="6.71787"><ele>404</ele><time>2026-04-23T13:54:43Z</time></trkpt>
<trkpt lat="46.48983" lon="6.71796"><ele>403.4</ele><time>2026-04-23T13:54:44Z</time></trkpt>
<trkpt lat="46.4897" lon="6.71817"><ele>402.4</ele><time>2026-04-23T13:54:46Z</time></trkpt>
<trkpt lat="46.48951" lon="6.71848"><ele>401.2</ele><time>2026-04-23T13:54:49Z</time></trkpt>
<trkpt lat="46.48932" lon="6.71879"><ele>399.8</ele><time>2026-04-23T13:54:52Z</time></trkpt>
<trkpt lat="46.48927" lon="6.71889"><ele>399.6</ele><time>2026-04-23T13:54:53Z</time></trkpt>
<trkpt lat="46.4891" lon="6.71922"><ele>400.4</ele><time>2026-04-23T13:54:57Z</time></trkpt>
<trkpt lat="46.48907" lon="6.71928"><ele>401</ele><time>2026-04-23T13:54:58Z</time></trkpt>
<trkpt lat="46.489" lon="6.71939"><ele>402.4</ele><time>2026-04-23T13:55:01Z</time></trkpt>
<trkpt lat="46.48894" lon="6.71948"><ele>403.4</ele><time>2026-04-23T13:55:05Z</time></trkpt>
<trkpt lat="46.48891" lon="6.71953"><ele>403.8</ele><time>2026-04-23T13:55:07Z</time></trkpt>
<trkpt lat="46.48875" lon="6.71979"><ele>404.4</ele><time>2026-04-23T13:55:14Z</time></trkpt>
<trkpt lat="46.48872" lon="6.71983"><ele>404.4</ele><time>2026-04-23T13:55:15Z</time></trkpt>
<trkpt lat="46.48858" lon="6.72006"><ele>404.2</ele><time>2026-04-23T13:55:20Z</time></trkpt>
<trkpt lat="46.48855" lon="6.72012"><ele>404.2</ele><time>2026-04-23T13:55:21Z</time></trkpt>
<trkpt lat="46.48836" lon="6.72058"><ele>403.8</ele><time>2026-04-23T13:55:29Z</time></trkpt>
<trkpt lat="46.48828" lon="6.7208"><ele>404.2</ele><time>2026-04-23T13:55:33Z</time></trkpt>
<trkpt lat="46.48821" lon="6.72106"><ele>404.4</ele><time>2026-04-23T13:55:38Z</time></trkpt>
<trkpt lat="46.48818" lon="6.72122"><ele>404.8</ele><time>2026-04-23T13:55:41Z</time></trkpt>
<trkpt lat="46.48817" lon="6.72134"><ele>405.6</ele><time>2026-04-23T13:55:44Z</time></trkpt>
<trkpt lat="46.48816" lon="6.72143"><ele>406.2</ele><time>2026-04-23T13:55:47Z</time></trkpt>
<trkpt lat="46.48815" lon="6.72153"><ele>406.6</ele><time>2026-04-23T13:55:50Z</time></trkpt>
<trkpt lat="46.48816" lon="6.7216"><ele>406.8</ele><time>2026-04-23T13:55:53Z</time></trkpt>
<trkpt lat="46.4882" lon="6.72165"><ele>407.6</ele><time>2026-04-23T13:55:59Z</time></trkpt>
<trkpt lat="46.48821" lon="6.72164"><ele>407.6</ele><time>2026-04-23T13:56:00Z</time></trkpt>
<trkpt lat="46.48822" lon="6.72163"><ele>407.8</ele><time>2026-04-23T13:56:01Z</time></trkpt>
<trkpt lat="46.48825" lon="6.72162"><ele>408.6</ele><time>2026-04-23T13:56:04Z</time></trkpt>
<trkpt lat="46.48829" lon="6.72161"><ele>409.8</ele><time>2026-04-23T13:56:08Z</time></trkpt>
<trkpt lat="46.48831" lon="6.7216"><ele>410.2</ele><time>2026-04-23T13:56:10Z</time></trkpt>
<trkpt lat="46.48834" lon="6.7216"><ele>411</ele><time>2026-04-23T13:56:13Z</time></trkpt>
<trkpt lat="46.48836" lon="6.72159"><ele>411.4</ele><time>2026-04-23T13:56:15Z</time></trkpt>
<trkpt lat="46.48839" lon="6.72158"><ele>412</ele><time>2026-04-23T13:56:18Z</time></trkpt>
<trkpt lat="46.48842" lon="6.72155"><ele>412.8</ele><time>2026-04-23T13:56:21Z</time></trkpt>
<trkpt lat="46.48843" lon="6.72155"><ele>413</ele><time>2026-04-23T13:56:22Z</time></trkpt>
<trkpt lat="46.48847" lon="6.72155"><ele>413.8</ele><time>2026-04-23T13:56:26Z</time></trkpt>
<trkpt lat="46.48848" lon="6.72155"><ele>414</ele><time>2026-04-23T13:56:27Z</time></trkpt>
<trkpt lat="46.48849" lon="6.72154"><ele>414.6</ele><time>2026-04-23T13:56:29Z</time></trkpt>
<trkpt lat="46.48851" lon="6.72154"><ele>415</ele><time>2026-04-23T13:56:31Z</time></trkpt>
<trkpt lat="46.48852" lon="6.72153"><ele>415.2</ele><time>2026-04-23T13:56:32Z</time></trkpt>
<trkpt lat="46.48854" lon="6.72149"><ele>416</ele><time>2026-04-23T13:56:35Z</time></trkpt>
<trkpt lat="46.48855" lon="6.72148"><ele>416.2</ele><time>2026-04-23T13:56:36Z</time></trkpt>
<trkpt lat="46.48856" lon="6.72147"><ele>416.4</ele><time>2026-04-23T13:56:37Z</time></trkpt>
<trkpt lat="46.48859" lon="6.7214"><ele>417</ele><time>2026-04-23T13:56:42Z</time></trkpt>
<trkpt lat="46.48861" lon="6.72133"><ele>417.4</ele><time>2026-04-23T13:56:46Z</time></trkpt>
<trkpt lat="46.48864" lon="6.72123"><ele>418</ele><time>2026-04-23T13:56:51Z</time></trkpt>
<trkpt lat="46.48867" lon="6.72117"><ele>418.6</ele><time>2026-04-23T13:56:55Z</time></trkpt>
<trkpt lat="46.4887" lon="6.72111"><ele>419</ele><time>2026-04-23T13:56:59Z</time></trkpt>
<trkpt lat="46.48871" lon="6.72109"><ele>419.2</ele><time>2026-04-23T13:57:00Z</time></trkpt>
<trkpt lat="46.48873" lon="6.72106"><ele>419.6</ele><time>2026-04-23T13:57:02Z</time></trkpt>
<trkpt lat="46.48878" lon="6.72097"><ele>420.6</ele><time>2026-04-23T13:57:08Z</time></trkpt>
<trkpt lat="46.4888" lon="6.72094"><ele>421</ele><time>2026-04-23T13:57:10Z</time></trkpt>
<trkpt lat="46.48883" lon="6.72087"><ele>421.8</ele><time>2026-04-23T13:57:14Z</time></trkpt>
<trkpt lat="46.48884" lon="6.72082"><ele>422.6</ele><time>2026-04-23T13:57:18Z</time></trkpt>
<trkpt lat="46.48885" lon="6.7208"><ele>422.8</ele><time>2026-04-23T13:57:19Z</time></trkpt>
<trkpt lat="46.48889" lon="6.72073"><ele>423.8</ele><time>2026-04-23T13:57:24Z</time></trkpt>
<trkpt lat="46.48893" lon="6.72062"><ele>424.6</ele><time>2026-04-23T13:57:30Z</time></trkpt>
<trkpt lat="46.48894" lon="6.72059"><ele>425</ele><time>2026-04-23T13:57:32Z</time></trkpt>
<trkpt lat="46.48896" lon="6.72049"><ele>425.4</ele><time>2026-04-23T13:57:36Z</time></trkpt>
<trkpt lat="46.489" lon="6.72039"><ele>426</ele><time>2026-04-23T13:57:41Z</time></trkpt>
<trkpt lat="46.48902" lon="6.72034"><ele>426.4</ele><time>2026-04-23T13:57:44Z</time></trkpt>
<trkpt lat="46.48907" lon="6.72026"><ele>427.2</ele><time>2026-04-23T13:57:50Z</time></trkpt>
<trkpt lat="46.48909" lon="6.72022"><ele>427.2</ele><time>2026-04-23T13:57:52Z</time></trkpt>
<trkpt lat="46.48913" lon="6.72017"><ele>427.8</ele><time>2026-04-23T13:57:56Z</time></trkpt>
<trkpt lat="46.48915" lon="6.72015"><ele>428</ele><time>2026-04-23T13:57:58Z</time></trkpt>
<trkpt lat="46.48916" lon="6.72013"><ele>428.2</ele><time>2026-04-23T13:57:59Z</time></trkpt>
<trkpt lat="46.48919" lon="6.72009"><ele>428.4</ele><time>2026-04-23T13:58:02Z</time></trkpt>
<trkpt lat="46.4892" lon="6.72007"><ele>428.4</ele><time>2026-04-23T13:58:03Z</time></trkpt>
<trkpt lat="46.48927" lon="6.71999"><ele>429.2</ele><time>2026-04-23T13:58:09Z</time></trkpt>
<trkpt lat="46.48935" lon="6.71988"><ele>430</ele><time>2026-04-23T13:58:17Z</time></trkpt>
<trkpt lat="46.48936" lon="6.71986"><ele>430.2</ele><time>2026-04-23T13:58:19Z</time></trkpt>
<trkpt lat="46.48935" lon="6.71986"><ele>430.4</ele><time>2026-04-23T13:58:22Z</time></trkpt>
<trkpt lat="46.48935" lon="6.71986"><ele>430</ele><time>2026-04-23T13:58:28Z</time></trkpt>
<trkpt lat="46.48935" lon="6.71986"><ele>430.2</ele><time>2026-04-23T13:58:33Z</time></trkpt>
<trkpt lat="46.48935" lon="6.71986"><ele>430.2</ele><time>2026-04-23T13:58:40Z</time></trkpt>
<trkpt lat="46.48935" lon="6.71986"><ele>430.2</ele><time>2026-04-23T13:58:41Z</time></trkpt>
<trkpt lat="46.48935" lon="6.71986"><ele>430.2</ele><time>2026-04-23T13:58:43Z</time></trkpt>
<trkpt lat="46.48935" lon="6.71986"><ele>430.2</ele><time>2026-04-23T13:58:46Z</time></trkpt>
<trkpt lat="46.48935" lon="6.71986"><ele>430.2</ele><time>2026-04-23T13:58:50Z</time></trkpt>
<trkpt lat="46.48935" lon="6.71986"><ele>430.2</ele><time>2026-04-23T13:58:52Z</time></trkpt>
<trkpt lat="46.48935" lon="6.71986"><ele>430.2</ele><time>2026-04-23T13:59:01Z</time></trkpt>
<trkpt lat="46.48935" lon="6.71986"><ele>430</ele><time>2026-04-23T13:59:02Z</time></trkpt>
<trkpt lat="46.48935" lon="6.71986"><ele>430</ele><time>2026-04-23T13:59:15Z</time></trkpt>
<trkpt lat="46.48935" lon="6.71986"><ele>430</ele><time>2026-04-23T13:59:17Z</time></trkpt>
<trkpt lat="46.48935" lon="6.71986"><ele>430</ele><time>2026-04-23T13:59:24Z</time></trkpt>
<trkpt lat="46.48935" lon="6.71986"><ele>430</ele><time>2026-04-23T13:59:37Z</time></trkpt>
<trkpt lat="46.48935" lon="6.71986"><ele>430</ele><time>2026-04-23T13:59:38Z</time></trkpt>
<trkpt lat="46.48935" lon="6.71986"><ele>430</ele><time>2026-04-23T13:59:40Z</time></trkpt>
<trkpt lat="46.48935" lon="6.71986"><ele>430</ele><time>2026-04-23T13:59:42Z</time></trkpt>
<trkpt lat="46.48935" lon="6.71986"><ele>430</ele><time>2026-04-23T13:59:56Z</time></trkpt>
<trkpt lat="46.48935" lon="6.71986"><ele>430</ele><time>2026-04-23T14:00:07Z</time></trkpt>
<trkpt lat="46.48935" lon="6.71986"><ele>430</ele><time>2026-04-23T14:00:08Z</time></trkpt>
<trkpt lat="46.48936" lon="6.71985"><ele>430</ele><time>2026-04-23T14:00:10Z</time></trkpt>
<trkpt lat="46.48939" lon="6.71984"><ele>430</ele><time>2026-04-23T14:00:13Z</time></trkpt>
<trkpt lat="46.48941" lon="6.7198"><ele>430</ele><time>2026-04-23T14:00:15Z</time></trkpt>
<trkpt lat="46.48948" lon="6.71975"><ele>431</ele><time>2026-04-23T14:00:21Z</time></trkpt>
<trkpt lat="46.4895" lon="6.71975"><ele>431</ele><time>2026-04-23T14:00:22Z</time></trkpt>
<trkpt lat="46.48958" lon="6.71979"><ele>431.6</ele><time>2026-04-23T14:00:27Z</time></trkpt>
<trkpt lat="46.4896" lon="6.71979"><ele>431.6</ele><time>2026-04-23T14:00:28Z</time></trkpt>
<trkpt lat="46.48967" lon="6.71981"><ele>431.8</ele><time>2026-04-23T14:00:31Z</time></trkpt>
<trkpt lat="46.48976" lon="6.71984"><ele>432</ele><time>2026-04-23T14:00:35Z</time></trkpt>
<trkpt lat="46.48983" lon="6.71984"><ele>432.4</ele><time>2026-04-23T14:00:38Z</time></trkpt>
<trkpt lat="46.48991" lon="6.71984"><ele>433.2</ele><time>2026-04-23T14:00:42Z</time></trkpt>
<trkpt lat="46.48997" lon="6.71984"><ele>433.8</ele><time>2026-04-23T14:00:45Z</time></trkpt>
<trkpt lat="46.49003" lon="6.71984"><ele>434.2</ele><time>2026-04-23T14:00:48Z</time></trkpt>
<trkpt lat="46.49009" lon="6.71984"><ele>435</ele><time>2026-04-23T14:00:52Z</time></trkpt>
<trkpt lat="46.49012" lon="6.71983"><ele>435.4</ele><time>2026-04-23T14:00:54Z</time></trkpt>
<trkpt lat="46.49018" lon="6.71978"><ele>436.4</ele><time>2026-04-23T14:00:58Z</time></trkpt>
<trkpt lat="46.49025" lon="6.71967"><ele>437.6</ele><time>2026-04-23T14:01:04Z</time></trkpt>
<trkpt lat="46.49029" lon="6.71962"><ele>438</ele><time>2026-04-23T14:01:07Z</time></trkpt>
<trkpt lat="46.49035" lon="6.71951"><ele>438.6</ele><time>2026-04-23T14:01:12Z</time></trkpt>
<trkpt lat="46.49037" lon="6.71945"><ele>438.8</ele><time>2026-04-23T14:01:14Z</time></trkpt>
<trkpt lat="46.49044" lon="6.71926"><ele>439.4</ele><time>2026-04-23T14:01:21Z</time></trkpt>
<trkpt lat="46.49047" lon="6.71921"><ele>439.6</ele><time>2026-04-23T14:01:23Z</time></trkpt>
<trkpt lat="46.49048" lon="6.71919"><ele>439.6</ele><time>2026-04-23T14:01:24Z</time></trkpt>
<trkpt lat="46.49059" lon="6.7191"><ele>439.8</ele><time>2026-04-23T14:01:29Z</time></trkpt>
<trkpt lat="46.49071" lon="6.71916"><ele>439.6</ele><time>2026-04-23T14:01:33Z</time></trkpt>
<trkpt lat="46.4908" lon="6.71925"><ele>438.6</ele><time>2026-04-23T14:01:37Z</time></trkpt>
<trkpt lat="46.49083" lon="6.71928"><ele>438.2</ele><time>2026-04-23T14:01:39Z</time></trkpt>
<trkpt lat="46.49084" lon="6.71928"><ele>438</ele><time>2026-04-23T14:01:40Z</time></trkpt>
<trkpt lat="46.49089" lon="6.71922"><ele>438.2</ele><time>2026-04-23T14:01:44Z</time></trkpt>
<trkpt lat="46.49096" lon="6.71898"><ele>439.6</ele><time>2026-04-23T14:01:54Z</time></trkpt>
<trkpt lat="46.49097" lon="6.71895"><ele>439.8</ele><time>2026-04-23T14:01:55Z</time></trkpt>
<trkpt lat="46.491" lon="6.71883"><ele>440.4</ele><time>2026-04-23T14:02:00Z</time></trkpt>
<trkpt lat="46.49103" lon="6.71877"><ele>440.8</ele><time>2026-04-23T14:02:03Z</time></trkpt>
<trkpt lat="46.49108" lon="6.7187"><ele>441.4</ele><time>2026-04-23T14:02:07Z</time></trkpt>
<trkpt lat="46.49113" lon="6.71867"><ele>441.8</ele><time>2026-04-23T14:02:11Z</time></trkpt>
<trkpt lat="46.49118" lon="6.71867"><ele>442.2</ele><time>2026-04-23T14:02:14Z</time></trkpt>
<trkpt lat="46.49127" lon="6.71868"><ele>443</ele><time>2026-04-23T14:02:19Z</time></trkpt>
<trkpt lat="46.49133" lon="6.71869"><ele>443.6</ele><time>2026-04-23T14:02:23Z</time></trkpt>
<trkpt lat="46.49137" lon="6.71869"><ele>444</ele><time>2026-04-23T14:02:26Z</time></trkpt>
<trkpt lat="46.49144" lon="6.7187"><ele>444.8</ele><time>2026-04-23T14:02:31Z</time></trkpt>
<trkpt lat="46.49147" lon="6.71869"><ele>445</ele><time>2026-04-23T14:02:33Z</time></trkpt>
<trkpt lat="46.49153" lon="6.71869"><ele>445.8</ele><time>2026-04-23T14:02:38Z</time></trkpt>
<trkpt lat="46.49156" lon="6.71868"><ele>446.2</ele><time>2026-04-23T14:02:40Z</time></trkpt>
<trkpt lat="46.49162" lon="6.71864"><ele>446.8</ele><time>2026-04-23T14:02:45Z</time></trkpt>
<trkpt lat="46.49164" lon="6.71862"><ele>447.2</ele><time>2026-04-23T14:02:47Z</time></trkpt>
<trkpt lat="46.49169" lon="6.71857"><ele>448</ele><time>2026-04-23T14:02:52Z</time></trkpt>
<trkpt lat="46.49169" lon="6.71856"><ele>448.2</ele><time>2026-04-23T14:02:53Z</time></trkpt>
<trkpt lat="46.49171" lon="6.71855"><ele>448.2</ele><time>2026-04-23T14:02:54Z</time></trkpt>
<trkpt lat="46.49172" lon="6.71854"><ele>448.6</ele><time>2026-04-23T14:02:56Z</time></trkpt>
<trkpt lat="46.49176" lon="6.71848"><ele>449.2</ele><time>2026-04-23T14:03:00Z</time></trkpt>
<trkpt lat="46.49177" lon="6.71847"><ele>449.4</ele><time>2026-04-23T14:03:01Z</time></trkpt>
<trkpt lat="46.49182" lon="6.71841"><ele>450.4</ele><time>2026-04-23T14:03:07Z</time></trkpt>
<trkpt lat="46.49188" lon="6.71835"><ele>451.4</ele><time>2026-04-23T14:03:13Z</time></trkpt>
<trkpt lat="46.49189" lon="6.71834"><ele>451.6</ele><time>2026-04-23T14:03:14Z</time></trkpt>
<trkpt lat="46.49194" lon="6.71829"><ele>452.6</ele><time>2026-04-23T14:03:20Z</time></trkpt>
<trkpt lat="46.492" lon="6.71822"><ele>453.6</ele><time>2026-04-23T14:03:26Z</time></trkpt>
<trkpt lat="46.49201" lon="6.7182"><ele>454</ele><time>2026-04-23T14:03:28Z</time></trkpt>
<trkpt lat="46.49204" lon="6.71816"><ele>454.6</ele><time>2026-04-23T14:03:32Z</time></trkpt>
<trkpt lat="46.49206" lon="6.71813"><ele>455.2</ele><time>2026-04-23T14:03:35Z</time></trkpt>
<trkpt lat="46.49209" lon="6.7181"><ele>455.8</ele><time>2026-04-23T14:03:39Z</time></trkpt>
<trkpt lat="46.49213" lon="6.71803"><ele>456.8</ele><time>2026-04-23T14:03:45Z</time></trkpt>
<trkpt lat="46.49214" lon="6.71802"><ele>456.8</ele><time>2026-04-23T14:03:46Z</time></trkpt>
<trkpt lat="46.49217" lon="6.71797"><ele>457.8</ele><time>2026-04-23T14:03:52Z</time></trkpt>
<trkpt lat="46.49223" lon="6.71791"><ele>458.8</ele><time>2026-04-23T14:03:59Z</time></trkpt>
<trkpt lat="46.49226" lon="6.71787"><ele>459.4</ele><time>2026-04-23T14:04:03Z</time></trkpt>
<trkpt lat="46.49227" lon="6.71785"><ele>459.6</ele><time>2026-04-23T14:04:05Z</time></trkpt>
<trkpt lat="46.49228" lon="6.71782"><ele>460</ele><time>2026-04-23T14:04:07Z</time></trkpt>
<trkpt lat="46.4923" lon="6.71776"><ele>460.6</ele><time>2026-04-23T14:04:11Z</time></trkpt>
<trkpt lat="46.49231" lon="6.71773"><ele>461.2</ele><time>2026-04-23T14:04:14Z</time></trkpt>
<trkpt lat="46.49234" lon="6.71766"><ele>461.8</ele><time>2026-04-23T14:04:19Z</time></trkpt>
<trkpt lat="46.49235" lon="6.71764"><ele>462.2</ele><time>2026-04-23T14:04:21Z</time></trkpt>
<trkpt lat="46.49239" lon="6.71757"><ele>463.2</ele><time>2026-04-23T14:04:27Z</time></trkpt>
<trkpt lat="46.49239" lon="6.71756"><ele>463.2</ele><time>2026-04-23T14:04:28Z</time></trkpt>
<trkpt lat="46.49242" lon="6.71748"><ele>464.4</ele><time>2026-04-23T14:04:35Z</time></trkpt>
<trkpt lat="46.49242" lon="6.71747"><ele>464.6</ele><time>2026-04-23T14:04:36Z</time></trkpt>
<trkpt lat="46.49243" lon="6.71738"><ele>465.4</ele><time>2026-04-23T14:04:42Z</time></trkpt>
<trkpt lat="46.49243" lon="6.71737"><ele>465.6</ele><time>2026-04-23T14:04:43Z</time></trkpt>
<trkpt lat="46.49247" lon="6.71732"><ele>466.4</ele><time>2026-04-23T14:04:48Z</time></trkpt>
<trkpt lat="46.49248" lon="6.71731"><ele>466.8</ele><time>2026-04-23T14:04:50Z</time></trkpt>
<trkpt lat="46.49251" lon="6.71724"><ele>467.4</ele><time>2026-04-23T14:04:55Z</time></trkpt>
<trkpt lat="46.49252" lon="6.71721"><ele>468</ele><time>2026-04-23T14:04:58Z</time></trkpt>
<trkpt lat="46.49254" lon="6.71716"><ele>468.6</ele><time>2026-04-23T14:05:02Z</time></trkpt>
<trkpt lat="46.49256" lon="6.71712"><ele>469.2</ele><time>2026-04-23T14:05:05Z</time></trkpt>
<trkpt lat="46.49257" lon="6.7171"><ele>469.4</ele><time>2026-04-23T14:05:07Z</time></trkpt>
<trkpt lat="46.49258" lon="6.71709"><ele>469.6</ele><time>2026-04-23T14:05:09Z</time></trkpt>
<trkpt lat="46.49259" lon="6.71707"><ele>470</ele><time>2026-04-23T14:05:11Z</time></trkpt>
<trkpt lat="46.49263" lon="6.717"><ele>470.8</ele><time>2026-04-23T14:05:17Z</time></trkpt>
<trkpt lat="46.49265" lon="6.71698"><ele>471.2</ele><time>2026-04-23T14:05:20Z</time></trkpt>
<trkpt lat="46.49267" lon="6.71692"><ele>471.8</ele><time>2026-04-23T14:05:24Z</time></trkpt>
<trkpt lat="46.49269" lon="6.7169"><ele>472.2</ele><time>2026-04-23T14:05:26Z</time></trkpt>
<trkpt lat="46.49272" lon="6.71684"><ele>473</ele><time>2026-04-23T14:05:31Z</time></trkpt>
<trkpt lat="46.49273" lon="6.71683"><ele>473.2</ele><time>2026-04-23T14:05:32Z</time></trkpt>
<trkpt lat="46.49276" lon="6.71677"><ele>474</ele><time>2026-04-23T14:05:38Z</time></trkpt>
<trkpt lat="46.49277" lon="6.71676"><ele>474.2</ele><time>2026-04-23T14:05:39Z</time></trkpt>
<trkpt lat="46.4928" lon="6.71671"><ele>475.2</ele><time>2026-04-23T14:05:44Z</time></trkpt>
<trkpt lat="46.49281" lon="6.71669"><ele>475.4</ele><time>2026-04-23T14:05:46Z</time></trkpt>
<trkpt lat="46.49283" lon="6.71663"><ele>476.2</ele><time>2026-04-23T14:05:51Z</time></trkpt>
<trkpt lat="46.49284" lon="6.71661"><ele>476.4</ele><time>2026-04-23T14:05:53Z</time></trkpt>
<trkpt lat="46.49289" lon="6.71658"><ele>477.2</ele><time>2026-04-23T14:05:58Z</time></trkpt>
<trkpt lat="46.49294" lon="6.71654"><ele>478.2</ele><time>2026-04-23T14:06:04Z</time></trkpt>
<trkpt lat="46.49294" lon="6.71654"><ele>478.2</ele><time>2026-04-23T14:06:05Z</time></trkpt>
<trkpt lat="46.49298" lon="6.71652"><ele>478.8</ele><time>2026-04-23T14:06:09Z</time></trkpt>
<trkpt lat="46.49301" lon="6.71649"><ele>479.4</ele><time>2026-04-23T14:06:12Z</time></trkpt>
<trkpt lat="46.49304" lon="6.71648"><ele>479.8</ele><time>2026-04-23T14:06:15Z</time></trkpt>
<trkpt lat="46.49308" lon="6.71646"><ele>480.4</ele><time>2026-04-23T14:06:19Z</time></trkpt>
<trkpt lat="46.49309" lon="6.71646"><ele>480.6</ele><time>2026-04-23T14:06:20Z</time></trkpt>
<trkpt lat="46.49315" lon="6.71644"><ele>481.6</ele><time>2026-04-23T14:06:25Z</time></trkpt>
<trkpt lat="46.49318" lon="6.71643"><ele>482.2</ele><time>2026-04-23T14:06:28Z</time></trkpt>
<trkpt lat="46.49321" lon="6.71642"><ele>482.8</ele><time>2026-04-23T14:06:31Z</time></trkpt>
<trkpt lat="46.49326" lon="6.71639"><ele>483.6</ele><time>2026-04-23T14:06:36Z</time></trkpt>
<trkpt lat="46.49327" lon="6.71638"><ele>483.8</ele><time>2026-04-23T14:06:37Z</time></trkpt>
<trkpt lat="46.49331" lon="6.71636"><ele>484.8</ele><time>2026-04-23T14:06:42Z</time></trkpt>
<trkpt lat="46.49334" lon="6.71635"><ele>485.4</ele><time>2026-04-23T14:06:44Z</time></trkpt>
<trkpt lat="46.49337" lon="6.71633"><ele>486</ele><time>2026-04-23T14:06:47Z</time></trkpt>
<trkpt lat="46.49342" lon="6.71629"><ele>486.8</ele><time>2026-04-23T14:06:51Z</time></trkpt>
<trkpt lat="46.49342" lon="6.71628"><ele>487</ele><time>2026-04-23T14:06:52Z</time></trkpt>
<trkpt lat="46.49347" lon="6.71624"><ele>487.6</ele><time>2026-04-23T14:06:56Z</time></trkpt>
<trkpt lat="46.49349" lon="6.71622"><ele>488.2</ele><time>2026-04-23T14:06:59Z</time></trkpt>
<trkpt lat="46.49352" lon="6.71623"><ele>488.6</ele><time>2026-04-23T14:07:02Z</time></trkpt>
<trkpt lat="46.49355" lon="6.71626"><ele>489.2</ele><time>2026-04-23T14:07:05Z</time></trkpt>
<trkpt lat="46.49356" lon="6.71628"><ele>489.2</ele><time>2026-04-23T14:07:06Z</time></trkpt>
<trkpt lat="46.49356" lon="6.71629"><ele>489.4</ele><time>2026-04-23T14:07:07Z</time></trkpt>
<trkpt lat="46.49353" lon="6.71635"><ele>489.6</ele><time>2026-04-23T14:07:11Z</time></trkpt>
<trkpt lat="46.49348" lon="6.71645"><ele>489.8</ele><time>2026-04-23T14:07:18Z</time></trkpt>
<trkpt lat="46.49342" lon="6.71651"><ele>490</ele><time>2026-04-23T14:07:24Z</time></trkpt>
<trkpt lat="46.49338" lon="6.71649"><ele>490.2</ele><time>2026-04-23T14:07:28Z</time></trkpt>
<trkpt lat="46.49337" lon="6.71648"><ele>490.4</ele><time>2026-04-23T14:07:29Z</time></trkpt>
<trkpt lat="46.49336" lon="6.71649"><ele>490.4</ele><time>2026-04-23T14:07:30Z</time></trkpt>
<trkpt lat="46.49335" lon="6.71651"><ele>490.2</ele><time>2026-04-23T14:07:33Z</time></trkpt>
<trkpt lat="46.49336" lon="6.71655"><ele>490.4</ele><time>2026-04-23T14:07:36Z</time></trkpt>
<trkpt lat="46.49336" lon="6.71662"><ele>490.4</ele><time>2026-04-23T14:07:40Z</time></trkpt>
<trkpt lat="46.49336" lon="6.71666"><ele>490.4</ele><time>2026-04-23T14:07:42Z</time></trkpt>
<trkpt lat="46.49336" lon="6.71667"><ele>490.4</ele><time>2026-04-23T14:07:43Z</time></trkpt>
<trkpt lat="46.49332" lon="6.71672"><ele>490.2</ele><time>2026-04-23T14:07:47Z</time></trkpt>
<trkpt lat="46.49331" lon="6.71674"><ele>490.2</ele><time>2026-04-23T14:07:48Z</time></trkpt>
<trkpt lat="46.4933" lon="6.71677"><ele>489.8</ele><time>2026-04-23T14:07:50Z</time></trkpt>
<trkpt lat="46.49329" lon="6.71683"><ele>489.2</ele><time>2026-04-23T14:07:54Z</time></trkpt>
<trkpt lat="46.49329" lon="6.71684"><ele>489.2</ele><time>2026-04-23T14:07:55Z</time></trkpt>
<trkpt lat="46.49327" lon="6.71687"><ele>489.2</ele><time>2026-04-23T14:07:59Z</time></trkpt>
<trkpt lat="46.49326" lon="6.71689"><ele>489.2</ele><time>2026-04-23T14:08:05Z</time></trkpt>
<trkpt lat="46.49325" lon="6.71688"><ele>489.4</ele><time>2026-04-23T14:08:10Z</time></trkpt>
<trkpt lat="46.49326" lon="6.71688"><ele>489.2</ele><time>2026-04-23T14:08:12Z</time></trkpt>
<trkpt lat="46.49325" lon="6.71688"><ele>489.4</ele><time>2026-04-23T14:08:18Z</time></trkpt>
<trkpt lat="46.49325" lon="6.71688"><ele>489.4</ele><time>2026-04-23T14:08:21Z</time></trkpt>
<trkpt lat="46.49325" lon="6.71692"><ele>489.2</ele><time>2026-04-23T14:08:24Z</time></trkpt>
<trkpt lat="46.49326" lon="6.71698"><ele>489.2</ele><time>2026-04-23T14:08:30Z</time></trkpt>
<trkpt lat="46.49326" lon="6.71698"><ele>489.2</ele><time>2026-04-23T14:08:32Z</time></trkpt>
<trkpt lat="46.49327" lon="6.71698"><ele>489.4</ele><time>2026-04-23T14:08:36Z</time></trkpt>
<trkpt lat="46.49327" lon="6.71698"><ele>489.4</ele><time>2026-04-23T14:08:44Z</time></trkpt>
<trkpt lat="46.49327" lon="6.71698"><ele>489.4</ele><time>2026-04-23T14:08:49Z</time></trkpt>
<trkpt lat="46.49327" lon="6.71698"><ele>489.4</ele><time>2026-04-23T14:08:50Z</time></trkpt>
<trkpt lat="46.49327" lon="6.71699"><ele>489.4</ele><time>2026-04-23T14:08:56Z</time></trkpt>
<trkpt lat="46.49327" lon="6.717"><ele>489.6</ele><time>2026-04-23T14:09:03Z</time></trkpt>
<trkpt lat="46.49328" lon="6.71698"><ele>489.6</ele><time>2026-04-23T14:09:09Z</time></trkpt>
<trkpt lat="46.49328" lon="6.71698"><ele>489.4</ele><time>2026-04-23T14:09:10Z</time></trkpt>
<trkpt lat="46.49327" lon="6.71699"><ele>489.4</ele><time>2026-04-23T14:09:17Z</time></trkpt>
<trkpt lat="46.49326" lon="6.71697"><ele>489.4</ele><time>2026-04-23T14:09:25Z</time></trkpt>
<trkpt lat="46.49327" lon="6.71695"><ele>489.4</ele><time>2026-04-23T14:09:28Z</time></trkpt>
<trkpt lat="46.49326" lon="6.71694"><ele>489.2</ele><time>2026-04-23T14:09:30Z</time></trkpt>
<trkpt lat="46.49324" lon="6.7169"><ele>489.4</ele><time>2026-04-23T14:09:36Z</time></trkpt>
<trkpt lat="46.49325" lon="6.71684"><ele>489.4</ele><time>2026-04-23T14:09:43Z</time></trkpt>
<trkpt lat="46.49328" lon="6.7168"><ele>489.4</ele><time>2026-04-23T14:09:48Z</time></trkpt>
<trkpt lat="46.49329" lon="6.71679"><ele>489.4</ele><time>2026-04-23T14:09:49Z</time></trkpt>
<trkpt lat="46.49333" lon="6.71673"><ele>489.8</ele><time>2026-04-23T14:09:55Z</time></trkpt>
<trkpt lat="46.49333" lon="6.71674"><ele>490</ele><time>2026-04-23T14:09:57Z</time></trkpt>
<trkpt lat="46.49334" lon="6.71673"><ele>490</ele><time>2026-04-23T14:09:59Z</time></trkpt>
<trkpt lat="46.49337" lon="6.71667"><ele>490.4</ele><time>2026-04-23T14:10:03Z</time></trkpt>
<trkpt lat="46.49338" lon="6.71665"><ele>490.6</ele><time>2026-04-23T14:10:04Z</time></trkpt>
<trkpt lat="46.49347" lon="6.71654"><ele>490.8</ele><time>2026-04-23T14:10:09Z</time></trkpt>
<trkpt lat="46.4935" lon="6.71654"><ele>490.6</ele><time>2026-04-23T14:10:10Z</time></trkpt>
<trkpt lat="46.49354" lon="6.71657"><ele>490.4</ele><time>2026-04-23T14:10:11Z</time></trkpt>
<trkpt lat="46.49362" lon="6.71664"><ele>489.8</ele><time>2026-04-23T14:10:13Z</time></trkpt>
<trkpt lat="46.49368" lon="6.71668"><ele>489.2</ele><time>2026-04-23T14:10:14Z</time></trkpt>
<trkpt lat="46.49377" lon="6.71677"><ele>488.4</ele><time>2026-04-23T14:10:16Z</time></trkpt>
<trkpt lat="46.4938" lon="6.71684"><ele>488</ele><time>2026-04-23T14:10:17Z</time></trkpt>
<trkpt lat="46.49382" lon="6.71691"><ele>487.8</ele><time>2026-04-23T14:10:18Z</time></trkpt>
<trkpt lat="46.49382" lon="6.71705"><ele>488</ele><time>2026-04-23T14:10:20Z</time></trkpt>
<trkpt lat="46.49381" lon="6.71711"><ele>488.2</ele><time>2026-04-23T14:10:21Z</time></trkpt>
<trkpt lat="46.49382" lon="6.71733"><ele>488.8</ele><time>2026-04-23T14:10:26Z</time></trkpt>
<trkpt lat="46.49377" lon="6.71762"><ele>488.6</ele><time>2026-04-23T14:10:32Z</time></trkpt>
<trkpt lat="46.49376" lon="6.71785"><ele>487.4</ele><time>2026-04-23T14:10:35Z</time></trkpt>
<trkpt lat="46.49376" lon="6.71794"><ele>487</ele><time>2026-04-23T14:10:36Z</time></trkpt>
<trkpt lat="46.49376" lon="6.71825"><ele>485.6</ele><time>2026-04-23T14:10:39Z</time></trkpt>
<trkpt lat="46.49375" lon="6.71844"><ele>485</ele><time>2026-04-23T14:10:41Z</time></trkpt>
<trkpt lat="46.49373" lon="6.71863"><ele>484.6</ele><time>2026-04-23T14:10:43Z</time></trkpt>
<trkpt lat="46.49371" lon="6.71892"><ele>483.8</ele><time>2026-04-23T14:10:46Z</time></trkpt>
<trkpt lat="46.49371" lon="6.71912"><ele>483.4</ele><time>2026-04-23T14:10:48Z</time></trkpt>
<trkpt lat="46.49372" lon="6.71921"><ele>483.4</ele><time>2026-04-23T14:10:49Z</time></trkpt>
<trkpt lat="46.49379" lon="6.71955"><ele>484.4</ele><time>2026-04-23T14:10:54Z</time></trkpt>
<trkpt lat="46.4938" lon="6.71959"><ele>484.6</ele><time>2026-04-23T14:10:55Z</time></trkpt>
<trkpt lat="46.49385" lon="6.71969"><ele>485.4</ele><time>2026-04-23T14:10:58Z</time></trkpt>
<trkpt lat="46.49386" lon="6.71972"><ele>485.6</ele><time>2026-04-23T14:10:59Z</time></trkpt>
<trkpt lat="46.49388" lon="6.71974"><ele>485.8</ele><time>2026-04-23T14:11:00Z</time></trkpt>
<trkpt lat="46.49394" lon="6.71988"><ele>487</ele><time>2026-04-23T14:11:05Z</time></trkpt>
<trkpt lat="46.49396" lon="6.71993"><ele>487.4</ele><time>2026-04-23T14:11:07Z</time></trkpt>
<trkpt lat="46.494" lon="6.72007"><ele>488</ele><time>2026-04-23T14:11:12Z</time></trkpt>
<trkpt lat="46.494" lon="6.7202"><ele>488.8</ele><time>2026-04-23T14:11:16Z</time></trkpt>
<trkpt lat="46.494" lon="6.72029"><ele>489.2</ele><time>2026-04-23T14:11:19Z</time></trkpt>
<trkpt lat="46.49399" lon="6.72046"><ele>490</ele><time>2026-04-23T14:11:25Z</time></trkpt>
<trkpt lat="46.494" lon="6.72051"><ele>490.2</ele><time>2026-04-23T14:11:27Z</time></trkpt>
<trkpt lat="46.49402" lon="6.72064"><ele>490.8</ele><time>2026-04-23T14:11:32Z</time></trkpt>
<trkpt lat="46.49407" lon="6.72076"><ele>491</ele><time>2026-04-23T14:11:39Z</time></trkpt>
<trkpt lat="46.49406" lon="6.72076"><ele>490.8</ele><time>2026-04-23T14:11:44Z</time></trkpt>
<trkpt lat="46.49406" lon="6.72076"><ele>490.8</ele><time>2026-04-23T14:11:45Z</time></trkpt>
<trkpt lat="46.49406" lon="6.72076"><ele>490.6</ele><time>2026-04-23T14:11:50Z</time></trkpt>
<trkpt lat="46.49407" lon="6.72076"><ele>490.6</ele><time>2026-04-23T14:11:55Z</time></trkpt>
<trkpt lat="46.49407" lon="6.72076"><ele>490.8</ele><time>2026-04-23T14:12:03Z</time></trkpt>
<trkpt lat="46.49407" lon="6.72076"><ele>490.8</ele><time>2026-04-23T14:12:15Z</time></trkpt>
<trkpt lat="46.49407" lon="6.72076"><ele>490.6</ele><time>2026-04-23T14:12:21Z</time></trkpt>
<trkpt lat="46.49407" lon="6.72076"><ele>490.8</ele><time>2026-04-23T14:12:27Z</time></trkpt>
<trkpt lat="46.49407" lon="6.72077"><ele>490.6</ele><time>2026-04-23T14:12:33Z</time></trkpt>
<trkpt lat="46.49408" lon="6.72076"><ele>490.6</ele><time>2026-04-23T14:12:34Z</time></trkpt>
<trkpt lat="46.49407" lon="6.72076"><ele>490.6</ele><time>2026-04-23T14:12:38Z</time></trkpt>
<trkpt lat="46.49408" lon="6.72075"><ele>490.6</ele><time>2026-04-23T14:12:43Z</time></trkpt>
<trkpt lat="46.49407" lon="6.72076"><ele>490.6</ele><time>2026-04-23T14:12:49Z</time></trkpt>
<trkpt lat="46.49407" lon="6.72076"><ele>490.6</ele><time>2026-04-23T14:12:57Z</time></trkpt>
<trkpt lat="46.49407" lon="6.72076"><ele>490.6</ele><time>2026-04-23T14:13:03Z</time></trkpt>
<trkpt lat="46.49407" lon="6.72076"><ele>490.6</ele><time>2026-04-23T14:13:06Z</time></trkpt>
<trkpt lat="46.49409" lon="6.72081"><ele>490.8</ele><time>2026-04-23T14:13:08Z</time></trkpt>
<trkpt lat="46.49411" lon="6.721"><ele>490.2</ele><time>2026-04-23T14:13:13Z</time></trkpt>
<trkpt lat="46.49411" lon="6.72104"><ele>489.8</ele><time>2026-04-23T14:13:17Z</time></trkpt>
<trkpt lat="46.49412" lon="6.72115"><ele>489.8</ele><time>2026-04-23T14:13:21Z</time></trkpt>
<trkpt lat="46.49411" lon="6.72125"><ele>489.4</ele><time>2026-04-23T14:13:23Z</time></trkpt>
<trkpt lat="46.49412" lon="6.72135"><ele>489.2</ele><time>2026-04-23T14:13:25Z</time></trkpt>
<trkpt lat="46.49412" lon="6.72141"><ele>489.2</ele><time>2026-04-23T14:13:26Z</time></trkpt>
<trkpt lat="46.49412" lon="6.72148"><ele>489.2</ele><time>2026-04-23T14:13:27Z</time></trkpt>
<trkpt lat="46.49414" lon="6.72183"><ele>488.2</ele><time>2026-04-23T14:13:32Z</time></trkpt>
<trkpt lat="46.49414" lon="6.72191"><ele>488</ele><time>2026-04-23T14:13:33Z</time></trkpt>
<trkpt lat="46.49415" lon="6.72212"><ele>487.4</ele><time>2026-04-23T14:13:36Z</time></trkpt>
<trkpt lat="46.49416" lon="6.72231"><ele>487.4</ele><time>2026-04-23T14:13:39Z</time></trkpt>
<trkpt lat="46.49418" lon="6.72288"><ele>488</ele><time>2026-04-23T14:13:47Z</time></trkpt>
<trkpt lat="46.49422" lon="6.72343"><ele>488.2</ele><time>2026-04-23T14:13:55Z</time></trkpt>
<trkpt lat="46.49425" lon="6.72381"><ele>488.6</ele><time>2026-04-23T14:14:02Z</time></trkpt>
<trkpt lat="46.49425" lon="6.72409"><ele>488.8</ele><time>2026-04-23T14:14:07Z</time></trkpt>
<trkpt lat="46.49426" lon="6.72415"><ele>488.8</ele><time>2026-04-23T14:14:08Z</time></trkpt>
<trkpt lat="46.49427" lon="6.72427"><ele>489</ele><time>2026-04-23T14:14:10Z</time></trkpt>
<trkpt lat="46.49429" lon="6.72472"><ele>489.8</ele><time>2026-04-23T14:14:18Z</time></trkpt>
<trkpt lat="46.49429" lon="6.72477"><ele>490</ele><time>2026-04-23T14:14:19Z</time></trkpt>
<trkpt lat="46.49432" lon="6.72518"><ele>491</ele><time>2026-04-23T14:14:27Z</time></trkpt>
<trkpt lat="46.49433" lon="6.72523"><ele>491.2</ele><time>2026-04-23T14:14:28Z</time></trkpt>
<trkpt lat="46.49439" lon="6.7254"><ele>491.6</ele><time>2026-04-23T14:14:32Z</time></trkpt>
<trkpt lat="46.4945" lon="6.7256"><ele>492.2</ele><time>2026-04-23T14:14:37Z</time></trkpt>
<trkpt lat="46.49456" lon="6.72566"><ele>492.4</ele><time>2026-04-23T14:14:39Z</time></trkpt>
<trkpt lat="46.49473" lon="6.72582"><ele>492.8</ele><time>2026-04-23T14:14:44Z</time></trkpt>
<trkpt lat="46.4949" lon="6.72595"><ele>493.2</ele><time>2026-04-23T14:14:49Z</time></trkpt>
<trkpt lat="46.49493" lon="6.726"><ele>493.4</ele><time>2026-04-23T14:14:50Z</time></trkpt>
<trkpt lat="46.49497" lon="6.72617"><ele>494</ele><time>2026-04-23T14:14:54Z</time></trkpt>
<trkpt lat="46.49495" lon="6.72628"><ele>494.4</ele><time>2026-04-23T14:14:57Z</time></trkpt>
<trkpt lat="46.49492" lon="6.72634"><ele>494.8</ele><time>2026-04-23T14:14:59Z</time></trkpt>
<trkpt lat="46.49487" lon="6.7264"><ele>495.4</ele><time>2026-04-23T14:15:02Z</time></trkpt>
<trkpt lat="46.49485" lon="6.72642"><ele>495.6</ele><time>2026-04-23T14:15:03Z</time></trkpt>
<trkpt lat="46.49481" lon="6.72649"><ele>496</ele><time>2026-04-23T14:15:06Z</time></trkpt>
<trkpt lat="46.4948" lon="6.72651"><ele>496.2</ele><time>2026-04-23T14:15:07Z</time></trkpt>
<trkpt lat="46.49477" lon="6.72654"><ele>496.6</ele><time>2026-04-23T14:15:09Z</time></trkpt>
<trkpt lat="46.49472" lon="6.72664"><ele>497.6</ele><time>2026-04-23T14:15:14Z</time></trkpt>
<trkpt lat="46.49464" lon="6.72678"><ele>498.4</ele><time>2026-04-23T14:15:22Z</time></trkpt>
<trkpt lat="46.49463" lon="6.7268"><ele>498.6</ele><time>2026-04-23T14:15:23Z</time></trkpt>
<trkpt lat="46.49454" lon="6.72698"><ele>499.4</ele><time>2026-04-23T14:15:32Z</time></trkpt>
<trkpt lat="46.49452" lon="6.72703"><ele>499.8</ele><time>2026-04-23T14:15:34Z</time></trkpt>
<trkpt lat="46.49447" lon="6.72718"><ele>500.8</ele><time>2026-04-23T14:15:41Z</time></trkpt>
<trkpt lat="46.49439" lon="6.72733"><ele>502</ele><time>2026-04-23T14:15:48Z</time></trkpt>
<trkpt lat="46.49437" lon="6.72737"><ele>502.4</ele><time>2026-04-23T14:15:50Z</time></trkpt>
<trkpt lat="46.49431" lon="6.72744"><ele>503</ele><time>2026-04-23T14:15:54Z</time></trkpt>
<trkpt lat="46.49427" lon="6.72748"><ele>503.4</ele><time>2026-04-23T14:15:57Z</time></trkpt>
<trkpt lat="46.49422" lon="6.72754"><ele>504.2</ele><time>2026-04-23T14:16:01Z</time></trkpt>
<trkpt lat="46.49417" lon="6.72758"><ele>504.6</ele><time>2026-04-23T14:16:04Z</time></trkpt>
<trkpt lat="46.49411" lon="6.72763"><ele>505.2</ele><time>2026-04-23T14:16:08Z</time></trkpt>
<trkpt lat="46.49401" lon="6.72774"><ele>506.4</ele><time>2026-04-23T14:16:15Z</time></trkpt>
<trkpt lat="46.49391" lon="6.72783"><ele>507.4</ele><time>2026-04-23T14:16:22Z</time></trkpt>
<trkpt lat="46.49382" lon="6.72791"><ele>508.4</ele><time>2026-04-23T14:16:28Z</time></trkpt>
<trkpt lat="46.49379" lon="6.72795"><ele>508.6</ele><time>2026-04-23T14:16:30Z</time></trkpt>
<trkpt lat="46.49373" lon="6.72813"><ele>509.6</ele><time>2026-04-23T14:16:38Z</time></trkpt>
<trkpt lat="46.49375" lon="6.72831"><ele>510.6</ele><time>2026-04-23T14:16:45Z</time></trkpt>
<trkpt lat="46.49375" lon="6.72833"><ele>510.8</ele><time>2026-04-23T14:16:46Z</time></trkpt>
<trkpt lat="46.49384" lon="6.72846"><ele>511.4</ele><time>2026-04-23T14:16:53Z</time></trkpt>
<trkpt lat="46.49388" lon="6.72849"><ele>511.6</ele><time>2026-04-23T14:16:55Z</time></trkpt>
<trkpt lat="46.49396" lon="6.72853"><ele>512.4</ele><time>2026-04-23T14:17:00Z</time></trkpt>
<trkpt lat="46.49399" lon="6.72853"><ele>512.8</ele><time>2026-04-23T14:17:02Z</time></trkpt>
<trkpt lat="46.4941" lon="6.72848"><ele>513.6</ele><time>2026-04-23T14:17:08Z</time></trkpt>
<trkpt lat="46.49413" lon="6.72844"><ele>513.8</ele><time>2026-04-23T14:17:10Z</time></trkpt>
<trkpt lat="46.49422" lon="6.72832"><ele>514.6</ele><time>2026-04-23T14:17:16Z</time></trkpt>
<trkpt lat="46.49425" lon="6.72828"><ele>515</ele><time>2026-04-23T14:17:18Z</time></trkpt>
<trkpt lat="46.49436" lon="6.72813"><ele>515.8</ele><time>2026-04-23T14:17:26Z</time></trkpt>
<trkpt lat="46.49438" lon="6.72811"><ele>516</ele><time>2026-04-23T14:17:27Z</time></trkpt>
<trkpt lat="46.49445" lon="6.72803"><ele>517.2</ele><time>2026-04-23T14:17:32Z</time></trkpt>
<trkpt lat="46.49446" lon="6.72801"><ele>517.4</ele><time>2026-04-23T14:17:33Z</time></trkpt>
<trkpt lat="46.49454" lon="6.72793"><ele>518.4</ele><time>2026-04-23T14:17:40Z</time></trkpt>
<trkpt lat="46.49455" lon="6.72792"><ele>518.4</ele><time>2026-04-23T14:17:41Z</time></trkpt>
<trkpt lat="46.49457" lon="6.7279"><ele>518.8</ele><time>2026-04-23T14:17:43Z</time></trkpt>
<trkpt lat="46.49459" lon="6.72793"><ele>519.2</ele><time>2026-04-23T14:17:46Z</time></trkpt>
<trkpt lat="46.49459" lon="6.72795"><ele>519.4</ele><time>2026-04-23T14:17:47Z</time></trkpt>
<trkpt lat="46.49459" lon="6.72796"><ele>519.4</ele><time>2026-04-23T14:17:48Z</time></trkpt>
<trkpt lat="46.49457" lon="6.728"><ele>520</ele><time>2026-04-23T14:17:51Z</time></trkpt>
<trkpt lat="46.49449" lon="6.72812"><ele>520</ele><time>2026-04-23T14:17:58Z</time></trkpt>
<trkpt lat="46.49443" lon="6.72822"><ele>520.2</ele><time>2026-04-23T14:18:04Z</time></trkpt>
<trkpt lat="46.4944" lon="6.72828"><ele>520.2</ele><time>2026-04-23T14:18:08Z</time></trkpt>
<trkpt lat="46.49442" lon="6.72829"><ele>520</ele><time>2026-04-23T14:18:10Z</time></trkpt>
<trkpt lat="46.49446" lon="6.72819"><ele>520.2</ele><time>2026-04-23T14:18:15Z</time></trkpt>
<trkpt lat="46.4945" lon="6.7281"><ele>520.2</ele><time>2026-04-23T14:18:19Z</time></trkpt>
<trkpt lat="46.49456" lon="6.72801"><ele>520.2</ele><time>2026-04-23T14:18:23Z</time></trkpt>
<trkpt lat="46.4946" lon="6.728"><ele>520.2</ele><time>2026-04-23T14:18:25Z</time></trkpt>
<trkpt lat="46.49461" lon="6.72803"><ele>520.4</ele><time>2026-04-23T14:18:27Z</time></trkpt>
<trkpt lat="46.49462" lon="6.72804"><ele>520.6</ele><time>2026-04-23T14:18:28Z</time></trkpt>
<trkpt lat="46.49464" lon="6.72809"><ele>521.4</ele><time>2026-04-23T14:18:32Z</time></trkpt>
<trkpt lat="46.49465" lon="6.7281"><ele>521.6</ele><time>2026-04-23T14:18:33Z</time></trkpt>
<trkpt lat="46.49468" lon="6.72819"><ele>522.6</ele><time>2026-04-23T14:18:39Z</time></trkpt>
<trkpt lat="46.49472" lon="6.72827"><ele>523.8</ele><time>2026-04-23T14:18:46Z</time></trkpt>
<trkpt lat="46.49473" lon="6.72829"><ele>524</ele><time>2026-04-23T14:18:47Z</time></trkpt>
<trkpt lat="46.49475" lon="6.72836"><ele>524.8</ele><time>2026-04-23T14:18:52Z</time></trkpt>
<trkpt lat="46.49475" lon="6.72837"><ele>525</ele><time>2026-04-23T14:18:53Z</time></trkpt>
<trkpt lat="46.49475" lon="6.72842"><ele>525.4</ele><time>2026-04-23T14:18:56Z</time></trkpt>
<trkpt lat="46.49475" lon="6.72844"><ele>525.6</ele><time>2026-04-23T14:18:57Z</time></trkpt>
<trkpt lat="46.49475" lon="6.72848"><ele>526</ele><time>2026-04-23T14:19:00Z</time></trkpt>
<trkpt lat="46.49475" lon="6.72851"><ele>526.4</ele><time>2026-04-23T14:19:02Z</time></trkpt>
<trkpt lat="46.49475" lon="6.72856"><ele>527.2</ele><time>2026-04-23T14:19:06Z</time></trkpt>
<trkpt lat="46.49475" lon="6.72858"><ele>527.4</ele><time>2026-04-23T14:19:07Z</time></trkpt>
<trkpt lat="46.49476" lon="6.72866"><ele>528.2</ele><time>2026-04-23T14:19:13Z</time></trkpt>
<trkpt lat="46.49476" lon="6.72868"><ele>528.4</ele><time>2026-04-23T14:19:14Z</time></trkpt>
<trkpt lat="46.49477" lon="6.72876"><ele>529.4</ele><time>2026-04-23T14:19:20Z</time></trkpt>
<trkpt lat="46.49478" lon="6.72879"><ele>529.6</ele><time>2026-04-23T14:19:22Z</time></trkpt>
<trkpt lat="46.49478" lon="6.7288"><ele>529.8</ele><time>2026-04-23T14:19:23Z</time></trkpt>
<trkpt lat="46.4948" lon="6.72883"><ele>530.4</ele><time>2026-04-23T14:19:27Z</time></trkpt>
<trkpt lat="46.49482" lon="6.72887"><ele>531</ele><time>2026-04-23T14:19:31Z</time></trkpt>
<trkpt lat="46.49483" lon="6.72889"><ele>531.4</ele><time>2026-04-23T14:19:33Z</time></trkpt>
<trkpt lat="46.49483" lon="6.7289"><ele>531.4</ele><time>2026-04-23T14:19:34Z</time></trkpt>
<trkpt lat="46.49485" lon="6.72892"><ele>531.8</ele><time>2026-04-23T14:19:36Z</time></trkpt>
<trkpt lat="46.49486" lon="6.72894"><ele>532.2</ele><time>2026-04-23T14:19:38Z</time></trkpt>
<trkpt lat="46.49489" lon="6.72897"><ele>532.6</ele><time>2026-04-23T14:19:41Z</time></trkpt>
<trkpt lat="46.49492" lon="6.72899"><ele>532.8</ele><time>2026-04-23T14:19:44Z</time></trkpt>
<trkpt lat="46.49494" lon="6.72907"><ele>533.6</ele><time>2026-04-23T14:19:49Z</time></trkpt>
<trkpt lat="46.49502" lon="6.72919"><ele>534.2</ele><time>2026-04-23T14:19:55Z</time></trkpt>
<trkpt lat="46.49506" lon="6.72928"><ele>534.6</ele><time>2026-04-23T14:20:00Z</time></trkpt>
<trkpt lat="46.4951" lon="6.72937"><ele>535</ele><time>2026-04-23T14:20:04Z</time></trkpt>
<trkpt lat="46.49521" lon="6.72958"><ele>535.6</ele><time>2026-04-23T14:20:14Z</time></trkpt>
<trkpt lat="46.49523" lon="6.72959"><ele>535.8</ele><time>2026-04-23T14:20:15Z</time></trkpt>
<trkpt lat="46.49528" lon="6.72963"><ele>536.2</ele><time>2026-04-23T14:20:19Z</time></trkpt>
<trkpt lat="46.49529" lon="6.72963"><ele>536.2</ele><time>2026-04-23T14:20:20Z</time></trkpt>
<trkpt lat="46.49532" lon="6.72965"><ele>536.8</ele><time>2026-04-23T14:20:23Z</time></trkpt>
<trkpt lat="46.49533" lon="6.72965"><ele>537</ele><time>2026-04-23T14:20:24Z</time></trkpt>
<trkpt lat="46.49538" lon="6.72966"><ele>538</ele><time>2026-04-23T14:20:30Z</time></trkpt>
<trkpt lat="46.49544" lon="6.7297"><ele>539</ele><time>2026-04-23T14:20:36Z</time></trkpt>
<trkpt lat="46.49546" lon="6.7297"><ele>539.2</ele><time>2026-04-23T14:20:37Z</time></trkpt>
<trkpt lat="46.49552" lon="6.72975"><ele>540.2</ele><time>2026-04-23T14:20:43Z</time></trkpt>
<trkpt lat="46.49557" lon="6.7298"><ele>541.2</ele><time>2026-04-23T14:20:49Z</time></trkpt>
<trkpt lat="46.49559" lon="6.72983"><ele>541.8</ele><time>2026-04-23T14:20:52Z</time></trkpt>
<trkpt lat="46.49562" lon="6.72985"><ele>542.2</ele><time>2026-04-23T14:20:55Z</time></trkpt>
<trkpt lat="46.49562" lon="6.72985"><ele>542.4</ele><time>2026-04-23T14:20:56Z</time></trkpt>
<trkpt lat="46.49567" lon="6.72988"><ele>543.4</ele><time>2026-04-23T14:21:02Z</time></trkpt>
<trkpt lat="46.49571" lon="6.72993"><ele>544.6</ele><time>2026-04-23T14:21:08Z</time></trkpt>
<trkpt lat="46.49572" lon="6.72994"><ele>544.6</ele><time>2026-04-23T14:21:09Z</time></trkpt>
<trkpt lat="46.49575" lon="6.72997"><ele>545.2</ele><time>2026-04-23T14:21:14Z</time></trkpt>
<trkpt lat="46.49577" lon="6.72997"><ele>545.6</ele><time>2026-04-23T14:21:16Z</time></trkpt>
<trkpt lat="46.49582" lon="6.72999"><ele>546.6</ele><time>2026-04-23T14:21:21Z</time></trkpt>
<trkpt lat="46.49582" lon="6.73"><ele>546.8</ele><time>2026-04-23T14:21:22Z</time></trkpt>
<trkpt lat="46.49586" lon="6.73002"><ele>547.6</ele><time>2026-04-23T14:21:27Z</time></trkpt>
<trkpt lat="46.49587" lon="6.73002"><ele>547.8</ele><time>2026-04-23T14:21:28Z</time></trkpt>
<trkpt lat="46.49588" lon="6.73004"><ele>548</ele><time>2026-04-23T14:21:29Z</time></trkpt>
<trkpt lat="46.49589" lon="6.73007"><ele>548.4</ele><time>2026-04-23T14:21:32Z</time></trkpt>
<trkpt lat="46.49591" lon="6.73009"><ele>548.8</ele><time>2026-04-23T14:21:34Z</time></trkpt>
<trkpt lat="46.49591" lon="6.7301"><ele>549</ele><time>2026-04-23T14:21:35Z</time></trkpt>
<trkpt lat="46.49593" lon="6.73011"><ele>549.2</ele><time>2026-04-23T14:21:37Z</time></trkpt>
<trkpt lat="46.49596" lon="6.73014"><ele>550</ele><time>2026-04-23T14:21:41Z</time></trkpt>
<trkpt lat="46.49599" lon="6.73015"><ele>550.6</ele><time>2026-04-23T14:21:45Z</time></trkpt>
<trkpt lat="46.49601" lon="6.73017"><ele>551.2</ele><time>2026-04-23T14:21:48Z</time></trkpt>
<trkpt lat="46.49604" lon="6.73019"><ele>551.6</ele><time>2026-04-23T14:21:50Z</time></trkpt>
<trkpt lat="46.49606" lon="6.73022"><ele>552.2</ele><time>2026-04-23T14:21:54Z</time></trkpt>
<trkpt lat="46.49607" lon="6.73022"><ele>552.4</ele><time>2026-04-23T14:21:55Z</time></trkpt>
<trkpt lat="46.4961" lon="6.73026"><ele>553.4</ele><time>2026-04-23T14:22:00Z</time></trkpt>
<trkpt lat="46.49611" lon="6.73029"><ele>553.8</ele><time>2026-04-23T14:22:02Z</time></trkpt>
<trkpt lat="46.49612" lon="6.73032"><ele>554.6</ele><time>2026-04-23T14:22:06Z</time></trkpt>
<trkpt lat="46.49614" lon="6.73035"><ele>555.2</ele><time>2026-04-23T14:22:10Z</time></trkpt>
<trkpt lat="46.49615" lon="6.73036"><ele>555.6</ele><time>2026-04-23T14:22:12Z</time></trkpt>
<trkpt lat="46.49617" lon="6.73039"><ele>556.2</ele><time>2026-04-23T14:22:15Z</time></trkpt>
<trkpt lat="46.49618" lon="6.73042"><ele>556.8</ele><time>2026-04-23T14:22:18Z</time></trkpt>
<trkpt lat="46.4962" lon="6.73044"><ele>557.4</ele><time>2026-04-23T14:22:21Z</time></trkpt>
<trkpt lat="46.4962" lon="6.73046"><ele>557.8</ele><time>2026-04-23T14:22:23Z</time></trkpt>
<trkpt lat="46.49622" lon="6.7305"><ele>558.6</ele><time>2026-04-23T14:22:27Z</time></trkpt>
<trkpt lat="46.49623" lon="6.73052"><ele>559</ele><time>2026-04-23T14:22:29Z</time></trkpt>
<trkpt lat="46.49626" lon="6.73055"><ele>559.8</ele><time>2026-04-23T14:22:33Z</time></trkpt>
<trkpt lat="46.49627" lon="6.73055"><ele>560.2</ele><time>2026-04-23T14:22:35Z</time></trkpt>
<trkpt lat="46.4963" lon="6.73057"><ele>561</ele><time>2026-04-23T14:22:39Z</time></trkpt>
<trkpt lat="46.49631" lon="6.73057"><ele>561.2</ele><time>2026-04-23T14:22:40Z</time></trkpt>
<trkpt lat="46.49635" lon="6.7306"><ele>562.2</ele><time>2026-04-23T14:22:45Z</time></trkpt>
<trkpt lat="46.49635" lon="6.7306"><ele>562.4</ele><time>2026-04-23T14:22:46Z</time></trkpt>
<trkpt lat="46.49639" lon="6.73061"><ele>563</ele><time>2026-04-23T14:22:50Z</time></trkpt>
<trkpt lat="46.49641" lon="6.73062"><ele>563.6</ele><time>2026-04-23T14:22:52Z</time></trkpt>
<trkpt lat="46.49643" lon="6.73065"><ele>564.2</ele><time>2026-04-23T14:22:55Z</time></trkpt>
<trkpt lat="46.49645" lon="6.73066"><ele>564.6</ele><time>2026-04-23T14:22:57Z</time></trkpt>
<trkpt lat="46.49649" lon="6.73069"><ele>565.6</ele><time>2026-04-23T14:23:01Z</time></trkpt>
<trkpt lat="46.4965" lon="6.73072"><ele>566</ele><time>2026-04-23T14:23:03Z</time></trkpt>
<trkpt lat="46.49653" lon="6.73077"><ele>566.8</ele><time>2026-04-23T14:23:07Z</time></trkpt>
<trkpt lat="46.49654" lon="6.73079"><ele>567.2</ele><time>2026-04-23T14:23:09Z</time></trkpt>
<trkpt lat="46.49657" lon="6.73085"><ele>567.8</ele><time>2026-04-23T14:23:13Z</time></trkpt>
<trkpt lat="46.49658" lon="6.73095"><ele>568.8</ele><time>2026-04-23T14:23:19Z</time></trkpt>
<trkpt lat="46.49658" lon="6.73096"><ele>568.8</ele><time>2026-04-23T14:23:20Z</time></trkpt>
<trkpt lat="46.49661" lon="6.73106"><ele>569.4</ele><time>2026-04-23T14:23:25Z</time></trkpt>
<trkpt lat="46.49666" lon="6.73127"><ele>569.4</ele><time>2026-04-23T14:23:34Z</time></trkpt>
<trkpt lat="46.49673" lon="6.73139"><ele>569.8</ele><time>2026-04-23T14:23:40Z</time></trkpt>
<trkpt lat="46.49675" lon="6.73141"><ele>569.8</ele><time>2026-04-23T14:23:41Z</time></trkpt>
<trkpt lat="46.49684" lon="6.73151"><ele>570.2</ele><time>2026-04-23T14:23:47Z</time></trkpt>
<trkpt lat="46.49693" lon="6.73155"><ele>570.8</ele><time>2026-04-23T14:23:52Z</time></trkpt>
<trkpt lat="46.49695" lon="6.73156"><ele>571</ele><time>2026-04-23T14:23:53Z</time></trkpt>
<trkpt lat="46.49696" lon="6.73156"><ele>571.2</ele><time>2026-04-23T14:23:54Z</time></trkpt>
<trkpt lat="46.49704" lon="6.73157"><ele>572</ele><time>2026-04-23T14:23:59Z</time></trkpt>
<trkpt lat="46.49707" lon="6.73157"><ele>572.6</ele><time>2026-04-23T14:24:02Z</time></trkpt>
<trkpt lat="46.49708" lon="6.73157"><ele>572.8</ele><time>2026-04-23T14:24:03Z</time></trkpt>
<trkpt lat="46.4971" lon="6.73159"><ele>573.2</ele><time>2026-04-23T14:24:05Z</time></trkpt>
<trkpt lat="46.49712" lon="6.7316"><ele>573.6</ele><time>2026-04-23T14:24:07Z</time></trkpt>
<trkpt lat="46.49716" lon="6.73162"><ele>574.4</ele><time>2026-04-23T14:24:11Z</time></trkpt>
<trkpt lat="46.49717" lon="6.73162"><ele>574.8</ele><time>2026-04-23T14:24:17Z</time></trkpt>
<trkpt lat="46.49717" lon="6.73162"><ele>574.8</ele><time>2026-04-23T14:24:26Z</time></trkpt>
<trkpt lat="46.49717" lon="6.73162"><ele>574.6</ele><time>2026-04-23T14:24:41Z</time></trkpt>
<trkpt lat="46.49717" lon="6.73162"><ele>574.6</ele><time>2026-04-23T14:24:46Z</time></trkpt>
<trkpt lat="46.49717" lon="6.73162"><ele>574.6</ele><time>2026-04-23T14:24:48Z</time></trkpt>
<trkpt lat="46.49717" lon="6.73162"><ele>574.6</ele><time>2026-04-23T14:24:49Z</time></trkpt>
<trkpt lat="46.49717" lon="6.73162"><ele>574.6</ele><time>2026-04-23T14:24:50Z</time></trkpt>
<trkpt lat="46.49717" lon="6.73162"><ele>574.6</ele><time>2026-04-23T14:24:56Z</time></trkpt>
<trkpt lat="46.49718" lon="6.73162"><ele>574.6</ele><time>2026-04-23T14:25:00Z</time></trkpt>
<trkpt lat="46.49719" lon="6.73161"><ele>574.8</ele><time>2026-04-23T14:25:01Z</time></trkpt>
<trkpt lat="46.4972" lon="6.73162"><ele>574.8</ele><time>2026-04-23T14:25:02Z</time></trkpt>
<trkpt lat="46.49725" lon="6.73161"><ele>575.4</ele><time>2026-04-23T14:25:05Z</time></trkpt>
<trkpt lat="46.49726" lon="6.73161"><ele>575.6</ele><time>2026-04-23T14:25:06Z</time></trkpt>
<trkpt lat="46.49731" lon="6.7316"><ele>576.4</ele><time>2026-04-23T14:25:09Z</time></trkpt>
<trkpt lat="46.49738" lon="6.73164"><ele>577.4</ele><time>2026-04-23T14:25:14Z</time></trkpt>
<trkpt lat="46.49749" lon="6.7317"><ele>578.2</ele><time>2026-04-23T14:25:21Z</time></trkpt>
<trkpt lat="46.49765" lon="6.73178"><ele>578.4</ele><time>2026-04-23T14:25:28Z</time></trkpt>
<trkpt lat="46.4977" lon="6.73179"><ele>578.4</ele><time>2026-04-23T14:25:30Z</time></trkpt>
<trkpt lat="46.49786" lon="6.7318"><ele>579.4</ele><time>2026-04-23T14:25:37Z</time></trkpt>
<trkpt lat="46.49788" lon="6.73181"><ele>579.6</ele><time>2026-04-23T14:25:38Z</time></trkpt>
<trkpt lat="46.49799" lon="6.73183"><ele>580.4</ele><time>2026-04-23T14:25:43Z</time></trkpt>
<trkpt lat="46.49801" lon="6.73183"><ele>580.6</ele><time>2026-04-23T14:25:44Z</time></trkpt>
<trkpt lat="46.49807" lon="6.73185"><ele>581.2</ele><time>2026-04-23T14:25:47Z</time></trkpt>
<trkpt lat="46.49812" lon="6.73186"><ele>581.8</ele><time>2026-04-23T14:25:50Z</time></trkpt>
<trkpt lat="46.49814" lon="6.73186"><ele>582</ele><time>2026-04-23T14:25:51Z</time></trkpt>
<trkpt lat="46.49819" lon="6.73188"><ele>582.8</ele><time>2026-04-23T14:25:56Z</time></trkpt>
<trkpt lat="46.49821" lon="6.73188"><ele>583</ele><time>2026-04-23T14:25:57Z</time></trkpt>
<trkpt lat="46.49826" lon="6.73188"><ele>584</ele><time>2026-04-23T14:26:01Z</time></trkpt>
<trkpt lat="46.49829" lon="6.73187"><ele>584.4</ele><time>2026-04-23T14:26:03Z</time></trkpt>
<trkpt lat="46.49834" lon="6.73187"><ele>585</ele><time>2026-04-23T14:26:06Z</time></trkpt>
<trkpt lat="46.49839" lon="6.73183"><ele>585.8</ele><time>2026-04-23T14:26:10Z</time></trkpt>
<trkpt lat="46.49842" lon="6.73181"><ele>586</ele><time>2026-04-23T14:26:12Z</time></trkpt>
<trkpt lat="46.49854" lon="6.73175"><ele>586</ele><time>2026-04-23T14:26:17Z</time></trkpt>
<trkpt lat="46.49868" lon="6.73178"><ele>586.2</ele><time>2026-04-23T14:26:22Z</time></trkpt>
<trkpt lat="46.49873" lon="6.73192"><ele>586.4</ele><time>2026-04-23T14:26:26Z</time></trkpt>
<trkpt lat="46.49876" lon="6.73201"><ele>587</ele><time>2026-04-23T14:26:29Z</time></trkpt>
<trkpt lat="46.49879" lon="6.73211"><ele>588</ele><time>2026-04-23T14:26:33Z</time></trkpt>
<trkpt lat="46.4988" lon="6.73214"><ele>588.2</ele><time>2026-04-23T14:26:34Z</time></trkpt>
<trkpt lat="46.49885" lon="6.73226"><ele>589.2</ele><time>2026-04-23T14:26:39Z</time></trkpt>
<trkpt lat="46.49889" lon="6.73233"><ele>589.8</ele><time>2026-04-23T14:26:42Z</time></trkpt>
<trkpt lat="46.49893" lon="6.73239"><ele>590.2</ele><time>2026-04-23T14:26:45Z</time></trkpt>
<trkpt lat="46.49898" lon="6.73247"><ele>590.8</ele><time>2026-04-23T14:26:49Z</time></trkpt>
<trkpt lat="46.49909" lon="6.73266"><ele>591</ele><time>2026-04-23T14:26:56Z</time></trkpt>
<trkpt lat="46.49913" lon="6.73278"><ele>591.2</ele><time>2026-04-23T14:26:59Z</time></trkpt>
<trkpt lat="46.49922" lon="6.73302"><ele>591.4</ele><time>2026-04-23T14:27:05Z</time></trkpt>
<trkpt lat="46.4993" lon="6.73332"><ele>591.6</ele><time>2026-04-23T14:27:12Z</time></trkpt>
<trkpt lat="46.49942" lon="6.73371"><ele>592.2</ele><time>2026-04-23T14:27:21Z</time></trkpt>
<trkpt lat="46.49943" lon="6.73375"><ele>592.2</ele><time>2026-04-23T14:27:22Z</time></trkpt>
<trkpt lat="46.49952" lon="6.73406"><ele>592.8</ele><time>2026-04-23T14:27:29Z</time></trkpt>
<trkpt lat="46.49967" lon="6.73434"><ele>593.2</ele><time>2026-04-23T14:27:36Z</time></trkpt>
<trkpt lat="46.49977" lon="6.73446"><ele>593.4</ele><time>2026-04-23T14:27:40Z</time></trkpt>
<trkpt lat="46.49986" lon="6.7345"><ele>594</ele><time>2026-04-23T14:27:43Z</time></trkpt>
<trkpt lat="46.49989" lon="6.73451"><ele>594.4</ele><time>2026-04-23T14:27:45Z</time></trkpt>
<trkpt lat="46.49992" lon="6.73452"><ele>595</ele><time>2026-04-23T14:27:48Z</time></trkpt>
<trkpt lat="46.49998" lon="6.73452"><ele>595.6</ele><time>2026-04-23T14:27:51Z</time></trkpt>
<trkpt lat="46.50006" lon="6.73455"><ele>596.8</ele><time>2026-04-23T14:27:56Z</time></trkpt>
<trkpt lat="46.50009" lon="6.73454"><ele>597.8</ele><time>2026-04-23T14:27:59Z</time></trkpt>
<trkpt lat="46.5001" lon="6.73453"><ele>598</ele><time>2026-04-23T14:28:00Z</time></trkpt>
<trkpt lat="46.50016" lon="6.73452"><ele>599</ele><time>2026-04-23T14:28:05Z</time></trkpt>
<trkpt lat="46.50018" lon="6.73451"><ele>599.4</ele><time>2026-04-23T14:28:07Z</time></trkpt>
<trkpt lat="46.5002" lon="6.73449"><ele>600</ele><time>2026-04-23T14:28:10Z</time></trkpt>
<trkpt lat="46.50021" lon="6.73449"><ele>600.2</ele><time>2026-04-23T14:28:11Z</time></trkpt>
<trkpt lat="46.50025" lon="6.73446"><ele>601.2</ele><time>2026-04-23T14:28:16Z</time></trkpt>
<trkpt lat="46.50026" lon="6.73445"><ele>601.4</ele><time>2026-04-23T14:28:17Z</time></trkpt>
<trkpt lat="46.5003" lon="6.73443"><ele>602.4</ele><time>2026-04-23T14:28:22Z</time></trkpt>
<trkpt lat="46.50032" lon="6.73441"><ele>602.8</ele><time>2026-04-23T14:28:24Z</time></trkpt>
<trkpt lat="46.50035" lon="6.73438"><ele>603.6</ele><time>2026-04-23T14:28:28Z</time></trkpt>
<trkpt lat="46.50037" lon="6.73435"><ele>604.2</ele><time>2026-04-23T14:28:31Z</time></trkpt>
<trkpt lat="46.50039" lon="6.73433"><ele>604.4</ele><time>2026-04-23T14:28:33Z</time></trkpt>
<trkpt lat="46.5004" lon="6.73432"><ele>604.8</ele><time>2026-04-23T14:28:34Z</time></trkpt>
<trkpt lat="46.50044" lon="6.73433"><ele>605.6</ele><time>2026-04-23T14:28:38Z</time></trkpt>
<trkpt lat="46.50047" lon="6.73435"><ele>605.8</ele><time>2026-04-23T14:28:40Z</time></trkpt>
<trkpt lat="46.50053" lon="6.73445"><ele>606</ele><time>2026-04-23T14:28:45Z</time></trkpt>
<trkpt lat="46.50066" lon="6.73468"><ele>606.2</ele><time>2026-04-23T14:28:54Z</time></trkpt>
<trkpt lat="46.50077" lon="6.73489"><ele>606.2</ele><time>2026-04-23T14:29:02Z</time></trkpt>
<trkpt lat="46.50079" lon="6.73492"><ele>606.2</ele><time>2026-04-23T14:29:03Z</time></trkpt>
<trkpt lat="46.50091" lon="6.73515"><ele>606.8</ele><time>2026-04-23T14:29:11Z</time></trkpt>
<trkpt lat="46.50092" lon="6.73518"><ele>606.8</ele><time>2026-04-23T14:29:12Z</time></trkpt>
<trkpt lat="46.50099" lon="6.73535"><ele>607.6</ele><time>2026-04-23T14:29:18Z</time></trkpt>
<trkpt lat="46.50102" lon="6.73543"><ele>608</ele><time>2026-04-23T14:29:21Z</time></trkpt>
<trkpt lat="46.50103" lon="6.73545"><ele>608.2</ele><time>2026-04-23T14:29:22Z</time></trkpt>
<trkpt lat="46.50107" lon="6.73557"><ele>609</ele><time>2026-04-23T14:29:27Z</time></trkpt>
<trkpt lat="46.50109" lon="6.73563"><ele>609.4</ele><time>2026-04-23T14:29:30Z</time></trkpt>
<trkpt lat="46.50113" lon="6.7357"><ele>610</ele><time>2026-04-23T14:29:34Z</time></trkpt>
<trkpt lat="46.50115" lon="6.73576"><ele>610.8</ele><time>2026-04-23T14:29:38Z</time></trkpt>
<trkpt lat="46.50116" lon="6.73579"><ele>611.2</ele><time>2026-04-23T14:29:40Z</time></trkpt>
<trkpt lat="46.50117" lon="6.73587"><ele>611.6</ele><time>2026-04-23T14:29:44Z</time></trkpt>
<trkpt lat="46.50108" lon="6.73596"><ele>611</ele><time>2026-04-23T14:29:47Z</time></trkpt>
<trkpt lat="46.50097" lon="6.73601"><ele>609.6</ele><time>2026-04-23T14:29:49Z</time></trkpt>
<trkpt lat="46.50091" lon="6.73601"><ele>608.6</ele><time>2026-04-23T14:29:50Z</time></trkpt>
<trkpt lat="46.50083" lon="6.736"><ele>607.4</ele><time>2026-04-23T14:29:51Z</time></trkpt>
<trkpt lat="46.50069" lon="6.73595"><ele>605.4</ele><time>2026-04-23T14:29:53Z</time></trkpt>
<trkpt lat="46.50052" lon="6.73592"><ele>603.6</ele><time>2026-04-23T14:29:55Z</time></trkpt>
<trkpt lat="46.50043" lon="6.73596"><ele>602.6</ele><time>2026-04-23T14:29:56Z</time></trkpt>
<trkpt lat="46.50034" lon="6.736"><ele>601.4</ele><time>2026-04-23T14:29:57Z</time></trkpt>
<trkpt lat="46.50024" lon="6.73606"><ele>600.2</ele><time>2026-04-23T14:29:58Z</time></trkpt>
<trkpt lat="46.50015" lon="6.73613"><ele>598.4</ele><time>2026-04-23T14:29:59Z</time></trkpt>
<trkpt lat="46.50005" lon="6.73622"><ele>597</ele><time>2026-04-23T14:30:00Z</time></trkpt>
<trkpt lat="46.49995" lon="6.7363"><ele>595.6</ele><time>2026-04-23T14:30:01Z</time></trkpt>
<trkpt lat="46.49977" lon="6.73651"><ele>593.8</ele><time>2026-04-23T14:30:03Z</time></trkpt>
<trkpt lat="46.49956" lon="6.73683"><ele>592.4</ele><time>2026-04-23T14:30:06Z</time></trkpt>
<trkpt lat="46.49948" lon="6.7369"><ele>592</ele><time>2026-04-23T14:30:07Z</time></trkpt>
<trkpt lat="46.49941" lon="6.73697"><ele>591.6</ele><time>2026-04-23T14:30:08Z</time></trkpt>
<trkpt lat="46.49935" lon="6.73705"><ele>591</ele><time>2026-04-23T14:30:09Z</time></trkpt>
<trkpt lat="46.49929" lon="6.73713"><ele>590.4</ele><time>2026-04-23T14:30:10Z</time></trkpt>
<trkpt lat="46.49924" lon="6.73719"><ele>589.6</ele><time>2026-04-23T14:30:11Z</time></trkpt>
<trkpt lat="46.49918" lon="6.73724"><ele>588.4</ele><time>2026-04-23T14:30:12Z</time></trkpt>
<trkpt lat="46.49912" lon="6.73727"><ele>587.4</ele><time>2026-04-23T14:30:13Z</time></trkpt>
<trkpt lat="46.49906" lon="6.73727"><ele>586</ele><time>2026-04-23T14:30:14Z</time></trkpt>
<trkpt lat="46.49899" lon="6.73723"><ele>584.8</ele><time>2026-04-23T14:30:15Z</time></trkpt>
<trkpt lat="46.49892" lon="6.7372"><ele>583.6</ele><time>2026-04-23T14:30:16Z</time></trkpt>
<trkpt lat="46.49886" lon="6.73718"><ele>582.8</ele><time>2026-04-23T14:30:17Z</time></trkpt>
<trkpt lat="46.4988" lon="6.73716"><ele>582.2</ele><time>2026-04-23T14:30:18Z</time></trkpt>
<trkpt lat="46.49874" lon="6.73716"><ele>581.2</ele><time>2026-04-23T14:30:19Z</time></trkpt>
<trkpt lat="46.49869" lon="6.73717"><ele>580.6</ele><time>2026-04-23T14:30:20Z</time></trkpt>
<trkpt lat="46.49864" lon="6.7372"><ele>579.6</ele><time>2026-04-23T14:30:21Z</time></trkpt>
<trkpt lat="46.4986" lon="6.73723"><ele>578.8</ele><time>2026-04-23T14:30:22Z</time></trkpt>
<trkpt lat="46.49856" lon="6.73726"><ele>578</ele><time>2026-04-23T14:30:23Z</time></trkpt>
<trkpt lat="46.49853" lon="6.73731"><ele>577</ele><time>2026-04-23T14:30:24Z</time></trkpt>
<trkpt lat="46.49847" lon="6.73741"><ele>575.6</ele><time>2026-04-23T14:30:26Z</time></trkpt>
<trkpt lat="46.4984" lon="6.73754"><ele>574</ele><time>2026-04-23T14:30:28Z</time></trkpt>
<trkpt lat="46.49836" lon="6.73761"><ele>573.4</ele><time>2026-04-23T14:30:29Z</time></trkpt>
<trkpt lat="46.49828" lon="6.73773"><ele>573</ele><time>2026-04-23T14:30:31Z</time></trkpt>
<trkpt lat="46.49822" lon="6.73782"><ele>573.2</ele><time>2026-04-23T14:30:33Z</time></trkpt>
<trkpt lat="46.49815" lon="6.73793"><ele>574</ele><time>2026-04-23T14:30:36Z</time></trkpt>
<trkpt lat="46.4981" lon="6.73802"><ele>574.8</ele><time>2026-04-23T14:30:39Z</time></trkpt>
<trkpt lat="46.49808" lon="6.73807"><ele>575.2</ele><time>2026-04-23T14:30:41Z</time></trkpt>
<trkpt lat="46.498" lon="6.73823"><ele>575.6</ele><time>2026-04-23T14:30:47Z</time></trkpt>
<trkpt lat="46.49791" lon="6.73843"><ele>576.2</ele><time>2026-04-23T14:30:53Z</time></trkpt>
<trkpt lat="46.49783" lon="6.73865"><ele>575.8</ele><time>2026-04-23T14:30:59Z</time></trkpt>
<trkpt lat="46.49776" lon="6.73879"><ele>576</ele><time>2026-04-23T14:31:03Z</time></trkpt>
<trkpt lat="46.49772" lon="6.73885"><ele>576</ele><time>2026-04-23T14:31:05Z</time></trkpt>
<trkpt lat="46.49769" lon="6.73893"><ele>576.2</ele><time>2026-04-23T14:31:07Z</time></trkpt>
<trkpt lat="46.49761" lon="6.73916"><ele>577.2</ele><time>2026-04-23T14:31:13Z</time></trkpt>
<trkpt lat="46.49759" lon="6.7392"><ele>577.2</ele><time>2026-04-23T14:31:14Z</time></trkpt>
<trkpt lat="46.4975" lon="6.73948"><ele>578.4</ele><time>2026-04-23T14:31:22Z</time></trkpt>
<trkpt lat="46.49742" lon="6.73973"><ele>578.6</ele><time>2026-04-23T14:31:29Z</time></trkpt>
<trkpt lat="46.49738" lon="6.73987"><ele>578.8</ele><time>2026-04-23T14:31:33Z</time></trkpt>
<trkpt lat="46.49735" lon="6.74"><ele>579.2</ele><time>2026-04-23T14:31:37Z</time></trkpt>
<trkpt lat="46.49734" lon="6.74004"><ele>579.4</ele><time>2026-04-23T14:31:38Z</time></trkpt>
<trkpt lat="46.49729" lon="6.74023"><ele>580.2</ele><time>2026-04-23T14:31:44Z</time></trkpt>
<trkpt lat="46.49728" lon="6.74026"><ele>580.4</ele><time>2026-04-23T14:31:45Z</time></trkpt>
<trkpt lat="46.49725" lon="6.74046"><ele>581</ele><time>2026-04-23T14:31:51Z</time></trkpt>
<trkpt lat="46.49727" lon="6.74071"><ele>580.8</ele><time>2026-04-23T14:31:57Z</time></trkpt>
<trkpt lat="46.49726" lon="6.74085"><ele>580</ele><time>2026-04-23T14:32:00Z</time></trkpt>
<trkpt lat="46.49724" lon="6.74088"><ele>579.8</ele><time>2026-04-23T14:32:01Z</time></trkpt>
<trkpt lat="46.49722" lon="6.7409"><ele>579.4</ele><time>2026-04-23T14:32:02Z</time></trkpt>
<trkpt lat="46.49717" lon="6.74091"><ele>578.2</ele><time>2026-04-23T14:32:04Z</time></trkpt>
<trkpt lat="46.49714" lon="6.74091"><ele>577.6</ele><time>2026-04-23T14:32:05Z</time></trkpt>
<trkpt lat="46.49713" lon="6.7409"><ele>576.8</ele><time>2026-04-23T14:32:06Z</time></trkpt>
<trkpt lat="46.49708" lon="6.74086"><ele>575.6</ele><time>2026-04-23T14:32:08Z</time></trkpt>
<trkpt lat="46.49706" lon="6.74085"><ele>575.2</ele><time>2026-04-23T14:32:09Z</time></trkpt>
<trkpt lat="46.49701" lon="6.74086"><ele>574.4</ele><time>2026-04-23T14:32:12Z</time></trkpt>
<trkpt lat="46.49698" lon="6.74084"><ele>573.8</ele><time>2026-04-23T14:32:14Z</time></trkpt>
<trkpt lat="46.49694" lon="6.74083"><ele>573.6</ele><time>2026-04-23T14:32:16Z</time></trkpt>
<trkpt lat="46.49692" lon="6.74084"><ele>573.2</ele><time>2026-04-23T14:32:17Z</time></trkpt>
<trkpt lat="46.49689" lon="6.74087"><ele>572.8</ele><time>2026-04-23T14:32:18Z</time></trkpt>
<trkpt lat="46.49685" lon="6.7409"><ele>572.2</ele><time>2026-04-23T14:32:19Z</time></trkpt>
<trkpt lat="46.49679" lon="6.74097"><ele>570.4</ele><time>2026-04-23T14:32:21Z</time></trkpt>
<trkpt lat="46.49675" lon="6.74101"><ele>569</ele><time>2026-04-23T14:32:23Z</time></trkpt>
<trkpt lat="46.49673" lon="6.74103"><ele>568.4</ele><time>2026-04-23T14:32:25Z</time></trkpt>
<trkpt lat="46.49672" lon="6.74102"><ele>568</ele><time>2026-04-23T14:32:28Z</time></trkpt>
<trkpt lat="46.49672" lon="6.74102"><ele>568</ele><time>2026-04-23T14:32:30Z</time></trkpt>
<trkpt lat="46.49672" lon="6.74102"><ele>568</ele><time>2026-04-23T14:32:34Z</time></trkpt>
<trkpt lat="46.49672" lon="6.74102"><ele>568</ele><time>2026-04-23T14:32:36Z</time></trkpt>
<trkpt lat="46.49672" lon="6.74102"><ele>568.2</ele><time>2026-04-23T14:32:47Z</time></trkpt>
<trkpt lat="46.49673" lon="6.74103"><ele>567.8</ele><time>2026-04-23T14:32:55Z</time></trkpt>
<trkpt lat="46.4967" lon="6.74097"><ele>567.8</ele><time>2026-04-23T14:33:00Z</time></trkpt>
<trkpt lat="46.49662" lon="6.74073"><ele>566.6</ele><time>2026-04-23T14:33:04Z</time></trkpt>
<trkpt lat="46.49661" lon="6.74056"><ele>565.4</ele><time>2026-04-23T14:33:06Z</time></trkpt>
<trkpt lat="46.49661" lon="6.74047"><ele>564.2</ele><time>2026-04-23T14:33:07Z</time></trkpt>
<trkpt lat="46.4966" lon="6.74039"><ele>563.4</ele><time>2026-04-23T14:33:08Z</time></trkpt>
<trkpt lat="46.49658" lon="6.74032"><ele>562.4</ele><time>2026-04-23T14:33:09Z</time></trkpt>
<trkpt lat="46.49656" lon="6.74025"><ele>561.4</ele><time>2026-04-23T14:33:10Z</time></trkpt>
<trkpt lat="46.49652" lon="6.74019"><ele>560.4</ele><time>2026-04-23T14:33:11Z</time></trkpt>
<trkpt lat="46.49649" lon="6.74014"><ele>559</ele><time>2026-04-23T14:33:12Z</time></trkpt>
<trkpt lat="46.49639" lon="6.74009"><ele>557.2</ele><time>2026-04-23T14:33:14Z</time></trkpt>
<trkpt lat="46.49633" lon="6.74007"><ele>556</ele><time>2026-04-23T14:33:15Z</time></trkpt>
<trkpt lat="46.49628" lon="6.74005"><ele>554.8</ele><time>2026-04-23T14:33:16Z</time></trkpt>
<trkpt lat="46.49623" lon="6.74001"><ele>553.6</ele><time>2026-04-23T14:33:17Z</time></trkpt>
<trkpt lat="46.49618" lon="6.73999"><ele>552.4</ele><time>2026-04-23T14:33:18Z</time></trkpt>
<trkpt lat="46.49614" lon="6.74001"><ele>551.4</ele><time>2026-04-23T14:33:19Z</time></trkpt>
<trkpt lat="46.49611" lon="6.74006"><ele>550.4</ele><time>2026-04-23T14:33:20Z</time></trkpt>
<trkpt lat="46.49609" lon="6.74013"><ele>549.4</ele><time>2026-04-23T14:33:21Z</time></trkpt>
<trkpt lat="46.49609" lon="6.74022"><ele>548.6</ele><time>2026-04-23T14:33:22Z</time></trkpt>
<trkpt lat="46.4961" lon="6.74032"><ele>547.8</ele><time>2026-04-23T14:33:23Z</time></trkpt>
<trkpt lat="46.4961" lon="6.74042"><ele>547.2</ele><time>2026-04-23T14:33:24Z</time></trkpt>
<trkpt lat="46.49614" lon="6.74068"><ele>546.6</ele><time>2026-04-23T14:33:27Z</time></trkpt>
<trkpt lat="46.49616" lon="6.74082"><ele>546.6</ele><time>2026-04-23T14:33:29Z</time></trkpt>
<trkpt lat="46.49616" lon="6.74114"><ele>545.6</ele><time>2026-04-23T14:33:34Z</time></trkpt>
<trkpt lat="46.49615" lon="6.74124"><ele>545</ele><time>2026-04-23T14:33:35Z</time></trkpt>
<trkpt lat="46.49612" lon="6.74147"><ele>542.8</ele><time>2026-04-23T14:33:37Z</time></trkpt>
<trkpt lat="46.49611" lon="6.7416"><ele>541.6</ele><time>2026-04-23T14:33:38Z</time></trkpt>
<trkpt lat="46.4961" lon="6.74174"><ele>540.6</ele><time>2026-04-23T14:33:39Z</time></trkpt>
<trkpt lat="46.49607" lon="6.74202"><ele>539</ele><time>2026-04-23T14:33:41Z</time></trkpt>
<trkpt lat="46.49604" lon="6.74225"><ele>538.8</ele><time>2026-04-23T14:33:43Z</time></trkpt>
<trkpt lat="46.49597" lon="6.74241"><ele>539.6</ele><time>2026-04-23T14:33:45Z</time></trkpt>
<trkpt lat="46.49592" lon="6.74248"><ele>539.8</ele><time>2026-04-23T14:33:46Z</time></trkpt>
<trkpt lat="46.49568" lon="6.74279"><ele>537.6</ele><time>2026-04-23T14:33:50Z</time></trkpt>
<trkpt lat="46.49561" lon="6.74281"><ele>537.2</ele><time>2026-04-23T14:33:51Z</time></trkpt>
<trkpt lat="46.49554" lon="6.74282"><ele>536.6</ele><time>2026-04-23T14:33:52Z</time></trkpt>
<trkpt lat="46.49541" lon="6.74283"><ele>535.6</ele><time>2026-04-23T14:33:54Z</time></trkpt>
<trkpt lat="46.49537" lon="6.74289"><ele>535</ele><time>2026-04-23T14:33:55Z</time></trkpt>
<trkpt lat="46.49536" lon="6.74296"><ele>534.6</ele><time>2026-04-23T14:33:56Z</time></trkpt>
<trkpt lat="46.49537" lon="6.74303"><ele>534.2</ele><time>2026-04-23T14:33:57Z</time></trkpt>
<trkpt lat="46.49542" lon="6.74314"><ele>534.8</ele><time>2026-04-23T14:34:00Z</time></trkpt>
<trkpt lat="46.49547" lon="6.74323"><ele>536.2</ele><time>2026-04-23T14:34:05Z</time></trkpt>
<trkpt lat="46.49549" lon="6.74324"><ele>536.4</ele><time>2026-04-23T14:34:06Z</time></trkpt>
<trkpt lat="46.49551" lon="6.74328"><ele>537</ele><time>2026-04-23T14:34:11Z</time></trkpt>
<trkpt lat="46.49551" lon="6.74328"><ele>536.8</ele><time>2026-04-23T14:34:18Z</time></trkpt>
<trkpt lat="46.49551" lon="6.74328"><ele>537</ele><time>2026-04-23T14:34:19Z</time></trkpt>
<trkpt lat="46.49551" lon="6.74328"><ele>537</ele><time>2026-04-23T14:34:26Z</time></trkpt>
<trkpt lat="46.49551" lon="6.74328"><ele>537.2</ele><time>2026-04-23T14:34:28Z</time></trkpt>
<trkpt lat="46.49551" lon="6.74328"><ele>537</ele><time>2026-04-23T14:34:39Z</time></trkpt>
<trkpt lat="46.49552" lon="6.74328"><ele>537</ele><time>2026-04-23T14:34:45Z</time></trkpt>
<trkpt lat="46.49552" lon="6.74328"><ele>537.2</ele><time>2026-04-23T14:34:46Z</time></trkpt>
<trkpt lat="46.49555" lon="6.74331"><ele>537.4</ele><time>2026-04-23T14:34:51Z</time></trkpt>
<trkpt lat="46.49559" lon="6.74336"><ele>538.2</ele><time>2026-04-23T14:34:56Z</time></trkpt>
<trkpt lat="46.49562" lon="6.74339"><ele>539</ele><time>2026-04-23T14:35:00Z</time></trkpt>
<trkpt lat="46.49562" lon="6.74341"><ele>539</ele><time>2026-04-23T14:35:01Z</time></trkpt>
<trkpt lat="46.49563" lon="6.74342"><ele>539.2</ele><time>2026-04-23T14:35:02Z</time></trkpt>
<trkpt lat="46.49564" lon="6.74344"><ele>539.6</ele><time>2026-04-23T14:35:04Z</time></trkpt>
<trkpt lat="46.49565" lon="6.74346"><ele>540</ele><time>2026-04-23T14:35:06Z</time></trkpt>
<trkpt lat="46.49566" lon="6.74347"><ele>540.6</ele><time>2026-04-23T14:35:08Z</time></trkpt>
<trkpt lat="46.49568" lon="6.74351"><ele>541.4</ele><time>2026-04-23T14:35:11Z</time></trkpt>
<trkpt lat="46.49569" lon="6.74353"><ele>541.6</ele><time>2026-04-23T14:35:12Z</time></trkpt>
<trkpt lat="46.4957" lon="6.74356"><ele>542.2</ele><time>2026-04-23T14:35:15Z</time></trkpt>
<trkpt lat="46.4957" lon="6.74357"><ele>542.6</ele><time>2026-04-23T14:35:16Z</time></trkpt>
<trkpt lat="46.49571" lon="6.7436"><ele>543.4</ele><time>2026-04-23T14:35:19Z</time></trkpt>
<trkpt lat="46.49571" lon="6.74361"><ele>543.8</ele><time>2026-04-23T14:35:20Z</time></trkpt>
<trkpt lat="46.49571" lon="6.74363"><ele>544</ele><time>2026-04-23T14:35:21Z</time></trkpt>
<trkpt lat="46.49571" lon="6.74364"><ele>544.4</ele><time>2026-04-23T14:35:22Z</time></trkpt>
<trkpt lat="46.49571" lon="6.74366"><ele>544.8</ele><time>2026-04-23T14:35:24Z</time></trkpt>
<trkpt lat="46.49571" lon="6.7437"><ele>545.6</ele><time>2026-04-23T14:35:27Z</time></trkpt>
<trkpt lat="46.49571" lon="6.7437"><ele>546</ele><time>2026-04-23T14:35:28Z</time></trkpt>
<trkpt lat="46.49571" lon="6.74373"><ele>546.6</ele><time>2026-04-23T14:35:31Z</time></trkpt>
<trkpt lat="46.49572" lon="6.74375"><ele>547</ele><time>2026-04-23T14:35:33Z</time></trkpt>
<trkpt lat="46.49572" lon="6.74378"><ele>547.6</ele><time>2026-04-23T14:35:35Z</time></trkpt>
<trkpt lat="46.49572" lon="6.7438"><ele>547.8</ele><time>2026-04-23T14:35:36Z</time></trkpt>
<trkpt lat="46.49571" lon="6.74382"><ele>548.2</ele><time>2026-04-23T14:35:38Z</time></trkpt>
<trkpt lat="46.4957" lon="6.74384"><ele>548.4</ele><time>2026-04-23T14:35:40Z</time></trkpt>
<trkpt lat="46.4957" lon="6.74386"><ele>548.6</ele><time>2026-04-23T14:35:41Z</time></trkpt>
<trkpt lat="46.49568" lon="6.74391"><ele>549.2</ele><time>2026-04-23T14:35:45Z</time></trkpt>
<trkpt lat="46.49565" lon="6.74399"><ele>550</ele><time>2026-04-23T14:35:51Z</time></trkpt>
<trkpt lat="46.49562" lon="6.74404"><ele>550.2</ele><time>2026-04-23T14:35:55Z</time></trkpt>
<trkpt lat="46.49562" lon="6.74404"><ele>550.4</ele><time>2026-04-23T14:35:56Z</time></trkpt>
<trkpt lat="46.49562" lon="6.74404"><ele>550.2</ele><time>2026-04-23T14:36:00Z</time></trkpt>
<trkpt lat="46.49562" lon="6.74404"><ele>550.2</ele><time>2026-04-23T14:36:09Z</time></trkpt>
<trkpt lat="46.49562" lon="6.74406"><ele>550.4</ele><time>2026-04-23T14:36:20Z</time></trkpt>
<trkpt lat="46.49559" lon="6.74411"><ele>550.4</ele><time>2026-04-23T14:36:25Z</time></trkpt>
<trkpt lat="46.49553" lon="6.74423"><ele>551</ele><time>2026-04-23T14:36:32Z</time></trkpt>
<trkpt lat="46.49551" lon="6.74427"><ele>551.2</ele><time>2026-04-23T14:36:35Z</time></trkpt>
<trkpt lat="46.4955" lon="6.74432"><ele>551.4</ele><time>2026-04-23T14:36:38Z</time></trkpt>
<trkpt lat="46.49549" lon="6.74435"><ele>551.4</ele><time>2026-04-23T14:36:40Z</time></trkpt>
<trkpt lat="46.49547" lon="6.74439"><ele>551.6</ele><time>2026-04-23T14:36:44Z</time></trkpt>
<trkpt lat="46.49547" lon="6.74441"><ele>551.8</ele><time>2026-04-23T14:36:46Z</time></trkpt>
<trkpt lat="46.49546" lon="6.74445"><ele>551.8</ele><time>2026-04-23T14:36:48Z</time></trkpt>
<trkpt lat="46.49544" lon="6.74446"><ele>552</ele><time>2026-04-23T14:36:49Z</time></trkpt>
<trkpt lat="46.49542" lon="6.74447"><ele>552</ele><time>2026-04-23T14:36:54Z</time></trkpt>
<trkpt lat="46.49542" lon="6.74447"><ele>552.2</ele><time>2026-04-23T14:37:00Z</time></trkpt>
<trkpt lat="46.49542" lon="6.74447"><ele>552.2</ele><time>2026-04-23T14:37:07Z</time></trkpt>
<trkpt lat="46.49542" lon="6.74447"><ele>552</ele><time>2026-04-23T14:37:13Z</time></trkpt>
<trkpt lat="46.49542" lon="6.74447"><ele>552.2</ele><time>2026-04-23T14:37:22Z</time></trkpt>
<trkpt lat="46.49542" lon="6.74447"><ele>552.2</ele><time>2026-04-23T14:37:29Z</time></trkpt>
<trkpt lat="46.49542" lon="6.74447"><ele>552.2</ele><time>2026-04-23T14:37:35Z</time></trkpt>
<trkpt lat="46.49542" lon="6.74447"><ele>552.2</ele><time>2026-04-23T14:37:39Z</time></trkpt>
<trkpt lat="46.49542" lon="6.74447"><ele>552.2</ele><time>2026-04-23T14:37:42Z</time></trkpt>
<trkpt lat="46.49542" lon="6.74447"><ele>552.2</ele><time>2026-04-23T14:37:46Z</time></trkpt>
<trkpt lat="46.49542" lon="6.74447"><ele>552.4</ele><time>2026-04-23T14:38:04Z</time></trkpt>
<trkpt lat="46.49542" lon="6.74447"><ele>552.4</ele><time>2026-04-23T14:38:13Z</time></trkpt>
<trkpt lat="46.49542" lon="6.74447"><ele>552.4</ele><time>2026-04-23T14:38:14Z</time></trkpt>
<trkpt lat="46.49542" lon="6.74447"><ele>552.4</ele><time>2026-04-23T14:38:23Z</time></trkpt>
<trkpt lat="46.49543" lon="6.74451"><ele>552.4</ele><time>2026-04-23T14:38:26Z</time></trkpt>
<trkpt lat="46.49543" lon="6.74455"><ele>552.4</ele><time>2026-04-23T14:38:28Z</time></trkpt>
<trkpt lat="46.49542" lon="6.7447"><ele>552</ele><time>2026-04-23T14:38:34Z</time></trkpt>
<trkpt lat="46.49542" lon="6.74477"><ele>552</ele><time>2026-04-23T14:38:36Z</time></trkpt>
<trkpt lat="46.49545" lon="6.74494"><ele>552</ele><time>2026-04-23T14:38:42Z</time></trkpt>
<trkpt lat="46.49551" lon="6.74497"><ele>553</ele><time>2026-04-23T14:38:46Z</time></trkpt>
<trkpt lat="46.49553" lon="6.745"><ele>553.4</ele><time>2026-04-23T14:38:49Z</time></trkpt>
<trkpt lat="46.49555" lon="6.74502"><ele>553.8</ele><time>2026-04-23T14:38:51Z</time></trkpt>
<trkpt lat="46.49559" lon="6.74506"><ele>554.6</ele><time>2026-04-23T14:38:55Z</time></trkpt>
<trkpt lat="46.49562" lon="6.74509"><ele>555</ele><time>2026-04-23T14:38:58Z</time></trkpt>
<trkpt lat="46.49565" lon="6.74512"><ele>555.6</ele><time>2026-04-23T14:39:02Z</time></trkpt>
<trkpt lat="46.49567" lon="6.74514"><ele>556</ele><time>2026-04-23T14:39:04Z</time></trkpt>
<trkpt lat="46.49568" lon="6.74515"><ele>556.2</ele><time>2026-04-23T14:39:05Z</time></trkpt>
<trkpt lat="46.49569" lon="6.74516"><ele>556.4</ele><time>2026-04-23T14:39:06Z</time></trkpt>
<trkpt lat="46.49572" lon="6.74518"><ele>556.8</ele><time>2026-04-23T14:39:09Z</time></trkpt>
<trkpt lat="46.49575" lon="6.74523"><ele>557.4</ele><time>2026-04-23T14:39:13Z</time></trkpt>
<trkpt lat="46.49575" lon="6.74523"><ele>557.6</ele><time>2026-04-23T14:39:14Z</time></trkpt>
<trkpt lat="46.49577" lon="6.74525"><ele>558</ele><time>2026-04-23T14:39:16Z</time></trkpt>
<trkpt lat="46.4958" lon="6.74526"><ele>558.6</ele><time>2026-04-23T14:39:19Z</time></trkpt>
<trkpt lat="46.49583" lon="6.74529"><ele>559</ele><time>2026-04-23T14:39:22Z</time></trkpt>
<trkpt lat="46.49584" lon="6.74531"><ele>559.4</ele><time>2026-04-23T14:39:24Z</time></trkpt>
<trkpt lat="46.49588" lon="6.74535"><ele>560.2</ele><time>2026-04-23T14:39:28Z</time></trkpt>
<trkpt lat="46.4959" lon="6.74536"><ele>560.6</ele><time>2026-04-23T14:39:30Z</time></trkpt>
<trkpt lat="46.49591" lon="6.74539"><ele>561</ele><time>2026-04-23T14:39:32Z</time></trkpt>
<trkpt lat="46.49591" lon="6.74539"><ele>561.2</ele><time>2026-04-23T14:39:33Z</time></trkpt>
<trkpt lat="46.49591" lon="6.7454"><ele>561.4</ele><time>2026-04-23T14:39:34Z</time></trkpt>
<trkpt lat="46.49594" lon="6.74541"><ele>562.2</ele><time>2026-04-23T14:39:38Z</time></trkpt>
<trkpt lat="46.49596" lon="6.74542"><ele>562.6</ele><time>2026-04-23T14:39:40Z</time></trkpt>
<trkpt lat="46.49598" lon="6.74545"><ele>563.2</ele><time>2026-04-23T14:39:43Z</time></trkpt>
<trkpt lat="46.49599" lon="6.74546"><ele>563.6</ele><time>2026-04-23T14:39:45Z</time></trkpt>
<trkpt lat="46.496" lon="6.74547"><ele>563.8</ele><time>2026-04-23T14:39:46Z</time></trkpt>
<trkpt lat="46.49603" lon="6.74547"><ele>564.4</ele><time>2026-04-23T14:39:49Z</time></trkpt>
<trkpt lat="46.49604" lon="6.74548"><ele>564.6</ele><time>2026-04-23T14:39:50Z</time></trkpt>
<trkpt lat="46.49604" lon="6.7455"><ele>564.6</ele><time>2026-04-23T14:39:51Z</time></trkpt>
<trkpt lat="46.49604" lon="6.74553"><ele>565</ele><time>2026-04-23T14:39:54Z</time></trkpt>
<trkpt lat="46.49604" lon="6.74555"><ele>565.4</ele><time>2026-04-23T14:39:58Z</time></trkpt>
<trkpt lat="46.49604" lon="6.74555"><ele>565.4</ele><time>2026-04-23T14:39:59Z</time></trkpt>
<trkpt lat="46.49604" lon="6.74555"><ele>565.2</ele><time>2026-04-23T14:40:07Z</time></trkpt>
<trkpt lat="46.49604" lon="6.7455"><ele>565.2</ele><time>2026-04-23T14:40:15Z</time></trkpt>
<trkpt lat="46.49602" lon="6.74549"><ele>564.8</ele><time>2026-04-23T14:40:21Z</time></trkpt>
<trkpt lat="46.49601" lon="6.74549"><ele>564.6</ele><time>2026-04-23T14:40:28Z</time></trkpt>
<trkpt lat="46.496" lon="6.74547"><ele>564.6</ele><time>2026-04-23T14:40:33Z</time></trkpt>
<trkpt lat="46.496" lon="6.74547"><ele>564.4</ele><time>2026-04-23T14:40:36Z</time></trkpt>
<trkpt lat="46.49601" lon="6.74548"><ele>564</ele><time>2026-04-23T14:40:38Z</time></trkpt>
<trkpt lat="46.496" lon="6.74547"><ele>564</ele><time>2026-04-23T14:40:45Z</time></trkpt>
<trkpt lat="46.49601" lon="6.74548"><ele>564</ele><time>2026-04-23T14:40:51Z</time></trkpt>
<trkpt lat="46.49601" lon="6.74549"><ele>564</ele><time>2026-04-23T14:40:52Z</time></trkpt>
<trkpt lat="46.49601" lon="6.74549"><ele>564</ele><time>2026-04-23T14:40:55Z</time></trkpt>
<trkpt lat="46.49601" lon="6.74549"><ele>563.8</ele><time>2026-04-23T14:40:56Z</time></trkpt>
<trkpt lat="46.49601" lon="6.74549"><ele>563.4</ele><time>2026-04-23T14:40:59Z</time></trkpt>
<trkpt lat="46.49601" lon="6.74549"><ele>563.6</ele><time>2026-04-23T14:41:00Z</time></trkpt>
<trkpt lat="46.49601" lon="6.74549"><ele>563.6</ele><time>2026-04-23T14:41:03Z</time></trkpt>
<trkpt lat="46.49601" lon="6.74549"><ele>563.6</ele><time>2026-04-23T14:41:04Z</time></trkpt>
<trkpt lat="46.49601" lon="6.74549"><ele>563.6</ele><time>2026-04-23T14:41:05Z</time></trkpt>
<trkpt lat="46.49601" lon="6.74549"><ele>563.6</ele><time>2026-04-23T14:41:06Z</time></trkpt>
<trkpt lat="46.49601" lon="6.74549"><ele>563.6</ele><time>2026-04-23T14:41:13Z</time></trkpt>
<trkpt lat="46.49598" lon="6.74547"><ele>563.6</ele><time>2026-04-23T14:41:16Z</time></trkpt>
<trkpt lat="46.49595" lon="6.74545"><ele>563.6</ele><time>2026-04-23T14:41:17Z</time></trkpt>
<trkpt lat="46.49592" lon="6.74541"><ele>563.4</ele><time>2026-04-23T14:41:18Z</time></trkpt>
<trkpt lat="46.49591" lon="6.74536"><ele>563.2</ele><time>2026-04-23T14:41:19Z</time></trkpt>
<trkpt lat="46.4959" lon="6.74532"><ele>562.8</ele><time>2026-04-23T14:41:20Z</time></trkpt>
<trkpt lat="46.49589" lon="6.7453"><ele>562.4</ele><time>2026-04-23T14:41:21Z</time></trkpt>
<trkpt lat="46.49588" lon="6.7453"><ele>561.8</ele><time>2026-04-23T14:41:22Z</time></trkpt>
<trkpt lat="46.49586" lon="6.74531"><ele>561</ele><time>2026-04-23T14:41:23Z</time></trkpt>
<trkpt lat="46.49586" lon="6.74533"><ele>560.6</ele><time>2026-04-23T14:41:24Z</time></trkpt>
<trkpt lat="46.49588" lon="6.74536"><ele>560.2</ele><time>2026-04-23T14:41:27Z</time></trkpt>
<trkpt lat="46.49593" lon="6.74539"><ele>561.6</ele><time>2026-04-23T14:41:31Z</time></trkpt>
<trkpt lat="46.49597" lon="6.74542"><ele>562.8</ele><time>2026-04-23T14:41:35Z</time></trkpt>
<trkpt lat="46.49598" lon="6.74543"><ele>563</ele><time>2026-04-23T14:41:36Z</time></trkpt>
<trkpt lat="46.496" lon="6.74546"><ele>563.6</ele><time>2026-04-23T14:41:38Z</time></trkpt>
<trkpt lat="46.49601" lon="6.74547"><ele>563.8</ele><time>2026-04-23T14:41:39Z</time></trkpt>
<trkpt lat="46.49601" lon="6.74548"><ele>564.2</ele><time>2026-04-23T14:41:40Z</time></trkpt>
<trkpt lat="46.49602" lon="6.74549"><ele>564.4</ele><time>2026-04-23T14:41:41Z</time></trkpt>
<trkpt lat="46.49603" lon="6.7455"><ele>564.6</ele><time>2026-04-23T14:41:42Z</time></trkpt>
<trkpt lat="46.49605" lon="6.7455"><ele>565</ele><time>2026-04-23T14:41:44Z</time></trkpt>
<trkpt lat="46.49606" lon="6.7455"><ele>565</ele><time>2026-04-23T14:41:45Z</time></trkpt>
<trkpt lat="46.49605" lon="6.7455"><ele>564.8</ele><time>2026-04-23T14:41:47Z</time></trkpt>
<trkpt lat="46.49603" lon="6.74549"><ele>564.4</ele><time>2026-04-23T14:41:49Z</time></trkpt>
<trkpt lat="46.49603" lon="6.74548"><ele>564</ele><time>2026-04-23T14:41:51Z</time></trkpt>
<trkpt lat="46.49604" lon="6.74548"><ele>564</ele><time>2026-04-23T14:41:54Z</time></trkpt>
<trkpt lat="46.49604" lon="6.7455"><ele>564.8</ele><time>2026-04-23T14:41:59Z</time></trkpt>
<trkpt lat="46.49605" lon="6.7455"><ele>564.8</ele><time>2026-04-23T14:42:00Z</time></trkpt>
<trkpt lat="46.49605" lon="6.74551"><ele>565</ele><time>2026-04-23T14:42:01Z</time></trkpt>
<trkpt lat="46.49606" lon="6.74551"><ele>565</ele><time>2026-04-23T14:42:02Z</time></trkpt>
<trkpt lat="46.49608" lon="6.74552"><ele>565.4</ele><time>2026-04-23T14:42:06Z</time></trkpt>
<trkpt lat="46.49608" lon="6.74552"><ele>565.4</ele><time>2026-04-23T14:42:07Z</time></trkpt>
<trkpt lat="46.4961" lon="6.74556"><ele>565.8</ele><time>2026-04-23T14:42:10Z</time></trkpt>
<trkpt lat="46.49611" lon="6.74557"><ele>566</ele><time>2026-04-23T14:42:11Z</time></trkpt>
<trkpt lat="46.49612" lon="6.74558"><ele>566.2</ele><time>2026-04-23T14:42:12Z</time></trkpt>
<trkpt lat="46.49615" lon="6.74563"><ele>567</ele><time>2026-04-23T14:42:17Z</time></trkpt>
<trkpt lat="46.49616" lon="6.74565"><ele>567.4</ele><time>2026-04-23T14:42:19Z</time></trkpt>
<trkpt lat="46.49617" lon="6.74567"><ele>568.2</ele><time>2026-04-23T14:42:22Z</time></trkpt>
<trkpt lat="46.49617" lon="6.74567"><ele>568.4</ele><time>2026-04-23T14:42:25Z</time></trkpt>
<trkpt lat="46.4962" lon="6.74571"><ele>569</ele><time>2026-04-23T14:42:31Z</time></trkpt>
<trkpt lat="46.4962" lon="6.74572"><ele>569.2</ele><time>2026-04-23T14:42:32Z</time></trkpt>
<trkpt lat="46.49623" lon="6.74575"><ele>570.2</ele><time>2026-04-23T14:42:38Z</time></trkpt>
<trkpt lat="46.49623" lon="6.74576"><ele>570.4</ele><time>2026-04-23T14:42:39Z</time></trkpt>
<trkpt lat="46.49625" lon="6.74579"><ele>571.4</ele><time>2026-04-23T14:42:45Z</time></trkpt>
<trkpt lat="46.49626" lon="6.7458"><ele>571.8</ele><time>2026-04-23T14:42:48Z</time></trkpt>
<trkpt lat="46.49627" lon="6.74583"><ele>572.6</ele><time>2026-04-23T14:42:53Z</time></trkpt>
<trkpt lat="46.49628" lon="6.74585"><ele>573</ele><time>2026-04-23T14:42:55Z</time></trkpt>
<trkpt lat="46.49628" lon="6.74587"><ele>573.6</ele><time>2026-04-23T14:42:58Z</time></trkpt>
<trkpt lat="46.49629" lon="6.7459"><ele>574.2</ele><time>2026-04-23T14:43:02Z</time></trkpt>
<trkpt lat="46.49629" lon="6.74591"><ele>574.6</ele><time>2026-04-23T14:43:04Z</time></trkpt>
<trkpt lat="46.4963" lon="6.74596"><ele>575.6</ele><time>2026-04-23T14:43:11Z</time></trkpt>
<trkpt lat="46.4963" lon="6.74597"><ele>575.8</ele><time>2026-04-23T14:43:13Z</time></trkpt>
<trkpt lat="46.49629" lon="6.74601"><ele>576.6</ele><time>2026-04-23T14:43:18Z</time></trkpt>
<trkpt lat="46.4963" lon="6.74604"><ele>577.2</ele><time>2026-04-23T14:43:22Z</time></trkpt>
<trkpt lat="46.4963" lon="6.74605"><ele>577.6</ele><time>2026-04-23T14:43:24Z</time></trkpt>
<trkpt lat="46.49631" lon="6.7461"><ele>578.8</ele><time>2026-04-23T14:43:31Z</time></trkpt>
<trkpt lat="46.49632" lon="6.74615"><ele>579.8</ele><time>2026-04-23T14:43:38Z</time></trkpt>
<trkpt lat="46.49632" lon="6.74617"><ele>580</ele><time>2026-04-23T14:43:40Z</time></trkpt>
<trkpt lat="46.49633" lon="6.74622"><ele>581</ele><time>2026-04-23T14:43:46Z</time></trkpt>
<trkpt lat="46.49633" lon="6.74623"><ele>581.4</ele><time>2026-04-23T14:43:48Z</time></trkpt>
<trkpt lat="46.49634" lon="6.74627"><ele>582.2</ele><time>2026-04-23T14:43:53Z</time></trkpt>
<trkpt lat="46.49634" lon="6.74629"><ele>582.6</ele><time>2026-04-23T14:43:56Z</time></trkpt>
<trkpt lat="46.49634" lon="6.74633"><ele>583.2</ele><time>2026-04-23T14:44:00Z</time></trkpt>
<trkpt lat="46.49634" lon="6.74636"><ele>584</ele><time>2026-04-23T14:44:05Z</time></trkpt>
<trkpt lat="46.49634" lon="6.74637"><ele>584.4</ele><time>2026-04-23T14:44:07Z</time></trkpt>
<trkpt lat="46.49634" lon="6.74642"><ele>585.2</ele><time>2026-04-23T14:44:12Z</time></trkpt>
<trkpt lat="46.49634" lon="6.74643"><ele>585.6</ele><time>2026-04-23T14:44:14Z</time></trkpt>
<trkpt lat="46.49633" lon="6.74649"><ele>586.4</ele><time>2026-04-23T14:44:20Z</time></trkpt>
<trkpt lat="46.49632" lon="6.7465"><ele>586.6</ele><time>2026-04-23T14:44:21Z</time></trkpt>
<trkpt lat="46.49632" lon="6.74651"><ele>587</ele><time>2026-04-23T14:44:25Z</time></trkpt>
<trkpt lat="46.49633" lon="6.74656"><ele>587.8</ele><time>2026-04-23T14:44:30Z</time></trkpt>
<trkpt lat="46.49632" lon="6.74659"><ele>588.2</ele><time>2026-04-23T14:44:32Z</time></trkpt>
<trkpt lat="46.49632" lon="6.74662"><ele>588.6</ele><time>2026-04-23T14:44:36Z</time></trkpt>
<trkpt lat="46.49627" lon="6.74673"><ele>588.6</ele><time>2026-04-23T14:44:41Z</time></trkpt>
<trkpt lat="46.49624" lon="6.74681"><ele>588.8</ele><time>2026-04-23T14:44:44Z</time></trkpt>
<trkpt lat="46.49619" lon="6.74692"><ele>588.6</ele><time>2026-04-23T14:44:48Z</time></trkpt>
<trkpt lat="46.49611" lon="6.74712"><ele>587.8</ele><time>2026-04-23T14:44:53Z</time></trkpt>
<trkpt lat="46.49609" lon="6.74718"><ele>587.6</ele><time>2026-04-23T14:44:54Z</time></trkpt>
<trkpt lat="46.496" lon="6.74744"><ele>586.6</ele><time>2026-04-23T14:44:58Z</time></trkpt>
<trkpt lat="46.49597" lon="6.7475"><ele>586.2</ele><time>2026-04-23T14:44:59Z</time></trkpt>
<trkpt lat="46.49594" lon="6.74756"><ele>586</ele><time>2026-04-23T14:45:00Z</time></trkpt>
<trkpt lat="46.49585" lon="6.74768"><ele>585.4</ele><time>2026-04-23T14:45:02Z</time></trkpt>
<trkpt lat="46.49573" lon="6.74789"><ele>584.4</ele><time>2026-04-23T14:45:05Z</time></trkpt>
<trkpt lat="46.49569" lon="6.74796"><ele>584.2</ele><time>2026-04-23T14:45:06Z</time></trkpt>
<trkpt lat="46.49553" lon="6.74825"><ele>583.4</ele><time>2026-04-23T14:45:10Z</time></trkpt>
<trkpt lat="46.49546" lon="6.74838"><ele>583.4</ele><time>2026-04-23T14:45:12Z</time></trkpt>
<trkpt lat="46.4954" lon="6.74848"><ele>583.8</ele><time>2026-04-23T14:45:14Z</time></trkpt>
<trkpt lat="46.49535" lon="6.74856"><ele>584.4</ele><time>2026-04-23T14:45:16Z</time></trkpt>
<trkpt lat="46.49527" lon="6.74867"><ele>585</ele><time>2026-04-23T14:45:19Z</time></trkpt>
<trkpt lat="46.49525" lon="6.7487"><ele>585.2</ele><time>2026-04-23T14:45:20Z</time></trkpt>
<trkpt lat="46.49519" lon="6.74881"><ele>585.6</ele><time>2026-04-23T14:45:23Z</time></trkpt>
<trkpt lat="46.49511" lon="6.7489"><ele>585.8</ele><time>2026-04-23T14:45:26Z</time></trkpt>
<trkpt lat="46.49489" lon="6.74918"><ele>585.6</ele><time>2026-04-23T14:45:34Z</time></trkpt>
<trkpt lat="46.49463" lon="6.74947"><ele>586.4</ele><time>2026-04-23T14:45:42Z</time></trkpt>
<trkpt lat="46.49461" lon="6.7495"><ele>586.6</ele><time>2026-04-23T14:45:43Z</time></trkpt>
<trkpt lat="46.49451" lon="6.74963"><ele>587.8</ele><time>2026-04-23T14:45:48Z</time></trkpt>
<trkpt lat="46.49444" lon="6.74973"><ele>588.8</ele><time>2026-04-23T14:45:54Z</time></trkpt>
<trkpt lat="46.4944" lon="6.74979"><ele>589.2</ele><time>2026-04-23T14:45:57Z</time></trkpt>
<trkpt lat="46.49431" lon="6.7499"><ele>589.8</ele><time>2026-04-23T14:46:03Z</time></trkpt>
<trkpt lat="46.49428" lon="6.74994"><ele>590</ele><time>2026-04-23T14:46:05Z</time></trkpt>
<trkpt lat="46.4942" lon="6.75006"><ele>590.8</ele><time>2026-04-23T14:46:11Z</time></trkpt>
<trkpt lat="46.49419" lon="6.75008"><ele>591</ele><time>2026-04-23T14:46:12Z</time></trkpt>
<trkpt lat="46.49411" lon="6.75017"><ele>591.8</ele><time>2026-04-23T14:46:18Z</time></trkpt>
<trkpt lat="46.49408" lon="6.7502"><ele>592</ele><time>2026-04-23T14:46:20Z</time></trkpt>
<trkpt lat="46.49405" lon="6.75025"><ele>592.8</ele><time>2026-04-23T14:46:23Z</time></trkpt>
<trkpt lat="46.49404" lon="6.75028"><ele>593.2</ele><time>2026-04-23T14:46:24Z</time></trkpt>
<trkpt lat="46.49401" lon="6.75034"><ele>594</ele><time>2026-04-23T14:46:27Z</time></trkpt>
<trkpt lat="46.494" lon="6.75036"><ele>594.2</ele><time>2026-04-23T14:46:28Z</time></trkpt>
<trkpt lat="46.49396" lon="6.75042"><ele>595.2</ele><time>2026-04-23T14:46:32Z</time></trkpt>
<trkpt lat="46.49395" lon="6.75045"><ele>595.4</ele><time>2026-04-23T14:46:33Z</time></trkpt>
<trkpt lat="46.49393" lon="6.75049"><ele>595.6</ele><time>2026-04-23T14:46:35Z</time></trkpt>
<trkpt lat="46.49388" lon="6.75059"><ele>596.4</ele><time>2026-04-23T14:46:40Z</time></trkpt>
<trkpt lat="46.49387" lon="6.75062"><ele>596.4</ele><time>2026-04-23T14:46:41Z</time></trkpt>
<trkpt lat="46.4938" lon="6.75071"><ele>596.6</ele><time>2026-04-23T14:46:45Z</time></trkpt>
<trkpt lat="46.49377" lon="6.75076"><ele>596.8</ele><time>2026-04-23T14:46:47Z</time></trkpt>
<trkpt lat="46.49362" lon="6.75101"><ele>597.4</ele><time>2026-04-23T14:46:56Z</time></trkpt>
<trkpt lat="46.49356" lon="6.7511"><ele>597.4</ele><time>2026-04-23T14:46:59Z</time></trkpt>
<trkpt lat="46.49348" lon="6.75124"><ele>597.6</ele><time>2026-04-23T14:47:04Z</time></trkpt>
<trkpt lat="46.49338" lon="6.75144"><ele>597.4</ele><time>2026-04-23T14:47:10Z</time></trkpt>
<trkpt lat="46.49325" lon="6.75169"><ele>596.8</ele><time>2026-04-23T14:47:16Z</time></trkpt>
<trkpt lat="46.49317" lon="6.75187"><ele>596.4</ele><time>2026-04-23T14:47:20Z</time></trkpt>
<trkpt lat="46.49312" lon="6.75197"><ele>596.4</ele><time>2026-04-23T14:47:22Z</time></trkpt>
<trkpt lat="46.49298" lon="6.75218"><ele>596</ele><time>2026-04-23T14:47:26Z</time></trkpt>
<trkpt lat="46.49291" lon="6.75231"><ele>595</ele><time>2026-04-23T14:47:28Z</time></trkpt>
<trkpt lat="46.49278" lon="6.7525"><ele>593.6</ele><time>2026-04-23T14:47:31Z</time></trkpt>
<trkpt lat="46.49271" lon="6.75265"><ele>593</ele><time>2026-04-23T14:47:33Z</time></trkpt>
<trkpt lat="46.49268" lon="6.75272"><ele>592.4</ele><time>2026-04-23T14:47:34Z</time></trkpt>
<trkpt lat="46.49263" lon="6.75279"><ele>592.2</ele><time>2026-04-23T14:47:35Z</time></trkpt>
<trkpt lat="46.49252" lon="6.7529"><ele>591.6</ele><time>2026-04-23T14:47:37Z</time></trkpt>
<trkpt lat="46.49247" lon="6.75296"><ele>591.2</ele><time>2026-04-23T14:47:38Z</time></trkpt>
<trkpt lat="46.49229" lon="6.75315"><ele>590</ele><time>2026-04-23T14:47:41Z</time></trkpt>
<trkpt lat="46.49216" lon="6.75328"><ele>589.2</ele><time>2026-04-23T14:47:43Z</time></trkpt>
<trkpt lat="46.4921" lon="6.75335"><ele>589</ele><time>2026-04-23T14:47:44Z</time></trkpt>
<trkpt lat="46.4919" lon="6.75352"><ele>588.4</ele><time>2026-04-23T14:47:47Z</time></trkpt>
<trkpt lat="46.49176" lon="6.75357"><ele>587.8</ele><time>2026-04-23T14:47:49Z</time></trkpt>
<trkpt lat="46.49169" lon="6.75358"><ele>587.8</ele><time>2026-04-23T14:47:50Z</time></trkpt>
<trkpt lat="46.49156" lon="6.75363"><ele>587.8</ele><time>2026-04-23T14:47:52Z</time></trkpt>
<trkpt lat="46.49151" lon="6.75365"><ele>588.4</ele><time>2026-04-23T14:47:53Z</time></trkpt>
<trkpt lat="46.49149" lon="6.75367"><ele>589</ele><time>2026-04-23T14:47:54Z</time></trkpt>
<trkpt lat="46.49147" lon="6.75372"><ele>590.2</ele><time>2026-04-23T14:47:56Z</time></trkpt>
<trkpt lat="46.49146" lon="6.75372"><ele>590.8</ele><time>2026-04-23T14:47:57Z</time></trkpt>
<trkpt lat="46.49144" lon="6.75372"><ele>591.2</ele><time>2026-04-23T14:47:59Z</time></trkpt>
<trkpt lat="46.49142" lon="6.75373"><ele>591.6</ele><time>2026-04-23T14:48:01Z</time></trkpt>
<trkpt lat="46.49138" lon="6.75375"><ele>592.4</ele><time>2026-04-23T14:48:05Z</time></trkpt>
<trkpt lat="46.49134" lon="6.75376"><ele>593</ele><time>2026-04-23T14:48:08Z</time></trkpt>
<trkpt lat="46.49132" lon="6.75377"><ele>593.6</ele><time>2026-04-23T14:48:11Z</time></trkpt>
<trkpt lat="46.4913" lon="6.75378"><ele>594</ele><time>2026-04-23T14:48:13Z</time></trkpt>
<trkpt lat="46.49128" lon="6.75379"><ele>594.6</ele><time>2026-04-23T14:48:16Z</time></trkpt>
<trkpt lat="46.49127" lon="6.75381"><ele>594.8</ele><time>2026-04-23T14:48:17Z</time></trkpt>
<trkpt lat="46.49125" lon="6.75382"><ele>595</ele><time>2026-04-23T14:48:19Z</time></trkpt>
<trkpt lat="46.49124" lon="6.75383"><ele>595.4</ele><time>2026-04-23T14:48:21Z</time></trkpt>
<trkpt lat="46.49122" lon="6.75385"><ele>595.8</ele><time>2026-04-23T14:48:23Z</time></trkpt>
<trkpt lat="46.49118" lon="6.75386"><ele>596.6</ele><time>2026-04-23T14:48:28Z</time></trkpt>
<trkpt lat="46.49117" lon="6.75387"><ele>596.8</ele><time>2026-04-23T14:48:29Z</time></trkpt>
<trkpt lat="46.49115" lon="6.75387"><ele>597.6</ele><time>2026-04-23T14:48:33Z</time></trkpt>
<trkpt lat="46.49114" lon="6.75388"><ele>597.6</ele><time>2026-04-23T14:48:34Z</time></trkpt>
<trkpt lat="46.49113" lon="6.75388"><ele>597.8</ele><time>2026-04-23T14:48:35Z</time></trkpt>
<trkpt lat="46.49109" lon="6.7539"><ele>598.4</ele><time>2026-04-23T14:48:39Z</time></trkpt>
<trkpt lat="46.49108" lon="6.75391"><ele>598.8</ele><time>2026-04-23T14:48:41Z</time></trkpt>
<trkpt lat="46.49104" lon="6.75395"><ele>599.8</ele><time>2026-04-23T14:48:46Z</time></trkpt>
<trkpt lat="46.49104" lon="6.75395"><ele>600</ele><time>2026-04-23T14:48:47Z</time></trkpt>
<trkpt lat="46.49101" lon="6.75398"><ele>600.8</ele><time>2026-04-23T14:48:52Z</time></trkpt>
<trkpt lat="46.49099" lon="6.75399"><ele>601</ele><time>2026-04-23T14:48:54Z</time></trkpt>
<trkpt lat="46.49097" lon="6.75403"><ele>601.6</ele><time>2026-04-23T14:48:57Z</time></trkpt>
<trkpt lat="46.49094" lon="6.75405"><ele>602.2</ele><time>2026-04-23T14:49:01Z</time></trkpt>
<trkpt lat="46.49092" lon="6.75407"><ele>602.8</ele><time>2026-04-23T14:49:04Z</time></trkpt>
<trkpt lat="46.4909" lon="6.75408"><ele>603.4</ele><time>2026-04-23T14:49:07Z</time></trkpt>
<trkpt lat="46.49089" lon="6.7541"><ele>603.6</ele><time>2026-04-23T14:49:09Z</time></trkpt>
<trkpt lat="46.49086" lon="6.75413"><ele>604.4</ele><time>2026-04-23T14:49:14Z</time></trkpt>
<trkpt lat="46.49085" lon="6.75413"><ele>604.4</ele><time>2026-04-23T14:49:15Z</time></trkpt>
<trkpt lat="46.49082" lon="6.75418"><ele>605.4</ele><time>2026-04-23T14:49:20Z</time></trkpt>
<trkpt lat="46.49082" lon="6.75419"><ele>605.6</ele><time>2026-04-23T14:49:21Z</time></trkpt>
<trkpt lat="46.49079" lon="6.75424"><ele>606.4</ele><time>2026-04-23T14:49:26Z</time></trkpt>
<trkpt lat="46.49079" lon="6.75425"><ele>606.6</ele><time>2026-04-23T14:49:27Z</time></trkpt>
<trkpt lat="46.49076" lon="6.7543"><ele>607.6</ele><time>2026-04-23T14:49:32Z</time></trkpt>
<trkpt lat="46.49076" lon="6.75431"><ele>607.8</ele><time>2026-04-23T14:49:33Z</time></trkpt>
<trkpt lat="46.49074" lon="6.75435"><ele>608.4</ele><time>2026-04-23T14:49:37Z</time></trkpt>
<trkpt lat="46.49073" lon="6.75437"><ele>608.8</ele><time>2026-04-23T14:49:39Z</time></trkpt>
<trkpt lat="46.4907" lon="6.7544"><ele>609.4</ele><time>2026-04-23T14:49:43Z</time></trkpt>
<trkpt lat="46.49069" lon="6.75443"><ele>610</ele><time>2026-04-23T14:49:46Z</time></trkpt>
<trkpt lat="46.49068" lon="6.75446"><ele>610.4</ele><time>2026-04-23T14:49:49Z</time></trkpt>
<trkpt lat="46.49067" lon="6.7545"><ele>611</ele><time>2026-04-23T14:49:53Z</time></trkpt>
<trkpt lat="46.49066" lon="6.75452"><ele>611.4</ele><time>2026-04-23T14:49:55Z</time></trkpt>
<trkpt lat="46.49065" lon="6.75453"><ele>611.4</ele><time>2026-04-23T14:49:56Z</time></trkpt>
<trkpt lat="46.49066" lon="6.75457"><ele>612</ele><time>2026-04-23T14:49:59Z</time></trkpt>
<trkpt lat="46.49066" lon="6.75458"><ele>612.2</ele><time>2026-04-23T14:50:00Z</time></trkpt>
<trkpt lat="46.49065" lon="6.75459"><ele>612.2</ele><time>2026-04-23T14:50:01Z</time></trkpt>
<trkpt lat="46.49064" lon="6.7546"><ele>612.4</ele><time>2026-04-23T14:50:02Z</time></trkpt>
<trkpt lat="46.49062" lon="6.75463"><ele>612.8</ele><time>2026-04-23T14:50:05Z</time></trkpt>
<trkpt lat="46.49062" lon="6.75465"><ele>613</ele><time>2026-04-23T14:50:06Z</time></trkpt>
<trkpt lat="46.49061" lon="6.75469"><ele>613.8</ele><time>2026-04-23T14:50:10Z</time></trkpt>
<trkpt lat="46.4906" lon="6.7547"><ele>614.2</ele><time>2026-04-23T14:50:12Z</time></trkpt>
<trkpt lat="46.49058" lon="6.75474"><ele>614.6</ele><time>2026-04-23T14:50:16Z</time></trkpt>
<trkpt lat="46.49057" lon="6.75477"><ele>615.2</ele><time>2026-04-23T14:50:19Z</time></trkpt>
<trkpt lat="46.49056" lon="6.75481"><ele>615.8</ele><time>2026-04-23T14:50:22Z</time></trkpt>
<trkpt lat="46.49054" lon="6.75485"><ele>616.4</ele><time>2026-04-23T14:50:26Z</time></trkpt>
<trkpt lat="46.49054" lon="6.75488"><ele>616.6</ele><time>2026-04-23T14:50:28Z</time></trkpt>
<trkpt lat="46.49051" lon="6.75492"><ele>617.4</ele><time>2026-04-23T14:50:33Z</time></trkpt>
<trkpt lat="46.49051" lon="6.75493"><ele>617.6</ele><time>2026-04-23T14:50:34Z</time></trkpt>
<trkpt lat="46.49048" lon="6.75499"><ele>618.4</ele><time>2026-04-23T14:50:39Z</time></trkpt>
<trkpt lat="46.49047" lon="6.75503"><ele>619</ele><time>2026-04-23T14:50:42Z</time></trkpt>
<trkpt lat="46.49046" lon="6.75507"><ele>619.4</ele><time>2026-04-23T14:50:45Z</time></trkpt>
<trkpt lat="46.49045" lon="6.75511"><ele>620</ele><time>2026-04-23T14:50:48Z</time></trkpt>
<trkpt lat="46.49044" lon="6.75515"><ele>620.6</ele><time>2026-04-23T14:50:52Z</time></trkpt>
<trkpt lat="46.49043" lon="6.75517"><ele>621</ele><time>2026-04-23T14:50:54Z</time></trkpt>
<trkpt lat="46.49043" lon="6.7552"><ele>621.2</ele><time>2026-04-23T14:50:56Z</time></trkpt>
<trkpt lat="46.49041" lon="6.75523"><ele>621.6</ele><time>2026-04-23T14:50:59Z</time></trkpt>
<trkpt lat="46.49041" lon="6.75524"><ele>621.8</ele><time>2026-04-23T14:51:00Z</time></trkpt>
<trkpt lat="46.4904" lon="6.7553"><ele>622.6</ele><time>2026-04-23T14:51:05Z</time></trkpt>
<trkpt lat="46.49039" lon="6.75531"><ele>622.8</ele><time>2026-04-23T14:51:06Z</time></trkpt>
<trkpt lat="46.49039" lon="6.75532"><ele>622.8</ele><time>2026-04-23T14:51:07Z</time></trkpt>
<trkpt lat="46.49038" lon="6.75534"><ele>623.2</ele><time>2026-04-23T14:51:09Z</time></trkpt>
<trkpt lat="46.49038" lon="6.75535"><ele>623.2</ele><time>2026-04-23T14:51:10Z</time></trkpt>
<trkpt lat="46.49038" lon="6.75537"><ele>623.4</ele><time>2026-04-23T14:51:11Z</time></trkpt>
<trkpt lat="46.49036" lon="6.7554"><ele>623.8</ele><time>2026-04-23T14:51:14Z</time></trkpt>
<trkpt lat="46.49036" lon="6.75542"><ele>624.2</ele><time>2026-04-23T14:51:16Z</time></trkpt>
<trkpt lat="46.49036" lon="6.75546"><ele>624.8</ele><time>2026-04-23T14:51:22Z</time></trkpt>
<trkpt lat="46.49036" lon="6.75544"><ele>624.8</ele><time>2026-04-23T14:51:23Z</time></trkpt>
<trkpt lat="46.49034" lon="6.7554"><ele>624.4</ele><time>2026-04-23T14:51:26Z</time></trkpt>
<trkpt lat="46.49035" lon="6.75538"><ele>624.2</ele><time>2026-04-23T14:51:33Z</time></trkpt>
<trkpt lat="46.49035" lon="6.75537"><ele>623.8</ele><time>2026-04-23T14:51:40Z</time></trkpt>
<trkpt lat="46.49035" lon="6.75537"><ele>624</ele><time>2026-04-23T14:51:51Z</time></trkpt>
<trkpt lat="46.49035" lon="6.75537"><ele>624</ele><time>2026-04-23T14:51:54Z</time></trkpt>
<trkpt lat="46.49035" lon="6.75537"><ele>623.8</ele><time>2026-04-23T14:52:01Z</time></trkpt>
<trkpt lat="46.49035" lon="6.75537"><ele>623.8</ele><time>2026-04-23T14:52:04Z</time></trkpt>
<trkpt lat="46.49038" lon="6.75536"><ele>624</ele><time>2026-04-23T14:52:08Z</time></trkpt>
<trkpt lat="46.49037" lon="6.7554"><ele>624.2</ele><time>2026-04-23T14:52:11Z</time></trkpt>
<trkpt lat="46.49036" lon="6.75541"><ele>624.2</ele><time>2026-04-23T14:52:12Z</time></trkpt>
<trkpt lat="46.49034" lon="6.75546"><ele>624.8</ele><time>2026-04-23T14:52:16Z</time></trkpt>
<trkpt lat="46.49034" lon="6.75548"><ele>625</ele><time>2026-04-23T14:52:17Z</time></trkpt>
<trkpt lat="46.49035" lon="6.75549"><ele>625.2</ele><time>2026-04-23T14:52:18Z</time></trkpt>
<trkpt lat="46.49034" lon="6.75553"><ele>625.6</ele><time>2026-04-23T14:52:20Z</time></trkpt>
<trkpt lat="46.49034" lon="6.75555"><ele>626</ele><time>2026-04-23T14:52:22Z</time></trkpt>
<trkpt lat="46.49034" lon="6.75557"><ele>626.2</ele><time>2026-04-23T14:52:23Z</time></trkpt>
<trkpt lat="46.49034" lon="6.75563"><ele>627</ele><time>2026-04-23T14:52:27Z</time></trkpt>
<trkpt lat="46.49034" lon="6.75566"><ele>627.6</ele><time>2026-04-23T14:52:29Z</time></trkpt>
<trkpt lat="46.49033" lon="6.7557"><ele>628.2</ele><time>2026-04-23T14:52:33Z</time></trkpt>
<trkpt lat="46.49033" lon="6.75577"><ele>629</ele><time>2026-04-23T14:52:37Z</time></trkpt>
<trkpt lat="46.49032" lon="6.75579"><ele>629.4</ele><time>2026-04-23T14:52:39Z</time></trkpt>
<trkpt lat="46.49032" lon="6.75588"><ele>630.2</ele><time>2026-04-23T14:52:44Z</time></trkpt>
<trkpt lat="46.49031" lon="6.75589"><ele>630.4</ele><time>2026-04-23T14:52:45Z</time></trkpt>
<trkpt lat="46.4903" lon="6.75597"><ele>631.4</ele><time>2026-04-23T14:52:51Z</time></trkpt>
<trkpt lat="46.4903" lon="6.75598"><ele>631.6</ele><time>2026-04-23T14:52:52Z</time></trkpt>
<trkpt lat="46.4903" lon="6.75606"><ele>632.6</ele><time>2026-04-23T14:52:58Z</time></trkpt>
<trkpt lat="46.49031" lon="6.75613"><ele>633.6</ele><time>2026-04-23T14:53:03Z</time></trkpt>
<trkpt lat="46.49031" lon="6.75616"><ele>634</ele><time>2026-04-23T14:53:05Z</time></trkpt>
<trkpt lat="46.49029" lon="6.7562"><ele>634.4</ele><time>2026-04-23T14:53:08Z</time></trkpt>
<trkpt lat="46.49027" lon="6.75622"><ele>634.8</ele><time>2026-04-23T14:53:10Z</time></trkpt>
<trkpt lat="46.49027" lon="6.75623"><ele>634.8</ele><time>2026-04-23T14:53:11Z</time></trkpt>
<trkpt lat="46.49027" lon="6.75629"><ele>635.6</ele><time>2026-04-23T14:53:15Z</time></trkpt>
<trkpt lat="46.49027" lon="6.7563"><ele>635.8</ele><time>2026-04-23T14:53:16Z</time></trkpt>
<trkpt lat="46.49026" lon="6.75631"><ele>636</ele><time>2026-04-23T14:53:17Z</time></trkpt>
<trkpt lat="46.49025" lon="6.75634"><ele>636.4</ele><time>2026-04-23T14:53:19Z</time></trkpt>
<trkpt lat="46.49025" lon="6.75637"><ele>636.8</ele><time>2026-04-23T14:53:21Z</time></trkpt>
<trkpt lat="46.49023" lon="6.75645"><ele>637.8</ele><time>2026-04-23T14:53:27Z</time></trkpt>
<trkpt lat="46.49022" lon="6.75647"><ele>638</ele><time>2026-04-23T14:53:28Z</time></trkpt>
<trkpt lat="46.49019" lon="6.75655"><ele>639</ele><time>2026-04-23T14:53:34Z</time></trkpt>
<trkpt lat="46.49018" lon="6.75659"><ele>639.4</ele><time>2026-04-23T14:53:37Z</time></trkpt>
<trkpt lat="46.49015" lon="6.75665"><ele>640</ele><time>2026-04-23T14:53:41Z</time></trkpt>
<trkpt lat="46.4901" lon="6.75673"><ele>640.8</ele><time>2026-04-23T14:53:47Z</time></trkpt>
<trkpt lat="46.4901" lon="6.75676"><ele>641</ele><time>2026-04-23T14:53:49Z</time></trkpt>
<trkpt lat="46.49008" lon="6.75684"><ele>642</ele><time>2026-04-23T14:53:54Z</time></trkpt>
<trkpt lat="46.49006" lon="6.75688"><ele>642.2</ele><time>2026-04-23T14:53:56Z</time></trkpt>
<trkpt lat="46.49003" lon="6.75694"><ele>642.6</ele><time>2026-04-23T14:54:00Z</time></trkpt>
<trkpt lat="46.49" lon="6.75704"><ele>643.4</ele><time>2026-04-23T14:54:05Z</time></trkpt>
<trkpt lat="46.48999" lon="6.75709"><ele>643.6</ele><time>2026-04-23T14:54:08Z</time></trkpt>
<trkpt lat="46.48998" lon="6.7572"><ele>644.4</ele><time>2026-04-23T14:54:13Z</time></trkpt>
<trkpt lat="46.48998" lon="6.75727"><ele>644.6</ele><time>2026-04-23T14:54:16Z</time></trkpt>
<trkpt lat="46.48997" lon="6.75742"><ele>645.4</ele><time>2026-04-23T14:54:22Z</time></trkpt>
<trkpt lat="46.48997" lon="6.75744"><ele>645.4</ele><time>2026-04-23T14:54:23Z</time></trkpt>
<trkpt lat="46.49" lon="6.7576"><ele>646.2</ele><time>2026-04-23T14:54:30Z</time></trkpt>
<trkpt lat="46.49002" lon="6.75768"><ele>646.4</ele><time>2026-04-23T14:54:33Z</time></trkpt>
<trkpt lat="46.49006" lon="6.75778"><ele>646.6</ele><time>2026-04-23T14:54:37Z</time></trkpt>
<trkpt lat="46.49013" lon="6.75796"><ele>647.2</ele><time>2026-04-23T14:54:44Z</time></trkpt>
<trkpt lat="46.49024" lon="6.75821"><ele>647.2</ele><time>2026-04-23T14:54:51Z</time></trkpt>
<trkpt lat="46.49035" lon="6.75848"><ele>646.8</ele><time>2026-04-23T14:54:57Z</time></trkpt>
<trkpt lat="46.49046" lon="6.7587"><ele>646.4</ele><time>2026-04-23T14:55:02Z</time></trkpt>
<trkpt lat="46.49054" lon="6.75884"><ele>646.2</ele><time>2026-04-23T14:55:05Z</time></trkpt>
<trkpt lat="46.49073" lon="6.75908"><ele>645.8</ele><time>2026-04-23T14:55:11Z</time></trkpt>
<trkpt lat="46.49081" lon="6.75917"><ele>645.8</ele><time>2026-04-23T14:55:13Z</time></trkpt>
<trkpt lat="46.49095" lon="6.75935"><ele>645.6</ele><time>2026-04-23T14:55:17Z</time></trkpt>
<trkpt lat="46.49102" lon="6.75944"><ele>645.4</ele><time>2026-04-23T14:55:19Z</time></trkpt>
<trkpt lat="46.4911" lon="6.75954"><ele>645.2</ele><time>2026-04-23T14:55:21Z</time></trkpt>
<trkpt lat="46.49113" lon="6.75959"><ele>645</ele><time>2026-04-23T14:55:22Z</time></trkpt>
<trkpt lat="46.49124" lon="6.75972"><ele>645</ele><time>2026-04-23T14:55:25Z</time></trkpt>
<trkpt lat="46.49127" lon="6.75975"><ele>645</ele><time>2026-04-23T14:55:26Z</time></trkpt>
<trkpt lat="46.49133" lon="6.7598"><ele>645.4</ele><time>2026-04-23T14:55:28Z</time></trkpt>
<trkpt lat="46.49139" lon="6.75987"><ele>646.6</ele><time>2026-04-23T14:55:32Z</time></trkpt>
<trkpt lat="46.49141" lon="6.75988"><ele>647</ele><time>2026-04-23T14:55:34Z</time></trkpt>
<trkpt lat="46.49143" lon="6.75988"><ele>647.4</ele><time>2026-04-23T14:55:36Z</time></trkpt>
<trkpt lat="46.49144" lon="6.75988"><ele>647.6</ele><time>2026-04-23T14:55:37Z</time></trkpt>
<trkpt lat="46.49145" lon="6.75989"><ele>647.8</ele><time>2026-04-23T14:55:38Z</time></trkpt>
<trkpt lat="46.4915" lon="6.75994"><ele>648.8</ele><time>2026-04-23T14:55:43Z</time></trkpt>
<trkpt lat="46.49151" lon="6.75995"><ele>649</ele><time>2026-04-23T14:55:44Z</time></trkpt>
<trkpt lat="46.49153" lon="6.75997"><ele>649.6</ele><time>2026-04-23T14:55:47Z</time></trkpt>
<trkpt lat="46.49155" lon="6.76"><ele>650</ele><time>2026-04-23T14:55:50Z</time></trkpt>
<trkpt lat="46.49159" lon="6.76006"><ele>651.2</ele><time>2026-04-23T14:55:56Z</time></trkpt>
<trkpt lat="46.49162" lon="6.76012"><ele>652.2</ele><time>2026-04-23T14:56:02Z</time></trkpt>
<trkpt lat="46.49165" lon="6.76017"><ele>653.2</ele><time>2026-04-23T14:56:07Z</time></trkpt>
<trkpt lat="46.49166" lon="6.76019"><ele>653.6</ele><time>2026-04-23T14:56:09Z</time></trkpt>
<trkpt lat="46.49168" lon="6.76023"><ele>654.2</ele><time>2026-04-23T14:56:13Z</time></trkpt>
<trkpt lat="46.49169" lon="6.76023"><ele>654.4</ele><time>2026-04-23T14:56:14Z</time></trkpt>
<trkpt lat="46.49172" lon="6.76029"><ele>655.4</ele><time>2026-04-23T14:56:19Z</time></trkpt>
<trkpt lat="46.49172" lon="6.7603"><ele>655.6</ele><time>2026-04-23T14:56:20Z</time></trkpt>
<trkpt lat="46.49174" lon="6.76034"><ele>656.4</ele><time>2026-04-23T14:56:24Z</time></trkpt>
<trkpt lat="46.49175" lon="6.76036"><ele>656.6</ele><time>2026-04-23T14:56:26Z</time></trkpt>
<trkpt lat="46.49177" lon="6.76038"><ele>657</ele><time>2026-04-23T14:56:28Z</time></trkpt>
<trkpt lat="46.49178" lon="6.7604"><ele>657.4</ele><time>2026-04-23T14:56:30Z</time></trkpt>
<trkpt lat="46.49178" lon="6.76041"><ele>657.6</ele><time>2026-04-23T14:56:31Z</time></trkpt>
<trkpt lat="46.4918" lon="6.76045"><ele>658.4</ele><time>2026-04-23T14:56:35Z</time></trkpt>
<trkpt lat="46.49181" lon="6.76047"><ele>658.8</ele><time>2026-04-23T14:56:37Z</time></trkpt>
<trkpt lat="46.49183" lon="6.76049"><ele>659.4</ele><time>2026-04-23T14:56:40Z</time></trkpt>
<trkpt lat="46.49185" lon="6.76053"><ele>660.2</ele><time>2026-04-23T14:56:44Z</time></trkpt>
<trkpt lat="46.49186" lon="6.76055"><ele>660.6</ele><time>2026-04-23T14:56:46Z</time></trkpt>
<trkpt lat="46.49187" lon="6.7606"><ele>661.2</ele><time>2026-04-23T14:56:49Z</time></trkpt>
<trkpt lat="46.49188" lon="6.76061"><ele>661.4</ele><time>2026-04-23T14:56:51Z</time></trkpt>
<trkpt lat="46.49188" lon="6.76063"><ele>661.6</ele><time>2026-04-23T14:56:52Z</time></trkpt>
<trkpt lat="46.49188" lon="6.76064"><ele>661.8</ele><time>2026-04-23T14:56:53Z</time></trkpt>
<trkpt lat="46.49189" lon="6.76066"><ele>662.2</ele><time>2026-04-23T14:56:55Z</time></trkpt>
<trkpt lat="46.49192" lon="6.76067"><ele>662.6</ele><time>2026-04-23T14:56:58Z</time></trkpt>
<trkpt lat="46.49192" lon="6.76066"><ele>662.6</ele><time>2026-04-23T14:56:59Z</time></trkpt>
<trkpt lat="46.49193" lon="6.76065"><ele>662.8</ele><time>2026-04-23T14:57:00Z</time></trkpt>
<trkpt lat="46.49195" lon="6.76061"><ele>663.2</ele><time>2026-04-23T14:57:03Z</time></trkpt>
<trkpt lat="46.49199" lon="6.76056"><ele>663.8</ele><time>2026-04-23T14:57:07Z</time></trkpt>
<trkpt lat="46.49201" lon="6.76054"><ele>663.8</ele><time>2026-04-23T14:57:09Z</time></trkpt>
<trkpt lat="46.49207" lon="6.76052"><ele>664.8</ele><time>2026-04-23T14:57:15Z</time></trkpt>
<trkpt lat="46.49208" lon="6.76052"><ele>665</ele><time>2026-04-23T14:57:16Z</time></trkpt>
<trkpt lat="46.49215" lon="6.76052"><ele>666</ele><time>2026-04-23T14:57:23Z</time></trkpt>
<trkpt lat="46.49222" lon="6.76052"><ele>667</ele><time>2026-04-23T14:57:29Z</time></trkpt>
<trkpt lat="46.49229" lon="6.76053"><ele>668.2</ele><time>2026-04-23T14:57:35Z</time></trkpt>
<trkpt lat="46.4923" lon="6.76052"><ele>668.4</ele><time>2026-04-23T14:57:36Z</time></trkpt>
<trkpt lat="46.49232" lon="6.76053"><ele>668.8</ele><time>2026-04-23T14:57:38Z</time></trkpt>
<trkpt lat="46.49234" lon="6.76052"><ele>669</ele><time>2026-04-23T14:57:40Z</time></trkpt>
<trkpt lat="46.49237" lon="6.76053"><ele>669.2</ele><time>2026-04-23T14:57:43Z</time></trkpt>
<trkpt lat="46.49241" lon="6.76054"><ele>669.6</ele><time>2026-04-23T14:57:46Z</time></trkpt>
<trkpt lat="46.49251" lon="6.76055"><ele>670.2</ele><time>2026-04-23T14:57:53Z</time></trkpt>
<trkpt lat="46.49269" lon="6.76055"><ele>671</ele><time>2026-04-23T14:58:03Z</time></trkpt>
<trkpt lat="46.49271" lon="6.76054"><ele>671.4</ele><time>2026-04-23T14:58:05Z</time></trkpt>
<trkpt lat="46.4928" lon="6.76051"><ele>671.8</ele><time>2026-04-23T14:58:10Z</time></trkpt>
<trkpt lat="46.49292" lon="6.7604"><ele>672</ele><time>2026-04-23T14:58:15Z</time></trkpt>
<trkpt lat="46.49303" lon="6.76025"><ele>672</ele><time>2026-04-23T14:58:20Z</time></trkpt>
<trkpt lat="46.49313" lon="6.76013"><ele>672.4</ele><time>2026-04-23T14:58:25Z</time></trkpt>
<trkpt lat="46.49326" lon="6.76006"><ele>673.4</ele><time>2026-04-23T14:58:31Z</time></trkpt>
<trkpt lat="46.49333" lon="6.76006"><ele>673.6</ele><time>2026-04-23T14:58:34Z</time></trkpt>
<trkpt lat="46.49342" lon="6.76007"><ele>674</ele><time>2026-04-23T14:58:38Z</time></trkpt>
<trkpt lat="46.49352" lon="6.76009"><ele>674.6</ele><time>2026-04-23T14:58:43Z</time></trkpt>
<trkpt lat="46.49359" lon="6.76008"><ele>674.8</ele><time>2026-04-23T14:58:46Z</time></trkpt>
<trkpt lat="46.49362" lon="6.76008"><ele>675</ele><time>2026-04-23T14:58:48Z</time></trkpt>
<trkpt lat="46.49371" lon="6.76011"><ele>675.8</ele><time>2026-04-23T14:58:54Z</time></trkpt>
<trkpt lat="46.49379" lon="6.76013"><ele>677</ele><time>2026-04-23T14:58:59Z</time></trkpt>
<trkpt lat="46.49382" lon="6.76014"><ele>677.6</ele><time>2026-04-23T14:59:01Z</time></trkpt>
<trkpt lat="46.49388" lon="6.76014"><ele>678</ele><time>2026-04-23T14:59:04Z</time></trkpt>
<trkpt lat="46.49394" lon="6.76014"><ele>678.2</ele><time>2026-04-23T14:59:07Z</time></trkpt>
<trkpt lat="46.49412" lon="6.76015"><ele>678</ele><time>2026-04-23T14:59:13Z</time></trkpt>
<trkpt lat="46.49426" lon="6.76015"><ele>678</ele><time>2026-04-23T14:59:18Z</time></trkpt>
<trkpt lat="46.4945" lon="6.76015"><ele>678.4</ele><time>2026-04-23T14:59:26Z</time></trkpt>
<trkpt lat="46.49478" lon="6.76017"><ele>678.8</ele><time>2026-04-23T14:59:35Z</time></trkpt>
<trkpt lat="46.4949" lon="6.76018"><ele>679.2</ele><time>2026-04-23T14:59:39Z</time></trkpt>
<trkpt lat="46.49497" lon="6.76021"><ele>679.4</ele><time>2026-04-23T14:59:42Z</time></trkpt>
<trkpt lat="46.49509" lon="6.76023"><ele>680.2</ele><time>2026-04-23T14:59:47Z</time></trkpt>
<trkpt lat="46.49513" lon="6.76024"><ele>680.6</ele><time>2026-04-23T14:59:49Z</time></trkpt>
<trkpt lat="46.4952" lon="6.76026"><ele>681</ele><time>2026-04-23T14:59:53Z</time></trkpt>
<trkpt lat="46.49526" lon="6.76027"><ele>681.4</ele><time>2026-04-23T14:59:56Z</time></trkpt>
<trkpt lat="46.49536" lon="6.7603"><ele>682</ele><time>2026-04-23T15:00:01Z</time></trkpt>
<trkpt lat="46.49541" lon="6.76032"><ele>682.4</ele><time>2026-04-23T15:00:04Z</time></trkpt>
<trkpt lat="46.49545" lon="6.76034"><ele>683</ele><time>2026-04-23T15:00:07Z</time></trkpt>
<trkpt lat="46.49551" lon="6.76035"><ele>683.6</ele><time>2026-04-23T15:00:11Z</time></trkpt>
<trkpt lat="46.49553" lon="6.76035"><ele>684</ele><time>2026-04-23T15:00:13Z</time></trkpt>
<trkpt lat="46.4956" lon="6.76039"><ele>684.8</ele><time>2026-04-23T15:00:18Z</time></trkpt>
<trkpt lat="46.4957" lon="6.76042"><ele>685.8</ele><time>2026-04-23T15:00:24Z</time></trkpt>
<trkpt lat="46.49571" lon="6.76043"><ele>685.8</ele><time>2026-04-23T15:00:25Z</time></trkpt>
<trkpt lat="46.49582" lon="6.76045"><ele>686.8</ele><time>2026-04-23T15:00:32Z</time></trkpt>
<trkpt lat="46.49583" lon="6.76046"><ele>687</ele><time>2026-04-23T15:00:33Z</time></trkpt>
<trkpt lat="46.49591" lon="6.76047"><ele>687.8</ele><time>2026-04-23T15:00:39Z</time></trkpt>
<trkpt lat="46.49593" lon="6.76048"><ele>688</ele><time>2026-04-23T15:00:40Z</time></trkpt>
<trkpt lat="46.49601" lon="6.76051"><ele>688.8</ele><time>2026-04-23T15:00:46Z</time></trkpt>
<trkpt lat="46.49602" lon="6.76051"><ele>689</ele><time>2026-04-23T15:00:47Z</time></trkpt>
<trkpt lat="46.49611" lon="6.76054"><ele>690</ele><time>2026-04-23T15:00:53Z</time></trkpt>
<trkpt lat="46.49612" lon="6.76054"><ele>690.2</ele><time>2026-04-23T15:00:54Z</time></trkpt>
<trkpt lat="46.4962" lon="6.76058"><ele>691.2</ele><time>2026-04-23T15:01:00Z</time></trkpt>
<trkpt lat="46.49628" lon="6.76064"><ele>692.2</ele><time>2026-04-23T15:01:06Z</time></trkpt>
<trkpt lat="46.49629" lon="6.76065"><ele>692.4</ele><time>2026-04-23T15:01:07Z</time></trkpt>
<trkpt lat="46.49636" lon="6.76069"><ele>693.4</ele><time>2026-04-23T15:01:12Z</time></trkpt>
<trkpt lat="46.49639" lon="6.76071"><ele>693.6</ele><time>2026-04-23T15:01:14Z</time></trkpt>
<trkpt lat="46.49646" lon="6.76078"><ele>694.4</ele><time>2026-04-23T15:01:19Z</time></trkpt>
<trkpt lat="46.4965" lon="6.76082"><ele>694.6</ele><time>2026-04-23T15:01:22Z</time></trkpt>
<trkpt lat="46.49661" lon="6.76093"><ele>695.4</ele><time>2026-04-23T15:01:29Z</time></trkpt>
<trkpt lat="46.49668" lon="6.76104"><ele>696</ele><time>2026-04-23T15:01:35Z</time></trkpt>
<trkpt lat="46.49673" lon="6.76112"><ele>696.4</ele><time>2026-04-23T15:01:39Z</time></trkpt>
<trkpt lat="46.49678" lon="6.7612"><ele>696.8</ele><time>2026-04-23T15:01:43Z</time></trkpt>
<trkpt lat="46.49689" lon="6.7614"><ele>696.8</ele><time>2026-04-23T15:01:50Z</time></trkpt>
<trkpt lat="46.49698" lon="6.76152"><ele>696.4</ele><time>2026-04-23T15:01:53Z</time></trkpt>
<trkpt lat="46.49708" lon="6.7616"><ele>695.6</ele><time>2026-04-23T15:01:55Z</time></trkpt>
<trkpt lat="46.49714" lon="6.76161"><ele>695.4</ele><time>2026-04-23T15:01:56Z</time></trkpt>
<trkpt lat="46.49721" lon="6.76159"><ele>695</ele><time>2026-04-23T15:01:57Z</time></trkpt>
<trkpt lat="46.49727" lon="6.76156"><ele>694.8</ele><time>2026-04-23T15:01:58Z</time></trkpt>
<trkpt lat="46.49732" lon="6.76151"><ele>694.8</ele><time>2026-04-23T15:01:59Z</time></trkpt>
<trkpt lat="46.49744" lon="6.76135"><ele>695.2</ele><time>2026-04-23T15:02:02Z</time></trkpt>
<trkpt lat="46.49753" lon="6.76123"><ele>696</ele><time>2026-04-23T15:02:06Z</time></trkpt>
<trkpt lat="46.49756" lon="6.76119"><ele>696.4</ele><time>2026-04-23T15:02:08Z</time></trkpt>
<trkpt lat="46.49759" lon="6.76113"><ele>697.2</ele><time>2026-04-23T15:02:12Z</time></trkpt>
<trkpt lat="46.49761" lon="6.76109"><ele>697.6</ele><time>2026-04-23T15:02:15Z</time></trkpt>
<trkpt lat="46.49765" lon="6.76101"><ele>698.4</ele><time>2026-04-23T15:02:20Z</time></trkpt>
<trkpt lat="46.49767" lon="6.76098"><ele>698.8</ele><time>2026-04-23T15:02:22Z</time></trkpt>
<trkpt lat="46.49772" lon="6.76089"><ele>699.8</ele><time>2026-04-23T15:02:28Z</time></trkpt>
<trkpt lat="46.49778" lon="6.76079"><ele>700.6</ele><time>2026-04-23T15:02:34Z</time></trkpt>
<trkpt lat="46.49779" lon="6.76077"><ele>700.8</ele><time>2026-04-23T15:02:35Z</time></trkpt>
<trkpt lat="46.49783" lon="6.7607"><ele>701.6</ele><time>2026-04-23T15:02:40Z</time></trkpt>
<trkpt lat="46.49784" lon="6.76069"><ele>701.8</ele><time>2026-04-23T15:02:41Z</time></trkpt>
<trkpt lat="46.49784" lon="6.76067"><ele>702</ele><time>2026-04-23T15:02:42Z</time></trkpt>
<trkpt lat="46.4979" lon="6.76059"><ele>702.6</ele><time>2026-04-23T15:02:48Z</time></trkpt>
<trkpt lat="46.49793" lon="6.76055"><ele>703</ele><time>2026-04-23T15:02:51Z</time></trkpt>
<trkpt lat="46.498" lon="6.76046"><ele>703.6</ele><time>2026-04-23T15:02:58Z</time></trkpt>
<trkpt lat="46.49805" lon="6.7604"><ele>704</ele><time>2026-04-23T15:03:02Z</time></trkpt>
<trkpt lat="46.4981" lon="6.76036"><ele>704.4</ele><time>2026-04-23T15:03:05Z</time></trkpt>
<trkpt lat="46.4982" lon="6.76028"><ele>705.2</ele><time>2026-04-23T15:03:12Z</time></trkpt>
<trkpt lat="46.49832" lon="6.76023"><ele>706.2</ele><time>2026-04-23T15:03:20Z</time></trkpt>
<trkpt lat="46.49833" lon="6.76022"><ele>706.2</ele><time>2026-04-23T15:03:21Z</time></trkpt>
<trkpt lat="46.49841" lon="6.7602"><ele>707.2</ele><time>2026-04-23T15:03:26Z</time></trkpt>
<trkpt lat="46.49845" lon="6.7602"><ele>707.6</ele><time>2026-04-23T15:03:29Z</time></trkpt>
<trkpt lat="46.49852" lon="6.76018"><ele>708.2</ele><time>2026-04-23T15:03:33Z</time></trkpt>
<trkpt lat="46.49861" lon="6.76019"><ele>709</ele><time>2026-04-23T15:03:39Z</time></trkpt>
<trkpt lat="46.49866" lon="6.76018"><ele>709.4</ele><time>2026-04-23T15:03:42Z</time></trkpt>
<trkpt lat="46.49873" lon="6.76019"><ele>709.6</ele><time>2026-04-23T15:03:46Z</time></trkpt>
<trkpt lat="46.49881" lon="6.76016"><ele>710.2</ele><time>2026-04-23T15:03:51Z</time></trkpt>
<trkpt lat="46.49886" lon="6.76015"><ele>710.4</ele><time>2026-04-23T15:03:54Z</time></trkpt>
<trkpt lat="46.49893" lon="6.76011"><ele>710.8</ele><time>2026-04-23T15:03:59Z</time></trkpt>
<trkpt lat="46.4991" lon="6.76001"><ele>711.4</ele><time>2026-04-23T15:04:07Z</time></trkpt>
<trkpt lat="46.49924" lon="6.75988"><ele>711.4</ele><time>2026-04-23T15:04:13Z</time></trkpt>
<trkpt lat="46.49943" lon="6.75961"><ele>711.2</ele><time>2026-04-23T15:04:21Z</time></trkpt>
<trkpt lat="46.49959" lon="6.75944"><ele>711.8</ele><time>2026-04-23T15:04:28Z</time></trkpt>
<trkpt lat="46.49964" lon="6.7594"><ele>712.6</ele><time>2026-04-23T15:04:31Z</time></trkpt>
<trkpt lat="46.49968" lon="6.75937"><ele>713</ele><time>2026-04-23T15:04:34Z</time></trkpt>
<trkpt lat="46.49972" lon="6.75935"><ele>713.6</ele><time>2026-04-23T15:04:38Z</time></trkpt>
<trkpt lat="46.49973" lon="6.75935"><ele>713.8</ele><time>2026-04-23T15:04:39Z</time></trkpt>
<trkpt lat="46.49981" lon="6.75932"><ele>714.6</ele><time>2026-04-23T15:04:44Z</time></trkpt>
<trkpt lat="46.49983" lon="6.75931"><ele>714.8</ele><time>2026-04-23T15:04:45Z</time></trkpt>
<trkpt lat="46.49992" lon="6.75926"><ele>715.6</ele><time>2026-04-23T15:04:51Z</time></trkpt>
<trkpt lat="46.49993" lon="6.75924"><ele>715.8</ele><time>2026-04-23T15:04:52Z</time></trkpt>
<trkpt lat="46.49994" lon="6.75922"><ele>715.8</ele><time>2026-04-23T15:04:53Z</time></trkpt>
<trkpt lat="46.50001" lon="6.75912"><ele>716.6</ele><time>2026-04-23T15:04:59Z</time></trkpt>
<trkpt lat="46.50002" lon="6.7591"><ele>716.8</ele><time>2026-04-23T15:05:00Z</time></trkpt>
<trkpt lat="46.50007" lon="6.75903"><ele>717.4</ele><time>2026-04-23T15:05:05Z</time></trkpt>
<trkpt lat="46.50009" lon="6.75899"><ele>717.8</ele><time>2026-04-23T15:05:08Z</time></trkpt>
<trkpt lat="46.50012" lon="6.75893"><ele>718.6</ele><time>2026-04-23T15:05:12Z</time></trkpt>
<trkpt lat="46.50013" lon="6.7589"><ele>719</ele><time>2026-04-23T15:05:14Z</time></trkpt>
<trkpt lat="46.50014" lon="6.75889"><ele>719.2</ele><time>2026-04-23T15:05:16Z</time></trkpt>
<trkpt lat="46.50015" lon="6.75888"><ele>719.4</ele><time>2026-04-23T15:05:18Z</time></trkpt>
<trkpt lat="46.50018" lon="6.75882"><ele>720</ele><time>2026-04-23T15:05:23Z</time></trkpt>
<trkpt lat="46.5002" lon="6.75881"><ele>720.4</ele><time>2026-04-23T15:05:25Z</time></trkpt>
<trkpt lat="46.50024" lon="6.75876"><ele>721.2</ele><time>2026-04-23T15:05:30Z</time></trkpt>
<trkpt lat="46.50025" lon="6.75875"><ele>721.2</ele><time>2026-04-23T15:05:31Z</time></trkpt>
<trkpt lat="46.50028" lon="6.75873"><ele>722</ele><time>2026-04-23T15:05:35Z</time></trkpt>
<trkpt lat="46.50029" lon="6.75873"><ele>722.2</ele><time>2026-04-23T15:05:36Z</time></trkpt>
<trkpt lat="46.50029" lon="6.75872"><ele>722.2</ele><time>2026-04-23T15:05:37Z</time></trkpt>
<trkpt lat="46.50033" lon="6.75869"><ele>723.2</ele><time>2026-04-23T15:05:43Z</time></trkpt>
<trkpt lat="46.50038" lon="6.75866"><ele>724</ele><time>2026-04-23T15:05:48Z</time></trkpt>
<trkpt lat="46.50039" lon="6.75865"><ele>724.2</ele><time>2026-04-23T15:05:50Z</time></trkpt>
<trkpt lat="46.50045" lon="6.7586"><ele>725.4</ele><time>2026-04-23T15:05:57Z</time></trkpt>
<trkpt lat="46.5005" lon="6.75857"><ele>726.6</ele><time>2026-04-23T15:06:04Z</time></trkpt>
<trkpt lat="46.50055" lon="6.75852"><ele>727.4</ele><time>2026-04-23T15:06:11Z</time></trkpt>
<trkpt lat="46.50055" lon="6.75851"><ele>727.6</ele><time>2026-04-23T15:06:12Z</time></trkpt>
<trkpt lat="46.50056" lon="6.75851"><ele>727.8</ele><time>2026-04-23T15:06:13Z</time></trkpt>
<trkpt lat="46.50059" lon="6.75848"><ele>728.4</ele><time>2026-04-23T15:06:17Z</time></trkpt>
<trkpt lat="46.5006" lon="6.75845"><ele>728.6</ele><time>2026-04-23T15:06:19Z</time></trkpt>
<trkpt lat="46.50063" lon="6.75838"><ele>729.6</ele><time>2026-04-23T15:06:25Z</time></trkpt>
<trkpt lat="46.50064" lon="6.75836"><ele>729.8</ele><time>2026-04-23T15:06:27Z</time></trkpt>
<trkpt lat="46.50065" lon="6.75831"><ele>730.2</ele><time>2026-04-23T15:06:31Z</time></trkpt>
<trkpt lat="46.50065" lon="6.75826"><ele>730.8</ele><time>2026-04-23T15:06:35Z</time></trkpt>
<trkpt lat="46.50065" lon="6.75824"><ele>731</ele><time>2026-04-23T15:06:36Z</time></trkpt>
<trkpt lat="46.50063" lon="6.75821"><ele>731.6</ele><time>2026-04-23T15:06:39Z</time></trkpt>
<trkpt lat="46.50063" lon="6.75818"><ele>732</ele><time>2026-04-23T15:06:41Z</time></trkpt>
<trkpt lat="46.50061" lon="6.75815"><ele>732.2</ele><time>2026-04-23T15:06:43Z</time></trkpt>
<trkpt lat="46.50058" lon="6.75811"><ele>733</ele><time>2026-04-23T15:06:47Z</time></trkpt>
<trkpt lat="46.50057" lon="6.75811"><ele>733</ele><time>2026-04-23T15:06:48Z</time></trkpt>
<trkpt lat="46.50052" lon="6.75806"><ele>733.8</ele><time>2026-04-23T15:06:54Z</time></trkpt>
<trkpt lat="46.50051" lon="6.75806"><ele>734</ele><time>2026-04-23T15:06:55Z</time></trkpt>
<trkpt lat="46.50048" lon="6.75803"><ele>734.6</ele><time>2026-04-23T15:06:58Z</time></trkpt>
<trkpt lat="46.50048" lon="6.75801"><ele>734.6</ele><time>2026-04-23T15:06:59Z</time></trkpt>
<trkpt lat="46.50045" lon="6.75799"><ele>735</ele><time>2026-04-23T15:07:02Z</time></trkpt>
<trkpt lat="46.50042" lon="6.75797"><ele>735.6</ele><time>2026-04-23T15:07:05Z</time></trkpt>
<trkpt lat="46.50041" lon="6.75796"><ele>735.6</ele><time>2026-04-23T15:07:06Z</time></trkpt>
<trkpt lat="46.50038" lon="6.75796"><ele>736.2</ele><time>2026-04-23T15:07:09Z</time></trkpt>
<trkpt lat="46.50037" lon="6.75795"><ele>736.2</ele><time>2026-04-23T15:07:10Z</time></trkpt>
<trkpt lat="46.50034" lon="6.7579"><ele>737.2</ele><time>2026-04-23T15:07:16Z</time></trkpt>
<trkpt lat="46.50033" lon="6.75789"><ele>737.2</ele><time>2026-04-23T15:07:17Z</time></trkpt>
<trkpt lat="46.50028" lon="6.75785"><ele>738.2</ele><time>2026-04-23T15:07:23Z</time></trkpt>
<trkpt lat="46.50028" lon="6.75784"><ele>738.4</ele><time>2026-04-23T15:07:24Z</time></trkpt>
<trkpt lat="46.50023" lon="6.75781"><ele>739.2</ele><time>2026-04-23T15:07:30Z</time></trkpt>
<trkpt lat="46.50022" lon="6.7578"><ele>739.4</ele><time>2026-04-23T15:07:31Z</time></trkpt>
<trkpt lat="46.50018" lon="6.75777"><ele>740.2</ele><time>2026-04-23T15:07:36Z</time></trkpt>
<trkpt lat="46.50017" lon="6.75777"><ele>740.4</ele><time>2026-04-23T15:07:37Z</time></trkpt>
<trkpt lat="46.50013" lon="6.75774"><ele>741.2</ele><time>2026-04-23T15:07:41Z</time></trkpt>
<trkpt lat="46.50013" lon="6.75774"><ele>741.4</ele><time>2026-04-23T15:07:42Z</time></trkpt>
<trkpt lat="46.50009" lon="6.75769"><ele>742.4</ele><time>2026-04-23T15:07:48Z</time></trkpt>
<trkpt lat="46.50008" lon="6.75767"><ele>742.4</ele><time>2026-04-23T15:07:49Z</time></trkpt>
<trkpt lat="46.50005" lon="6.75765"><ele>742.8</ele><time>2026-04-23T15:07:53Z</time></trkpt>
<trkpt lat="46.50002" lon="6.75758"><ele>743.6</ele><time>2026-04-23T15:07:58Z</time></trkpt>
<trkpt lat="46.49999" lon="6.75751"><ele>744.2</ele><time>2026-04-23T15:08:04Z</time></trkpt>
<trkpt lat="46.49998" lon="6.75747"><ele>744.6</ele><time>2026-04-23T15:08:07Z</time></trkpt>
<trkpt lat="46.49995" lon="6.75739"><ele>745.4</ele><time>2026-04-23T15:08:13Z</time></trkpt>
<trkpt lat="46.49994" lon="6.75735"><ele>745.8</ele><time>2026-04-23T15:08:16Z</time></trkpt>
<trkpt lat="46.49991" lon="6.75729"><ele>746.2</ele><time>2026-04-23T15:08:21Z</time></trkpt>
<trkpt lat="46.49987" lon="6.75719"><ele>746.8</ele><time>2026-04-23T15:08:27Z</time></trkpt>
<trkpt lat="46.49987" lon="6.75718"><ele>747</ele><time>2026-04-23T15:08:28Z</time></trkpt>
<trkpt lat="46.49984" lon="6.7571"><ele>747.6</ele><time>2026-04-23T15:08:34Z</time></trkpt>
<trkpt lat="46.49982" lon="6.75706"><ele>748</ele><time>2026-04-23T15:08:37Z</time></trkpt>
<trkpt lat="46.49978" lon="6.75694"><ele>748.8</ele><time>2026-04-23T15:08:44Z</time></trkpt>
<trkpt lat="46.49977" lon="6.75691"><ele>749</ele><time>2026-04-23T15:08:46Z</time></trkpt>
<trkpt lat="46.49974" lon="6.75684"><ele>749.8</ele><time>2026-04-23T15:08:51Z</time></trkpt>
<trkpt lat="46.49972" lon="6.7568"><ele>750.2</ele><time>2026-04-23T15:08:54Z</time></trkpt>
<trkpt lat="46.49971" lon="6.75677"><ele>750.4</ele><time>2026-04-23T15:08:56Z</time></trkpt>
<trkpt lat="46.49967" lon="6.75666"><ele>751.2</ele><time>2026-04-23T15:09:03Z</time></trkpt>
<trkpt lat="46.49966" lon="6.75664"><ele>751.2</ele><time>2026-04-23T15:09:04Z</time></trkpt>
<trkpt lat="46.49963" lon="6.75655"><ele>752.2</ele><time>2026-04-23T15:09:10Z</time></trkpt>
<trkpt lat="46.49963" lon="6.75653"><ele>752.4</ele><time>2026-04-23T15:09:11Z</time></trkpt>
<trkpt lat="46.49961" lon="6.75646"><ele>753.2</ele><time>2026-04-23T15:09:16Z</time></trkpt>
<trkpt lat="46.49959" lon="6.75643"><ele>753.4</ele><time>2026-04-23T15:09:18Z</time></trkpt>
<trkpt lat="46.49957" lon="6.75637"><ele>754.2</ele><time>2026-04-23T15:09:22Z</time></trkpt>
<trkpt lat="46.49956" lon="6.75633"><ele>754.6</ele><time>2026-04-23T15:09:25Z</time></trkpt>
<trkpt lat="46.49952" lon="6.75626"><ele>755.4</ele><time>2026-04-23T15:09:30Z</time></trkpt>
<trkpt lat="46.49952" lon="6.75625"><ele>755.6</ele><time>2026-04-23T15:09:31Z</time></trkpt>
<trkpt lat="46.49948" lon="6.75618"><ele>756.4</ele><time>2026-04-23T15:09:37Z</time></trkpt>
<trkpt lat="46.49947" lon="6.75616"><ele>756.6</ele><time>2026-04-23T15:09:39Z</time></trkpt>
<trkpt lat="46.49945" lon="6.75612"><ele>757.4</ele><time>2026-04-23T15:09:43Z</time></trkpt>
<trkpt lat="46.49944" lon="6.75609"><ele>757.8</ele><time>2026-04-23T15:09:45Z</time></trkpt>
<trkpt lat="46.49944" lon="6.75604"><ele>758.4</ele><time>2026-04-23T15:09:49Z</time></trkpt>
<trkpt lat="46.49944" lon="6.75599"><ele>758.8</ele><time>2026-04-23T15:09:52Z</time></trkpt>
<trkpt lat="46.49943" lon="6.75597"><ele>759</ele><time>2026-04-23T15:09:54Z</time></trkpt>
<trkpt lat="46.49943" lon="6.75596"><ele>759.2</ele><time>2026-04-23T15:09:55Z</time></trkpt>
<trkpt lat="46.49943" lon="6.75592"><ele>759.8</ele><time>2026-04-23T15:09:58Z</time></trkpt>
<trkpt lat="46.49944" lon="6.75588"><ele>760.2</ele><time>2026-04-23T15:10:01Z</time></trkpt>
<trkpt lat="46.49945" lon="6.75587"><ele>760.4</ele><time>2026-04-23T15:10:02Z</time></trkpt>
<trkpt lat="46.49947" lon="6.75585"><ele>760.8</ele><time>2026-04-23T15:10:05Z</time></trkpt>
<trkpt lat="46.49948" lon="6.75584"><ele>761</ele><time>2026-04-23T15:10:06Z</time></trkpt>
<trkpt lat="46.49951" lon="6.75579"><ele>761.6</ele><time>2026-04-23T15:10:10Z</time></trkpt>
<trkpt lat="46.49953" lon="6.75578"><ele>762</ele><time>2026-04-23T15:10:12Z</time></trkpt>
<trkpt lat="46.49956" lon="6.75575"><ele>762.6</ele><time>2026-04-23T15:10:16Z</time></trkpt>
<trkpt lat="46.49958" lon="6.75573"><ele>763</ele><time>2026-04-23T15:10:18Z</time></trkpt>
<trkpt lat="46.49962" lon="6.75572"><ele>763.6</ele><time>2026-04-23T15:10:22Z</time></trkpt>
<trkpt lat="46.49965" lon="6.75571"><ele>764</ele><time>2026-04-23T15:10:25Z</time></trkpt>
<trkpt lat="46.49967" lon="6.75572"><ele>764.6</ele><time>2026-04-23T15:10:28Z</time></trkpt>
<trkpt lat="46.49971" lon="6.75572"><ele>765.2</ele><time>2026-04-23T15:10:31Z</time></trkpt>
<trkpt lat="46.49974" lon="6.75572"><ele>765.8</ele><time>2026-04-23T15:10:35Z</time></trkpt>
<trkpt lat="46.49978" lon="6.75574"><ele>766.4</ele><time>2026-04-23T15:10:38Z</time></trkpt>
<trkpt lat="46.49981" lon="6.75577"><ele>766.8</ele><time>2026-04-23T15:10:42Z</time></trkpt>
<trkpt lat="46.49985" lon="6.75578"><ele>767.4</ele><time>2026-04-23T15:10:46Z</time></trkpt>
<trkpt lat="46.49989" lon="6.75579"><ele>767.8</ele><time>2026-04-23T15:10:49Z</time></trkpt>
<trkpt lat="46.49994" lon="6.75584"><ele>768.6</ele><time>2026-04-23T15:10:54Z</time></trkpt>
<trkpt lat="46.49999" lon="6.75588"><ele>769.4</ele><time>2026-04-23T15:11:00Z</time></trkpt>
<trkpt lat="46.50001" lon="6.7559"><ele>769.6</ele><time>2026-04-23T15:11:02Z</time></trkpt>
<trkpt lat="46.50006" lon="6.75593"><ele>770.4</ele><time>2026-04-23T15:11:07Z</time></trkpt>
<trkpt lat="46.50008" lon="6.75594"><ele>770.6</ele><time>2026-04-23T15:11:09Z</time></trkpt>
<trkpt lat="46.50013" lon="6.75596"><ele>771.6</ele><time>2026-04-23T15:11:14Z</time></trkpt>
<trkpt lat="46.50013" lon="6.75597"><ele>771.8</ele><time>2026-04-23T15:11:15Z</time></trkpt>
<trkpt lat="46.50019" lon="6.75599"><ele>772.6</ele><time>2026-04-23T15:11:21Z</time></trkpt>
<trkpt lat="46.5002" lon="6.756"><ele>772.8</ele><time>2026-04-23T15:11:22Z</time></trkpt>
<trkpt lat="46.50023" lon="6.75603"><ele>773.2</ele><time>2026-04-23T15:11:26Z</time></trkpt>
<trkpt lat="46.50027" lon="6.75606"><ele>773.8</ele><time>2026-04-23T15:11:30Z</time></trkpt>
<trkpt lat="46.50028" lon="6.75607"><ele>774</ele><time>2026-04-23T15:11:31Z</time></trkpt>
<trkpt lat="46.50032" lon="6.75611"><ele>774.8</ele><time>2026-04-23T15:11:36Z</time></trkpt>
<trkpt lat="46.50034" lon="6.75612"><ele>775</ele><time>2026-04-23T15:11:38Z</time></trkpt>
<trkpt lat="46.50035" lon="6.75613"><ele>775.2</ele><time>2026-04-23T15:11:39Z</time></trkpt>
<trkpt lat="46.50039" lon="6.75615"><ele>775.8</ele><time>2026-04-23T15:11:43Z</time></trkpt>
<trkpt lat="46.50041" lon="6.75615"><ele>776</ele><time>2026-04-23T15:11:45Z</time></trkpt>
<trkpt lat="46.50045" lon="6.75618"><ele>776.6</ele><time>2026-04-23T15:11:50Z</time></trkpt>
<trkpt lat="46.50048" lon="6.75617"><ele>777</ele><time>2026-04-23T15:11:53Z</time></trkpt>
<trkpt lat="46.50051" lon="6.75617"><ele>777.6</ele><time>2026-04-23T15:11:56Z</time></trkpt>
<trkpt lat="46.50055" lon="6.75613"><ele>778.2</ele><time>2026-04-23T15:12:01Z</time></trkpt>
<trkpt lat="46.50056" lon="6.75612"><ele>778.4</ele><time>2026-04-23T15:12:02Z</time></trkpt>
<trkpt lat="46.50059" lon="6.75607"><ele>779.2</ele><time>2026-04-23T15:12:07Z</time></trkpt>
<trkpt lat="46.50062" lon="6.75603"><ele>779.8</ele><time>2026-04-23T15:12:11Z</time></trkpt>
<trkpt lat="46.50062" lon="6.75601"><ele>780.2</ele><time>2026-04-23T15:12:14Z</time></trkpt>
<trkpt lat="46.50063" lon="6.75596"><ele>780.8</ele><time>2026-04-23T15:12:17Z</time></trkpt>
<trkpt lat="46.50064" lon="6.75591"><ele>781.4</ele><time>2026-04-23T15:12:21Z</time></trkpt>
<trkpt lat="46.50064" lon="6.75588"><ele>781.6</ele><time>2026-04-23T15:12:23Z</time></trkpt>
<trkpt lat="46.50065" lon="6.75581"><ele>782.4</ele><time>2026-04-23T15:12:28Z</time></trkpt>
<trkpt lat="46.50063" lon="6.75578"><ele>782.8</ele><time>2026-04-23T15:12:30Z</time></trkpt>
<trkpt lat="46.50061" lon="6.75573"><ele>783.4</ele><time>2026-04-23T15:12:34Z</time></trkpt>
<trkpt lat="46.5006" lon="6.75568"><ele>783.8</ele><time>2026-04-23T15:12:37Z</time></trkpt>
<trkpt lat="46.50057" lon="6.75562"><ele>784.6</ele><time>2026-04-23T15:12:42Z</time></trkpt>
<trkpt lat="46.50054" lon="6.75554"><ele>785.4</ele><time>2026-04-23T15:12:47Z</time></trkpt>
<trkpt lat="46.50053" lon="6.7555"><ele>785.6</ele><time>2026-04-23T15:12:49Z</time></trkpt>
<trkpt lat="46.50052" lon="6.75541"><ele>786.4</ele><time>2026-04-23T15:12:54Z</time></trkpt>
<trkpt lat="46.50049" lon="6.75537"><ele>786.8</ele><time>2026-04-23T15:12:57Z</time></trkpt>
<trkpt lat="46.50048" lon="6.75532"><ele>787.2</ele><time>2026-04-23T15:13:00Z</time></trkpt>
<trkpt lat="46.50046" lon="6.75525"><ele>787.8</ele><time>2026-04-23T15:13:04Z</time></trkpt>
<trkpt lat="46.50046" lon="6.75519"><ele>788.2</ele><time>2026-04-23T15:13:08Z</time></trkpt>
<trkpt lat="46.50043" lon="6.75513"><ele>788.8</ele><time>2026-04-23T15:13:13Z</time></trkpt>
<trkpt lat="46.50042" lon="6.75512"><ele>789</ele><time>2026-04-23T15:13:14Z</time></trkpt>
<trkpt lat="46.5004" lon="6.75502"><ele>789.8</ele><time>2026-04-23T15:13:19Z</time></trkpt>
<trkpt lat="46.50039" lon="6.75497"><ele>790</ele><time>2026-04-23T15:13:21Z</time></trkpt>
<trkpt lat="46.50037" lon="6.75487"><ele>790.6</ele><time>2026-04-23T15:13:27Z</time></trkpt>
<trkpt lat="46.50036" lon="6.75484"><ele>790.8</ele><time>2026-04-23T15:13:29Z</time></trkpt>
<trkpt lat="46.50034" lon="6.75475"><ele>791.6</ele><time>2026-04-23T15:13:34Z</time></trkpt>
<trkpt lat="46.50033" lon="6.75471"><ele>792</ele><time>2026-04-23T15:13:36Z</time></trkpt>
<trkpt lat="46.50031" lon="6.75463"><ele>792.6</ele><time>2026-04-23T15:13:41Z</time></trkpt>
<trkpt lat="46.5003" lon="6.75459"><ele>793</ele><time>2026-04-23T15:13:44Z</time></trkpt>
<trkpt lat="46.50028" lon="6.75453"><ele>793.4</ele><time>2026-04-23T15:13:47Z</time></trkpt>
<trkpt lat="46.50025" lon="6.75443"><ele>794</ele><time>2026-04-23T15:13:53Z</time></trkpt>
<trkpt lat="46.50025" lon="6.75441"><ele>794.2</ele><time>2026-04-23T15:13:54Z</time></trkpt>
<trkpt lat="46.50021" lon="6.75431"><ele>795.2</ele><time>2026-04-23T15:14:01Z</time></trkpt>
<trkpt lat="46.50021" lon="6.75429"><ele>795.2</ele><time>2026-04-23T15:14:02Z</time></trkpt>
<trkpt lat="46.50019" lon="6.75422"><ele>795.8</ele><time>2026-04-23T15:14:06Z</time></trkpt>
<trkpt lat="46.50018" lon="6.75418"><ele>796.2</ele><time>2026-04-23T15:14:09Z</time></trkpt>
<trkpt lat="46.50017" lon="6.75413"><ele>796.6</ele><time>2026-04-23T15:14:12Z</time></trkpt>
<trkpt lat="46.50015" lon="6.75407"><ele>797.2</ele><time>2026-04-23T15:14:16Z</time></trkpt>
<trkpt lat="46.50013" lon="6.75404"><ele>797.6</ele><time>2026-04-23T15:14:18Z</time></trkpt>
<trkpt lat="46.50011" lon="6.75396"><ele>798.4</ele><time>2026-04-23T15:14:23Z</time></trkpt>
<trkpt lat="46.50011" lon="6.75395"><ele>798.6</ele><time>2026-04-23T15:14:24Z</time></trkpt>
<trkpt lat="46.50006" lon="6.75384"><ele>799.4</ele><time>2026-04-23T15:14:31Z</time></trkpt>
<trkpt lat="46.50002" lon="6.75372"><ele>800.4</ele><time>2026-04-23T15:14:38Z</time></trkpt>
<trkpt lat="46.50002" lon="6.75371"><ele>800.6</ele><time>2026-04-23T15:14:39Z</time></trkpt>
<trkpt lat="46.5" lon="6.75364"><ele>801.4</ele><time>2026-04-23T15:14:43Z</time></trkpt>
<trkpt lat="46.5" lon="6.75358"><ele>801.8</ele><time>2026-04-23T15:14:46Z</time></trkpt>
<trkpt lat="46.50001" lon="6.75357"><ele>801.8</ele><time>2026-04-23T15:14:47Z</time></trkpt>
<trkpt lat="46.50001" lon="6.75356"><ele>802</ele><time>2026-04-23T15:14:48Z</time></trkpt>
<trkpt lat="46.50002" lon="6.75347"><ele>802.8</ele><time>2026-04-23T15:14:53Z</time></trkpt>
<trkpt lat="46.50003" lon="6.75345"><ele>803</ele><time>2026-04-23T15:14:54Z</time></trkpt>
<trkpt lat="46.50004" lon="6.75338"><ele>803.8</ele><time>2026-04-23T15:14:58Z</time></trkpt>
<trkpt lat="46.50005" lon="6.75335"><ele>804.2</ele><time>2026-04-23T15:15:00Z</time></trkpt>
<trkpt lat="46.50007" lon="6.7533"><ele>804.8</ele><time>2026-04-23T15:15:03Z</time></trkpt>
<trkpt lat="46.50009" lon="6.75324"><ele>805.6</ele><time>2026-04-23T15:15:07Z</time></trkpt>
<trkpt lat="46.50009" lon="6.75322"><ele>806</ele><time>2026-04-23T15:15:08Z</time></trkpt>
<trkpt lat="46.50012" lon="6.75313"><ele>807</ele><time>2026-04-23T15:15:14Z</time></trkpt>
<trkpt lat="46.50013" lon="6.75312"><ele>807</ele><time>2026-04-23T15:15:15Z</time></trkpt>
<trkpt lat="46.50015" lon="6.75307"><ele>807.6</ele><time>2026-04-23T15:15:20Z</time></trkpt>
<trkpt lat="46.5002" lon="6.75297"><ele>807.4</ele><time>2026-04-23T15:15:25Z</time></trkpt>
<trkpt lat="46.5003" lon="6.75278"><ele>806.2</ele><time>2026-04-23T15:15:31Z</time></trkpt>
<trkpt lat="46.50034" lon="6.75274"><ele>806</ele><time>2026-04-23T15:15:32Z</time></trkpt>
<trkpt lat="46.50047" lon="6.75259"><ele>804.6</ele><time>2026-04-23T15:15:35Z</time></trkpt>
<trkpt lat="46.50058" lon="6.75245"><ele>803.2</ele><time>2026-04-23T15:15:37Z</time></trkpt>
<trkpt lat="46.50065" lon="6.75226"><ele>802</ele><time>2026-04-23T15:15:39Z</time></trkpt>
<trkpt lat="46.50066" lon="6.75206"><ele>801.4</ele><time>2026-04-23T15:15:41Z</time></trkpt>
<trkpt lat="46.50064" lon="6.75197"><ele>801.2</ele><time>2026-04-23T15:15:42Z</time></trkpt>
<trkpt lat="46.50062" lon="6.75188"><ele>801.2</ele><time>2026-04-23T15:15:43Z</time></trkpt>
<trkpt lat="46.50056" lon="6.7517"><ele>801</ele><time>2026-04-23T15:15:45Z</time></trkpt>
<trkpt lat="46.50055" lon="6.75161"><ele>801.2</ele><time>2026-04-23T15:15:46Z</time></trkpt>
<trkpt lat="46.50052" lon="6.75135"><ele>801.6</ele><time>2026-04-23T15:15:50Z</time></trkpt>
<trkpt lat="46.50053" lon="6.75117"><ele>802</ele><time>2026-04-23T15:15:54Z</time></trkpt>
<trkpt lat="46.50053" lon="6.75116"><ele>802</ele><time>2026-04-23T15:15:55Z</time></trkpt>
<trkpt lat="46.50053" lon="6.75116"><ele>802</ele><time>2026-04-23T15:15:57Z</time></trkpt>
<trkpt lat="46.50053" lon="6.75116"><ele>802</ele><time>2026-04-23T15:16:00Z</time></trkpt>
<trkpt lat="46.50053" lon="6.75116"><ele>801.8</ele><time>2026-04-23T15:16:07Z</time></trkpt>
<trkpt lat="46.50054" lon="6.75113"><ele>801.8</ele><time>2026-04-23T15:16:14Z</time></trkpt>
<trkpt lat="46.50054" lon="6.75114"><ele>801.6</ele><time>2026-04-23T15:16:20Z</time></trkpt>
<trkpt lat="46.50054" lon="6.75114"><ele>801.6</ele><time>2026-04-23T15:16:29Z</time></trkpt>
<trkpt lat="46.50054" lon="6.75114"><ele>801.6</ele><time>2026-04-23T15:16:38Z</time></trkpt>
<trkpt lat="46.50054" lon="6.75114"><ele>801.8</ele><time>2026-04-23T15:16:46Z</time></trkpt>
<trkpt lat="46.50054" lon="6.75114"><ele>801.6</ele><time>2026-04-23T15:16:54Z</time></trkpt>
<trkpt lat="46.50054" lon="6.75114"><ele>801.6</ele><time>2026-04-23T15:16:57Z</time></trkpt>
<trkpt lat="46.50054" lon="6.75114"><ele>802</ele><time>2026-04-23T15:16:59Z</time></trkpt>
<trkpt lat="46.50054" lon="6.75114"><ele>802</ele><time>2026-04-23T15:17:01Z</time></trkpt>
<trkpt lat="46.50054" lon="6.75114"><ele>802</ele><time>2026-04-23T15:17:04Z</time></trkpt>
<trkpt lat="46.50054" lon="6.75114"><ele>802</ele><time>2026-04-23T15:17:07Z</time></trkpt>
<trkpt lat="46.50054" lon="6.75114"><ele>802</ele><time>2026-04-23T15:17:13Z</time></trkpt>
<trkpt lat="46.50054" lon="6.75114"><ele>802</ele><time>2026-04-23T15:17:23Z</time></trkpt>
<trkpt lat="46.50054" lon="6.75114"><ele>802</ele><time>2026-04-23T15:17:31Z</time></trkpt>
<trkpt lat="46.50054" lon="6.75114"><ele>802</ele><time>2026-04-23T15:17:36Z</time></trkpt>
<trkpt lat="46.50054" lon="6.75114"><ele>802</ele><time>2026-04-23T15:17:39Z</time></trkpt>
<trkpt lat="46.50054" lon="6.75114"><ele>802</ele><time>2026-04-23T15:17:40Z</time></trkpt>
<trkpt lat="46.50054" lon="6.75114"><ele>802</ele><time>2026-04-23T15:17:46Z</time></trkpt>
<trkpt lat="46.50054" lon="6.75114"><ele>802</ele><time>2026-04-23T15:17:48Z</time></trkpt>
<trkpt lat="46.50054" lon="6.75114"><ele>802</ele><time>2026-04-23T15:17:50Z</time></trkpt>
<trkpt lat="46.50054" lon="6.75114"><ele>802</ele><time>2026-04-23T15:17:59Z</time></trkpt>
<trkpt lat="46.50054" lon="6.75114"><ele>802</ele><time>2026-04-23T15:18:01Z</time></trkpt>
<trkpt lat="46.50054" lon="6.75114"><ele>802</ele><time>2026-04-23T15:18:11Z</time></trkpt>
<trkpt lat="46.50054" lon="6.75114"><ele>802</ele><time>2026-04-23T15:18:19Z</time></trkpt>
<trkpt lat="46.50054" lon="6.75114"><ele>802</ele><time>2026-04-23T15:18:26Z</time></trkpt>
<trkpt lat="46.50054" lon="6.75114"><ele>802</ele><time>2026-04-23T15:18:30Z</time></trkpt>
<trkpt lat="46.50054" lon="6.75114"><ele>802</ele><time>2026-04-23T15:18:39Z</time></trkpt>
<trkpt lat="46.50054" lon="6.75114"><ele>802</ele><time>2026-04-23T15:18:53Z</time></trkpt>
<trkpt lat="46.50054" lon="6.75114"><ele>802</ele><time>2026-04-23T15:19:00Z</time></trkpt>
<trkpt lat="46.50054" lon="6.75113"><ele>802</ele><time>2026-04-23T15:19:11Z</time></trkpt>
<trkpt lat="46.50054" lon="6.75114"><ele>802</ele><time>2026-04-23T15:19:13Z</time></trkpt>
<trkpt lat="46.50054" lon="6.75114"><ele>802</ele><time>2026-04-23T15:19:18Z</time></trkpt>
<trkpt lat="46.50054" lon="6.75114"><ele>802</ele><time>2026-04-23T15:19:28Z</time></trkpt>
<trkpt lat="46.50054" lon="6.75114"><ele>802</ele><time>2026-04-23T15:19:35Z</time></trkpt>
<trkpt lat="46.50054" lon="6.75114"><ele>802</ele><time>2026-04-23T15:19:39Z</time></trkpt>
<trkpt lat="46.50054" lon="6.75114"><ele>802</ele><time>2026-04-23T15:19:41Z</time></trkpt>
<trkpt lat="46.50055" lon="6.75113"><ele>802</ele><time>2026-04-23T15:19:51Z</time></trkpt>
<trkpt lat="46.50055" lon="6.75113"><ele>802</ele><time>2026-04-23T15:20:01Z</time></trkpt>
<trkpt lat="46.50055" lon="6.75113"><ele>802</ele><time>2026-04-23T15:20:07Z</time></trkpt>
<trkpt lat="46.50055" lon="6.75113"><ele>802</ele><time>2026-04-23T15:20:12Z</time></trkpt>
<trkpt lat="46.50055" lon="6.75113"><ele>802</ele><time>2026-04-23T15:20:21Z</time></trkpt>
<trkpt lat="46.50055" lon="6.75113"><ele>802</ele><time>2026-04-23T15:20:30Z</time></trkpt>
<trkpt lat="46.50055" lon="6.75113"><ele>802</ele><time>2026-04-23T15:20:38Z</time></trkpt>
<trkpt lat="46.50055" lon="6.75113"><ele>802</ele><time>2026-04-23T15:20:47Z</time></trkpt>
<trkpt lat="46.50055" lon="6.75113"><ele>802</ele><time>2026-04-23T15:20:52Z</time></trkpt>
<trkpt lat="46.50056" lon="6.75113"><ele>802</ele><time>2026-04-23T15:20:54Z</time></trkpt>
<trkpt lat="46.50056" lon="6.75113"><ele>802</ele><time>2026-04-23T15:20:56Z</time></trkpt>
<trkpt lat="46.50056" lon="6.75113"><ele>802</ele><time>2026-04-23T15:20:57Z</time></trkpt>
<trkpt lat="46.50056" lon="6.75114"><ele>802</ele><time>2026-04-23T15:21:03Z</time></trkpt>
<trkpt lat="46.50055" lon="6.75114"><ele>802</ele><time>2026-04-23T15:21:06Z</time></trkpt>
<trkpt lat="46.50054" lon="6.75114"><ele>802</ele><time>2026-04-23T15:21:14Z</time></trkpt>
<trkpt lat="46.50054" lon="6.75114"><ele>802</ele><time>2026-04-23T15:21:20Z</time></trkpt>
<trkpt lat="46.50054" lon="6.75114"><ele>802</ele><time>2026-04-23T15:21:23Z</time></trkpt>
<trkpt lat="46.50054" lon="6.75114"><ele>802</ele><time>2026-04-23T15:21:28Z</time></trkpt>
<trkpt lat="46.50054" lon="6.75114"><ele>802</ele><time>2026-04-23T15:21:40Z</time></trkpt>
<trkpt lat="46.50054" lon="6.75114"><ele>802</ele><time>2026-04-23T15:21:51Z</time></trkpt>
<trkpt lat="46.50054" lon="6.75114"><ele>802</ele><time>2026-04-23T15:21:58Z</time></trkpt>
<trkpt lat="46.50054" lon="6.75114"><ele>802</ele><time>2026-04-23T15:22:11Z</time></trkpt>
<trkpt lat="46.50054" lon="6.75114"><ele>802</ele><time>2026-04-23T15:22:19Z</time></trkpt>
<trkpt lat="46.50054" lon="6.75114"><ele>802</ele><time>2026-04-23T15:22:31Z</time></trkpt>
<trkpt lat="46.50054" lon="6.75114"><ele>802</ele><time>2026-04-23T15:22:41Z</time></trkpt>
<trkpt lat="46.50054" lon="6.75114"><ele>802</ele><time>2026-04-23T15:22:46Z</time></trkpt>
<trkpt lat="46.50054" lon="6.75114"><ele>802</ele><time>2026-04-23T15:22:49Z</time></trkpt>
<trkpt lat="46.50054" lon="6.75114"><ele>802</ele><time>2026-04-23T15:22:56Z</time></trkpt>
<trkpt lat="46.50054" lon="6.75114"><ele>802</ele><time>2026-04-23T15:23:03Z</time></trkpt>
<trkpt lat="46.50054" lon="6.75114"><ele>802</ele><time>2026-04-23T15:23:07Z</time></trkpt>
<trkpt lat="46.50054" lon="6.75114"><ele>802</ele><time>2026-04-23T15:23:10Z</time></trkpt>
<trkpt lat="46.50054" lon="6.75114"><ele>802</ele><time>2026-04-23T15:23:19Z</time></trkpt>
<trkpt lat="46.50054" lon="6.75114"><ele>802</ele><time>2026-04-23T15:23:28Z</time></trkpt>
<trkpt lat="46.50054" lon="6.75114"><ele>802</ele><time>2026-04-23T15:23:34Z</time></trkpt>
<trkpt lat="46.50054" lon="6.75114"><ele>802</ele><time>2026-04-23T15:23:39Z</time></trkpt>
<trkpt lat="46.50054" lon="6.75114"><ele>802</ele><time>2026-04-23T15:23:45Z</time></trkpt>
<trkpt lat="46.50054" lon="6.75114"><ele>802</ele><time>2026-04-23T15:23:53Z</time></trkpt>
<trkpt lat="46.50054" lon="6.75114"><ele>802</ele><time>2026-04-23T15:23:55Z</time></trkpt>
<trkpt lat="46.50054" lon="6.75114"><ele>802</ele><time>2026-04-23T15:24:05Z</time></trkpt>
<trkpt lat="46.50054" lon="6.75114"><ele>802</ele><time>2026-04-23T15:24:12Z</time></trkpt>
<trkpt lat="46.50055" lon="6.75115"><ele>802</ele><time>2026-04-23T15:24:16Z</time></trkpt>
<trkpt lat="46.50055" lon="6.75115"><ele>802</ele><time>2026-04-23T15:24:21Z</time></trkpt>
<trkpt lat="46.50055" lon="6.75115"><ele>802</ele><time>2026-04-23T15:24:22Z</time></trkpt>
<trkpt lat="46.50055" lon="6.75113"><ele>802</ele><time>2026-04-23T15:24:27Z</time></trkpt>
<trkpt lat="46.50055" lon="6.75113"><ele>802</ele><time>2026-04-23T15:24:34Z</time></trkpt>
<trkpt lat="46.50055" lon="6.75113"><ele>802</ele><time>2026-04-23T15:24:40Z</time></trkpt>
<trkpt lat="46.50055" lon="6.75113"><ele>802</ele><time>2026-04-23T15:24:47Z</time></trkpt>
<trkpt lat="46.50055" lon="6.75113"><ele>802</ele><time>2026-04-23T15:24:54Z</time></trkpt>
<trkpt lat="46.50055" lon="6.75113"><ele>802</ele><time>2026-04-23T15:24:55Z</time></trkpt>
<trkpt lat="46.50055" lon="6.75113"><ele>802</ele><time>2026-04-23T15:25:01Z</time></trkpt>
<trkpt lat="46.50055" lon="6.75112"><ele>802</ele><time>2026-04-23T15:25:06Z</time></trkpt>
<trkpt lat="46.50057" lon="6.75111"><ele>802</ele><time>2026-04-23T15:25:11Z</time></trkpt>
<trkpt lat="46.50056" lon="6.75113"><ele>802</ele><time>2026-04-23T15:25:15Z</time></trkpt>
<trkpt lat="46.50056" lon="6.75114"><ele>802</ele><time>2026-04-23T15:25:16Z</time></trkpt>
<trkpt lat="46.50055" lon="6.75115"><ele>802</ele><time>2026-04-23T15:25:17Z</time></trkpt>
<trkpt lat="46.50053" lon="6.75115"><ele>802</ele><time>2026-04-23T15:25:20Z</time></trkpt>
<trkpt lat="46.50053" lon="6.75115"><ele>801.8</ele><time>2026-04-23T15:25:21Z</time></trkpt>
<trkpt lat="46.50053" lon="6.75115"><ele>801.6</ele><time>2026-04-23T15:25:26Z</time></trkpt>
<trkpt lat="46.50057" lon="6.7511"><ele>802.4</ele><time>2026-04-23T15:25:32Z</time></trkpt>
<trkpt lat="46.50059" lon="6.75111"><ele>802.4</ele><time>2026-04-23T15:25:36Z</time></trkpt>
<trkpt lat="46.50063" lon="6.75108"><ele>802.4</ele><time>2026-04-23T15:25:40Z</time></trkpt>
<trkpt lat="46.50063" lon="6.75108"><ele>802.4</ele><time>2026-04-23T15:25:41Z</time></trkpt>
<trkpt lat="46.50065" lon="6.75107"><ele>802.6</ele><time>2026-04-23T15:25:43Z</time></trkpt>
<trkpt lat="46.50071" lon="6.75103"><ele>803</ele><time>2026-04-23T15:25:49Z</time></trkpt>
<trkpt lat="46.50071" lon="6.75103"><ele>803</ele><time>2026-04-23T15:25:50Z</time></trkpt>
<trkpt lat="46.50071" lon="6.75103"><ele>803.2</ele><time>2026-04-23T15:25:51Z</time></trkpt>
<trkpt lat="46.50072" lon="6.75104"><ele>803.4</ele><time>2026-04-23T15:25:56Z</time></trkpt>
<trkpt lat="46.50072" lon="6.75104"><ele>803.2</ele><time>2026-04-23T15:26:04Z</time></trkpt>
<trkpt lat="46.50072" lon="6.75104"><ele>803.4</ele><time>2026-04-23T15:26:13Z</time></trkpt>
<trkpt lat="46.50072" lon="6.75104"><ele>803.4</ele><time>2026-04-23T15:26:14Z</time></trkpt>
<trkpt lat="46.50072" lon="6.75104"><ele>803.2</ele><time>2026-04-23T15:26:28Z</time></trkpt>
<trkpt lat="46.50072" lon="6.75104"><ele>803.2</ele><time>2026-04-23T15:26:37Z</time></trkpt>
<trkpt lat="46.50073" lon="6.75104"><ele>803.2</ele><time>2026-04-23T15:26:43Z</time></trkpt>
<trkpt lat="46.50072" lon="6.75105"><ele>803.4</ele><time>2026-04-23T15:26:45Z</time></trkpt>
<trkpt lat="46.5007" lon="6.75106"><ele>803.6</ele><time>2026-04-23T15:26:46Z</time></trkpt>
<trkpt lat="46.50058" lon="6.75115"><ele>802.8</ele><time>2026-04-23T15:26:51Z</time></trkpt>
<trkpt lat="46.50054" lon="6.7512"><ele>802.4</ele><time>2026-04-23T15:26:53Z</time></trkpt>
<trkpt lat="46.50055" lon="6.75121"><ele>802.2</ele><time>2026-04-23T15:26:54Z</time></trkpt>
<trkpt lat="46.50057" lon="6.75121"><ele>802</ele><time>2026-04-23T15:26:55Z</time></trkpt>
<trkpt lat="46.50058" lon="6.75116"><ele>801.8</ele><time>2026-04-23T15:26:57Z</time></trkpt>
<trkpt lat="46.50067" lon="6.75106"><ele>803</ele><time>2026-04-23T15:27:02Z</time></trkpt>
<trkpt lat="46.50085" lon="6.75092"><ele>804.2</ele><time>2026-04-23T15:27:09Z</time></trkpt>
<trkpt lat="46.5009" lon="6.75088"><ele>804.4</ele><time>2026-04-23T15:27:12Z</time></trkpt>
<trkpt lat="46.50089" lon="6.75088"><ele>804.4</ele><time>2026-04-23T15:27:13Z</time></trkpt>
<trkpt lat="46.50082" lon="6.75095"><ele>804.2</ele><time>2026-04-23T15:27:17Z</time></trkpt>
<trkpt lat="46.50072" lon="6.75104"><ele>803.6</ele><time>2026-04-23T15:27:22Z</time></trkpt>
<trkpt lat="46.50072" lon="6.75104"><ele>803.2</ele><time>2026-04-23T15:27:27Z</time></trkpt>
<trkpt lat="46.50072" lon="6.75105"><ele>803.2</ele><time>2026-04-23T15:27:33Z</time></trkpt>
<trkpt lat="46.5007" lon="6.75104"><ele>803.2</ele><time>2026-04-23T15:27:34Z</time></trkpt>
<trkpt lat="46.50073" lon="6.75101"><ele>803.4</ele><time>2026-04-23T15:27:37Z</time></trkpt>
<trkpt lat="46.50077" lon="6.751"><ele>803.6</ele><time>2026-04-23T15:27:41Z</time></trkpt>
<trkpt lat="46.50077" lon="6.751"><ele>804</ele><time>2026-04-23T15:27:47Z</time></trkpt>
<trkpt lat="46.50077" lon="6.751"><ele>803.6</ele><time>2026-04-23T15:27:54Z</time></trkpt>
<trkpt lat="46.50085" lon="6.75093"><ele>804</ele><time>2026-04-23T15:27:58Z</time></trkpt>
<trkpt lat="46.50104" lon="6.75074"><ele>804.4</ele><time>2026-04-23T15:28:04Z</time></trkpt>
<trkpt lat="46.50124" lon="6.75052"><ele>804.8</ele><time>2026-04-23T15:28:09Z</time></trkpt>
<trkpt lat="46.50131" lon="6.75043"><ele>805.2</ele><time>2026-04-23T15:28:11Z</time></trkpt>
<trkpt lat="46.50134" lon="6.75038"><ele>805.4</ele><time>2026-04-23T15:28:12Z</time></trkpt>
<trkpt lat="46.50143" lon="6.75025"><ele>806.4</ele><time>2026-04-23T15:28:15Z</time></trkpt>
<trkpt lat="46.50146" lon="6.75021"><ele>807</ele><time>2026-04-23T15:28:16Z</time></trkpt>
<trkpt lat="46.50152" lon="6.75016"><ele>808</ele><time>2026-04-23T15:28:18Z</time></trkpt>
<trkpt lat="46.50161" lon="6.75004"><ele>809.4</ele><time>2026-04-23T15:28:21Z</time></trkpt>
<trkpt lat="46.50165" lon="6.75"><ele>809.6</ele><time>2026-04-23T15:28:22Z</time></trkpt>
<trkpt lat="46.50188" lon="6.74973"><ele>808.8</ele><time>2026-04-23T15:28:27Z</time></trkpt>
<trkpt lat="46.50198" lon="6.7496"><ele>808</ele><time>2026-04-23T15:28:29Z</time></trkpt>
<trkpt lat="46.50209" lon="6.74947"><ele>807.6</ele><time>2026-04-23T15:28:31Z</time></trkpt>
<trkpt lat="46.50219" lon="6.74937"><ele>807.8</ele><time>2026-04-23T15:28:33Z</time></trkpt>
<trkpt lat="46.50229" lon="6.74928"><ele>808.4</ele><time>2026-04-23T15:28:35Z</time></trkpt>
<trkpt lat="46.50234" lon="6.74924"><ele>809.2</ele><time>2026-04-23T15:28:37Z</time></trkpt>
<trkpt lat="46.50233" lon="6.74923"><ele>810</ele><time>2026-04-23T15:28:40Z</time></trkpt>
<trkpt lat="46.50233" lon="6.74923"><ele>810</ele><time>2026-04-23T15:28:48Z</time></trkpt>
<trkpt lat="46.50233" lon="6.74923"><ele>809.8</ele><time>2026-04-23T15:28:57Z</time></trkpt>
<trkpt lat="46.50233" lon="6.74923"><ele>809.8</ele><time>2026-04-23T15:29:04Z</time></trkpt>
<trkpt lat="46.50233" lon="6.74923"><ele>809.8</ele><time>2026-04-23T15:29:09Z</time></trkpt>
<trkpt lat="46.50233" lon="6.74923"><ele>810</ele><time>2026-04-23T15:29:15Z</time></trkpt>
<trkpt lat="46.50233" lon="6.74923"><ele>810</ele><time>2026-04-23T15:29:16Z</time></trkpt>
<trkpt lat="46.50233" lon="6.74923"><ele>809.6</ele><time>2026-04-23T15:29:20Z</time></trkpt>
<trkpt lat="46.50233" lon="6.74923"><ele>809.4</ele><time>2026-04-23T15:29:23Z</time></trkpt>
<trkpt lat="46.50233" lon="6.74923"><ele>809.6</ele><time>2026-04-23T15:29:25Z</time></trkpt>
<trkpt lat="46.50233" lon="6.74923"><ele>809.6</ele><time>2026-04-23T15:29:28Z</time></trkpt>
<trkpt lat="46.50234" lon="6.74923"><ele>809.4</ele><time>2026-04-23T15:29:30Z</time></trkpt>
<trkpt lat="46.50236" lon="6.74923"><ele>809.8</ele><time>2026-04-23T15:29:33Z</time></trkpt>
<trkpt lat="46.50236" lon="6.74924"><ele>809.8</ele><time>2026-04-23T15:29:35Z</time></trkpt>
<trkpt lat="46.50236" lon="6.74923"><ele>809.8</ele><time>2026-04-23T15:29:39Z</time></trkpt>
<trkpt lat="46.50239" lon="6.74921"><ele>810.2</ele><time>2026-04-23T15:29:44Z</time></trkpt>
<trkpt lat="46.5024" lon="6.74921"><ele>810.2</ele><time>2026-04-23T15:29:46Z</time></trkpt>
<trkpt lat="46.5024" lon="6.74921"><ele>810.2</ele><time>2026-04-23T15:29:50Z</time></trkpt>
<trkpt lat="46.50241" lon="6.74921"><ele>810.2</ele><time>2026-04-23T15:29:55Z</time></trkpt>
<trkpt lat="46.50241" lon="6.74921"><ele>810.2</ele><time>2026-04-23T15:29:56Z</time></trkpt>
<trkpt lat="46.50242" lon="6.74918"><ele>810.2</ele><time>2026-04-23T15:29:58Z</time></trkpt>
<trkpt lat="46.50243" lon="6.74918"><ele>810</ele><time>2026-04-23T15:29:59Z</time></trkpt>
<trkpt lat="46.50244" lon="6.74916"><ele>810.2</ele><time>2026-04-23T15:30:03Z</time></trkpt>
<trkpt lat="46.50244" lon="6.74916"><ele>810.2</ele><time>2026-04-23T15:30:04Z</time></trkpt>
<trkpt lat="46.50247" lon="6.74913"><ele>810.6</ele><time>2026-04-23T15:30:09Z</time></trkpt>
<trkpt lat="46.50251" lon="6.7491"><ele>810.6</ele><time>2026-04-23T15:30:16Z</time></trkpt>
<trkpt lat="46.50255" lon="6.74908"><ele>811</ele><time>2026-04-23T15:30:22Z</time></trkpt>
<trkpt lat="46.50258" lon="6.74903"><ele>811.2</ele><time>2026-04-23T15:30:28Z</time></trkpt>
<trkpt lat="46.50262" lon="6.749"><ele>811.2</ele><time>2026-04-23T15:30:32Z</time></trkpt>
<trkpt lat="46.50264" lon="6.74897"><ele>811.4</ele><time>2026-04-23T15:30:34Z</time></trkpt>
<trkpt lat="46.50272" lon="6.74888"><ele>811.6</ele><time>2026-04-23T15:30:40Z</time></trkpt>
<trkpt lat="46.50286" lon="6.74873"><ele>811.8</ele><time>2026-04-23T15:30:47Z</time></trkpt>
<trkpt lat="46.50297" lon="6.7486"><ele>812.2</ele><time>2026-04-23T15:30:52Z</time></trkpt>
<trkpt lat="46.50307" lon="6.74849"><ele>813.4</ele><time>2026-04-23T15:30:56Z</time></trkpt>
<trkpt lat="46.50313" lon="6.74845"><ele>814.4</ele><time>2026-04-23T15:30:59Z</time></trkpt>
<trkpt lat="46.50314" lon="6.74844"><ele>814.6</ele><time>2026-04-23T15:31:00Z</time></trkpt>
<trkpt lat="46.50324" lon="6.74838"><ele>815</ele><time>2026-04-23T15:31:04Z</time></trkpt>
<trkpt lat="46.50345" lon="6.74827"><ele>815</ele><time>2026-04-23T15:31:10Z</time></trkpt>
<trkpt lat="46.50359" lon="6.74829"><ele>815.4</ele><time>2026-04-23T15:31:15Z</time></trkpt>
<trkpt lat="46.50362" lon="6.74829"><ele>815.6</ele><time>2026-04-23T15:31:16Z</time></trkpt>
<trkpt lat="46.50369" lon="6.74832"><ele>816.6</ele><time>2026-04-23T15:31:20Z</time></trkpt>
<trkpt lat="46.50371" lon="6.74834"><ele>817.4</ele><time>2026-04-23T15:31:22Z</time></trkpt>
<trkpt lat="46.50374" lon="6.74833"><ele>817.6</ele><time>2026-04-23T15:31:24Z</time></trkpt>
<trkpt lat="46.50377" lon="6.74837"><ele>818</ele><time>2026-04-23T15:31:27Z</time></trkpt>
<trkpt lat="46.5038" lon="6.74839"><ele>818.6</ele><time>2026-04-23T15:31:30Z</time></trkpt>
<trkpt lat="46.50385" lon="6.7484"><ele>819</ele><time>2026-04-23T15:31:33Z</time></trkpt>
<trkpt lat="46.50398" lon="6.74846"><ele>819.6</ele><time>2026-04-23T15:31:42Z</time></trkpt>
<trkpt lat="46.50414" lon="6.74859"><ele>819</ele><time>2026-04-23T15:31:49Z</time></trkpt>
<trkpt lat="46.50417" lon="6.74861"><ele>818.6</ele><time>2026-04-23T15:31:53Z</time></trkpt>
<trkpt lat="46.50417" lon="6.74861"><ele>818.6</ele><time>2026-04-23T15:32:00Z</time></trkpt>
<trkpt lat="46.50417" lon="6.74861"><ele>818.2</ele><time>2026-04-23T15:32:08Z</time></trkpt>
<trkpt lat="46.50417" lon="6.74861"><ele>818.6</ele><time>2026-04-23T15:32:11Z</time></trkpt>
<trkpt lat="46.50417" lon="6.74861"><ele>818.6</ele><time>2026-04-23T15:32:13Z</time></trkpt>
<trkpt lat="46.50418" lon="6.74861"><ele>818.8</ele><time>2026-04-23T15:32:14Z</time></trkpt>
<trkpt lat="46.50419" lon="6.74862"><ele>818.8</ele><time>2026-04-23T15:32:15Z</time></trkpt>
<trkpt lat="46.50427" lon="6.74873"><ele>818.6</ele><time>2026-04-23T15:32:20Z</time></trkpt>
<trkpt lat="46.50435" lon="6.74882"><ele>817.6</ele><time>2026-04-23T15:32:23Z</time></trkpt>
<trkpt lat="46.50443" lon="6.74892"><ele>817</ele><time>2026-04-23T15:32:26Z</time></trkpt>
<trkpt lat="46.5045" lon="6.74901"><ele>817</ele><time>2026-04-23T15:32:29Z</time></trkpt>
<trkpt lat="46.50452" lon="6.74907"><ele>817.4</ele><time>2026-04-23T15:32:31Z</time></trkpt>
<trkpt lat="46.50453" lon="6.7491"><ele>817.4</ele><time>2026-04-23T15:32:32Z</time></trkpt>
<trkpt lat="46.50453" lon="6.74912"><ele>817.4</ele><time>2026-04-23T15:32:37Z</time></trkpt>
<trkpt lat="46.50455" lon="6.74911"><ele>817.6</ele><time>2026-04-23T15:32:42Z</time></trkpt>
<trkpt lat="46.50455" lon="6.74911"><ele>817.2</ele><time>2026-04-23T15:32:52Z</time></trkpt>
<trkpt lat="46.50455" lon="6.74911"><ele>817.4</ele><time>2026-04-23T15:32:54Z</time></trkpt>
<trkpt lat="46.50455" lon="6.74911"><ele>817.8</ele><time>2026-04-23T15:33:03Z</time></trkpt>
<trkpt lat="46.50455" lon="6.74911"><ele>817.4</ele><time>2026-04-23T15:33:06Z</time></trkpt>
<trkpt lat="46.50452" lon="6.74905"><ele>817.4</ele><time>2026-04-23T15:33:08Z</time></trkpt>
<trkpt lat="46.50438" lon="6.74887"><ele>817.4</ele><time>2026-04-23T15:33:14Z</time></trkpt>
<trkpt lat="46.50438" lon="6.74889"><ele>817.4</ele><time>2026-04-23T15:33:15Z</time></trkpt>
<trkpt lat="46.5044" lon="6.74892"><ele>817.4</ele><time>2026-04-23T15:33:17Z</time></trkpt>
<trkpt lat="46.50442" lon="6.74894"><ele>817.4</ele><time>2026-04-23T15:33:21Z</time></trkpt>
<trkpt lat="46.50448" lon="6.749"><ele>817.4</ele><time>2026-04-23T15:33:26Z</time></trkpt>
<trkpt lat="46.50464" lon="6.74924"><ele>817.8</ele><time>2026-04-23T15:33:33Z</time></trkpt>
<trkpt lat="46.5048" lon="6.74946"><ele>818.6</ele><time>2026-04-23T15:33:40Z</time></trkpt>
<trkpt lat="46.50488" lon="6.74957"><ele>819</ele><time>2026-04-23T15:33:43Z</time></trkpt>
<trkpt lat="46.50496" lon="6.74972"><ele>819.4</ele><time>2026-04-23T15:33:47Z</time></trkpt>
<trkpt lat="46.50497" lon="6.74971"><ele>819.4</ele><time>2026-04-23T15:33:48Z</time></trkpt>
<trkpt lat="46.50497" lon="6.74969"><ele>819.4</ele><time>2026-04-23T15:33:49Z</time></trkpt>
<trkpt lat="46.50494" lon="6.74966"><ele>819.4</ele><time>2026-04-23T15:33:51Z</time></trkpt>
<trkpt lat="46.50481" lon="6.74949"><ele>819</ele><time>2026-04-23T15:33:56Z</time></trkpt>
<trkpt lat="46.50461" lon="6.74921"><ele>818.2</ele><time>2026-04-23T15:34:02Z</time></trkpt>
<trkpt lat="46.50456" lon="6.74915"><ele>818</ele><time>2026-04-23T15:34:05Z</time></trkpt>
<trkpt lat="46.50452" lon="6.7491"><ele>817.8</ele><time>2026-04-23T15:34:11Z</time></trkpt>
<trkpt lat="46.50452" lon="6.7491"><ele>817.8</ele><time>2026-04-23T15:34:23Z</time></trkpt>
<trkpt lat="46.50455" lon="6.74911"><ele>817.8</ele><time>2026-04-23T15:34:28Z</time></trkpt>
<trkpt lat="46.50456" lon="6.74915"><ele>818</ele><time>2026-04-23T15:34:33Z</time></trkpt>
<trkpt lat="46.50457" lon="6.74917"><ele>817.8</ele><time>2026-04-23T15:34:37Z</time></trkpt>
<trkpt lat="46.50457" lon="6.74917"><ele>817.8</ele><time>2026-04-23T15:34:43Z</time></trkpt>
<trkpt lat="46.50457" lon="6.74917"><ele>817.8</ele><time>2026-04-23T15:34:46Z</time></trkpt>
<trkpt lat="46.50457" lon="6.74917"><ele>817.8</ele><time>2026-04-23T15:34:48Z</time></trkpt>
<trkpt lat="46.50457" lon="6.74916"><ele>817.8</ele><time>2026-04-23T15:34:49Z</time></trkpt>
<trkpt lat="46.50457" lon="6.74917"><ele>817.8</ele><time>2026-04-23T15:34:56Z</time></trkpt>
<trkpt lat="46.50457" lon="6.74917"><ele>817.8</ele><time>2026-04-23T15:35:00Z</time></trkpt>
<trkpt lat="46.50457" lon="6.74917"><ele>817.8</ele><time>2026-04-23T15:35:01Z</time></trkpt>
<trkpt lat="46.50457" lon="6.74917"><ele>817.8</ele><time>2026-04-23T15:35:02Z</time></trkpt>
<trkpt lat="46.50457" lon="6.74917"><ele>817.8</ele><time>2026-04-23T15:35:04Z</time></trkpt>
<trkpt lat="46.50457" lon="6.74917"><ele>817.6</ele><time>2026-04-23T15:35:09Z</time></trkpt>
<trkpt lat="46.50457" lon="6.74917"><ele>817.6</ele><time>2026-04-23T15:35:10Z</time></trkpt>
<trkpt lat="46.50457" lon="6.74917"><ele>817.6</ele><time>2026-04-23T15:35:14Z</time></trkpt>
<trkpt lat="46.50457" lon="6.74917"><ele>817.8</ele><time>2026-04-23T15:35:26Z</time></trkpt>
<trkpt lat="46.50457" lon="6.74917"><ele>818.2</ele><time>2026-04-23T15:35:31Z</time></trkpt>
<trkpt lat="46.50457" lon="6.74917"><ele>818.2</ele><time>2026-04-23T15:35:40Z</time></trkpt>
<trkpt lat="46.50457" lon="6.74914"><ele>818.2</ele><time>2026-04-23T15:35:45Z</time></trkpt>
<trkpt lat="46.50458" lon="6.74915"><ele>818.2</ele><time>2026-04-23T15:35:48Z</time></trkpt>
<trkpt lat="46.50457" lon="6.74917"><ele>818.2</ele><time>2026-04-23T15:35:53Z</time></trkpt>
<trkpt lat="46.50457" lon="6.74916"><ele>818.2</ele><time>2026-04-23T15:35:59Z</time></trkpt>
<trkpt lat="46.50457" lon="6.74917"><ele>818.2</ele><time>2026-04-23T15:36:06Z</time></trkpt>
<trkpt lat="46.50457" lon="6.74916"><ele>818.2</ele><time>2026-04-23T15:36:08Z</time></trkpt>
<trkpt lat="46.5046" lon="6.74918"><ele>818.4</ele><time>2026-04-23T15:36:11Z</time></trkpt>
<trkpt lat="46.50468" lon="6.74928"><ele>818.6</ele><time>2026-04-23T15:36:16Z</time></trkpt>
<trkpt lat="46.5047" lon="6.74931"><ele>818.6</ele><time>2026-04-23T15:36:17Z</time></trkpt>
<trkpt lat="46.50471" lon="6.74933"><ele>818.8</ele><time>2026-04-23T15:36:18Z</time></trkpt>
<trkpt lat="46.50481" lon="6.74946"><ele>819.2</ele><time>2026-04-23T15:36:23Z</time></trkpt>
<trkpt lat="46.50494" lon="6.74966"><ele>819.6</ele><time>2026-04-23T15:36:31Z</time></trkpt>
<trkpt lat="46.50505" lon="6.74984"><ele>820.2</ele><time>2026-04-23T15:36:37Z</time></trkpt>
<trkpt lat="46.50514" lon="6.74996"><ele>820.8</ele><time>2026-04-23T15:36:41Z</time></trkpt>
<trkpt lat="46.5052" lon="6.75006"><ele>820.8</ele><time>2026-04-23T15:36:44Z</time></trkpt>
<trkpt lat="46.50533" lon="6.75022"><ele>821.4</ele><time>2026-04-23T15:36:50Z</time></trkpt>
<trkpt lat="46.50536" lon="6.75026"><ele>821.8</ele><time>2026-04-23T15:36:52Z</time></trkpt>
<trkpt lat="46.5054" lon="6.75032"><ele>822.4</ele><time>2026-04-23T15:36:55Z</time></trkpt>
<trkpt lat="46.50546" lon="6.7504"><ele>822.8</ele><time>2026-04-23T15:37:00Z</time></trkpt>
<trkpt lat="46.50549" lon="6.75046"><ele>822.8</ele><time>2026-04-23T15:37:02Z</time></trkpt>
<trkpt lat="46.50565" lon="6.7506"><ele>822.6</ele><time>2026-04-23T15:37:08Z</time></trkpt>
<trkpt lat="46.5057" lon="6.75059"><ele>822.4</ele><time>2026-04-23T15:37:09Z</time></trkpt>
<trkpt lat="46.50581" lon="6.75056"><ele>821.4</ele><time>2026-04-23T15:37:11Z</time></trkpt>
<trkpt lat="46.50594" lon="6.75049"><ele>820</ele><time>2026-04-23T15:37:13Z</time></trkpt>
<trkpt lat="46.506" lon="6.75043"><ele>819.2</ele><time>2026-04-23T15:37:14Z</time></trkpt>
<trkpt lat="46.50605" lon="6.75035"><ele>818.2</ele><time>2026-04-23T15:37:15Z</time></trkpt>
<trkpt lat="46.50607" lon="6.75025"><ele>817.6</ele><time>2026-04-23T15:37:16Z</time></trkpt>
<trkpt lat="46.50608" lon="6.75015"><ele>817.2</ele><time>2026-04-23T15:37:17Z</time></trkpt>
<trkpt lat="46.50609" lon="6.75005"><ele>817.2</ele><time>2026-04-23T15:37:18Z</time></trkpt>
<trkpt lat="46.50609" lon="6.7498"><ele>818.4</ele><time>2026-04-23T15:37:21Z</time></trkpt>
<trkpt lat="46.5061" lon="6.74966"><ele>819.2</ele><time>2026-04-23T15:37:23Z</time></trkpt>
<trkpt lat="46.5061" lon="6.74959"><ele>819.6</ele><time>2026-04-23T15:37:24Z</time></trkpt>
<trkpt lat="46.50614" lon="6.7494"><ele>820.8</ele><time>2026-04-23T15:37:28Z</time></trkpt>
<trkpt lat="46.50615" lon="6.74936"><ele>821</ele><time>2026-04-23T15:37:29Z</time></trkpt>
<trkpt lat="46.50621" lon="6.74918"><ele>822</ele><time>2026-04-23T15:37:34Z</time></trkpt>
<trkpt lat="46.50622" lon="6.74915"><ele>822.2</ele><time>2026-04-23T15:37:35Z</time></trkpt>
<trkpt lat="46.50627" lon="6.74905"><ele>823.2</ele><time>2026-04-23T15:37:38Z</time></trkpt>
<trkpt lat="46.50632" lon="6.74901"><ele>823.8</ele><time>2026-04-23T15:37:40Z</time></trkpt>
<trkpt lat="46.50638" lon="6.74899"><ele>824.4</ele><time>2026-04-23T15:37:42Z</time></trkpt>
<trkpt lat="46.50644" lon="6.74902"><ele>824.8</ele><time>2026-04-23T15:37:44Z</time></trkpt>
<trkpt lat="46.50647" lon="6.74904"><ele>824.8</ele><time>2026-04-23T15:37:45Z</time></trkpt>
<trkpt lat="46.50661" lon="6.74914"><ele>824.2</ele><time>2026-04-23T15:37:48Z</time></trkpt>
<trkpt lat="46.50674" lon="6.74931"><ele>823.2</ele><time>2026-04-23T15:37:51Z</time></trkpt>
<trkpt lat="46.50683" lon="6.74944"><ele>822.6</ele><time>2026-04-23T15:37:53Z</time></trkpt>
<trkpt lat="46.50691" lon="6.74958"><ele>822</ele><time>2026-04-23T15:37:55Z</time></trkpt>
<trkpt lat="46.50706" lon="6.74979"><ele>820.8</ele><time>2026-04-23T15:37:58Z</time></trkpt>
<trkpt lat="46.50712" lon="6.74986"><ele>820.2</ele><time>2026-04-23T15:37:59Z</time></trkpt>
<trkpt lat="46.50718" lon="6.74992"><ele>819.4</ele><time>2026-04-23T15:38:00Z</time></trkpt>
<trkpt lat="46.50727" lon="6.74996"><ele>818.4</ele><time>2026-04-23T15:38:01Z</time></trkpt>
<trkpt lat="46.50736" lon="6.75"><ele>817.2</ele><time>2026-04-23T15:38:02Z</time></trkpt>
<trkpt lat="46.50753" lon="6.75009"><ele>815</ele><time>2026-04-23T15:38:04Z</time></trkpt>
<trkpt lat="46.50762" lon="6.75016"><ele>813.6</ele><time>2026-04-23T15:38:05Z</time></trkpt>
<trkpt lat="46.5077" lon="6.75022"><ele>812.4</ele><time>2026-04-23T15:38:06Z</time></trkpt>
<trkpt lat="46.50777" lon="6.75029"><ele>811.4</ele><time>2026-04-23T15:38:07Z</time></trkpt>
<trkpt lat="46.50788" lon="6.75035"><ele>810</ele><time>2026-04-23T15:38:09Z</time></trkpt>
<trkpt lat="46.50792" lon="6.75034"><ele>809.4</ele><time>2026-04-23T15:38:10Z</time></trkpt>
<trkpt lat="46.50794" lon="6.75032"><ele>808.8</ele><time>2026-04-23T15:38:11Z</time></trkpt>
<trkpt lat="46.50795" lon="6.75025"><ele>808</ele><time>2026-04-23T15:38:13Z</time></trkpt>
<trkpt lat="46.50794" lon="6.75014"><ele>807.4</ele><time>2026-04-23T15:38:15Z</time></trkpt>
<trkpt lat="46.50791" lon="6.75004"><ele>806.8</ele><time>2026-04-23T15:38:17Z</time></trkpt>
<trkpt lat="46.50787" lon="6.74991"><ele>806</ele><time>2026-04-23T15:38:19Z</time></trkpt>
<trkpt lat="46.50782" lon="6.74978"><ele>805.6</ele><time>2026-04-23T15:38:21Z</time></trkpt>
<trkpt lat="46.50778" lon="6.74963"><ele>805</ele><time>2026-04-23T15:38:23Z</time></trkpt>
<trkpt lat="46.50774" lon="6.74933"><ele>803.6</ele><time>2026-04-23T15:38:26Z</time></trkpt>
<trkpt lat="46.50768" lon="6.7491"><ele>802</ele><time>2026-04-23T15:38:28Z</time></trkpt>
<trkpt lat="46.5076" lon="6.74889"><ele>800.6</ele><time>2026-04-23T15:38:30Z</time></trkpt>
<trkpt lat="46.50736" lon="6.74829"><ele>799.8</ele><time>2026-04-23T15:38:36Z</time></trkpt>
<trkpt lat="46.50732" lon="6.74821"><ele>800</ele><time>2026-04-23T15:38:37Z</time></trkpt>
<trkpt lat="46.50723" lon="6.74808"><ele>800.2</ele><time>2026-04-23T15:38:39Z</time></trkpt>
<trkpt lat="46.50717" lon="6.74802"><ele>800.2</ele><time>2026-04-23T15:38:40Z</time></trkpt>
<trkpt lat="46.50695" lon="6.74776"><ele>801.2</ele><time>2026-04-23T15:38:45Z</time></trkpt>
<trkpt lat="46.50676" lon="6.74743"><ele>800.8</ele><time>2026-04-23T15:38:50Z</time></trkpt>
<trkpt lat="46.50662" lon="6.74715"><ele>799</ele><time>2026-04-23T15:38:53Z</time></trkpt>
<trkpt lat="46.50657" lon="6.74706"><ele>798.2</ele><time>2026-04-23T15:38:54Z</time></trkpt>
<trkpt lat="46.50653" lon="6.74697"><ele>797.6</ele><time>2026-04-23T15:38:55Z</time></trkpt>
<trkpt lat="46.50645" lon="6.74678"><ele>796.8</ele><time>2026-04-23T15:38:57Z</time></trkpt>
<trkpt lat="46.50644" lon="6.74668"><ele>796</ele><time>2026-04-23T15:38:58Z</time></trkpt>
<trkpt lat="46.50648" lon="6.74659"><ele>795.2</ele><time>2026-04-23T15:38:59Z</time></trkpt>
<trkpt lat="46.50653" lon="6.74652"><ele>794.6</ele><time>2026-04-23T15:39:00Z</time></trkpt>
<trkpt lat="46.50658" lon="6.74647"><ele>794</ele><time>2026-04-23T15:39:01Z</time></trkpt>
<trkpt lat="46.50664" lon="6.74641"><ele>793.4</ele><time>2026-04-23T15:39:02Z</time></trkpt>
<trkpt lat="46.50675" lon="6.74633"><ele>793.2</ele><time>2026-04-23T15:39:04Z</time></trkpt>
<trkpt lat="46.50689" lon="6.74622"><ele>793.4</ele><time>2026-04-23T15:39:07Z</time></trkpt>
<trkpt lat="46.50694" lon="6.74615"><ele>793.8</ele><time>2026-04-23T15:39:09Z</time></trkpt>
<trkpt lat="46.50696" lon="6.74606"><ele>794.8</ele><time>2026-04-23T15:39:12Z</time></trkpt>
<trkpt lat="46.50696" lon="6.74604"><ele>795.2</ele><time>2026-04-23T15:39:13Z</time></trkpt>
<trkpt lat="46.50697" lon="6.74599"><ele>796</ele><time>2026-04-23T15:39:15Z</time></trkpt>
<trkpt lat="46.50699" lon="6.74592"><ele>796.6</ele><time>2026-04-23T15:39:19Z</time></trkpt>
<trkpt lat="46.50699" lon="6.74589"><ele>797</ele><time>2026-04-23T15:39:21Z</time></trkpt>
<trkpt lat="46.50698" lon="6.74581"><ele>797.8</ele><time>2026-04-23T15:39:25Z</time></trkpt>
<trkpt lat="46.50699" lon="6.74578"><ele>798</ele><time>2026-04-23T15:39:27Z</time></trkpt>
<trkpt lat="46.507" lon="6.74573"><ele>798.6</ele><time>2026-04-23T15:39:31Z</time></trkpt>
<trkpt lat="46.50699" lon="6.74569"><ele>798.6</ele><time>2026-04-23T15:39:34Z</time></trkpt>
<trkpt lat="46.507" lon="6.74567"><ele>798.8</ele><time>2026-04-23T15:39:35Z</time></trkpt>
<trkpt lat="46.507" lon="6.74563"><ele>798.8</ele><time>2026-04-23T15:39:37Z</time></trkpt>
<trkpt lat="46.507" lon="6.74551"><ele>799</ele><time>2026-04-23T15:39:43Z</time></trkpt>
<trkpt lat="46.50701" lon="6.7455"><ele>799.2</ele><time>2026-04-23T15:39:44Z</time></trkpt>
<trkpt lat="46.50701" lon="6.74538"><ele>799</ele><time>2026-04-23T15:39:49Z</time></trkpt>
<trkpt lat="46.50705" lon="6.7452"><ele>799</ele><time>2026-04-23T15:39:54Z</time></trkpt>
<trkpt lat="46.50704" lon="6.74507"><ele>799</ele><time>2026-04-23T15:39:57Z</time></trkpt>
<trkpt lat="46.50701" lon="6.74495"><ele>799.2</ele><time>2026-04-23T15:40:00Z</time></trkpt>
<trkpt lat="46.50694" lon="6.74476"><ele>799.8</ele><time>2026-04-23T15:40:06Z</time></trkpt>
<trkpt lat="46.50692" lon="6.7447"><ele>800.2</ele><time>2026-04-23T15:40:08Z</time></trkpt>
<trkpt lat="46.50688" lon="6.74459"><ele>800.8</ele><time>2026-04-23T15:40:13Z</time></trkpt>
<trkpt lat="46.50687" lon="6.74456"><ele>801</ele><time>2026-04-23T15:40:14Z</time></trkpt>
<trkpt lat="46.50686" lon="6.74451"><ele>801.2</ele><time>2026-04-23T15:40:16Z</time></trkpt>
<trkpt lat="46.50681" lon="6.74437"><ele>801.4</ele><time>2026-04-23T15:40:21Z</time></trkpt>
<trkpt lat="46.50677" lon="6.7443"><ele>801.4</ele><time>2026-04-23T15:40:25Z</time></trkpt>
<trkpt lat="46.50671" lon="6.74411"><ele>801.6</ele><time>2026-04-23T15:40:32Z</time></trkpt>
<trkpt lat="46.50663" lon="6.74394"><ele>801.8</ele><time>2026-04-23T15:40:39Z</time></trkpt>
<trkpt lat="46.5066" lon="6.74387"><ele>802.2</ele><time>2026-04-23T15:40:42Z</time></trkpt>
<trkpt lat="46.50655" lon="6.74381"><ele>802.6</ele><time>2026-04-23T15:40:46Z</time></trkpt>
<trkpt lat="46.50645" lon="6.74371"><ele>802.6</ele><time>2026-04-23T15:40:52Z</time></trkpt>
<trkpt lat="46.50635" lon="6.74359"><ele>803</ele><time>2026-04-23T15:40:57Z</time></trkpt>
<trkpt lat="46.50631" lon="6.74355"><ele>802.8</ele><time>2026-04-23T15:40:59Z</time></trkpt>
<trkpt lat="46.50612" lon="6.74336"><ele>802.6</ele><time>2026-04-23T15:41:07Z</time></trkpt>
<trkpt lat="46.5061" lon="6.74333"><ele>802.6</ele><time>2026-04-23T15:41:08Z</time></trkpt>
<trkpt lat="46.50606" lon="6.74329"><ele>802.8</ele><time>2026-04-23T15:41:10Z</time></trkpt>
<trkpt lat="46.50593" lon="6.74318"><ele>803</ele><time>2026-04-23T15:41:15Z</time></trkpt>
<trkpt lat="46.50569" lon="6.74295"><ele>803.2</ele><time>2026-04-23T15:41:23Z</time></trkpt>
<trkpt lat="46.50564" lon="6.7429"><ele>803.2</ele><time>2026-04-23T15:41:25Z</time></trkpt>
<trkpt lat="46.50552" lon="6.74274"><ele>803.8</ele><time>2026-04-23T15:41:31Z</time></trkpt>
<trkpt lat="46.50548" lon="6.74265"><ele>804.4</ele><time>2026-04-23T15:41:35Z</time></trkpt>
<trkpt lat="46.50547" lon="6.74263"><ele>804.6</ele><time>2026-04-23T15:41:36Z</time></trkpt>
<trkpt lat="46.50543" lon="6.74251"><ele>805.4</ele><time>2026-04-23T15:41:42Z</time></trkpt>
<trkpt lat="46.50543" lon="6.74249"><ele>805.6</ele><time>2026-04-23T15:41:43Z</time></trkpt>
<trkpt lat="46.50541" lon="6.7424"><ele>806.2</ele><time>2026-04-23T15:41:48Z</time></trkpt>
<trkpt lat="46.50539" lon="6.74235"><ele>806.6</ele><time>2026-04-23T15:41:51Z</time></trkpt>
<trkpt lat="46.50539" lon="6.7423"><ele>807</ele><time>2026-04-23T15:41:54Z</time></trkpt>
<trkpt lat="46.50536" lon="6.74225"><ele>807.6</ele><time>2026-04-23T15:41:58Z</time></trkpt>
<trkpt lat="46.50535" lon="6.74222"><ele>808</ele><time>2026-04-23T15:42:00Z</time></trkpt>
<trkpt lat="46.50532" lon="6.74215"><ele>808.6</ele><time>2026-04-23T15:42:05Z</time></trkpt>
<trkpt lat="46.50533" lon="6.74214"><ele>808.8</ele><time>2026-04-23T15:42:06Z</time></trkpt>
<trkpt lat="46.50532" lon="6.74211"><ele>809.2</ele><time>2026-04-23T15:42:08Z</time></trkpt>
<trkpt lat="46.50531" lon="6.74208"><ele>809.6</ele><time>2026-04-23T15:42:11Z</time></trkpt>
<trkpt lat="46.50531" lon="6.74206"><ele>809.8</ele><time>2026-04-23T15:42:13Z</time></trkpt>
<trkpt lat="46.50531" lon="6.74202"><ele>810.4</ele><time>2026-04-23T15:42:16Z</time></trkpt>
<trkpt lat="46.50531" lon="6.742"><ele>810.6</ele><time>2026-04-23T15:42:18Z</time></trkpt>
<trkpt lat="46.50529" lon="6.74197"><ele>811</ele><time>2026-04-23T15:42:21Z</time></trkpt>
<trkpt lat="46.50528" lon="6.74194"><ele>811.4</ele><time>2026-04-23T15:42:23Z</time></trkpt>
<trkpt lat="46.50526" lon="6.74187"><ele>812.2</ele><time>2026-04-23T15:42:28Z</time></trkpt>
<trkpt lat="46.50526" lon="6.74184"><ele>812.4</ele><time>2026-04-23T15:42:30Z</time></trkpt>
<trkpt lat="46.50526" lon="6.74183"><ele>812.4</ele><time>2026-04-23T15:42:31Z</time></trkpt>
<trkpt lat="46.50526" lon="6.74171"><ele>813.2</ele><time>2026-04-23T15:42:39Z</time></trkpt>
<trkpt lat="46.50527" lon="6.7416"><ele>813.4</ele><time>2026-04-23T15:42:45Z</time></trkpt>
<trkpt lat="46.50529" lon="6.74143"><ele>813</ele><time>2026-04-23T15:42:51Z</time></trkpt>
<trkpt lat="46.50533" lon="6.74135"><ele>813</ele><time>2026-04-23T15:42:54Z</time></trkpt>
<trkpt lat="46.50535" lon="6.74133"><ele>813</ele><time>2026-04-23T15:42:56Z</time></trkpt>
<trkpt lat="46.50538" lon="6.74132"><ele>813.6</ele><time>2026-04-23T15:43:00Z</time></trkpt>
<trkpt lat="46.50539" lon="6.74132"><ele>813.6</ele><time>2026-04-23T15:43:01Z</time></trkpt>
<trkpt lat="46.50547" lon="6.74131"><ele>814.2</ele><time>2026-04-23T15:43:07Z</time></trkpt>
<trkpt lat="46.5055" lon="6.7413"><ele>814.6</ele><time>2026-04-23T15:43:11Z</time></trkpt>
<trkpt lat="46.50556" lon="6.74128"><ele>815.2</ele><time>2026-04-23T15:43:17Z</time></trkpt>
<trkpt lat="46.50557" lon="6.74129"><ele>815.2</ele><time>2026-04-23T15:43:18Z</time></trkpt>
<trkpt lat="46.50562" lon="6.74128"><ele>815.8</ele><time>2026-04-23T15:43:24Z</time></trkpt>
<trkpt lat="46.50564" lon="6.74128"><ele>816.2</ele><time>2026-04-23T15:43:26Z</time></trkpt>
<trkpt lat="46.50565" lon="6.7413"><ele>816.4</ele><time>2026-04-23T15:43:27Z</time></trkpt>
<trkpt lat="46.50566" lon="6.74131"><ele>816.6</ele><time>2026-04-23T15:43:29Z</time></trkpt>
<trkpt lat="46.50572" lon="6.74129"><ele>817.4</ele><time>2026-04-23T15:43:36Z</time></trkpt>
<trkpt lat="46.50576" lon="6.7413"><ele>818.4</ele><time>2026-04-23T15:43:42Z</time></trkpt>
<trkpt lat="46.50577" lon="6.7413"><ele>818.4</ele><time>2026-04-23T15:43:43Z</time></trkpt>
<trkpt lat="46.50581" lon="6.74129"><ele>818.8</ele><time>2026-04-23T15:43:47Z</time></trkpt>
<trkpt lat="46.50582" lon="6.74129"><ele>819</ele><time>2026-04-23T15:43:49Z</time></trkpt>
<trkpt lat="46.50585" lon="6.7413"><ele>819.4</ele><time>2026-04-23T15:43:52Z</time></trkpt>
<trkpt lat="46.50589" lon="6.74129"><ele>820</ele><time>2026-04-23T15:43:56Z</time></trkpt>
<trkpt lat="46.50593" lon="6.74129"><ele>820.4</ele><time>2026-04-23T15:44:00Z</time></trkpt>
<trkpt lat="46.50594" lon="6.74129"><ele>820.6</ele><time>2026-04-23T15:44:01Z</time></trkpt>
<trkpt lat="46.50595" lon="6.74129"><ele>820.6</ele><time>2026-04-23T15:44:02Z</time></trkpt>
<trkpt lat="46.50598" lon="6.74127"><ele>821</ele><time>2026-04-23T15:44:05Z</time></trkpt>
<trkpt lat="46.50602" lon="6.74127"><ele>821.4</ele><time>2026-04-23T15:44:10Z</time></trkpt>
<trkpt lat="46.50606" lon="6.74128"><ele>822.4</ele><time>2026-04-23T15:44:16Z</time></trkpt>
<trkpt lat="46.50607" lon="6.74128"><ele>822.6</ele><time>2026-04-23T15:44:17Z</time></trkpt>
<trkpt lat="46.5061" lon="6.74126"><ele>823.4</ele><time>2026-04-23T15:44:22Z</time></trkpt>
<trkpt lat="46.50611" lon="6.74125"><ele>823.6</ele><time>2026-04-23T15:44:23Z</time></trkpt>
<trkpt lat="46.50613" lon="6.74125"><ele>823.8</ele><time>2026-04-23T15:44:25Z</time></trkpt>
<trkpt lat="46.50615" lon="6.74126"><ele>824.2</ele><time>2026-04-23T15:44:27Z</time></trkpt>
<trkpt lat="46.50619" lon="6.74126"><ele>824.8</ele><time>2026-04-23T15:44:31Z</time></trkpt>
<trkpt lat="46.50622" lon="6.74126"><ele>825.2</ele><time>2026-04-23T15:44:34Z</time></trkpt>
<trkpt lat="46.50625" lon="6.74126"><ele>825.8</ele><time>2026-04-23T15:44:37Z</time></trkpt>
<trkpt lat="46.50629" lon="6.74126"><ele>826.6</ele><time>2026-04-23T15:44:41Z</time></trkpt>
<trkpt lat="46.5063" lon="6.74126"><ele>827</ele><time>2026-04-23T15:44:43Z</time></trkpt>
<trkpt lat="46.50634" lon="6.74125"><ele>828</ele><time>2026-04-23T15:44:48Z</time></trkpt>
<trkpt lat="46.50635" lon="6.74124"><ele>828</ele><time>2026-04-23T15:44:49Z</time></trkpt>
<trkpt lat="46.50637" lon="6.74124"><ele>828.4</ele><time>2026-04-23T15:44:52Z</time></trkpt>
<trkpt lat="46.50641" lon="6.74124"><ele>828.8</ele><time>2026-04-23T15:44:56Z</time></trkpt>
<trkpt lat="46.50641" lon="6.74124"><ele>829.2</ele><time>2026-04-23T15:44:58Z</time></trkpt>
<trkpt lat="46.50645" lon="6.74124"><ele>830</ele><time>2026-04-23T15:45:03Z</time></trkpt>
<trkpt lat="46.50646" lon="6.74123"><ele>830.2</ele><time>2026-04-23T15:45:05Z</time></trkpt>
<trkpt lat="46.50649" lon="6.74123"><ele>831</ele><time>2026-04-23T15:45:09Z</time></trkpt>
<trkpt lat="46.5065" lon="6.74123"><ele>831.4</ele><time>2026-04-23T15:45:11Z</time></trkpt>
<trkpt lat="46.50653" lon="6.74124"><ele>832</ele><time>2026-04-23T15:45:14Z</time></trkpt>
<trkpt lat="46.50654" lon="6.74124"><ele>832.2</ele><time>2026-04-23T15:45:15Z</time></trkpt>
<trkpt lat="46.50654" lon="6.74122"><ele>832.4</ele><time>2026-04-23T15:45:16Z</time></trkpt>
<trkpt lat="46.50656" lon="6.74122"><ele>832.8</ele><time>2026-04-23T15:45:18Z</time></trkpt>
<trkpt lat="46.50656" lon="6.74123"><ele>833</ele><time>2026-04-23T15:45:19Z</time></trkpt>
<trkpt lat="46.50658" lon="6.74123"><ele>833.4</ele><time>2026-04-23T15:45:21Z</time></trkpt>
<trkpt lat="46.50659" lon="6.74122"><ele>833.6</ele><time>2026-04-23T15:45:22Z</time></trkpt>
<trkpt lat="46.50659" lon="6.74122"><ele>833.8</ele><time>2026-04-23T15:45:23Z</time></trkpt>
<trkpt lat="46.50662" lon="6.74123"><ele>834.6</ele><time>2026-04-23T15:45:27Z</time></trkpt>
<trkpt lat="46.50663" lon="6.74122"><ele>834.8</ele><time>2026-04-23T15:45:29Z</time></trkpt>
<trkpt lat="46.50666" lon="6.7412"><ele>835.6</ele><time>2026-04-23T15:45:34Z</time></trkpt>
<trkpt lat="46.50667" lon="6.7412"><ele>835.8</ele><time>2026-04-23T15:45:35Z</time></trkpt>
<trkpt lat="46.50667" lon="6.74121"><ele>836</ele><time>2026-04-23T15:45:36Z</time></trkpt>
<trkpt lat="46.50671" lon="6.74119"><ele>836.6</ele><time>2026-04-23T15:45:42Z</time></trkpt>
<trkpt lat="46.50671" lon="6.74118"><ele>836.8</ele><time>2026-04-23T15:45:43Z</time></trkpt>
<trkpt lat="46.50673" lon="6.74117"><ele>837</ele><time>2026-04-23T15:45:45Z</time></trkpt>
<trkpt lat="46.50675" lon="6.74116"><ele>837.4</ele><time>2026-04-23T15:45:48Z</time></trkpt>
<trkpt lat="46.50676" lon="6.74116"><ele>837.8</ele><time>2026-04-23T15:45:51Z</time></trkpt>
<trkpt lat="46.50677" lon="6.74116"><ele>838</ele><time>2026-04-23T15:45:52Z</time></trkpt>
<trkpt lat="46.50679" lon="6.74115"><ele>838.2</ele><time>2026-04-23T15:45:54Z</time></trkpt>
<trkpt lat="46.50682" lon="6.74115"><ele>839</ele><time>2026-04-23T15:45:59Z</time></trkpt>
<trkpt lat="46.50683" lon="6.74115"><ele>839.2</ele><time>2026-04-23T15:46:00Z</time></trkpt>
<trkpt lat="46.50684" lon="6.74115"><ele>839.2</ele><time>2026-04-23T15:46:01Z</time></trkpt>
<trkpt lat="46.50687" lon="6.74117"><ele>839.8</ele><time>2026-04-23T15:46:06Z</time></trkpt>
<trkpt lat="46.50688" lon="6.74116"><ele>840</ele><time>2026-04-23T15:46:08Z</time></trkpt>
<trkpt lat="46.50692" lon="6.74118"><ele>841</ele><time>2026-04-23T15:46:14Z</time></trkpt>
<trkpt lat="46.50694" lon="6.74117"><ele>841.2</ele><time>2026-04-23T15:46:16Z</time></trkpt>
<trkpt lat="46.50696" lon="6.74116"><ele>841.8</ele><time>2026-04-23T15:46:20Z</time></trkpt>
<trkpt lat="46.50698" lon="6.74116"><ele>842.2</ele><time>2026-04-23T15:46:23Z</time></trkpt>
<trkpt lat="46.50702" lon="6.74116"><ele>842.6</ele><time>2026-04-23T15:46:28Z</time></trkpt>
<trkpt lat="46.50705" lon="6.74116"><ele>843.4</ele><time>2026-04-23T15:46:32Z</time></trkpt>
<trkpt lat="46.50706" lon="6.74116"><ele>843.8</ele><time>2026-04-23T15:46:34Z</time></trkpt>
<trkpt lat="46.50708" lon="6.74114"><ele>844.2</ele><time>2026-04-23T15:46:38Z</time></trkpt>
<trkpt lat="46.5071" lon="6.74114"><ele>844.4</ele><time>2026-04-23T15:46:40Z</time></trkpt>
<trkpt lat="46.50711" lon="6.74115"><ele>844.6</ele><time>2026-04-23T15:46:41Z</time></trkpt>
<trkpt lat="46.50713" lon="6.74116"><ele>845.4</ele><time>2026-04-23T15:46:44Z</time></trkpt>
<trkpt lat="46.50715" lon="6.74115"><ele>846</ele><time>2026-04-23T15:46:47Z</time></trkpt>
<trkpt lat="46.50718" lon="6.74116"><ele>846.6</ele><time>2026-04-23T15:46:51Z</time></trkpt>
<trkpt lat="46.5072" lon="6.74117"><ele>847</ele><time>2026-04-23T15:46:54Z</time></trkpt>
<trkpt lat="46.50723" lon="6.74118"><ele>847.6</ele><time>2026-04-23T15:46:58Z</time></trkpt>
<trkpt lat="46.50726" lon="6.74119"><ele>848.2</ele><time>2026-04-23T15:47:01Z</time></trkpt>
<trkpt lat="46.50729" lon="6.7412"><ele>848.6</ele><time>2026-04-23T15:47:04Z</time></trkpt>
<trkpt lat="46.50732" lon="6.74123"><ele>849.2</ele><time>2026-04-23T15:47:08Z</time></trkpt>
<trkpt lat="46.50736" lon="6.74126"><ele>849.6</ele><time>2026-04-23T15:47:13Z</time></trkpt>
<trkpt lat="46.50738" lon="6.74126"><ele>849.8</ele><time>2026-04-23T15:47:14Z</time></trkpt>
<trkpt lat="46.50745" lon="6.74124"><ele>850.6</ele><time>2026-04-23T15:47:21Z</time></trkpt>
<trkpt lat="46.50746" lon="6.74123"><ele>850.6</ele><time>2026-04-23T15:47:22Z</time></trkpt>
<trkpt lat="46.50748" lon="6.74116"><ele>851.4</ele><time>2026-04-23T15:47:27Z</time></trkpt>
<trkpt lat="46.50749" lon="6.74112"><ele>851.8</ele><time>2026-04-23T15:47:30Z</time></trkpt>
<trkpt lat="46.5075" lon="6.74107"><ele>852</ele><time>2026-04-23T15:47:33Z</time></trkpt>
<trkpt lat="46.5075" lon="6.74103"><ele>852.4</ele><time>2026-04-23T15:47:36Z</time></trkpt>
<trkpt lat="46.5075" lon="6.74097"><ele>853</ele><time>2026-04-23T15:47:40Z</time></trkpt>
<trkpt lat="46.5075" lon="6.74095"><ele>853.2</ele><time>2026-04-23T15:47:42Z</time></trkpt>
<trkpt lat="46.5075" lon="6.74088"><ele>854</ele><time>2026-04-23T15:47:47Z</time></trkpt>
<trkpt lat="46.50751" lon="6.74087"><ele>854.2</ele><time>2026-04-23T15:47:48Z</time></trkpt>
<trkpt lat="46.50751" lon="6.74083"><ele>855</ele><time>2026-04-23T15:47:52Z</time></trkpt>
<trkpt lat="46.50751" lon="6.74082"><ele>855.2</ele><time>2026-04-23T15:47:53Z</time></trkpt>
<trkpt lat="46.50751" lon="6.74076"><ele>856.2</ele><time>2026-04-23T15:47:58Z</time></trkpt>
<trkpt lat="46.50751" lon="6.74075"><ele>856.4</ele><time>2026-04-23T15:47:59Z</time></trkpt>
<trkpt lat="46.50751" lon="6.74069"><ele>857.4</ele><time>2026-04-23T15:48:04Z</time></trkpt>
<trkpt lat="46.50752" lon="6.74064"><ele>858.6</ele><time>2026-04-23T15:48:09Z</time></trkpt>
<trkpt lat="46.50752" lon="6.74062"><ele>858.8</ele><time>2026-04-23T15:48:10Z</time></trkpt>
<trkpt lat="46.50752" lon="6.74061"><ele>859.2</ele><time>2026-04-23T15:48:11Z</time></trkpt>
<trkpt lat="46.50752" lon="6.74059"><ele>859.6</ele><time>2026-04-23T15:48:13Z</time></trkpt>
<trkpt lat="46.50753" lon="6.74055"><ele>860.2</ele><time>2026-04-23T15:48:16Z</time></trkpt>
<trkpt lat="46.50753" lon="6.74054"><ele>860.2</ele><time>2026-04-23T15:48:17Z</time></trkpt>
<trkpt lat="46.50754" lon="6.74052"><ele>860.8</ele><time>2026-04-23T15:48:19Z</time></trkpt>
<trkpt lat="46.50755" lon="6.74049"><ele>861.6</ele><time>2026-04-23T15:48:23Z</time></trkpt>
<trkpt lat="46.50755" lon="6.74048"><ele>861.8</ele><time>2026-04-23T15:48:24Z</time></trkpt>
<trkpt lat="46.50757" lon="6.74046"><ele>862.2</ele><time>2026-04-23T15:48:26Z</time></trkpt>
<trkpt lat="46.50757" lon="6.74045"><ele>862.6</ele><time>2026-04-23T15:48:29Z</time></trkpt>
<trkpt lat="46.50757" lon="6.74044"><ele>862.8</ele><time>2026-04-23T15:48:32Z</time></trkpt>
<trkpt lat="46.50757" lon="6.74044"><ele>863</ele><time>2026-04-23T15:48:35Z</time></trkpt>
<trkpt lat="46.50758" lon="6.74045"><ele>863.2</ele><time>2026-04-23T15:48:43Z</time></trkpt>
<trkpt lat="46.50758" lon="6.74045"><ele>863.4</ele><time>2026-04-23T15:48:44Z</time></trkpt>
<trkpt lat="46.50758" lon="6.74043"><ele>863.4</ele><time>2026-04-23T15:48:45Z</time></trkpt>
<trkpt lat="46.5076" lon="6.7404"><ele>863.6</ele><time>2026-04-23T15:48:48Z</time></trkpt>
<trkpt lat="46.50761" lon="6.74039"><ele>863.8</ele><time>2026-04-23T15:48:50Z</time></trkpt>
<trkpt lat="46.50762" lon="6.74039"><ele>864</ele><time>2026-04-23T15:48:51Z</time></trkpt>
<trkpt lat="46.50763" lon="6.74039"><ele>864</ele><time>2026-04-23T15:48:52Z</time></trkpt>
<trkpt lat="46.50764" lon="6.7404"><ele>864.2</ele><time>2026-04-23T15:48:53Z</time></trkpt>
<trkpt lat="46.50766" lon="6.74042"><ele>864.4</ele><time>2026-04-23T15:48:57Z</time></trkpt>
<trkpt lat="46.50767" lon="6.74041"><ele>865</ele><time>2026-04-23T15:48:59Z</time></trkpt>
<trkpt lat="46.50768" lon="6.74041"><ele>865.2</ele><time>2026-04-23T15:49:00Z</time></trkpt>
<trkpt lat="46.50768" lon="6.74046"><ele>865.4</ele><time>2026-04-23T15:49:03Z</time></trkpt>
<trkpt lat="46.50768" lon="6.74047"><ele>865.2</ele><time>2026-04-23T15:49:07Z</time></trkpt>
<trkpt lat="46.50768" lon="6.74047"><ele>865</ele><time>2026-04-23T15:49:12Z</time></trkpt>
<trkpt lat="46.50768" lon="6.74047"><ele>865.2</ele><time>2026-04-23T15:49:14Z</time></trkpt>
<trkpt lat="46.50768" lon="6.74047"><ele>864.6</ele><time>2026-04-23T15:49:28Z</time></trkpt>
<trkpt lat="46.50768" lon="6.74047"><ele>864.6</ele><time>2026-04-23T15:49:30Z</time></trkpt>
<trkpt lat="46.50768" lon="6.74047"><ele>864.6</ele><time>2026-04-23T15:49:35Z</time></trkpt>
<trkpt lat="46.50768" lon="6.74047"><ele>865</ele><time>2026-04-23T15:49:37Z</time></trkpt>
<trkpt lat="46.50768" lon="6.74047"><ele>865.2</ele><time>2026-04-23T15:49:38Z</time></trkpt>
<trkpt lat="46.50768" lon="6.74047"><ele>865.2</ele><time>2026-04-23T15:49:47Z</time></trkpt>
<trkpt lat="46.50768" lon="6.74047"><ele>865.2</ele><time>2026-04-23T15:49:55Z</time></trkpt>
<trkpt lat="46.50768" lon="6.74047"><ele>865.2</ele><time>2026-04-23T15:49:58Z</time></trkpt>
<trkpt lat="46.5077" lon="6.74047"><ele>865.2</ele><time>2026-04-23T15:50:01Z</time></trkpt>
<trkpt lat="46.50771" lon="6.74047"><ele>865.4</ele><time>2026-04-23T15:50:02Z</time></trkpt>
<trkpt lat="46.50774" lon="6.74046"><ele>865.6</ele><time>2026-04-23T15:50:05Z</time></trkpt>
<trkpt lat="46.50774" lon="6.74045"><ele>865.8</ele><time>2026-04-23T15:50:06Z</time></trkpt>
<trkpt lat="46.50777" lon="6.74043"><ele>866.2</ele><time>2026-04-23T15:50:09Z</time></trkpt>
<trkpt lat="46.50779" lon="6.74043"><ele>866.4</ele><time>2026-04-23T15:50:11Z</time></trkpt>
<trkpt lat="46.5078" lon="6.74046"><ele>866.6</ele><time>2026-04-23T15:50:13Z</time></trkpt>
<trkpt lat="46.50782" lon="6.74048"><ele>866.8</ele><time>2026-04-23T15:50:15Z</time></trkpt>
<trkpt lat="46.50783" lon="6.74048"><ele>867.2</ele><time>2026-04-23T15:50:17Z</time></trkpt>
<trkpt lat="46.50787" lon="6.74047"><ele>867.6</ele><time>2026-04-23T15:50:21Z</time></trkpt>
<trkpt lat="46.5079" lon="6.74048"><ele>868.2</ele><time>2026-04-23T15:50:24Z</time></trkpt>
<trkpt lat="46.50793" lon="6.74049"><ele>868.6</ele><time>2026-04-23T15:50:27Z</time></trkpt>
<trkpt lat="46.50796" lon="6.7405"><ele>869.2</ele><time>2026-04-23T15:50:30Z</time></trkpt>
<trkpt lat="46.50797" lon="6.74051"><ele>869.6</ele><time>2026-04-23T15:50:32Z</time></trkpt>
<trkpt lat="46.50798" lon="6.74051"><ele>869.8</ele><time>2026-04-23T15:50:33Z</time></trkpt>
<trkpt lat="46.508" lon="6.74052"><ele>870.2</ele><time>2026-04-23T15:50:36Z</time></trkpt>
<trkpt lat="46.50802" lon="6.74052"><ele>870.6</ele><time>2026-04-23T15:50:38Z</time></trkpt>
<trkpt lat="46.50806" lon="6.74054"><ele>871.4</ele><time>2026-04-23T15:50:43Z</time></trkpt>
<trkpt lat="46.50807" lon="6.74054"><ele>871.6</ele><time>2026-04-23T15:50:44Z</time></trkpt>
<trkpt lat="46.5081" lon="6.74057"><ele>872.6</ele><time>2026-04-23T15:50:49Z</time></trkpt>
<trkpt lat="46.50811" lon="6.74057"><ele>872.6</ele><time>2026-04-23T15:50:50Z</time></trkpt>
<trkpt lat="46.50815" lon="6.74057"><ele>873.6</ele><time>2026-04-23T15:50:55Z</time></trkpt>
<trkpt lat="46.50815" lon="6.74058"><ele>873.8</ele><time>2026-04-23T15:50:56Z</time></trkpt>
<trkpt lat="46.5082" lon="6.7406"><ele>874.6</ele><time>2026-04-23T15:51:02Z</time></trkpt>
<trkpt lat="46.50821" lon="6.7406"><ele>874.8</ele><time>2026-04-23T15:51:03Z</time></trkpt>
<trkpt lat="46.50826" lon="6.74058"><ele>875.4</ele><time>2026-04-23T15:51:07Z</time></trkpt>
<trkpt lat="46.50826" lon="6.74059"><ele>875.6</ele><time>2026-04-23T15:51:08Z</time></trkpt>
<trkpt lat="46.50827" lon="6.7406"><ele>875.8</ele><time>2026-04-23T15:51:09Z</time></trkpt>
<trkpt lat="46.50832" lon="6.74061"><ele>876.8</ele><time>2026-04-23T15:51:15Z</time></trkpt>
<trkpt lat="46.50832" lon="6.74063"><ele>877</ele><time>2026-04-23T15:51:16Z</time></trkpt>
<trkpt lat="46.50833" lon="6.74064"><ele>877</ele><time>2026-04-23T15:51:17Z</time></trkpt>
<trkpt lat="46.50834" lon="6.74066"><ele>877.2</ele><time>2026-04-23T15:51:19Z</time></trkpt>
<trkpt lat="46.50837" lon="6.74069"><ele>878</ele><time>2026-04-23T15:51:24Z</time></trkpt>
<trkpt lat="46.50838" lon="6.7407"><ele>878.2</ele><time>2026-04-23T15:51:25Z</time></trkpt>
<trkpt lat="46.50841" lon="6.74073"><ele>879</ele><time>2026-04-23T15:51:30Z</time></trkpt>
<trkpt lat="46.50845" lon="6.74077"><ele>880.2</ele><time>2026-04-23T15:51:35Z</time></trkpt>
<trkpt lat="46.50845" lon="6.74078"><ele>880.4</ele><time>2026-04-23T15:51:36Z</time></trkpt>
<trkpt lat="46.50846" lon="6.74078"><ele>880.6</ele><time>2026-04-23T15:51:37Z</time></trkpt>
<trkpt lat="46.50849" lon="6.74081"><ele>881.2</ele><time>2026-04-23T15:51:41Z</time></trkpt>
<trkpt lat="46.50849" lon="6.74082"><ele>881.4</ele><time>2026-04-23T15:51:42Z</time></trkpt>
<trkpt lat="46.50853" lon="6.74086"><ele>882.4</ele><time>2026-04-23T15:51:48Z</time></trkpt>
<trkpt lat="46.50855" lon="6.74087"><ele>882.6</ele><time>2026-04-23T15:51:50Z</time></trkpt>
<trkpt lat="46.50857" lon="6.74087"><ele>883</ele><time>2026-04-23T15:51:52Z</time></trkpt>
<trkpt lat="46.50859" lon="6.74088"><ele>883.2</ele><time>2026-04-23T15:51:54Z</time></trkpt>
<trkpt lat="46.50859" lon="6.74089"><ele>883.4</ele><time>2026-04-23T15:51:55Z</time></trkpt>
<trkpt lat="46.50864" lon="6.74093"><ele>884.4</ele><time>2026-04-23T15:52:01Z</time></trkpt>
<trkpt lat="46.50868" lon="6.74094"><ele>885.2</ele><time>2026-04-23T15:52:06Z</time></trkpt>
<trkpt lat="46.50868" lon="6.74094"><ele>885.4</ele><time>2026-04-23T15:52:07Z</time></trkpt>
<trkpt lat="46.50873" lon="6.74097"><ele>886</ele><time>2026-04-23T15:52:12Z</time></trkpt>
<trkpt lat="46.50875" lon="6.74098"><ele>886.6</ele><time>2026-04-23T15:52:15Z</time></trkpt>
<trkpt lat="46.50877" lon="6.74098"><ele>887</ele><time>2026-04-23T15:52:18Z</time></trkpt>
<trkpt lat="46.5088" lon="6.74098"><ele>887.6</ele><time>2026-04-23T15:52:22Z</time></trkpt>
<trkpt lat="46.50881" lon="6.74097"><ele>887.8</ele><time>2026-04-23T15:52:23Z</time></trkpt>
<trkpt lat="46.50882" lon="6.74097"><ele>888</ele><time>2026-04-23T15:52:24Z</time></trkpt>
<trkpt lat="46.50884" lon="6.741"><ele>888.6</ele><time>2026-04-23T15:52:27Z</time></trkpt>
<trkpt lat="46.50884" lon="6.74101"><ele>888.8</ele><time>2026-04-23T15:52:28Z</time></trkpt>
<trkpt lat="46.50888" lon="6.74099"><ele>889.4</ele><time>2026-04-23T15:52:32Z</time></trkpt>
<trkpt lat="46.5089" lon="6.74098"><ele>889.8</ele><time>2026-04-23T15:52:35Z</time></trkpt>
<trkpt lat="46.50892" lon="6.74096"><ele>890.2</ele><time>2026-04-23T15:52:38Z</time></trkpt>
<trkpt lat="46.50897" lon="6.74094"><ele>890.8</ele><time>2026-04-23T15:52:43Z</time></trkpt>
<trkpt lat="46.50898" lon="6.74094"><ele>891</ele><time>2026-04-23T15:52:44Z</time></trkpt>
<trkpt lat="46.50903" lon="6.74094"><ele>891.8</ele><time>2026-04-23T15:52:50Z</time></trkpt>
<trkpt lat="46.50908" lon="6.74092"><ele>892.8</ele><time>2026-04-23T15:52:56Z</time></trkpt>
<trkpt lat="46.50909" lon="6.74092"><ele>893</ele><time>2026-04-23T15:52:57Z</time></trkpt>
<trkpt lat="46.50912" lon="6.74092"><ele>894</ele><time>2026-04-23T15:53:03Z</time></trkpt>
<trkpt lat="46.50917" lon="6.74091"><ele>895</ele><time>2026-04-23T15:53:09Z</time></trkpt>
<trkpt lat="46.50918" lon="6.74091"><ele>895.2</ele><time>2026-04-23T15:53:10Z</time></trkpt>
<trkpt lat="46.50919" lon="6.74091"><ele>895.8</ele><time>2026-04-23T15:53:16Z</time></trkpt>
<trkpt lat="46.50919" lon="6.74091"><ele>895.8</ele><time>2026-04-23T15:53:24Z</time></trkpt>
<trkpt lat="46.5092" lon="6.7409"><ele>895.8</ele><time>2026-04-23T15:53:26Z</time></trkpt>
<trkpt lat="46.50923" lon="6.74088"><ele>896.2</ele><time>2026-04-23T15:53:28Z</time></trkpt>
<trkpt lat="46.50925" lon="6.74089"><ele>896.8</ele><time>2026-04-23T15:53:31Z</time></trkpt>
<trkpt lat="46.50927" lon="6.74091"><ele>897.4</ele><time>2026-04-23T15:53:33Z</time></trkpt>
<trkpt lat="46.50928" lon="6.74092"><ele>898</ele><time>2026-04-23T15:53:35Z</time></trkpt>
<trkpt lat="46.50929" lon="6.74091"><ele>898.2</ele><time>2026-04-23T15:53:36Z</time></trkpt>
<trkpt lat="46.5093" lon="6.74091"><ele>898.4</ele><time>2026-04-23T15:53:37Z</time></trkpt>
<trkpt lat="46.50933" lon="6.7409"><ele>899.4</ele><time>2026-04-23T15:53:41Z</time></trkpt>
<trkpt lat="46.50934" lon="6.7409"><ele>899.6</ele><time>2026-04-23T15:53:42Z</time></trkpt>
<trkpt lat="46.50937" lon="6.74089"><ele>900.2</ele><time>2026-04-23T15:53:46Z</time></trkpt>
<trkpt lat="46.50939" lon="6.74089"><ele>900.8</ele><time>2026-04-23T15:53:48Z</time></trkpt>
<trkpt lat="46.50942" lon="6.7409"><ele>901.4</ele><time>2026-04-23T15:53:52Z</time></trkpt>
<trkpt lat="46.50944" lon="6.74089"><ele>901.8</ele><time>2026-04-23T15:53:54Z</time></trkpt>
<trkpt lat="46.50946" lon="6.74089"><ele>902.4</ele><time>2026-04-23T15:53:57Z</time></trkpt>
<trkpt lat="46.50948" lon="6.74088"><ele>902.8</ele><time>2026-04-23T15:53:59Z</time></trkpt>
<trkpt lat="46.50951" lon="6.74088"><ele>903.8</ele><time>2026-04-23T15:54:03Z</time></trkpt>
<trkpt lat="46.50951" lon="6.74088"><ele>904</ele><time>2026-04-23T15:54:04Z</time></trkpt>
<trkpt lat="46.50956" lon="6.74088"><ele>904.8</ele><time>2026-04-23T15:54:10Z</time></trkpt>
<trkpt lat="46.50957" lon="6.74088"><ele>905.2</ele><time>2026-04-23T15:54:11Z</time></trkpt>
<trkpt lat="46.50961" lon="6.7409"><ele>906</ele><time>2026-04-23T15:54:16Z</time></trkpt>
<trkpt lat="46.50961" lon="6.7409"><ele>906.2</ele><time>2026-04-23T15:54:17Z</time></trkpt>
<trkpt lat="46.50966" lon="6.7409"><ele>907.4</ele><time>2026-04-23T15:54:22Z</time></trkpt>
<trkpt lat="46.50969" lon="6.7409"><ele>908.2</ele><time>2026-04-23T15:54:27Z</time></trkpt>
<trkpt lat="46.5097" lon="6.7409"><ele>908.4</ele><time>2026-04-23T15:54:28Z</time></trkpt>
<trkpt lat="46.50971" lon="6.7409"><ele>908.8</ele><time>2026-04-23T15:54:30Z</time></trkpt>
<trkpt lat="46.50973" lon="6.74089"><ele>909.4</ele><time>2026-04-23T15:54:33Z</time></trkpt>
<trkpt lat="46.50974" lon="6.74089"><ele>909.6</ele><time>2026-04-23T15:54:34Z</time></trkpt>
<trkpt lat="46.50979" lon="6.74089"><ele>910.6</ele><time>2026-04-23T15:54:40Z</time></trkpt>
<trkpt lat="46.5098" lon="6.74089"><ele>910.8</ele><time>2026-04-23T15:54:41Z</time></trkpt>
<trkpt lat="46.50986" lon="6.74088"><ele>912</ele><time>2026-04-23T15:54:46Z</time></trkpt>
<trkpt lat="46.50993" lon="6.74086"><ele>913</ele><time>2026-04-23T15:54:53Z</time></trkpt>
<trkpt lat="46.50997" lon="6.74087"><ele>913.4</ele><time>2026-04-23T15:54:56Z</time></trkpt>
<trkpt lat="46.51005" lon="6.7409"><ele>914.2</ele><time>2026-04-23T15:55:03Z</time></trkpt>
<trkpt lat="46.51015" lon="6.74091"><ele>914.8</ele><time>2026-04-23T15:55:11Z</time></trkpt>
<trkpt lat="46.51023" lon="6.74092"><ele>915</ele><time>2026-04-23T15:55:17Z</time></trkpt>
<trkpt lat="46.51024" lon="6.74093"><ele>915</ele><time>2026-04-23T15:55:18Z</time></trkpt>
<trkpt lat="46.51028" lon="6.74095"><ele>915.2</ele><time>2026-04-23T15:55:22Z</time></trkpt>
<trkpt lat="46.51029" lon="6.74095"><ele>915.2</ele><time>2026-04-23T15:55:23Z</time></trkpt>
<trkpt lat="46.51034" lon="6.74089"><ele>915.4</ele><time>2026-04-23T15:55:28Z</time></trkpt>
<trkpt lat="46.51036" lon="6.74085"><ele>915.4</ele><time>2026-04-23T15:55:32Z</time></trkpt>
<trkpt lat="46.51036" lon="6.74085"><ele>915.2</ele><time>2026-04-23T15:55:34Z</time></trkpt>
<trkpt lat="46.51036" lon="6.74085"><ele>915.2</ele><time>2026-04-23T15:55:38Z</time></trkpt>
<trkpt lat="46.51036" lon="6.74085"><ele>915.2</ele><time>2026-04-23T15:55:45Z</time></trkpt>
<trkpt lat="46.51036" lon="6.74085"><ele>915.2</ele><time>2026-04-23T15:55:55Z</time></trkpt>
<trkpt lat="46.51036" lon="6.74085"><ele>915</ele><time>2026-04-23T15:55:58Z</time></trkpt>
<trkpt lat="46.51036" lon="6.74085"><ele>915.2</ele><time>2026-04-23T15:56:08Z</time></trkpt>
<trkpt lat="46.51036" lon="6.74085"><ele>915</ele><time>2026-04-23T15:56:14Z</time></trkpt>
<trkpt lat="46.51036" lon="6.74085"><ele>915</ele><time>2026-04-23T15:56:16Z</time></trkpt>
<trkpt lat="46.51036" lon="6.74085"><ele>915</ele><time>2026-04-23T15:56:18Z</time></trkpt>
<trkpt lat="46.51036" lon="6.74085"><ele>915.2</ele><time>2026-04-23T15:56:27Z</time></trkpt>
<trkpt lat="46.51036" lon="6.74085"><ele>915.2</ele><time>2026-04-23T15:56:29Z</time></trkpt>
<trkpt lat="46.51036" lon="6.74085"><ele>915.2</ele><time>2026-04-23T15:56:36Z</time></trkpt>
<trkpt lat="46.51036" lon="6.74085"><ele>915.2</ele><time>2026-04-23T15:56:43Z</time></trkpt>
<trkpt lat="46.51036" lon="6.74085"><ele>915.2</ele><time>2026-04-23T15:56:49Z</time></trkpt>
<trkpt lat="46.51036" lon="6.74085"><ele>915.2</ele><time>2026-04-23T15:56:54Z</time></trkpt>
<trkpt lat="46.51036" lon="6.74085"><ele>915.2</ele><time>2026-04-23T15:57:01Z</time></trkpt>
<trkpt lat="46.51036" lon="6.74085"><ele>915.2</ele><time>2026-04-23T15:57:02Z</time></trkpt>
<trkpt lat="46.51036" lon="6.74085"><ele>915.2</ele><time>2026-04-23T15:57:15Z</time></trkpt>
<trkpt lat="46.51036" lon="6.74085"><ele>915.2</ele><time>2026-04-23T15:57:26Z</time></trkpt>
<trkpt lat="46.51034" lon="6.74086"><ele>915.2</ele><time>2026-04-23T15:57:31Z</time></trkpt>
<trkpt lat="46.51033" lon="6.74087"><ele>915.2</ele><time>2026-04-23T15:57:32Z</time></trkpt>
<trkpt lat="46.5103" lon="6.74093"><ele>915.2</ele><time>2026-04-23T15:57:36Z</time></trkpt>
<trkpt lat="46.51028" lon="6.74093"><ele>915.4</ele><time>2026-04-23T15:57:37Z</time></trkpt>
<trkpt lat="46.51021" lon="6.74091"><ele>915.2</ele><time>2026-04-23T15:57:40Z</time></trkpt>
<trkpt lat="46.51001" lon="6.74091"><ele>914.4</ele><time>2026-04-23T15:57:48Z</time></trkpt>
<trkpt lat="46.51001" lon="6.74093"><ele>914.4</ele><time>2026-04-23T15:57:53Z</time></trkpt>
<trkpt lat="46.51001" lon="6.74095"><ele>914.6</ele><time>2026-04-23T15:58:00Z</time></trkpt>
<trkpt lat="46.51" lon="6.74098"><ele>915.2</ele><time>2026-04-23T15:58:06Z</time></trkpt>
<trkpt lat="46.51001" lon="6.74098"><ele>915.4</ele><time>2026-04-23T15:58:09Z</time></trkpt>
<trkpt lat="46.50999" lon="6.74099"><ele>915.2</ele><time>2026-04-23T15:58:13Z</time></trkpt>
<trkpt lat="46.50995" lon="6.74101"><ele>915.4</ele><time>2026-04-23T15:58:19Z</time></trkpt>
<trkpt lat="46.50994" lon="6.74101"><ele>915.2</ele><time>2026-04-23T15:58:24Z</time></trkpt>
<trkpt lat="46.50994" lon="6.74102"><ele>915.2</ele><time>2026-04-23T15:58:34Z</time></trkpt>
<trkpt lat="46.50993" lon="6.74105"><ele>915.2</ele><time>2026-04-23T15:58:44Z</time></trkpt>
<trkpt lat="46.50994" lon="6.74106"><ele>915.4</ele><time>2026-04-23T15:58:52Z</time></trkpt>
<trkpt lat="46.50998" lon="6.74105"><ele>915.4</ele><time>2026-04-23T15:59:00Z</time></trkpt>
<trkpt lat="46.50998" lon="6.74105"><ele>915.2</ele><time>2026-04-23T15:59:02Z</time></trkpt>
<trkpt lat="46.50999" lon="6.74113"><ele>915.6</ele><time>2026-04-23T15:59:09Z</time></trkpt>
<trkpt lat="46.51003" lon="6.74112"><ele>915.6</ele><time>2026-04-23T15:59:10Z</time></trkpt>
<trkpt lat="46.51003" lon="6.74108"><ele>915.4</ele><time>2026-04-23T15:59:12Z</time></trkpt>
<trkpt lat="46.51003" lon="6.741"><ele>915</ele><time>2026-04-23T15:59:14Z</time></trkpt>
<trkpt lat="46.51002" lon="6.74098"><ele>915</ele><time>2026-04-23T15:59:15Z</time></trkpt>
<trkpt lat="46.50999" lon="6.74094"><ele>914.6</ele><time>2026-04-23T15:59:19Z</time></trkpt>
<trkpt lat="46.51" lon="6.74093"><ele>914.6</ele><time>2026-04-23T15:59:21Z</time></trkpt>
<trkpt lat="46.51001" lon="6.74091"><ele>914.6</ele><time>2026-04-23T15:59:23Z</time></trkpt>
<trkpt lat="46.51003" lon="6.74084"><ele>914.6</ele><time>2026-04-23T15:59:27Z</time></trkpt>
<trkpt lat="46.51003" lon="6.74085"><ele>914.6</ele><time>2026-04-23T15:59:28Z</time></trkpt>
<trkpt lat="46.51003" lon="6.74085"><ele>914.2</ele><time>2026-04-23T15:59:34Z</time></trkpt>
<trkpt lat="46.51003" lon="6.74085"><ele>914.6</ele><time>2026-04-23T15:59:43Z</time></trkpt>
<trkpt lat="46.51003" lon="6.74085"><ele>914.6</ele><time>2026-04-23T15:59:53Z</time></trkpt>
<trkpt lat="46.51003" lon="6.74085"><ele>914.6</ele><time>2026-04-23T15:59:55Z</time></trkpt>
<trkpt lat="46.51003" lon="6.74085"><ele>914.2</ele><time>2026-04-23T16:00:02Z</time></trkpt>
<trkpt lat="46.51006" lon="6.74086"><ele>914.2</ele><time>2026-04-23T16:00:10Z</time></trkpt>
<trkpt lat="46.51008" lon="6.74086"><ele>914.6</ele><time>2026-04-23T16:00:15Z</time></trkpt>
<trkpt lat="46.51016" lon="6.74089"><ele>915</ele><time>2026-04-23T16:00:20Z</time></trkpt>
<trkpt lat="46.5102" lon="6.74093"><ele>915</ele><time>2026-04-23T16:00:23Z</time></trkpt>
<trkpt lat="46.51024" lon="6.74093"><ele>915.2</ele><time>2026-04-23T16:00:25Z</time></trkpt>
<trkpt lat="46.51034" lon="6.74095"><ele>915.8</ele><time>2026-04-23T16:00:30Z</time></trkpt>
<trkpt lat="46.51043" lon="6.74094"><ele>916.2</ele><time>2026-04-23T16:00:35Z</time></trkpt>
<trkpt lat="46.51044" lon="6.74095"><ele>916.4</ele><time>2026-04-23T16:00:37Z</time></trkpt>
<trkpt lat="46.51044" lon="6.74096"><ele>916.6</ele><time>2026-04-23T16:00:42Z</time></trkpt>
<trkpt lat="46.51045" lon="6.74097"><ele>916.6</ele><time>2026-04-23T16:00:45Z</time></trkpt>
<trkpt lat="46.51044" lon="6.74096"><ele>916.6</ele><time>2026-04-23T16:00:46Z</time></trkpt>
<trkpt lat="46.51045" lon="6.74097"><ele>916.4</ele><time>2026-04-23T16:00:53Z</time></trkpt>
<trkpt lat="46.51044" lon="6.74096"><ele>916.2</ele><time>2026-04-23T16:00:58Z</time></trkpt>
<trkpt lat="46.51044" lon="6.74096"><ele>916.4</ele><time>2026-04-23T16:01:03Z</time></trkpt>
<trkpt lat="46.51044" lon="6.74096"><ele>916.4</ele><time>2026-04-23T16:01:11Z</time></trkpt>
<trkpt lat="46.51044" lon="6.74096"><ele>916.4</ele><time>2026-04-23T16:01:18Z</time></trkpt>
<trkpt lat="46.51044" lon="6.74096"><ele>916.4</ele><time>2026-04-23T16:01:22Z</time></trkpt>
<trkpt lat="46.51044" lon="6.74096"><ele>916.6</ele><time>2026-04-23T16:01:26Z</time></trkpt>
<trkpt lat="46.51044" lon="6.74096"><ele>916.4</ele><time>2026-04-23T16:01:30Z</time></trkpt>
<trkpt lat="46.51044" lon="6.74096"><ele>916.2</ele><time>2026-04-23T16:01:38Z</time></trkpt>
<trkpt lat="46.51044" lon="6.74096"><ele>916.4</ele><time>2026-04-23T16:01:46Z</time></trkpt>
<trkpt lat="46.51044" lon="6.74096"><ele>916.4</ele><time>2026-04-23T16:01:53Z</time></trkpt>
<trkpt lat="46.51044" lon="6.74096"><ele>916.4</ele><time>2026-04-23T16:01:55Z</time></trkpt>
<trkpt lat="46.51044" lon="6.74096"><ele>916.4</ele><time>2026-04-23T16:02:00Z</time></trkpt>
<trkpt lat="46.51044" lon="6.74095"><ele>916.4</ele><time>2026-04-23T16:02:05Z</time></trkpt>
<trkpt lat="46.51045" lon="6.74096"><ele>916.4</ele><time>2026-04-23T16:02:08Z</time></trkpt>
<trkpt lat="46.51044" lon="6.74096"><ele>916.4</ele><time>2026-04-23T16:02:10Z</time></trkpt>
<trkpt lat="46.51046" lon="6.74097"><ele>916.4</ele><time>2026-04-23T16:02:19Z</time></trkpt>
<trkpt lat="46.51045" lon="6.74097"><ele>916.4</ele><time>2026-04-23T16:02:26Z</time></trkpt>
<trkpt lat="46.51044" lon="6.74097"><ele>916.4</ele><time>2026-04-23T16:02:33Z</time></trkpt>
<trkpt lat="46.51044" lon="6.74097"><ele>916.4</ele><time>2026-04-23T16:02:42Z</time></trkpt>
<trkpt lat="46.51045" lon="6.74097"><ele>916.4</ele><time>2026-04-23T16:02:48Z</time></trkpt>
<trkpt lat="46.51046" lon="6.74098"><ele>916.4</ele><time>2026-04-23T16:02:54Z</time></trkpt>
<trkpt lat="46.51046" lon="6.74098"><ele>916.4</ele><time>2026-04-23T16:02:59Z</time></trkpt>
<trkpt lat="46.51045" lon="6.74099"><ele>916.4</ele><time>2026-04-23T16:03:08Z</time></trkpt>
<trkpt lat="46.51044" lon="6.74098"><ele>916.4</ele><time>2026-04-23T16:03:16Z</time></trkpt>
<trkpt lat="46.51043" lon="6.74095"><ele>916.4</ele><time>2026-04-23T16:03:23Z</time></trkpt>
<trkpt lat="46.51042" lon="6.74092"><ele>916.4</ele><time>2026-04-23T16:03:30Z</time></trkpt>
<trkpt lat="46.51042" lon="6.74092"><ele>916.4</ele><time>2026-04-23T16:03:38Z</time></trkpt>
<trkpt lat="46.51043" lon="6.74091"><ele>916.4</ele><time>2026-04-23T16:03:46Z</time></trkpt>
<trkpt lat="46.51044" lon="6.74091"><ele>916.4</ele><time>2026-04-23T16:03:55Z</time></trkpt>
<trkpt lat="46.51044" lon="6.74091"><ele>916.4</ele><time>2026-04-23T16:03:57Z</time></trkpt>
<trkpt lat="46.51044" lon="6.74091"><ele>916.4</ele><time>2026-04-23T16:04:01Z</time></trkpt>
<trkpt lat="46.51043" lon="6.74093"><ele>916.4</ele><time>2026-04-23T16:04:09Z</time></trkpt>
<trkpt lat="46.51044" lon="6.74093"><ele>916.4</ele><time>2026-04-23T16:04:17Z</time></trkpt>
<trkpt lat="46.51044" lon="6.74093"><ele>916.4</ele><time>2026-04-23T16:04:21Z</time></trkpt>
<trkpt lat="46.51044" lon="6.74093"><ele>916.4</ele><time>2026-04-23T16:04:24Z</time></trkpt>
<trkpt lat="46.51046" lon="6.74094"><ele>916.4</ele><time>2026-04-23T16:04:25Z</time></trkpt>
<trkpt lat="46.51046" lon="6.74095"><ele>916.4</ele><time>2026-04-23T16:04:30Z</time></trkpt>
<trkpt lat="46.51044" lon="6.74096"><ele>916.4</ele><time>2026-04-23T16:04:38Z</time></trkpt>
<trkpt lat="46.51044" lon="6.74096"><ele>916.4</ele><time>2026-04-23T16:04:43Z</time></trkpt>
<trkpt lat="46.51046" lon="6.74096"><ele>916.4</ele><time>2026-04-23T16:04:51Z</time></trkpt>
<trkpt lat="46.51046" lon="6.74096"><ele>916.4</ele><time>2026-04-23T16:04:59Z</time></trkpt>
<trkpt lat="46.51046" lon="6.74095"><ele>916.4</ele><time>2026-04-23T16:05:05Z</time></trkpt>
<trkpt lat="46.51046" lon="6.74096"><ele>916.4</ele><time>2026-04-23T16:05:13Z</time></trkpt>
<trkpt lat="46.51047" lon="6.74094"><ele>916.4</ele><time>2026-04-23T16:05:20Z</time></trkpt>
<trkpt lat="46.51047" lon="6.74096"><ele>916.4</ele><time>2026-04-23T16:05:28Z</time></trkpt>
<trkpt lat="46.51046" lon="6.74096"><ele>916.4</ele><time>2026-04-23T16:05:36Z</time></trkpt>
<trkpt lat="46.51045" lon="6.74096"><ele>916.4</ele><time>2026-04-23T16:05:45Z</time></trkpt>
<trkpt lat="46.51045" lon="6.74095"><ele>916.4</ele><time>2026-04-23T16:05:50Z</time></trkpt>
<trkpt lat="46.51045" lon="6.74095"><ele>916.4</ele><time>2026-04-23T16:05:57Z</time></trkpt>
<trkpt lat="46.51045" lon="6.74094"><ele>916.4</ele><time>2026-04-23T16:06:05Z</time></trkpt>
<trkpt lat="46.51044" lon="6.74093"><ele>916.4</ele><time>2026-04-23T16:06:16Z</time></trkpt>
<trkpt lat="46.51044" lon="6.74094"><ele>916.4</ele><time>2026-04-23T16:06:23Z</time></trkpt>
<trkpt lat="46.51044" lon="6.74094"><ele>916.4</ele><time>2026-04-23T16:06:25Z</time></trkpt>
<trkpt lat="46.51045" lon="6.74094"><ele>916.4</ele><time>2026-04-23T16:06:32Z</time></trkpt>
<trkpt lat="46.51046" lon="6.74094"><ele>916.4</ele><time>2026-04-23T16:06:39Z</time></trkpt>
<trkpt lat="46.51049" lon="6.74095"><ele>916.4</ele><time>2026-04-23T16:06:48Z</time></trkpt>
<trkpt lat="46.51049" lon="6.74095"><ele>916.4</ele><time>2026-04-23T16:06:49Z</time></trkpt>
<trkpt lat="46.51048" lon="6.74094"><ele>916.4</ele><time>2026-04-23T16:06:54Z</time></trkpt>
<trkpt lat="46.51048" lon="6.74094"><ele>916.4</ele><time>2026-04-23T16:06:56Z</time></trkpt>
<trkpt lat="46.51048" lon="6.74093"><ele>916.4</ele><time>2026-04-23T16:07:03Z</time></trkpt>
<trkpt lat="46.51048" lon="6.74093"><ele>916.4</ele><time>2026-04-23T16:07:08Z</time></trkpt>
<trkpt lat="46.51048" lon="6.74094"><ele>916.4</ele><time>2026-04-23T16:07:16Z</time></trkpt>
<trkpt lat="46.51048" lon="6.74096"><ele>916.4</ele><time>2026-04-23T16:07:22Z</time></trkpt>
<trkpt lat="46.51047" lon="6.74097"><ele>916.4</ele><time>2026-04-23T16:07:29Z</time></trkpt>
<trkpt lat="46.51047" lon="6.74096"><ele>916.4</ele><time>2026-04-23T16:07:33Z</time></trkpt>
<trkpt lat="46.51047" lon="6.74097"><ele>916.4</ele><time>2026-04-23T16:07:38Z</time></trkpt>
<trkpt lat="46.51047" lon="6.74097"><ele>916.4</ele><time>2026-04-23T16:07:44Z</time></trkpt>
<trkpt lat="46.51047" lon="6.74097"><ele>916.4</ele><time>2026-04-23T16:07:52Z</time></trkpt>
<trkpt lat="46.51047" lon="6.74096"><ele>916.4</ele><time>2026-04-23T16:07:57Z</time></trkpt>
<trkpt lat="46.51047" lon="6.74097"><ele>916.4</ele><time>2026-04-23T16:08:02Z</time></trkpt>
<trkpt lat="46.51047" lon="6.74097"><ele>916.4</ele><time>2026-04-23T16:08:08Z</time></trkpt>
<trkpt lat="46.51047" lon="6.74097"><ele>916.4</ele><time>2026-04-23T16:08:16Z</time></trkpt>
<trkpt lat="46.51047" lon="6.74097"><ele>916.4</ele><time>2026-04-23T16:08:17Z</time></trkpt>
<trkpt lat="46.51047" lon="6.74097"><ele>916.4</ele><time>2026-04-23T16:08:22Z</time></trkpt>
<trkpt lat="46.51047" lon="6.74097"><ele>916.4</ele><time>2026-04-23T16:08:27Z</time></trkpt>
<trkpt lat="46.51047" lon="6.74097"><ele>916.4</ele><time>2026-04-23T16:08:38Z</time></trkpt>
<trkpt lat="46.51047" lon="6.74097"><ele>916.4</ele><time>2026-04-23T16:08:49Z</time></trkpt>
<trkpt lat="46.51047" lon="6.74097"><ele>916.4</ele><time>2026-04-23T16:08:52Z</time></trkpt>
<trkpt lat="46.51047" lon="6.74097"><ele>916.4</ele><time>2026-04-23T16:09:04Z</time></trkpt>
<trkpt lat="46.51047" lon="6.74097"><ele>916.4</ele><time>2026-04-23T16:09:18Z</time></trkpt>
<trkpt lat="46.51047" lon="6.74097"><ele>916.4</ele><time>2026-04-23T16:09:22Z</time></trkpt>
<trkpt lat="46.51047" lon="6.74097"><ele>916.4</ele><time>2026-04-23T16:09:27Z</time></trkpt>
<trkpt lat="46.51046" lon="6.74094"><ele>916.4</ele><time>2026-04-23T16:09:35Z</time></trkpt>
<trkpt lat="46.51047" lon="6.74095"><ele>916.4</ele><time>2026-04-23T16:09:39Z</time></trkpt>
<trkpt lat="46.51046" lon="6.74097"><ele>916.4</ele><time>2026-04-23T16:09:45Z</time></trkpt>
<trkpt lat="46.51047" lon="6.74098"><ele>916.4</ele><time>2026-04-23T16:09:50Z</time></trkpt>
<trkpt lat="46.51047" lon="6.74097"><ele>916.4</ele><time>2026-04-23T16:09:54Z</time></trkpt>
<trkpt lat="46.51046" lon="6.74098"><ele>916.4</ele><time>2026-04-23T16:10:02Z</time></trkpt>
<trkpt lat="46.51045" lon="6.74096"><ele>916.4</ele><time>2026-04-23T16:10:04Z</time></trkpt>
<trkpt lat="46.51045" lon="6.74097"><ele>916.4</ele><time>2026-04-23T16:10:06Z</time></trkpt>
<trkpt lat="46.51047" lon="6.74097"><ele>916.4</ele><time>2026-04-23T16:10:11Z</time></trkpt>
<trkpt lat="46.51046" lon="6.74098"><ele>916.4</ele><time>2026-04-23T16:10:18Z</time></trkpt>
<trkpt lat="46.51047" lon="6.74099"><ele>916.4</ele><time>2026-04-23T16:10:19Z</time></trkpt>
<trkpt lat="46.51049" lon="6.74099"><ele>916.4</ele><time>2026-04-23T16:10:21Z</time></trkpt>
<trkpt lat="46.51051" lon="6.74097"><ele>916.4</ele><time>2026-04-23T16:10:23Z</time></trkpt>
<trkpt lat="46.51058" lon="6.74088"><ele>916.6</ele><time>2026-04-23T16:10:28Z</time></trkpt>
<trkpt lat="46.5106" lon="6.74089"><ele>916.6</ele><time>2026-04-23T16:10:29Z</time></trkpt>
<trkpt lat="46.51061" lon="6.74093"><ele>916.8</ele><time>2026-04-23T16:10:33Z</time></trkpt>
<trkpt lat="46.51061" lon="6.74092"><ele>916.6</ele><time>2026-04-23T16:10:40Z</time></trkpt>
<trkpt lat="46.51061" lon="6.74092"><ele>916.6</ele><time>2026-04-23T16:10:42Z</time></trkpt>
<trkpt lat="46.51061" lon="6.74092"><ele>916.8</ele><time>2026-04-23T16:10:53Z</time></trkpt>
<trkpt lat="46.51061" lon="6.74092"><ele>917</ele><time>2026-04-23T16:11:04Z</time></trkpt>
<trkpt lat="46.51061" lon="6.74092"><ele>917.2</ele><time>2026-04-23T16:11:06Z</time></trkpt>
<trkpt lat="46.51061" lon="6.74092"><ele>917.2</ele><time>2026-04-23T16:11:09Z</time></trkpt>
<trkpt lat="46.51062" lon="6.74095"><ele>917.2</ele><time>2026-04-23T16:11:14Z</time></trkpt>
<trkpt lat="46.51065" lon="6.741"><ele>917.2</ele><time>2026-04-23T16:11:17Z</time></trkpt>
<trkpt lat="46.5107" lon="6.74107"><ele>917.4</ele><time>2026-04-23T16:11:20Z</time></trkpt>
<trkpt lat="46.51081" lon="6.7412"><ele>917.2</ele><time>2026-04-23T16:11:25Z</time></trkpt>
<trkpt lat="46.51083" lon="6.74124"><ele>917.2</ele><time>2026-04-23T16:11:26Z</time></trkpt>
<trkpt lat="46.51088" lon="6.74139"><ele>917.2</ele><time>2026-04-23T16:11:29Z</time></trkpt>
<trkpt lat="46.5109" lon="6.74144"><ele>917</ele><time>2026-04-23T16:11:30Z</time></trkpt>
<trkpt lat="46.51089" lon="6.7416"><ele>916.2</ele><time>2026-04-23T16:11:33Z</time></trkpt>
<trkpt lat="46.51089" lon="6.74165"><ele>916</ele><time>2026-04-23T16:11:34Z</time></trkpt>
<trkpt lat="46.51088" lon="6.74176"><ele>915.2</ele><time>2026-04-23T16:11:36Z</time></trkpt>
<trkpt lat="46.51089" lon="6.74185"><ele>914.4</ele><time>2026-04-23T16:11:38Z</time></trkpt>
<trkpt lat="46.5109" lon="6.74189"><ele>914</ele><time>2026-04-23T16:11:39Z</time></trkpt>
<trkpt lat="46.51093" lon="6.74192"><ele>913.6</ele><time>2026-04-23T16:11:40Z</time></trkpt>
<trkpt lat="46.51102" lon="6.74201"><ele>912.6</ele><time>2026-04-23T16:11:42Z</time></trkpt>
<trkpt lat="46.5111" lon="6.74208"><ele>911.2</ele><time>2026-04-23T16:11:44Z</time></trkpt>
<trkpt lat="46.51118" lon="6.74219"><ele>909.8</ele><time>2026-04-23T16:11:46Z</time></trkpt>
<trkpt lat="46.51127" lon="6.7424"><ele>908.2</ele><time>2026-04-23T16:11:49Z</time></trkpt>
<trkpt lat="46.5113" lon="6.74248"><ele>907.4</ele><time>2026-04-23T16:11:50Z</time></trkpt>
<trkpt lat="46.51133" lon="6.74256"><ele>907</ele><time>2026-04-23T16:11:51Z</time></trkpt>
<trkpt lat="46.51138" lon="6.74267"><ele>905.4</ele><time>2026-04-23T16:11:53Z</time></trkpt>
<trkpt lat="46.51142" lon="6.74269"><ele>905</ele><time>2026-04-23T16:11:54Z</time></trkpt>
<trkpt lat="46.51146" lon="6.74269"><ele>904.2</ele><time>2026-04-23T16:11:55Z</time></trkpt>
<trkpt lat="46.51151" lon="6.74268"><ele>902.6</ele><time>2026-04-23T16:11:57Z</time></trkpt>
<trkpt lat="46.51152" lon="6.74271"><ele>901.6</ele><time>2026-04-23T16:12:01Z</time></trkpt>
<trkpt lat="46.51152" lon="6.7427"><ele>901.8</ele><time>2026-04-23T16:12:06Z</time></trkpt>
<trkpt lat="46.51152" lon="6.7427"><ele>901.8</ele><time>2026-04-23T16:12:09Z</time></trkpt>
<trkpt lat="46.51151" lon="6.7427"><ele>902</ele><time>2026-04-23T16:12:13Z</time></trkpt>
<trkpt lat="46.51152" lon="6.74271"><ele>902</ele><time>2026-04-23T16:12:18Z</time></trkpt>
<trkpt lat="46.51152" lon="6.74271"><ele>902</ele><time>2026-04-23T16:12:20Z</time></trkpt>
<trkpt lat="46.51151" lon="6.74271"><ele>902</ele><time>2026-04-23T16:12:21Z</time></trkpt>
<trkpt lat="46.51151" lon="6.7427"><ele>902</ele><time>2026-04-23T16:12:22Z</time></trkpt>
<trkpt lat="46.51151" lon="6.7427"><ele>902.2</ele><time>2026-04-23T16:12:23Z</time></trkpt>
<trkpt lat="46.5115" lon="6.7427"><ele>901.8</ele><time>2026-04-23T16:12:30Z</time></trkpt>
<trkpt lat="46.51148" lon="6.7427"><ele>901.8</ele><time>2026-04-23T16:12:37Z</time></trkpt>
<trkpt lat="46.51148" lon="6.74268"><ele>901.8</ele><time>2026-04-23T16:12:41Z</time></trkpt>
<trkpt lat="46.51147" lon="6.74267"><ele>901.8</ele><time>2026-04-23T16:12:43Z</time></trkpt>
<trkpt lat="46.51147" lon="6.74266"><ele>901.8</ele><time>2026-04-23T16:12:44Z</time></trkpt>
<trkpt lat="46.51147" lon="6.74264"><ele>902</ele><time>2026-04-23T16:12:50Z</time></trkpt>
<trkpt lat="46.51149" lon="6.74265"><ele>902.2</ele><time>2026-04-23T16:12:55Z</time></trkpt>
<trkpt lat="46.51149" lon="6.74267"><ele>902.4</ele><time>2026-04-23T16:12:57Z</time></trkpt>
<trkpt lat="46.51151" lon="6.74269"><ele>901.6</ele><time>2026-04-23T16:13:02Z</time></trkpt>
<trkpt lat="46.51153" lon="6.74271"><ele>901.6</ele><time>2026-04-23T16:13:09Z</time></trkpt>
<trkpt lat="46.51154" lon="6.74271"><ele>901.6</ele><time>2026-04-23T16:13:16Z</time></trkpt>
<trkpt lat="46.51156" lon="6.74271"><ele>901.6</ele><time>2026-04-23T16:13:21Z</time></trkpt>
<trkpt lat="46.51156" lon="6.74271"><ele>901.6</ele><time>2026-04-23T16:13:23Z</time></trkpt>
<trkpt lat="46.51154" lon="6.7427"><ele>901.6</ele><time>2026-04-23T16:13:29Z</time></trkpt>
<trkpt lat="46.51154" lon="6.7427"><ele>901.6</ele><time>2026-04-23T16:13:36Z</time></trkpt>
<trkpt lat="46.51152" lon="6.74268"><ele>901.6</ele><time>2026-04-23T16:13:42Z</time></trkpt>
<trkpt lat="46.51149" lon="6.74267"><ele>901.6</ele><time>2026-04-23T16:13:48Z</time></trkpt>
<trkpt lat="46.51147" lon="6.74265"><ele>901.6</ele><time>2026-04-23T16:13:53Z</time></trkpt>
<trkpt lat="46.51148" lon="6.74265"><ele>901.6</ele><time>2026-04-23T16:13:59Z</time></trkpt>
<trkpt lat="46.5115" lon="6.74268"><ele>901.6</ele><time>2026-04-23T16:14:05Z</time></trkpt>
<trkpt lat="46.5115" lon="6.74267"><ele>901.6</ele><time>2026-04-23T16:14:06Z</time></trkpt>
<trkpt lat="46.51153" lon="6.74263"><ele>901.6</ele><time>2026-04-23T16:14:11Z</time></trkpt>
<trkpt lat="46.51154" lon="6.74262"><ele>901.6</ele><time>2026-04-23T16:14:12Z</time></trkpt>
<trkpt lat="46.51156" lon="6.74259"><ele>899.6</ele><time>2026-04-23T16:14:15Z</time></trkpt>
<trkpt lat="46.51159" lon="6.74254"><ele>898.4</ele><time>2026-04-23T16:14:19Z</time></trkpt>
<trkpt lat="46.51161" lon="6.7425"><ele>897.2</ele><time>2026-04-23T16:14:22Z</time></trkpt>
<trkpt lat="46.51163" lon="6.74245"><ele>896.2</ele><time>2026-04-23T16:14:25Z</time></trkpt>
<trkpt lat="46.51164" lon="6.74245"><ele>896</ele><time>2026-04-23T16:14:26Z</time></trkpt>
<trkpt lat="46.51165" lon="6.74244"><ele>895.6</ele><time>2026-04-23T16:14:28Z</time></trkpt>
<trkpt lat="46.51167" lon="6.74246"><ele>895.2</ele><time>2026-04-23T16:14:30Z</time></trkpt>
<trkpt lat="46.51168" lon="6.74247"><ele>894.8</ele><time>2026-04-23T16:14:31Z</time></trkpt>
<trkpt lat="46.51171" lon="6.74253"><ele>893.6</ele><time>2026-04-23T16:14:35Z</time></trkpt>
<trkpt lat="46.51173" lon="6.74254"><ele>893.4</ele><time>2026-04-23T16:14:36Z</time></trkpt>
<trkpt lat="46.51178" lon="6.74259"><ele>892.4</ele><time>2026-04-23T16:14:39Z</time></trkpt>
<trkpt lat="46.51182" lon="6.74261"><ele>891.4</ele><time>2026-04-23T16:14:41Z</time></trkpt>
<trkpt lat="46.51192" lon="6.74269"><ele>890</ele><time>2026-04-23T16:14:44Z</time></trkpt>
<trkpt lat="46.51195" lon="6.74272"><ele>889.6</ele><time>2026-04-23T16:14:45Z</time></trkpt>
<trkpt lat="46.51198" lon="6.74278"><ele>889</ele><time>2026-04-23T16:14:46Z</time></trkpt>
<trkpt lat="46.51204" lon="6.74289"><ele>887.8</ele><time>2026-04-23T16:14:48Z</time></trkpt>
<trkpt lat="46.51207" lon="6.74293"><ele>886.8</ele><time>2026-04-23T16:14:49Z</time></trkpt>
<trkpt lat="46.51212" lon="6.74298"><ele>885.6</ele><time>2026-04-23T16:14:51Z</time></trkpt>
<trkpt lat="46.51217" lon="6.74303"><ele>885</ele><time>2026-04-23T16:14:53Z</time></trkpt>
<trkpt lat="46.51222" lon="6.7431"><ele>884.2</ele><time>2026-04-23T16:14:55Z</time></trkpt>
<trkpt lat="46.51227" lon="6.74317"><ele>882.8</ele><time>2026-04-23T16:14:57Z</time></trkpt>
<trkpt lat="46.51232" lon="6.74323"><ele>881.4</ele><time>2026-04-23T16:14:59Z</time></trkpt>
<trkpt lat="46.51235" lon="6.74326"><ele>880</ele><time>2026-04-23T16:15:01Z</time></trkpt>
<trkpt lat="46.51239" lon="6.74328"><ele>878.6</ele><time>2026-04-23T16:15:04Z</time></trkpt>
<trkpt lat="46.51249" lon="6.74334"><ele>877.4</ele><time>2026-04-23T16:15:07Z</time></trkpt>
<trkpt lat="46.51253" lon="6.74335"><ele>876.8</ele><time>2026-04-23T16:15:08Z</time></trkpt>
<trkpt lat="46.51257" lon="6.74335"><ele>876.2</ele><time>2026-04-23T16:15:09Z</time></trkpt>
<trkpt lat="46.51263" lon="6.74334"><ele>874.8</ele><time>2026-04-23T16:15:12Z</time></trkpt>
<trkpt lat="46.51266" lon="6.74335"><ele>874.2</ele><time>2026-04-23T16:15:16Z</time></trkpt>
<trkpt lat="46.51267" lon="6.74337"><ele>874.4</ele><time>2026-04-23T16:15:17Z</time></trkpt>
<trkpt lat="46.51267" lon="6.74354"><ele>873.8</ele><time>2026-04-23T16:15:21Z</time></trkpt>
<trkpt lat="46.51267" lon="6.74365"><ele>872.4</ele><time>2026-04-23T16:15:23Z</time></trkpt>
<trkpt lat="46.51267" lon="6.74375"><ele>870.6</ele><time>2026-04-23T16:15:25Z</time></trkpt>
<trkpt lat="46.51268" lon="6.7438"><ele>869.8</ele><time>2026-04-23T16:15:26Z</time></trkpt>
<trkpt lat="46.51269" lon="6.74384"><ele>869.6</ele><time>2026-04-23T16:15:27Z</time></trkpt>
<trkpt lat="46.51272" lon="6.74389"><ele>868.2</ele><time>2026-04-23T16:15:29Z</time></trkpt>
<trkpt lat="46.51275" lon="6.74394"><ele>866.8</ele><time>2026-04-23T16:15:31Z</time></trkpt>
<trkpt lat="46.51279" lon="6.74403"><ele>865.2</ele><time>2026-04-23T16:15:34Z</time></trkpt>
<trkpt lat="46.5128" lon="6.74408"><ele>864.2</ele><time>2026-04-23T16:15:36Z</time></trkpt>
<trkpt lat="46.5128" lon="6.7441"><ele>863.8</ele><time>2026-04-23T16:15:37Z</time></trkpt>
<trkpt lat="46.51279" lon="6.74411"><ele>863.2</ele><time>2026-04-23T16:15:40Z</time></trkpt>
<trkpt lat="46.51277" lon="6.74415"><ele>863.4</ele><time>2026-04-23T16:15:47Z</time></trkpt>
<trkpt lat="46.51279" lon="6.7442"><ele>862.6</ele><time>2026-04-23T16:15:51Z</time></trkpt>
<trkpt lat="46.51279" lon="6.74421"><ele>862.4</ele><time>2026-04-23T16:15:52Z</time></trkpt>
<trkpt lat="46.51278" lon="6.74426"><ele>861.4</ele><time>2026-04-23T16:15:56Z</time></trkpt>
<trkpt lat="46.51279" lon="6.74428"><ele>861</ele><time>2026-04-23T16:15:58Z</time></trkpt>
<trkpt lat="46.51281" lon="6.7443"><ele>860.4</ele><time>2026-04-23T16:16:01Z</time></trkpt>
<trkpt lat="46.51283" lon="6.74433"><ele>860</ele><time>2026-04-23T16:16:03Z</time></trkpt>
<trkpt lat="46.51282" lon="6.74437"><ele>859.6</ele><time>2026-04-23T16:16:05Z</time></trkpt>
<trkpt lat="46.51281" lon="6.74439"><ele>859</ele><time>2026-04-23T16:16:06Z</time></trkpt>
<trkpt lat="46.5128" lon="6.74443"><ele>858.2</ele><time>2026-04-23T16:16:08Z</time></trkpt>
<trkpt lat="46.5128" lon="6.74444"><ele>857.4</ele><time>2026-04-23T16:16:09Z</time></trkpt>
<trkpt lat="46.51281" lon="6.7445"><ele>856.2</ele><time>2026-04-23T16:16:11Z</time></trkpt>
<trkpt lat="46.51281" lon="6.74453"><ele>856</ele><time>2026-04-23T16:16:12Z</time></trkpt>
<trkpt lat="46.51281" lon="6.74458"><ele>855</ele><time>2026-04-23T16:16:14Z</time></trkpt>
<trkpt lat="46.51281" lon="6.7446"><ele>854.2</ele><time>2026-04-23T16:16:16Z</time></trkpt>
<trkpt lat="46.51281" lon="6.7446"><ele>854</ele><time>2026-04-23T16:16:17Z</time></trkpt>
<trkpt lat="46.51282" lon="6.74464"><ele>853.6</ele><time>2026-04-23T16:16:22Z</time></trkpt>
<trkpt lat="46.51281" lon="6.74468"><ele>852.8</ele><time>2026-04-23T16:16:25Z</time></trkpt>
<trkpt lat="46.51279" lon="6.74473"><ele>852.2</ele><time>2026-04-23T16:16:28Z</time></trkpt>
<trkpt lat="46.51279" lon="6.74474"><ele>851.8</ele><time>2026-04-23T16:16:29Z</time></trkpt>
<trkpt lat="46.51277" lon="6.74481"><ele>850.8</ele><time>2026-04-23T16:16:33Z</time></trkpt>
<trkpt lat="46.51277" lon="6.74481"><ele>850.8</ele><time>2026-04-23T16:16:34Z</time></trkpt>
<trkpt lat="46.51276" lon="6.74487"><ele>850.2</ele><time>2026-04-23T16:16:37Z</time></trkpt>
<trkpt lat="46.51275" lon="6.74492"><ele>849.6</ele><time>2026-04-23T16:16:39Z</time></trkpt>
<trkpt lat="46.51275" lon="6.74495"><ele>848.6</ele><time>2026-04-23T16:16:41Z</time></trkpt>
<trkpt lat="46.51275" lon="6.74498"><ele>848</ele><time>2026-04-23T16:16:42Z</time></trkpt>
<trkpt lat="46.51276" lon="6.745"><ele>847.2</ele><time>2026-04-23T16:16:44Z</time></trkpt>
<trkpt lat="46.51278" lon="6.74502"><ele>846.8</ele><time>2026-04-23T16:16:46Z</time></trkpt>
<trkpt lat="46.51278" lon="6.74504"><ele>846.6</ele><time>2026-04-23T16:16:47Z</time></trkpt>
<trkpt lat="46.51277" lon="6.74511"><ele>846</ele><time>2026-04-23T16:16:49Z</time></trkpt>
<trkpt lat="46.51276" lon="6.74515"><ele>845.4</ele><time>2026-04-23T16:16:50Z</time></trkpt>
<trkpt lat="46.51276" lon="6.7452"><ele>844.8</ele><time>2026-04-23T16:16:51Z</time></trkpt>
<trkpt lat="46.51278" lon="6.74528"><ele>843.2</ele><time>2026-04-23T16:16:53Z</time></trkpt>
<trkpt lat="46.51279" lon="6.74531"><ele>842.6</ele><time>2026-04-23T16:16:54Z</time></trkpt>
<trkpt lat="46.51281" lon="6.74536"><ele>842</ele><time>2026-04-23T16:16:55Z</time></trkpt>
<trkpt lat="46.5128" lon="6.7454"><ele>841.4</ele><time>2026-04-23T16:16:56Z</time></trkpt>
<trkpt lat="46.51281" lon="6.74544"><ele>840.6</ele><time>2026-04-23T16:16:57Z</time></trkpt>
<trkpt lat="46.51281" lon="6.74547"><ele>840</ele><time>2026-04-23T16:16:58Z</time></trkpt>
<trkpt lat="46.51282" lon="6.74551"><ele>839.4</ele><time>2026-04-23T16:16:59Z</time></trkpt>
<trkpt lat="46.51281" lon="6.74559"><ele>838</ele><time>2026-04-23T16:17:01Z</time></trkpt>
<trkpt lat="46.51281" lon="6.74563"><ele>837.4</ele><time>2026-04-23T16:17:02Z</time></trkpt>
<trkpt lat="46.51281" lon="6.74565"><ele>836.6</ele><time>2026-04-23T16:17:03Z</time></trkpt>
<trkpt lat="46.51281" lon="6.74568"><ele>835.4</ele><time>2026-04-23T16:17:05Z</time></trkpt>
<trkpt lat="46.51281" lon="6.74568"><ele>835</ele><time>2026-04-23T16:17:06Z</time></trkpt>
<trkpt lat="46.51282" lon="6.74573"><ele>834.4</ele><time>2026-04-23T16:17:11Z</time></trkpt>
<trkpt lat="46.51281" lon="6.74577"><ele>833.4</ele><time>2026-04-23T16:17:14Z</time></trkpt>
<trkpt lat="46.51281" lon="6.74582"><ele>832.4</ele><time>2026-04-23T16:17:17Z</time></trkpt>
<trkpt lat="46.51281" lon="6.74584"><ele>832</ele><time>2026-04-23T16:17:18Z</time></trkpt>
<trkpt lat="46.51283" lon="6.74588"><ele>831.2</ele><time>2026-04-23T16:17:22Z</time></trkpt>
<trkpt lat="46.51284" lon="6.74592"><ele>830.6</ele><time>2026-04-23T16:17:25Z</time></trkpt>
<trkpt lat="46.51283" lon="6.74596"><ele>830.4</ele><time>2026-04-23T16:17:26Z</time></trkpt>
<trkpt lat="46.51281" lon="6.74605"><ele>829.8</ele><time>2026-04-23T16:17:28Z</time></trkpt>
<trkpt lat="46.5128" lon="6.74617"><ele>828.4</ele><time>2026-04-23T16:17:31Z</time></trkpt>
<trkpt lat="46.51279" lon="6.74623"><ele>827.2</ele><time>2026-04-23T16:17:33Z</time></trkpt>
<trkpt lat="46.51281" lon="6.74626"><ele>826.8</ele><time>2026-04-23T16:17:34Z</time></trkpt>
<trkpt lat="46.51282" lon="6.74629"><ele>826.2</ele><time>2026-04-23T16:17:35Z</time></trkpt>
<trkpt lat="46.51284" lon="6.7463"><ele>825.6</ele><time>2026-04-23T16:17:36Z</time></trkpt>
<trkpt lat="46.51286" lon="6.74632"><ele>825.2</ele><time>2026-04-23T16:17:37Z</time></trkpt>
<trkpt lat="46.5129" lon="6.74633"><ele>824</ele><time>2026-04-23T16:17:39Z</time></trkpt>
<trkpt lat="46.51295" lon="6.74636"><ele>822.8</ele><time>2026-04-23T16:17:41Z</time></trkpt>
<trkpt lat="46.51298" lon="6.74636"><ele>822</ele><time>2026-04-23T16:17:42Z</time></trkpt>
<trkpt lat="46.51301" lon="6.74634"><ele>821.2</ele><time>2026-04-23T16:17:43Z</time></trkpt>
<trkpt lat="46.51306" lon="6.74633"><ele>820.2</ele><time>2026-04-23T16:17:45Z</time></trkpt>
<trkpt lat="46.51311" lon="6.74631"><ele>819.2</ele><time>2026-04-23T16:17:48Z</time></trkpt>
<trkpt lat="46.51313" lon="6.74629"><ele>819</ele><time>2026-04-23T16:17:49Z</time></trkpt>
<trkpt lat="46.51318" lon="6.74618"><ele>818.2</ele><time>2026-04-23T16:17:53Z</time></trkpt>
<trkpt lat="46.5132" lon="6.74616"><ele>818</ele><time>2026-04-23T16:17:54Z</time></trkpt>
<trkpt lat="46.51329" lon="6.74606"><ele>816.8</ele><time>2026-04-23T16:17:57Z</time></trkpt>
<trkpt lat="46.51337" lon="6.74598"><ele>816</ele><time>2026-04-23T16:17:59Z</time></trkpt>
<trkpt lat="46.51341" lon="6.74596"><ele>815.6</ele><time>2026-04-23T16:18:00Z</time></trkpt>
<trkpt lat="46.51345" lon="6.74593"><ele>815.2</ele><time>2026-04-23T16:18:01Z</time></trkpt>
<trkpt lat="46.51349" lon="6.74591"><ele>815.2</ele><time>2026-04-23T16:18:02Z</time></trkpt>
<trkpt lat="46.51357" lon="6.74584"><ele>815.2</ele><time>2026-04-23T16:18:05Z</time></trkpt>
<trkpt lat="46.51363" lon="6.74581"><ele>815.4</ele><time>2026-04-23T16:18:07Z</time></trkpt>
<trkpt lat="46.51371" lon="6.74582"><ele>814.6</ele><time>2026-04-23T16:18:11Z</time></trkpt>
<trkpt lat="46.51374" lon="6.74584"><ele>814.2</ele><time>2026-04-23T16:18:12Z</time></trkpt>
<trkpt lat="46.51378" lon="6.74586"><ele>813.4</ele><time>2026-04-23T16:18:14Z</time></trkpt>
<trkpt lat="46.51379" lon="6.74586"><ele>813</ele><time>2026-04-23T16:18:15Z</time></trkpt>
<trkpt lat="46.51389" lon="6.74598"><ele>812.8</ele><time>2026-04-23T16:18:21Z</time></trkpt>
<trkpt lat="46.51397" lon="6.74616"><ele>812.4</ele><time>2026-04-23T16:18:25Z</time></trkpt>
<trkpt lat="46.51407" lon="6.74626"><ele>812.4</ele><time>2026-04-23T16:18:29Z</time></trkpt>
<trkpt lat="46.5142" lon="6.74639"><ele>812.6</ele><time>2026-04-23T16:18:34Z</time></trkpt>
<trkpt lat="46.51433" lon="6.74653"><ele>813.8</ele><time>2026-04-23T16:18:40Z</time></trkpt>
<trkpt lat="46.51438" lon="6.74675"><ele>813.4</ele><time>2026-04-23T16:18:45Z</time></trkpt>
<trkpt lat="46.51439" lon="6.74681"><ele>813.2</ele><time>2026-04-23T16:18:46Z</time></trkpt>
<trkpt lat="46.51443" lon="6.74693"><ele>811.4</ele><time>2026-04-23T16:18:48Z</time></trkpt>
<trkpt lat="46.51445" lon="6.74699"><ele>810.8</ele><time>2026-04-23T16:18:49Z</time></trkpt>
<trkpt lat="46.51448" lon="6.74706"><ele>810</ele><time>2026-04-23T16:18:50Z</time></trkpt>
<trkpt lat="46.51451" lon="6.74729"><ele>808.8</ele><time>2026-04-23T16:18:54Z</time></trkpt>
<trkpt lat="46.51451" lon="6.74736"><ele>807.4</ele><time>2026-04-23T16:18:56Z</time></trkpt>
<trkpt lat="46.51454" lon="6.74746"><ele>806</ele><time>2026-04-23T16:18:58Z</time></trkpt>
<trkpt lat="46.51456" lon="6.74752"><ele>805.2</ele><time>2026-04-23T16:18:59Z</time></trkpt>
<trkpt lat="46.51459" lon="6.74757"><ele>804.4</ele><time>2026-04-23T16:19:00Z</time></trkpt>
<trkpt lat="46.51464" lon="6.74765"><ele>803.2</ele><time>2026-04-23T16:19:02Z</time></trkpt>
<trkpt lat="46.51468" lon="6.74769"><ele>802.4</ele><time>2026-04-23T16:19:03Z</time></trkpt>
<trkpt lat="46.51473" lon="6.74771"><ele>802</ele><time>2026-04-23T16:19:04Z</time></trkpt>
<trkpt lat="46.51478" lon="6.74773"><ele>801.6</ele><time>2026-04-23T16:19:05Z</time></trkpt>
<trkpt lat="46.51482" lon="6.74773"><ele>801</ele><time>2026-04-23T16:19:06Z</time></trkpt>
<trkpt lat="46.51487" lon="6.74774"><ele>800.6</ele><time>2026-04-23T16:19:07Z</time></trkpt>
<trkpt lat="46.51496" lon="6.74781"><ele>799.2</ele><time>2026-04-23T16:19:10Z</time></trkpt>
<trkpt lat="46.51498" lon="6.74785"><ele>798.6</ele><time>2026-04-23T16:19:11Z</time></trkpt>
<trkpt lat="46.51499" lon="6.74788"><ele>797.8</ele><time>2026-04-23T16:19:12Z</time></trkpt>
<trkpt lat="46.51501" lon="6.74796"><ele>796.2</ele><time>2026-04-23T16:19:14Z</time></trkpt>
<trkpt lat="46.51503" lon="6.74803"><ele>794.6</ele><time>2026-04-23T16:19:16Z</time></trkpt>
<trkpt lat="46.51505" lon="6.74806"><ele>793.2</ele><time>2026-04-23T16:19:18Z</time></trkpt>
<trkpt lat="46.51507" lon="6.74811"><ele>791.6</ele><time>2026-04-23T16:19:21Z</time></trkpt>
<trkpt lat="46.51509" lon="6.7481"><ele>790.4</ele><time>2026-04-23T16:19:24Z</time></trkpt>
<trkpt lat="46.5151" lon="6.7481"><ele>790.2</ele><time>2026-04-23T16:19:25Z</time></trkpt>
<trkpt lat="46.5152" lon="6.74813"><ele>790</ele><time>2026-04-23T16:19:29Z</time></trkpt>
<trkpt lat="46.51523" lon="6.74812"><ele>790</ele><time>2026-04-23T16:19:30Z</time></trkpt>
<trkpt lat="46.51529" lon="6.74806"><ele>790.2</ele><time>2026-04-23T16:19:34Z</time></trkpt>
<trkpt lat="46.51535" lon="6.748"><ele>790.8</ele><time>2026-04-23T16:19:39Z</time></trkpt>
<trkpt lat="46.51539" lon="6.74791"><ele>791.4</ele><time>2026-04-23T16:19:43Z</time></trkpt>
<trkpt lat="46.51541" lon="6.74787"><ele>791.6</ele><time>2026-04-23T16:19:45Z</time></trkpt>
<trkpt lat="46.51546" lon="6.74772"><ele>792.4</ele><time>2026-04-23T16:19:52Z</time></trkpt>
<trkpt lat="46.51546" lon="6.74769"><ele>792.6</ele><time>2026-04-23T16:19:53Z</time></trkpt>
<trkpt lat="46.51548" lon="6.7475"><ele>793.2</ele><time>2026-04-23T16:20:00Z</time></trkpt>
<trkpt lat="46.51547" lon="6.7474"><ele>793.4</ele><time>2026-04-23T16:20:04Z</time></trkpt>
<trkpt lat="46.51546" lon="6.74735"><ele>793.6</ele><time>2026-04-23T16:20:06Z</time></trkpt>
<trkpt lat="46.51542" lon="6.74714"><ele>793.8</ele><time>2026-04-23T16:20:12Z</time></trkpt>
<trkpt lat="46.51539" lon="6.74695"><ele>793.8</ele><time>2026-04-23T16:20:17Z</time></trkpt>
<trkpt lat="46.51534" lon="6.74668"><ele>794.2</ele><time>2026-04-23T16:20:23Z</time></trkpt>
<trkpt lat="46.51531" lon="6.7465"><ele>794.4</ele><time>2026-04-23T16:20:27Z</time></trkpt>
<trkpt lat="46.51529" lon="6.74645"><ele>794.6</ele><time>2026-04-23T16:20:28Z</time></trkpt>
<trkpt lat="46.51522" lon="6.74613"><ele>794.8</ele><time>2026-04-23T16:20:35Z</time></trkpt>
<trkpt lat="46.51519" lon="6.74591"><ele>795.2</ele><time>2026-04-23T16:20:40Z</time></trkpt>
<trkpt lat="46.51514" lon="6.74563"><ele>795.4</ele><time>2026-04-23T16:20:46Z</time></trkpt>
<trkpt lat="46.5151" lon="6.74545"><ele>795.6</ele><time>2026-04-23T16:20:50Z</time></trkpt>
<trkpt lat="46.51508" lon="6.74531"><ele>795.6</ele><time>2026-04-23T16:20:53Z</time></trkpt>
<trkpt lat="46.51506" lon="6.74509"><ele>795.8</ele><time>2026-04-23T16:20:58Z</time></trkpt>
<trkpt lat="46.51505" lon="6.74472"><ele>796.2</ele><time>2026-04-23T16:21:05Z</time></trkpt>
<trkpt lat="46.51503" lon="6.74442"><ele>796.4</ele><time>2026-04-23T16:21:11Z</time></trkpt>
<trkpt lat="46.51503" lon="6.74423"><ele>796.6</ele><time>2026-04-23T16:21:15Z</time></trkpt>
<trkpt lat="46.51502" lon="6.74408"><ele>796.8</ele><time>2026-04-23T16:21:18Z</time></trkpt>
<trkpt lat="46.51501" lon="6.7438"><ele>796</ele><time>2026-04-23T16:21:23Z</time></trkpt>
<trkpt lat="46.51501" lon="6.74356"><ele>795.6</ele><time>2026-04-23T16:21:27Z</time></trkpt>
<trkpt lat="46.51504" lon="6.74324"><ele>794.4</ele><time>2026-04-23T16:21:31Z</time></trkpt>
<trkpt lat="46.51504" lon="6.74316"><ele>794</ele><time>2026-04-23T16:21:32Z</time></trkpt>
<trkpt lat="46.51502" lon="6.74296"><ele>792.8</ele><time>2026-04-23T16:21:34Z</time></trkpt>
<trkpt lat="46.51501" lon="6.74287"><ele>792.2</ele><time>2026-04-23T16:21:35Z</time></trkpt>
<trkpt lat="46.51499" lon="6.74278"><ele>791.6</ele><time>2026-04-23T16:21:36Z</time></trkpt>
<trkpt lat="46.51492" lon="6.74245"><ele>791.4</ele><time>2026-04-23T16:21:39Z</time></trkpt>
<trkpt lat="46.51485" lon="6.742"><ele>792.6</ele><time>2026-04-23T16:21:44Z</time></trkpt>
<trkpt lat="46.51479" lon="6.74163"><ele>793.8</ele><time>2026-04-23T16:21:49Z</time></trkpt>
<trkpt lat="46.51474" lon="6.74139"><ele>795</ele><time>2026-04-23T16:21:53Z</time></trkpt>
<trkpt lat="46.51472" lon="6.74134"><ele>795.2</ele><time>2026-04-23T16:21:54Z</time></trkpt>
<trkpt lat="46.51469" lon="6.74124"><ele>796</ele><time>2026-04-23T16:21:56Z</time></trkpt>
<trkpt lat="46.51465" lon="6.74113"><ele>796.6</ele><time>2026-04-23T16:21:59Z</time></trkpt>
<trkpt lat="46.51462" lon="6.74103"><ele>797</ele><time>2026-04-23T16:22:02Z</time></trkpt>
<trkpt lat="46.51459" lon="6.74096"><ele>797.4</ele><time>2026-04-23T16:22:04Z</time></trkpt>
<trkpt lat="46.51445" lon="6.74073"><ele>798</ele><time>2026-04-23T16:22:11Z</time></trkpt>
<trkpt lat="46.51434" lon="6.74052"><ele>797.4</ele><time>2026-04-23T16:22:16Z</time></trkpt>
<trkpt lat="46.51434" lon="6.74046"><ele>797.4</ele><time>2026-04-23T16:22:17Z</time></trkpt>
<trkpt lat="46.51433" lon="6.74026"><ele>797.2</ele><time>2026-04-23T16:22:20Z</time></trkpt>
<trkpt lat="46.51432" lon="6.74003"><ele>796.4</ele><time>2026-04-23T16:22:23Z</time></trkpt>
<trkpt lat="46.51431" lon="6.73986"><ele>795.8</ele><time>2026-04-23T16:22:25Z</time></trkpt>
<trkpt lat="46.51429" lon="6.7396"><ele>794.6</ele><time>2026-04-23T16:22:28Z</time></trkpt>
<trkpt lat="46.51427" lon="6.7394"><ele>793.8</ele><time>2026-04-23T16:22:30Z</time></trkpt>
<trkpt lat="46.51426" lon="6.7393"><ele>793.4</ele><time>2026-04-23T16:22:31Z</time></trkpt>
<trkpt lat="46.5142" lon="6.7391"><ele>792.6</ele><time>2026-04-23T16:22:33Z</time></trkpt>
<trkpt lat="46.51415" lon="6.739"><ele>792.2</ele><time>2026-04-23T16:22:34Z</time></trkpt>
<trkpt lat="46.51406" lon="6.73876"><ele>791</ele><time>2026-04-23T16:22:36Z</time></trkpt>
<trkpt lat="46.51397" lon="6.73848"><ele>789.2</ele><time>2026-04-23T16:22:38Z</time></trkpt>
<trkpt lat="46.51391" lon="6.73834"><ele>788.2</ele><time>2026-04-23T16:22:39Z</time></trkpt>
<trkpt lat="46.51384" lon="6.73822"><ele>787.4</ele><time>2026-04-23T16:22:40Z</time></trkpt>
<trkpt lat="46.51374" lon="6.73811"><ele>786.6</ele><time>2026-04-23T16:22:41Z</time></trkpt>
<trkpt lat="46.51365" lon="6.73799"><ele>785.6</ele><time>2026-04-23T16:22:42Z</time></trkpt>
<trkpt lat="46.51358" lon="6.73784"><ele>784.6</ele><time>2026-04-23T16:22:43Z</time></trkpt>
<trkpt lat="46.51353" lon="6.73768"><ele>783.2</ele><time>2026-04-23T16:22:44Z</time></trkpt>
<trkpt lat="46.51348" lon="6.73751"><ele>781.6</ele><time>2026-04-23T16:22:45Z</time></trkpt>
<trkpt lat="46.51344" lon="6.73733"><ele>780.2</ele><time>2026-04-23T16:22:46Z</time></trkpt>
<trkpt lat="46.51337" lon="6.73716"><ele>778.8</ele><time>2026-04-23T16:22:47Z</time></trkpt>
<trkpt lat="46.5133" lon="6.73701"><ele>777.4</ele><time>2026-04-23T16:22:48Z</time></trkpt>
<trkpt lat="46.51321" lon="6.73685"><ele>775.8</ele><time>2026-04-23T16:22:49Z</time></trkpt>
<trkpt lat="46.51312" lon="6.73669"><ele>773.8</ele><time>2026-04-23T16:22:50Z</time></trkpt>
<trkpt lat="46.51302" lon="6.73653"><ele>771.8</ele><time>2026-04-23T16:22:51Z</time></trkpt>
<trkpt lat="46.51294" lon="6.73636"><ele>770.6</ele><time>2026-04-23T16:22:52Z</time></trkpt>
<trkpt lat="46.51287" lon="6.73618"><ele>769.4</ele><time>2026-04-23T16:22:53Z</time></trkpt>
<trkpt lat="46.51281" lon="6.736"><ele>768.4</ele><time>2026-04-23T16:22:54Z</time></trkpt>
<trkpt lat="46.51273" lon="6.73583"><ele>767.6</ele><time>2026-04-23T16:22:55Z</time></trkpt>
<trkpt lat="46.51264" lon="6.73569"><ele>766.6</ele><time>2026-04-23T16:22:56Z</time></trkpt>
<trkpt lat="46.51253" lon="6.73557"><ele>765.6</ele><time>2026-04-23T16:22:57Z</time></trkpt>
<trkpt lat="46.51241" lon="6.73548"><ele>764.6</ele><time>2026-04-23T16:22:58Z</time></trkpt>
<trkpt lat="46.51207" lon="6.73529"><ele>763.6</ele><time>2026-04-23T16:23:01Z</time></trkpt>
<trkpt lat="46.51197" lon="6.73509"><ele>763.4</ele><time>2026-04-23T16:23:03Z</time></trkpt>
<trkpt lat="46.51201" lon="6.73493"><ele>762.6</ele><time>2026-04-23T16:23:05Z</time></trkpt>
<trkpt lat="46.51204" lon="6.73486"><ele>762.2</ele><time>2026-04-23T16:23:06Z</time></trkpt>
<trkpt lat="46.51215" lon="6.73466"><ele>761.8</ele><time>2026-04-23T16:23:09Z</time></trkpt>
<trkpt lat="46.51215" lon="6.73458"><ele>761.4</ele><time>2026-04-23T16:23:10Z</time></trkpt>
<trkpt lat="46.51212" lon="6.7345"><ele>761.4</ele><time>2026-04-23T16:23:11Z</time></trkpt>
<trkpt lat="46.51207" lon="6.73444"><ele>761.4</ele><time>2026-04-23T16:23:12Z</time></trkpt>
<trkpt lat="46.5119" lon="6.73415"><ele>761</ele><time>2026-04-23T16:23:16Z</time></trkpt>
<trkpt lat="46.51181" lon="6.73399"><ele>760.4</ele><time>2026-04-23T16:23:18Z</time></trkpt>
<trkpt lat="46.51172" lon="6.73383"><ele>760</ele><time>2026-04-23T16:23:20Z</time></trkpt>
<trkpt lat="46.51142" lon="6.73333"><ele>759.2</ele><time>2026-04-23T16:23:26Z</time></trkpt>
<trkpt lat="46.51121" lon="6.73297"><ele>758.8</ele><time>2026-04-23T16:23:30Z</time></trkpt>
<trkpt lat="46.51098" lon="6.73258"><ele>757.8</ele><time>2026-04-23T16:23:34Z</time></trkpt>
<trkpt lat="46.51077" lon="6.73232"><ele>757</ele><time>2026-04-23T16:23:37Z</time></trkpt>
<trkpt lat="46.51068" lon="6.73225"><ele>756.8</ele><time>2026-04-23T16:23:38Z</time></trkpt>
<trkpt lat="46.51059" lon="6.7322"><ele>756.6</ele><time>2026-04-23T16:23:39Z</time></trkpt>
<trkpt lat="46.5104" lon="6.73215"><ele>756</ele><time>2026-04-23T16:23:41Z</time></trkpt>
<trkpt lat="46.51013" lon="6.73214"><ele>755.6</ele><time>2026-04-23T16:23:44Z</time></trkpt>
<trkpt lat="46.50996" lon="6.73215"><ele>755.4</ele><time>2026-04-23T16:23:46Z</time></trkpt>
<trkpt lat="46.50956" lon="6.73219"><ele>755.6</ele><time>2026-04-23T16:23:51Z</time></trkpt>
<trkpt lat="46.50943" lon="6.73214"><ele>756</ele><time>2026-04-23T16:23:53Z</time></trkpt>
<trkpt lat="46.50932" lon="6.73207"><ele>756.6</ele><time>2026-04-23T16:23:55Z</time></trkpt>
<trkpt lat="46.50915" lon="6.73194"><ele>757.8</ele><time>2026-04-23T16:23:59Z</time></trkpt>
<trkpt lat="46.5091" lon="6.73191"><ele>758</ele><time>2026-04-23T16:24:00Z</time></trkpt>
<trkpt lat="46.50871" lon="6.73172"><ele>758.2</ele><time>2026-04-23T16:24:07Z</time></trkpt>
<trkpt lat="46.50835" lon="6.73155"><ele>758</ele><time>2026-04-23T16:24:13Z</time></trkpt>
<trkpt lat="46.50822" lon="6.7315"><ele>757.6</ele><time>2026-04-23T16:24:15Z</time></trkpt>
<trkpt lat="46.50779" lon="6.73141"><ele>756.8</ele><time>2026-04-23T16:24:21Z</time></trkpt>
<trkpt lat="46.50772" lon="6.73142"><ele>756.8</ele><time>2026-04-23T16:24:22Z</time></trkpt>
<trkpt lat="46.50737" lon="6.73152"><ele>756</ele><time>2026-04-23T16:24:27Z</time></trkpt>
<trkpt lat="46.50729" lon="6.73153"><ele>755.4</ele><time>2026-04-23T16:24:28Z</time></trkpt>
<trkpt lat="46.50712" lon="6.73156"><ele>754.2</ele><time>2026-04-23T16:24:30Z</time></trkpt>
<trkpt lat="46.50702" lon="6.73158"><ele>753.2</ele><time>2026-04-23T16:24:31Z</time></trkpt>
<trkpt lat="46.50693" lon="6.7316"><ele>752</ele><time>2026-04-23T16:24:32Z</time></trkpt>
<trkpt lat="46.50682" lon="6.73164"><ele>750.8</ele><time>2026-04-23T16:24:33Z</time></trkpt>
<trkpt lat="46.50672" lon="6.7317"><ele>749.4</ele><time>2026-04-23T16:24:34Z</time></trkpt>
<trkpt lat="46.50662" lon="6.73177"><ele>747.8</ele><time>2026-04-23T16:24:35Z</time></trkpt>
<trkpt lat="46.50653" lon="6.73186"><ele>746.6</ele><time>2026-04-23T16:24:36Z</time></trkpt>
<trkpt lat="46.50643" lon="6.73196"><ele>745.2</ele><time>2026-04-23T16:24:37Z</time></trkpt>
<trkpt lat="46.50633" lon="6.73207"><ele>744</ele><time>2026-04-23T16:24:38Z</time></trkpt>
<trkpt lat="46.50623" lon="6.73219"><ele>742.6</ele><time>2026-04-23T16:24:39Z</time></trkpt>
<trkpt lat="46.50612" lon="6.73231"><ele>741.4</ele><time>2026-04-23T16:24:40Z</time></trkpt>
<trkpt lat="46.50602" lon="6.73242"><ele>740</ele><time>2026-04-23T16:24:41Z</time></trkpt>
<trkpt lat="46.50591" lon="6.73255"><ele>738.6</ele><time>2026-04-23T16:24:42Z</time></trkpt>
<trkpt lat="46.50569" lon="6.73281"><ele>736.2</ele><time>2026-04-23T16:24:44Z</time></trkpt>
<trkpt lat="46.50559" lon="6.73295"><ele>734.2</ele><time>2026-04-23T16:24:45Z</time></trkpt>
<trkpt lat="46.50551" lon="6.73309"><ele>732.6</ele><time>2026-04-23T16:24:46Z</time></trkpt>
<trkpt lat="46.50545" lon="6.73323"><ele>731</ele><time>2026-04-23T16:24:47Z</time></trkpt>
<trkpt lat="46.50541" lon="6.73336"><ele>729.8</ele><time>2026-04-23T16:24:48Z</time></trkpt>
<trkpt lat="46.50532" lon="6.73352"><ele>727.8</ele><time>2026-04-23T16:24:50Z</time></trkpt>
<trkpt lat="46.50521" lon="6.73348"><ele>726.4</ele><time>2026-04-23T16:24:52Z</time></trkpt>
<trkpt lat="46.50517" lon="6.73341"><ele>725.6</ele><time>2026-04-23T16:24:53Z</time></trkpt>
<trkpt lat="46.50514" lon="6.73333"><ele>725</ele><time>2026-04-23T16:24:54Z</time></trkpt>
<trkpt lat="46.50509" lon="6.73326"><ele>724</ele><time>2026-04-23T16:24:55Z</time></trkpt>
<trkpt lat="46.50503" lon="6.73316"><ele>722.8</ele><time>2026-04-23T16:24:56Z</time></trkpt>
<trkpt lat="46.50498" lon="6.73306"><ele>721.4</ele><time>2026-04-23T16:24:57Z</time></trkpt>
<trkpt lat="46.50491" lon="6.73296"><ele>720.2</ele><time>2026-04-23T16:24:58Z</time></trkpt>
<trkpt lat="46.50485" lon="6.73285"><ele>718.8</ele><time>2026-04-23T16:24:59Z</time></trkpt>
<trkpt lat="46.50479" lon="6.73273"><ele>717.4</ele><time>2026-04-23T16:25:00Z</time></trkpt>
<trkpt lat="46.50472" lon="6.73262"><ele>716.2</ele><time>2026-04-23T16:25:01Z</time></trkpt>
<trkpt lat="46.50465" lon="6.7325"><ele>715</ele><time>2026-04-23T16:25:02Z</time></trkpt>
<trkpt lat="46.50457" lon="6.73238"><ele>713.8</ele><time>2026-04-23T16:25:03Z</time></trkpt>
<trkpt lat="46.5045" lon="6.73225"><ele>712.8</ele><time>2026-04-23T16:25:04Z</time></trkpt>
<trkpt lat="46.50443" lon="6.73212"><ele>711.2</ele><time>2026-04-23T16:25:05Z</time></trkpt>
<trkpt lat="46.50435" lon="6.732"><ele>710</ele><time>2026-04-23T16:25:06Z</time></trkpt>
<trkpt lat="46.50428" lon="6.73186"><ele>708.6</ele><time>2026-04-23T16:25:07Z</time></trkpt>
<trkpt lat="46.5042" lon="6.73173"><ele>707.4</ele><time>2026-04-23T16:25:08Z</time></trkpt>
<trkpt lat="46.50412" lon="6.73159"><ele>706.2</ele><time>2026-04-23T16:25:09Z</time></trkpt>
<trkpt lat="46.50398" lon="6.73131"><ele>705.2</ele><time>2026-04-23T16:25:11Z</time></trkpt>
<trkpt lat="46.5039" lon="6.73118"><ele>704.8</ele><time>2026-04-23T16:25:12Z</time></trkpt>
<trkpt lat="46.50357" lon="6.73059"><ele>704.8</ele><time>2026-04-23T16:25:17Z</time></trkpt>
<trkpt lat="46.50331" lon="6.73016"><ele>706.2</ele><time>2026-04-23T16:25:21Z</time></trkpt>
<trkpt lat="46.50325" lon="6.73006"><ele>706.8</ele><time>2026-04-23T16:25:22Z</time></trkpt>
<trkpt lat="46.50321" lon="6.72997"><ele>707.4</ele><time>2026-04-23T16:25:23Z</time></trkpt>
<trkpt lat="46.50319" lon="6.72989"><ele>708.4</ele><time>2026-04-23T16:25:24Z</time></trkpt>
<trkpt lat="46.50316" lon="6.72982"><ele>709.2</ele><time>2026-04-23T16:25:25Z</time></trkpt>
<trkpt lat="46.50315" lon="6.72975"><ele>710</ele><time>2026-04-23T16:25:26Z</time></trkpt>
<trkpt lat="46.50314" lon="6.72969"><ele>711.2</ele><time>2026-04-23T16:25:27Z</time></trkpt>
<trkpt lat="46.50313" lon="6.72959"><ele>712.6</ele><time>2026-04-23T16:25:29Z</time></trkpt>
<trkpt lat="46.50305" lon="6.72943"><ele>713.4</ele><time>2026-04-23T16:25:34Z</time></trkpt>
<trkpt lat="46.5028" lon="6.72918"><ele>712.6</ele><time>2026-04-23T16:25:41Z</time></trkpt>
<trkpt lat="46.50256" lon="6.72888"><ele>711.6</ele><time>2026-04-23T16:25:47Z</time></trkpt>
<trkpt lat="46.50241" lon="6.72869"><ele>709.6</ele><time>2026-04-23T16:25:50Z</time></trkpt>
<trkpt lat="46.50229" lon="6.72856"><ele>708.4</ele><time>2026-04-23T16:25:52Z</time></trkpt>
<trkpt lat="46.50197" lon="6.72827"><ele>707</ele><time>2026-04-23T16:25:57Z</time></trkpt>
<trkpt lat="46.50168" lon="6.7281"><ele>706</ele><time>2026-04-23T16:26:01Z</time></trkpt>
<trkpt lat="46.50153" lon="6.72799"><ele>705.2</ele><time>2026-04-23T16:26:03Z</time></trkpt>
<trkpt lat="46.50147" lon="6.72792"><ele>705</ele><time>2026-04-23T16:26:04Z</time></trkpt>
<trkpt lat="46.50142" lon="6.72783"><ele>704.4</ele><time>2026-04-23T16:26:05Z</time></trkpt>
<trkpt lat="46.50134" lon="6.72762"><ele>703.2</ele><time>2026-04-23T16:26:07Z</time></trkpt>
<trkpt lat="46.50128" lon="6.72736"><ele>701</ele><time>2026-04-23T16:26:09Z</time></trkpt>
<trkpt lat="46.50127" lon="6.72721"><ele>699.6</ele><time>2026-04-23T16:26:10Z</time></trkpt>
<trkpt lat="46.50126" lon="6.72706"><ele>697.8</ele><time>2026-04-23T16:26:11Z</time></trkpt>
<trkpt lat="46.50124" lon="6.72691"><ele>696</ele><time>2026-04-23T16:26:12Z</time></trkpt>
<trkpt lat="46.50121" lon="6.72676"><ele>694.2</ele><time>2026-04-23T16:26:13Z</time></trkpt>
<trkpt lat="46.50117" lon="6.72663"><ele>692.6</ele><time>2026-04-23T16:26:14Z</time></trkpt>
<trkpt lat="46.50113" lon="6.7265"><ele>691.2</ele><time>2026-04-23T16:26:15Z</time></trkpt>
<trkpt lat="46.5011" lon="6.72637"><ele>689.8</ele><time>2026-04-23T16:26:16Z</time></trkpt>
<trkpt lat="46.50107" lon="6.72625"><ele>688.6</ele><time>2026-04-23T16:26:17Z</time></trkpt>
<trkpt lat="46.50104" lon="6.72614"><ele>687.4</ele><time>2026-04-23T16:26:18Z</time></trkpt>
<trkpt lat="46.50098" lon="6.72595"><ele>685.8</ele><time>2026-04-23T16:26:20Z</time></trkpt>
<trkpt lat="46.50092" lon="6.7258"><ele>684.8</ele><time>2026-04-23T16:26:22Z</time></trkpt>
<trkpt lat="46.50088" lon="6.72574"><ele>684.4</ele><time>2026-04-23T16:26:23Z</time></trkpt>
<trkpt lat="46.50074" lon="6.7255"><ele>683.4</ele><time>2026-04-23T16:26:27Z</time></trkpt>
<trkpt lat="46.50071" lon="6.72545"><ele>683.2</ele><time>2026-04-23T16:26:28Z</time></trkpt>
<trkpt lat="46.50057" lon="6.72513"><ele>682.2</ele><time>2026-04-23T16:26:33Z</time></trkpt>
<trkpt lat="46.50055" lon="6.72507"><ele>681.8</ele><time>2026-04-23T16:26:34Z</time></trkpt>
<trkpt lat="46.50052" lon="6.72501"><ele>681.6</ele><time>2026-04-23T16:26:35Z</time></trkpt>
<trkpt lat="46.50049" lon="6.72494"><ele>681.2</ele><time>2026-04-23T16:26:36Z</time></trkpt>
<trkpt lat="46.50034" lon="6.72457"><ele>682.2</ele><time>2026-04-23T16:26:42Z</time></trkpt>
<trkpt lat="46.50022" lon="6.72419"><ele>680.8</ele><time>2026-04-23T16:26:47Z</time></trkpt>
<trkpt lat="46.50015" lon="6.72398"><ele>679.2</ele><time>2026-04-23T16:26:49Z</time></trkpt>
<trkpt lat="46.50012" lon="6.72386"><ele>678</ele><time>2026-04-23T16:26:50Z</time></trkpt>
<trkpt lat="46.50004" lon="6.72363"><ele>676</ele><time>2026-04-23T16:26:52Z</time></trkpt>
<trkpt lat="46.5" lon="6.72351"><ele>674.8</ele><time>2026-04-23T16:26:53Z</time></trkpt>
<trkpt lat="46.49991" lon="6.72328"><ele>673</ele><time>2026-04-23T16:26:55Z</time></trkpt>
<trkpt lat="46.49987" lon="6.72316"><ele>672</ele><time>2026-04-23T16:26:56Z</time></trkpt>
<trkpt lat="46.49984" lon="6.72304"><ele>670.6</ele><time>2026-04-23T16:26:57Z</time></trkpt>
<trkpt lat="46.49981" lon="6.72291"><ele>669.4</ele><time>2026-04-23T16:26:58Z</time></trkpt>
<trkpt lat="46.4998" lon="6.72276"><ele>668</ele><time>2026-04-23T16:26:59Z</time></trkpt>
<trkpt lat="46.4998" lon="6.72262"><ele>666.6</ele><time>2026-04-23T16:27:00Z</time></trkpt>
<trkpt lat="46.49983" lon="6.72237"><ele>665</ele><time>2026-04-23T16:27:02Z</time></trkpt>
<trkpt lat="46.49987" lon="6.72199"><ele>663.8</ele><time>2026-04-23T16:27:05Z</time></trkpt>
<trkpt lat="46.49991" lon="6.72171"><ele>662.4</ele><time>2026-04-23T16:27:07Z</time></trkpt>
<trkpt lat="46.49992" lon="6.72156"><ele>660.4</ele><time>2026-04-23T16:27:08Z</time></trkpt>
<trkpt lat="46.49991" lon="6.72141"><ele>658.4</ele><time>2026-04-23T16:27:09Z</time></trkpt>
<trkpt lat="46.49989" lon="6.72126"><ele>656.6</ele><time>2026-04-23T16:27:10Z</time></trkpt>
<trkpt lat="46.49985" lon="6.72113"><ele>654.8</ele><time>2026-04-23T16:27:11Z</time></trkpt>
<trkpt lat="46.4998" lon="6.72101"><ele>653.4</ele><time>2026-04-23T16:27:12Z</time></trkpt>
<trkpt lat="46.49975" lon="6.72091"><ele>652</ele><time>2026-04-23T16:27:13Z</time></trkpt>
<trkpt lat="46.49971" lon="6.72082"><ele>650.4</ele><time>2026-04-23T16:27:14Z</time></trkpt>
<trkpt lat="46.49967" lon="6.72075"><ele>649.4</ele><time>2026-04-23T16:27:15Z</time></trkpt>
<trkpt lat="46.49963" lon="6.72069"><ele>648</ele><time>2026-04-23T16:27:16Z</time></trkpt>
<trkpt lat="46.49961" lon="6.72063"><ele>647</ele><time>2026-04-23T16:27:17Z</time></trkpt>
<trkpt lat="46.4996" lon="6.7206"><ele>646.2</ele><time>2026-04-23T16:27:18Z</time></trkpt>
<trkpt lat="46.49958" lon="6.72058"><ele>645.8</ele><time>2026-04-23T16:27:19Z</time></trkpt>
<trkpt lat="46.49952" lon="6.72048"><ele>645</ele><time>2026-04-23T16:27:22Z</time></trkpt>
<trkpt lat="46.49936" lon="6.72021"><ele>645</ele><time>2026-04-23T16:27:27Z</time></trkpt>
<trkpt lat="46.49924" lon="6.71999"><ele>644.6</ele><time>2026-04-23T16:27:30Z</time></trkpt>
<trkpt lat="46.49912" lon="6.71977"><ele>643.4</ele><time>2026-04-23T16:27:33Z</time></trkpt>
<trkpt lat="46.49907" lon="6.71968"><ele>642.8</ele><time>2026-04-23T16:27:34Z</time></trkpt>
<trkpt lat="46.49902" lon="6.7196"><ele>642.2</ele><time>2026-04-23T16:27:35Z</time></trkpt>
<trkpt lat="46.4989" lon="6.71941"><ele>640</ele><time>2026-04-23T16:27:37Z</time></trkpt>
<trkpt lat="46.49883" lon="6.71932"><ele>638.6</ele><time>2026-04-23T16:27:38Z</time></trkpt>
<trkpt lat="46.49875" lon="6.71924"><ele>637</ele><time>2026-04-23T16:27:39Z</time></trkpt>
<trkpt lat="46.49867" lon="6.71916"><ele>635.4</ele><time>2026-04-23T16:27:40Z</time></trkpt>
<trkpt lat="46.49859" lon="6.71909"><ele>633.6</ele><time>2026-04-23T16:27:41Z</time></trkpt>
<trkpt lat="46.49851" lon="6.71901"><ele>631.8</ele><time>2026-04-23T16:27:42Z</time></trkpt>
<trkpt lat="46.49842" lon="6.71892"><ele>630.2</ele><time>2026-04-23T16:27:43Z</time></trkpt>
<trkpt lat="46.49835" lon="6.71881"><ele>628.4</ele><time>2026-04-23T16:27:44Z</time></trkpt>
<trkpt lat="46.49829" lon="6.71869"><ele>626.6</ele><time>2026-04-23T16:27:45Z</time></trkpt>
<trkpt lat="46.49824" lon="6.71856"><ele>625</ele><time>2026-04-23T16:27:46Z</time></trkpt>
<trkpt lat="46.4982" lon="6.71843"><ele>623.4</ele><time>2026-04-23T16:27:47Z</time></trkpt>
<trkpt lat="46.49816" lon="6.71831"><ele>621</ele><time>2026-04-23T16:27:48Z</time></trkpt>
<trkpt lat="46.49812" lon="6.71819"><ele>619.2</ele><time>2026-04-23T16:27:49Z</time></trkpt>
<trkpt lat="46.49807" lon="6.71809"><ele>617.6</ele><time>2026-04-23T16:27:50Z</time></trkpt>
<trkpt lat="46.49802" lon="6.71802"><ele>616.6</ele><time>2026-04-23T16:27:51Z</time></trkpt>
<trkpt lat="46.49797" lon="6.71795"><ele>615.8</ele><time>2026-04-23T16:27:52Z</time></trkpt>
<trkpt lat="46.49795" lon="6.71788"><ele>614.8</ele><time>2026-04-23T16:27:53Z</time></trkpt>
<trkpt lat="46.49794" lon="6.7178"><ele>614.2</ele><time>2026-04-23T16:27:54Z</time></trkpt>
<trkpt lat="46.49795" lon="6.71772"><ele>613.6</ele><time>2026-04-23T16:27:55Z</time></trkpt>
<trkpt lat="46.49796" lon="6.71765"><ele>613.2</ele><time>2026-04-23T16:27:56Z</time></trkpt>
<trkpt lat="46.49799" lon="6.71751"><ele>612.8</ele><time>2026-04-23T16:27:58Z</time></trkpt>
<trkpt lat="46.49803" lon="6.71736"><ele>612.4</ele><time>2026-04-23T16:28:00Z</time></trkpt>
<trkpt lat="46.4981" lon="6.71721"><ele>611.8</ele><time>2026-04-23T16:28:02Z</time></trkpt>
<trkpt lat="46.49815" lon="6.71713"><ele>611.2</ele><time>2026-04-23T16:28:03Z</time></trkpt>
<trkpt lat="46.49819" lon="6.71705"><ele>610.6</ele><time>2026-04-23T16:28:04Z</time></trkpt>
<trkpt lat="46.49834" lon="6.71683"><ele>609.2</ele><time>2026-04-23T16:28:07Z</time></trkpt>
<trkpt lat="46.49843" lon="6.71668"><ele>609</ele><time>2026-04-23T16:28:09Z</time></trkpt>
<trkpt lat="46.49854" lon="6.71656"><ele>607.6</ele><time>2026-04-23T16:28:11Z</time></trkpt>
<trkpt lat="46.49867" lon="6.71645"><ele>606</ele><time>2026-04-23T16:28:13Z</time></trkpt>
<trkpt lat="46.49874" lon="6.71638"><ele>605.4</ele><time>2026-04-23T16:28:14Z</time></trkpt>
<trkpt lat="46.4988" lon="6.71632"><ele>604.6</ele><time>2026-04-23T16:28:15Z</time></trkpt>
<trkpt lat="46.49893" lon="6.71618"><ele>604</ele><time>2026-04-23T16:28:18Z</time></trkpt>
<trkpt lat="46.499" lon="6.71608"><ele>605.8</ele><time>2026-04-23T16:28:21Z</time></trkpt>
<trkpt lat="46.49905" lon="6.71604"><ele>606.8</ele><time>2026-04-23T16:28:23Z</time></trkpt>
<trkpt lat="46.49906" lon="6.71601"><ele>607</ele><time>2026-04-23T16:28:24Z</time></trkpt>
<trkpt lat="46.49913" lon="6.7159"><ele>608</ele><time>2026-04-23T16:28:29Z</time></trkpt>
<trkpt lat="46.49919" lon="6.71578"><ele>609.2</ele><time>2026-04-23T16:28:34Z</time></trkpt>
<trkpt lat="46.49922" lon="6.71574"><ele>609.4</ele><time>2026-04-23T16:28:36Z</time></trkpt>
<trkpt lat="46.49924" lon="6.71556"><ele>609.8</ele><time>2026-04-23T16:28:40Z</time></trkpt>
<trkpt lat="46.49924" lon="6.71551"><ele>610.2</ele><time>2026-04-23T16:28:41Z</time></trkpt>
<trkpt lat="46.49925" lon="6.71526"><ele>610.6</ele><time>2026-04-23T16:28:46Z</time></trkpt>
<trkpt lat="46.49931" lon="6.71515"><ele>610</ele><time>2026-04-23T16:28:49Z</time></trkpt>
<trkpt lat="46.49934" lon="6.71512"><ele>609.8</ele><time>2026-04-23T16:28:50Z</time></trkpt>
<trkpt lat="46.49948" lon="6.71495"><ele>609.2</ele><time>2026-04-23T16:28:55Z</time></trkpt>
<trkpt lat="46.49951" lon="6.71491"><ele>609</ele><time>2026-04-23T16:28:56Z</time></trkpt>
<trkpt lat="46.49954" lon="6.71488"><ele>609</ele><time>2026-04-23T16:28:57Z</time></trkpt>
<trkpt lat="46.49962" lon="6.71482"><ele>608.6</ele><time>2026-04-23T16:28:59Z</time></trkpt>
<trkpt lat="46.49972" lon="6.71475"><ele>607.8</ele><time>2026-04-23T16:29:01Z</time></trkpt>
<trkpt lat="46.49985" lon="6.71469"><ele>606.8</ele><time>2026-04-23T16:29:03Z</time></trkpt>
<trkpt lat="46.49998" lon="6.71463"><ele>605.6</ele><time>2026-04-23T16:29:05Z</time></trkpt>
<trkpt lat="46.5001" lon="6.71457"><ele>604.4</ele><time>2026-04-23T16:29:07Z</time></trkpt>
<trkpt lat="46.50022" lon="6.71448"><ele>603.8</ele><time>2026-04-23T16:29:09Z</time></trkpt>
<trkpt lat="46.50049" lon="6.7143"><ele>603.6</ele><time>2026-04-23T16:29:14Z</time></trkpt>
<trkpt lat="46.50054" lon="6.71427"><ele>603.4</ele><time>2026-04-23T16:29:15Z</time></trkpt>
<trkpt lat="46.5008" lon="6.71416"><ele>603.6</ele><time>2026-04-23T16:29:20Z</time></trkpt>
<trkpt lat="46.50093" lon="6.71408"><ele>604.6</ele><time>2026-04-23T16:29:24Z</time></trkpt>
<trkpt lat="46.50096" lon="6.71405"><ele>604.8</ele><time>2026-04-23T16:29:25Z</time></trkpt>
<trkpt lat="46.50113" lon="6.71394"><ele>605.6</ele><time>2026-04-23T16:29:30Z</time></trkpt>
<trkpt lat="46.50119" lon="6.71387"><ele>605.4</ele><time>2026-04-23T16:29:32Z</time></trkpt>
<trkpt lat="46.50118" lon="6.71379"><ele>605</ele><time>2026-04-23T16:29:34Z</time></trkpt>
<trkpt lat="46.5011" lon="6.71381"><ele>604.2</ele><time>2026-04-23T16:29:36Z</time></trkpt>
<trkpt lat="46.50106" lon="6.71381"><ele>603.8</ele><time>2026-04-23T16:29:37Z</time></trkpt>
<trkpt lat="46.501" lon="6.71382"><ele>603</ele><time>2026-04-23T16:29:38Z</time></trkpt>
<trkpt lat="46.50085" lon="6.71385"><ele>601.4</ele><time>2026-04-23T16:29:40Z</time></trkpt>
<trkpt lat="46.50075" lon="6.71385"><ele>600</ele><time>2026-04-23T16:29:41Z</time></trkpt>
<trkpt lat="46.50065" lon="6.71385"><ele>598.6</ele><time>2026-04-23T16:29:42Z</time></trkpt>
<trkpt lat="46.50054" lon="6.71384"><ele>596.2</ele><time>2026-04-23T16:29:43Z</time></trkpt>
<trkpt lat="46.50043" lon="6.71383"><ele>593.8</ele><time>2026-04-23T16:29:44Z</time></trkpt>
<trkpt lat="46.50033" lon="6.71382"><ele>591.4</ele><time>2026-04-23T16:29:45Z</time></trkpt>
<trkpt lat="46.50024" lon="6.71382"><ele>589.4</ele><time>2026-04-23T16:29:46Z</time></trkpt>
<trkpt lat="46.50016" lon="6.71382"><ele>588</ele><time>2026-04-23T16:29:47Z</time></trkpt>
<trkpt lat="46.50009" lon="6.71382"><ele>586.8</ele><time>2026-04-23T16:29:48Z</time></trkpt>
<trkpt lat="46.50003" lon="6.71381"><ele>585.6</ele><time>2026-04-23T16:29:49Z</time></trkpt>
<trkpt lat="46.49999" lon="6.71376"><ele>584.4</ele><time>2026-04-23T16:29:50Z</time></trkpt>
<trkpt lat="46.5" lon="6.71362"><ele>582.8</ele><time>2026-04-23T16:29:52Z</time></trkpt>
<trkpt lat="46.50006" lon="6.71356"><ele>582</ele><time>2026-04-23T16:29:53Z</time></trkpt>
<trkpt lat="46.50012" lon="6.71352"><ele>581.2</ele><time>2026-04-23T16:29:54Z</time></trkpt>
<trkpt lat="46.50026" lon="6.71343"><ele>579.2</ele><time>2026-04-23T16:29:56Z</time></trkpt>
<trkpt lat="46.50038" lon="6.7133"><ele>577.4</ele><time>2026-04-23T16:29:58Z</time></trkpt>
<trkpt lat="46.50057" lon="6.71309"><ele>576.6</ele><time>2026-04-23T16:30:01Z</time></trkpt>
<trkpt lat="46.50064" lon="6.71304"><ele>576.4</ele><time>2026-04-23T16:30:02Z</time></trkpt>
<trkpt lat="46.50072" lon="6.71299"><ele>576.4</ele><time>2026-04-23T16:30:03Z</time></trkpt>
<trkpt lat="46.5008" lon="6.71295"><ele>576.2</ele><time>2026-04-23T16:30:04Z</time></trkpt>
<trkpt lat="46.50088" lon="6.71291"><ele>575.8</ele><time>2026-04-23T16:30:05Z</time></trkpt>
<trkpt lat="46.50095" lon="6.71285"><ele>575.2</ele><time>2026-04-23T16:30:06Z</time></trkpt>
<trkpt lat="46.5011" lon="6.71271"><ele>573.8</ele><time>2026-04-23T16:30:08Z</time></trkpt>
<trkpt lat="46.50116" lon="6.71264"><ele>573.2</ele><time>2026-04-23T16:30:09Z</time></trkpt>
<trkpt lat="46.50122" lon="6.71256"><ele>573</ele><time>2026-04-23T16:30:10Z</time></trkpt>
<trkpt lat="46.50128" lon="6.71249"><ele>573.2</ele><time>2026-04-23T16:30:11Z</time></trkpt>
<trkpt lat="46.50142" lon="6.71224"><ele>573.6</ele><time>2026-04-23T16:30:14Z</time></trkpt>
<trkpt lat="46.50166" lon="6.71179"><ele>573.2</ele><time>2026-04-23T16:30:20Z</time></trkpt>
<trkpt lat="46.50171" lon="6.71167"><ele>573.2</ele><time>2026-04-23T16:30:22Z</time></trkpt>
<trkpt lat="46.50175" lon="6.71152"><ele>572.6</ele><time>2026-04-23T16:30:24Z</time></trkpt>
<trkpt lat="46.50181" lon="6.71124"><ele>571</ele><time>2026-04-23T16:30:27Z</time></trkpt>
<trkpt lat="46.50182" lon="6.71114"><ele>570.6</ele><time>2026-04-23T16:30:28Z</time></trkpt>
<trkpt lat="46.50181" lon="6.71103"><ele>570</ele><time>2026-04-23T16:30:29Z</time></trkpt>
<trkpt lat="46.50179" lon="6.71093"><ele>569.8</ele><time>2026-04-23T16:30:30Z</time></trkpt>
<trkpt lat="46.50177" lon="6.71085"><ele>569.8</ele><time>2026-04-23T16:30:31Z</time></trkpt>
<trkpt lat="46.50174" lon="6.71068"><ele>570.2</ele><time>2026-04-23T16:30:33Z</time></trkpt>
<trkpt lat="46.50178" lon="6.71053"><ele>571</ele><time>2026-04-23T16:30:35Z</time></trkpt>
<trkpt lat="46.50181" lon="6.71048"><ele>571.2</ele><time>2026-04-23T16:30:36Z</time></trkpt>
<trkpt lat="46.50184" lon="6.71044"><ele>571.4</ele><time>2026-04-23T16:30:37Z</time></trkpt>
<trkpt lat="46.50191" lon="6.71038"><ele>572</ele><time>2026-04-23T16:30:39Z</time></trkpt>
<trkpt lat="46.50194" lon="6.71035"><ele>572.4</ele><time>2026-04-23T16:30:40Z</time></trkpt>
<trkpt lat="46.50201" lon="6.71029"><ele>573</ele><time>2026-04-23T16:30:42Z</time></trkpt>
<trkpt lat="46.50208" lon="6.7102"><ele>573</ele><time>2026-04-23T16:30:44Z</time></trkpt>
<trkpt lat="46.50212" lon="6.71015"><ele>572.8</ele><time>2026-04-23T16:30:45Z</time></trkpt>
<trkpt lat="46.50217" lon="6.71009"><ele>572.2</ele><time>2026-04-23T16:30:46Z</time></trkpt>
<trkpt lat="46.50222" lon="6.71002"><ele>571.8</ele><time>2026-04-23T16:30:47Z</time></trkpt>
<trkpt lat="46.50228" lon="6.70994"><ele>571.2</ele><time>2026-04-23T16:30:48Z</time></trkpt>
<trkpt lat="46.50233" lon="6.70985"><ele>570.2</ele><time>2026-04-23T16:30:49Z</time></trkpt>
<trkpt lat="46.50237" lon="6.70975"><ele>569.8</ele><time>2026-04-23T16:30:50Z</time></trkpt>
<trkpt lat="46.5024" lon="6.70964"><ele>569.4</ele><time>2026-04-23T16:30:51Z</time></trkpt>
<trkpt lat="46.50241" lon="6.70953"><ele>569</ele><time>2026-04-23T16:30:52Z</time></trkpt>
<trkpt lat="46.50241" lon="6.70943"><ele>569</ele><time>2026-04-23T16:30:53Z</time></trkpt>
<trkpt lat="46.50238" lon="6.70914"><ele>569.2</ele><time>2026-04-23T16:30:56Z</time></trkpt>
<trkpt lat="46.50231" lon="6.70891"><ele>569.6</ele><time>2026-04-23T16:30:59Z</time></trkpt>
<trkpt lat="46.50224" lon="6.7088"><ele>569.6</ele><time>2026-04-23T16:31:01Z</time></trkpt>
<trkpt lat="46.50214" lon="6.70865"><ele>570.2</ele><time>2026-04-23T16:31:04Z</time></trkpt>
<trkpt lat="46.50211" lon="6.70853"><ele>570.8</ele><time>2026-04-23T16:31:06Z</time></trkpt>
<trkpt lat="46.50212" lon="6.70844"><ele>571.8</ele><time>2026-04-23T16:31:08Z</time></trkpt>
<trkpt lat="46.50212" lon="6.7084"><ele>572.2</ele><time>2026-04-23T16:31:09Z</time></trkpt>
<trkpt lat="46.50212" lon="6.70832"><ele>572.8</ele><time>2026-04-23T16:31:11Z</time></trkpt>
<trkpt lat="46.50213" lon="6.70821"><ele>572.6</ele><time>2026-04-23T16:31:13Z</time></trkpt>
<trkpt lat="46.50213" lon="6.70812"><ele>572.4</ele><time>2026-04-23T16:31:14Z</time></trkpt>
<trkpt lat="46.50214" lon="6.70803"><ele>571.6</ele><time>2026-04-23T16:31:15Z</time></trkpt>
<trkpt lat="46.50214" lon="6.70787"><ele>570</ele><time>2026-04-23T16:31:17Z</time></trkpt>
<trkpt lat="46.50213" lon="6.70778"><ele>568.8</ele><time>2026-04-23T16:31:18Z</time></trkpt>
<trkpt lat="46.50213" lon="6.70768"><ele>567.6</ele><time>2026-04-23T16:31:19Z</time></trkpt>
<trkpt lat="46.50214" lon="6.70758"><ele>566.2</ele><time>2026-04-23T16:31:20Z</time></trkpt>
<trkpt lat="46.50215" lon="6.70748"><ele>564.6</ele><time>2026-04-23T16:31:21Z</time></trkpt>
<trkpt lat="46.50216" lon="6.7074"><ele>563.2</ele><time>2026-04-23T16:31:22Z</time></trkpt>
<trkpt lat="46.50216" lon="6.70733"><ele>561.8</ele><time>2026-04-23T16:31:23Z</time></trkpt>
<trkpt lat="46.50214" lon="6.70727"><ele>560.4</ele><time>2026-04-23T16:31:24Z</time></trkpt>
<trkpt lat="46.50211" lon="6.70724"><ele>559.2</ele><time>2026-04-23T16:31:25Z</time></trkpt>
<trkpt lat="46.50204" lon="6.7072"><ele>557.6</ele><time>2026-04-23T16:31:27Z</time></trkpt>
<trkpt lat="46.50192" lon="6.70711"><ele>555.8</ele><time>2026-04-23T16:31:29Z</time></trkpt>
<trkpt lat="46.50185" lon="6.70705"><ele>554.6</ele><time>2026-04-23T16:31:30Z</time></trkpt>
<trkpt lat="46.50178" lon="6.707"><ele>553</ele><time>2026-04-23T16:31:31Z</time></trkpt>
<trkpt lat="46.50172" lon="6.70695"><ele>551.4</ele><time>2026-04-23T16:31:32Z</time></trkpt>
<trkpt lat="46.50167" lon="6.70692"><ele>549.8</ele><time>2026-04-23T16:31:33Z</time></trkpt>
<trkpt lat="46.50164" lon="6.70687"><ele>548.4</ele><time>2026-04-23T16:31:34Z</time></trkpt>
<trkpt lat="46.50162" lon="6.7068"><ele>547.2</ele><time>2026-04-23T16:31:35Z</time></trkpt>
<trkpt lat="46.50162" lon="6.70673"><ele>546.4</ele><time>2026-04-23T16:31:36Z</time></trkpt>
<trkpt lat="46.50163" lon="6.70665"><ele>545.4</ele><time>2026-04-23T16:31:37Z</time></trkpt>
<trkpt lat="46.50165" lon="6.70658"><ele>544.6</ele><time>2026-04-23T16:31:38Z</time></trkpt>
<trkpt lat="46.50168" lon="6.70651"><ele>543.8</ele><time>2026-04-23T16:31:39Z</time></trkpt>
<trkpt lat="46.50172" lon="6.70644"><ele>542.8</ele><time>2026-04-23T16:31:40Z</time></trkpt>
<trkpt lat="46.50177" lon="6.70637"><ele>541.8</ele><time>2026-04-23T16:31:41Z</time></trkpt>
<trkpt lat="46.50187" lon="6.70623"><ele>539.8</ele><time>2026-04-23T16:31:43Z</time></trkpt>
<trkpt lat="46.50191" lon="6.70615"><ele>538.6</ele><time>2026-04-23T16:31:44Z</time></trkpt>
<trkpt lat="46.50195" lon="6.70606"><ele>537.6</ele><time>2026-04-23T16:31:45Z</time></trkpt>
<trkpt lat="46.50198" lon="6.70597"><ele>536.2</ele><time>2026-04-23T16:31:46Z</time></trkpt>
<trkpt lat="46.50202" lon="6.70589"><ele>534.8</ele><time>2026-04-23T16:31:47Z</time></trkpt>
<trkpt lat="46.50205" lon="6.7058"><ele>533.6</ele><time>2026-04-23T16:31:48Z</time></trkpt>
<trkpt lat="46.50208" lon="6.7057"><ele>532</ele><time>2026-04-23T16:31:49Z</time></trkpt>
<trkpt lat="46.50208" lon="6.70561"><ele>530.4</ele><time>2026-04-23T16:31:50Z</time></trkpt>
<trkpt lat="46.50208" lon="6.70551"><ele>528.8</ele><time>2026-04-23T16:31:51Z</time></trkpt>
<trkpt lat="46.50207" lon="6.70541"><ele>527.4</ele><time>2026-04-23T16:31:52Z</time></trkpt>
<trkpt lat="46.50205" lon="6.70532"><ele>525.8</ele><time>2026-04-23T16:31:53Z</time></trkpt>
<trkpt lat="46.50203" lon="6.70522"><ele>524.2</ele><time>2026-04-23T16:31:54Z</time></trkpt>
<trkpt lat="46.50201" lon="6.70513"><ele>522.8</ele><time>2026-04-23T16:31:55Z</time></trkpt>
<trkpt lat="46.50198" lon="6.70505"><ele>521.6</ele><time>2026-04-23T16:31:56Z</time></trkpt>
<trkpt lat="46.50195" lon="6.70496"><ele>520.6</ele><time>2026-04-23T16:31:57Z</time></trkpt>
<trkpt lat="46.50192" lon="6.70488"><ele>519.6</ele><time>2026-04-23T16:31:58Z</time></trkpt>
<trkpt lat="46.50189" lon="6.7048"><ele>518.6</ele><time>2026-04-23T16:31:59Z</time></trkpt>
<trkpt lat="46.50182" lon="6.70461"><ele>516.6</ele><time>2026-04-23T16:32:01Z</time></trkpt>
<trkpt lat="46.50175" lon="6.70442"><ele>514.6</ele><time>2026-04-23T16:32:03Z</time></trkpt>
<trkpt lat="46.50165" lon="6.70425"><ele>512.8</ele><time>2026-04-23T16:32:05Z</time></trkpt>
<trkpt lat="46.50155" lon="6.7041"><ele>510.6</ele><time>2026-04-23T16:32:07Z</time></trkpt>
<trkpt lat="46.5015" lon="6.70403"><ele>509.4</ele><time>2026-04-23T16:32:08Z</time></trkpt>
<trkpt lat="46.50146" lon="6.70397"><ele>508.2</ele><time>2026-04-23T16:32:09Z</time></trkpt>
<trkpt lat="46.50142" lon="6.7039"><ele>506.8</ele><time>2026-04-23T16:32:10Z</time></trkpt>
<trkpt lat="46.5014" lon="6.70383"><ele>505.8</ele><time>2026-04-23T16:32:11Z</time></trkpt>
<trkpt lat="46.5014" lon="6.70377"><ele>504.8</ele><time>2026-04-23T16:32:12Z</time></trkpt>
<trkpt lat="46.50139" lon="6.70369"><ele>503.2</ele><time>2026-04-23T16:32:14Z</time></trkpt>
<trkpt lat="46.5014" lon="6.70362"><ele>501.8</ele><time>2026-04-23T16:32:17Z</time></trkpt>
<trkpt lat="46.50137" lon="6.70356"><ele>501.2</ele><time>2026-04-23T16:32:19Z</time></trkpt>
<trkpt lat="46.50131" lon="6.70354"><ele>500.4</ele><time>2026-04-23T16:32:21Z</time></trkpt>
<trkpt lat="46.50127" lon="6.70353"><ele>499.8</ele><time>2026-04-23T16:32:22Z</time></trkpt>
<trkpt lat="46.50122" lon="6.70352"><ele>499.2</ele><time>2026-04-23T16:32:23Z</time></trkpt>
<trkpt lat="46.50114" lon="6.7035"><ele>497.8</ele><time>2026-04-23T16:32:25Z</time></trkpt>
<trkpt lat="46.50108" lon="6.70353"><ele>496.6</ele><time>2026-04-23T16:32:27Z</time></trkpt>
<trkpt lat="46.50101" lon="6.70356"><ele>495.6</ele><time>2026-04-23T16:32:29Z</time></trkpt>
<trkpt lat="46.50098" lon="6.70358"><ele>495</ele><time>2026-04-23T16:32:30Z</time></trkpt>
<trkpt lat="46.50096" lon="6.70359"><ele>494.4</ele><time>2026-04-23T16:32:31Z</time></trkpt>
<trkpt lat="46.50094" lon="6.70361"><ele>493.2</ele><time>2026-04-23T16:32:33Z</time></trkpt>
<trkpt lat="46.50094" lon="6.70361"><ele>492.8</ele><time>2026-04-23T16:32:41Z</time></trkpt>
<trkpt lat="46.50094" lon="6.70361"><ele>492.6</ele><time>2026-04-23T16:32:50Z</time></trkpt>
<trkpt lat="46.50095" lon="6.70363"><ele>492.8</ele><time>2026-04-23T16:32:58Z</time></trkpt>
<trkpt lat="46.50095" lon="6.70363"><ele>492.8</ele><time>2026-04-23T16:33:06Z</time></trkpt>
<trkpt lat="46.50095" lon="6.70363"><ele>492.8</ele><time>2026-04-23T16:33:08Z</time></trkpt>
<trkpt lat="46.50095" lon="6.70363"><ele>492.8</ele><time>2026-04-23T16:33:16Z</time></trkpt>
<trkpt lat="46.50095" lon="6.70363"><ele>492.6</ele><time>2026-04-23T16:33:20Z</time></trkpt>
<trkpt lat="46.50095" lon="6.70363"><ele>492.6</ele><time>2026-04-23T16:33:26Z</time></trkpt>
<trkpt lat="46.50095" lon="6.70363"><ele>492.6</ele><time>2026-04-23T16:33:35Z</time></trkpt>
<trkpt lat="46.50095" lon="6.70363"><ele>492.6</ele><time>2026-04-23T16:33:41Z</time></trkpt>
<trkpt lat="46.50095" lon="6.70363"><ele>492.6</ele><time>2026-04-23T16:33:42Z</time></trkpt>
<trkpt lat="46.50094" lon="6.70363"><ele>492.6</ele><time>2026-04-23T16:33:50Z</time></trkpt>
<trkpt lat="46.50083" lon="6.70377"><ele>491.8</ele><time>2026-04-23T16:33:54Z</time></trkpt>
<trkpt lat="46.50077" lon="6.70383"><ele>490.6</ele><time>2026-04-23T16:33:55Z</time></trkpt>
<trkpt lat="46.50069" lon="6.7039"><ele>489.2</ele><time>2026-04-23T16:33:56Z</time></trkpt>
<trkpt lat="46.50061" lon="6.70396"><ele>487.4</ele><time>2026-04-23T16:33:57Z</time></trkpt>
<trkpt lat="46.50052" lon="6.70401"><ele>485.6</ele><time>2026-04-23T16:33:58Z</time></trkpt>
<trkpt lat="46.50043" lon="6.70405"><ele>483.6</ele><time>2026-04-23T16:33:59Z</time></trkpt>
<trkpt lat="46.50034" lon="6.70408"><ele>482.2</ele><time>2026-04-23T16:34:00Z</time></trkpt>
<trkpt lat="46.50026" lon="6.70411"><ele>480.8</ele><time>2026-04-23T16:34:01Z</time></trkpt>
<trkpt lat="46.50019" lon="6.70413"><ele>479.4</ele><time>2026-04-23T16:34:02Z</time></trkpt>
<trkpt lat="46.50012" lon="6.70414"><ele>478.2</ele><time>2026-04-23T16:34:03Z</time></trkpt>
<trkpt lat="46.50007" lon="6.70415"><ele>477</ele><time>2026-04-23T16:34:04Z</time></trkpt>
<trkpt lat="46.50002" lon="6.70418"><ele>475.8</ele><time>2026-04-23T16:34:05Z</time></trkpt>
<trkpt lat="46.49998" lon="6.70422"><ele>474.6</ele><time>2026-04-23T16:34:06Z</time></trkpt>
<trkpt lat="46.49989" lon="6.70433"><ele>473</ele><time>2026-04-23T16:34:08Z</time></trkpt>
<trkpt lat="46.49968" lon="6.70461"><ele>472.8</ele><time>2026-04-23T16:34:13Z</time></trkpt>
<trkpt lat="46.49949" lon="6.7048"><ele>473.4</ele><time>2026-04-23T16:34:17Z</time></trkpt>
<trkpt lat="46.49946" lon="6.70487"><ele>473.2</ele><time>2026-04-23T16:34:18Z</time></trkpt>
<trkpt lat="46.49943" lon="6.70495"><ele>473</ele><time>2026-04-23T16:34:19Z</time></trkpt>
<trkpt lat="46.49935" lon="6.70518"><ele>473.2</ele><time>2026-04-23T16:34:22Z</time></trkpt>
<trkpt lat="46.49931" lon="6.70525"><ele>473.4</ele><time>2026-04-23T16:34:23Z</time></trkpt>
<trkpt lat="46.49922" lon="6.70542"><ele>474.4</ele><time>2026-04-23T16:34:26Z</time></trkpt>
<trkpt lat="46.49912" lon="6.70558"><ele>475.2</ele><time>2026-04-23T16:34:29Z</time></trkpt>
<trkpt lat="46.49905" lon="6.70571"><ele>475.4</ele><time>2026-04-23T16:34:31Z</time></trkpt>
<trkpt lat="46.49896" lon="6.70589"><ele>476.2</ele><time>2026-04-23T16:34:34Z</time></trkpt>
<trkpt lat="46.49893" lon="6.70595"><ele>476.6</ele><time>2026-04-23T16:34:35Z</time></trkpt>
<trkpt lat="46.49874" lon="6.70635"><ele>477</ele><time>2026-04-23T16:34:41Z</time></trkpt>
<trkpt lat="46.4987" lon="6.70643"><ele>476.6</ele><time>2026-04-23T16:34:42Z</time></trkpt>
<trkpt lat="46.49859" lon="6.70658"><ele>474.8</ele><time>2026-04-23T16:34:44Z</time></trkpt>
<trkpt lat="46.49854" lon="6.70667"><ele>473.8</ele><time>2026-04-23T16:34:45Z</time></trkpt>
<trkpt lat="46.49851" lon="6.70677"><ele>472.8</ele><time>2026-04-23T16:34:46Z</time></trkpt>
<trkpt lat="46.49851" lon="6.70688"><ele>471.8</ele><time>2026-04-23T16:34:47Z</time></trkpt>
<trkpt lat="46.49854" lon="6.70698"><ele>471</ele><time>2026-04-23T16:34:48Z</time></trkpt>
<trkpt lat="46.49857" lon="6.70708"><ele>470.2</ele><time>2026-04-23T16:34:49Z</time></trkpt>
<trkpt lat="46.4986" lon="6.70717"><ele>469.6</ele><time>2026-04-23T16:34:50Z</time></trkpt>
<trkpt lat="46.49864" lon="6.70735"><ele>468.2</ele><time>2026-04-23T16:34:52Z</time></trkpt>
<trkpt lat="46.49867" lon="6.70742"><ele>467.8</ele><time>2026-04-23T16:34:53Z</time></trkpt>
<trkpt lat="46.49872" lon="6.70754"><ele>467.6</ele><time>2026-04-23T16:34:55Z</time></trkpt>
<trkpt lat="46.49873" lon="6.70759"><ele>467.8</ele><time>2026-04-23T16:34:56Z</time></trkpt>
<trkpt lat="46.49875" lon="6.70775"><ele>469.2</ele><time>2026-04-23T16:35:01Z</time></trkpt>
<trkpt lat="46.49876" lon="6.7078"><ele>469.2</ele><time>2026-04-23T16:35:04Z</time></trkpt>
<trkpt lat="46.49877" lon="6.70787"><ele>469.4</ele><time>2026-04-23T16:35:08Z</time></trkpt>
<trkpt lat="46.49878" lon="6.7079"><ele>469.4</ele><time>2026-04-23T16:35:10Z</time></trkpt>
<trkpt lat="46.49879" lon="6.70795"><ele>469.6</ele><time>2026-04-23T16:35:12Z</time></trkpt>
<trkpt lat="46.4988" lon="6.70801"><ele>469.6</ele><time>2026-04-23T16:35:14Z</time></trkpt>
<trkpt lat="46.49883" lon="6.70814"><ele>470.2</ele><time>2026-04-23T16:35:20Z</time></trkpt>
<trkpt lat="46.49885" lon="6.70829"><ele>470.6</ele><time>2026-04-23T16:35:26Z</time></trkpt>
<trkpt lat="46.49885" lon="6.70838"><ele>470.6</ele><time>2026-04-23T16:35:29Z</time></trkpt>
<trkpt lat="46.49881" lon="6.70837"><ele>470.4</ele><time>2026-04-23T16:35:31Z</time></trkpt>
<trkpt lat="46.49875" lon="6.70823"><ele>469.8</ele><time>2026-04-23T16:35:35Z</time></trkpt>
<trkpt lat="46.49871" lon="6.70815"><ele>469</ele><time>2026-04-23T16:35:37Z</time></trkpt>
<trkpt lat="46.49868" lon="6.70807"><ele>467.8</ele><time>2026-04-23T16:35:39Z</time></trkpt>
<trkpt lat="46.49865" lon="6.70801"><ele>466.2</ele><time>2026-04-23T16:35:41Z</time></trkpt>
<trkpt lat="46.49864" lon="6.708"><ele>465.6</ele><time>2026-04-23T16:35:42Z</time></trkpt>
<trkpt lat="46.49862" lon="6.70796"><ele>464.8</ele><time>2026-04-23T16:35:44Z</time></trkpt>
<trkpt lat="46.49859" lon="6.70792"><ele>463.8</ele><time>2026-04-23T16:35:48Z</time></trkpt>
<trkpt lat="46.49859" lon="6.70792"><ele>463.6</ele><time>2026-04-23T16:35:55Z</time></trkpt>
<trkpt lat="46.49859" lon="6.70792"><ele>463.6</ele><time>2026-04-23T16:36:02Z</time></trkpt>
<trkpt lat="46.49859" lon="6.70792"><ele>463.6</ele><time>2026-04-23T16:36:06Z</time></trkpt>
<trkpt lat="46.49859" lon="6.70792"><ele>463.4</ele><time>2026-04-23T16:36:08Z</time></trkpt>
<trkpt lat="46.49859" lon="6.70792"><ele>463.4</ele><time>2026-04-23T16:36:12Z</time></trkpt>
<trkpt lat="46.49859" lon="6.70792"><ele>463.4</ele><time>2026-04-23T16:36:17Z</time></trkpt>
<trkpt lat="46.49859" lon="6.70792"><ele>463.4</ele><time>2026-04-23T16:36:18Z</time></trkpt>
<trkpt lat="46.49859" lon="6.70792"><ele>463.2</ele><time>2026-04-23T16:36:29Z</time></trkpt>
<trkpt lat="46.49859" lon="6.70792"><ele>463.2</ele><time>2026-04-23T16:36:33Z</time></trkpt>
<trkpt lat="46.49859" lon="6.70792"><ele>463.2</ele><time>2026-04-23T16:36:34Z</time></trkpt>
<trkpt lat="46.49859" lon="6.70792"><ele>463.2</ele><time>2026-04-23T16:36:38Z</time></trkpt>
<trkpt lat="46.49859" lon="6.70792"><ele>463.2</ele><time>2026-04-23T16:36:52Z</time></trkpt>
<trkpt lat="46.49859" lon="6.70796"><ele>463.6</ele><time>2026-04-23T16:37:06Z</time></trkpt>
<trkpt lat="46.4985" lon="6.70796"><ele>462.6</ele><time>2026-04-23T16:37:09Z</time></trkpt>
<trkpt lat="46.49842" lon="6.70794"><ele>460.8</ele><time>2026-04-23T16:37:11Z</time></trkpt>
<trkpt lat="46.49837" lon="6.70794"><ele>459.8</ele><time>2026-04-23T16:37:12Z</time></trkpt>
<trkpt lat="46.49832" lon="6.70793"><ele>458.6</ele><time>2026-04-23T16:37:13Z</time></trkpt>
<trkpt lat="46.49828" lon="6.70792"><ele>457.4</ele><time>2026-04-23T16:37:14Z</time></trkpt>
<trkpt lat="46.49823" lon="6.70791"><ele>456.2</ele><time>2026-04-23T16:37:15Z</time></trkpt>
<trkpt lat="46.49819" lon="6.7079"><ele>455</ele><time>2026-04-23T16:37:16Z</time></trkpt>
<trkpt lat="46.49815" lon="6.7079"><ele>453.8</ele><time>2026-04-23T16:37:17Z</time></trkpt>
<trkpt lat="46.49811" lon="6.70789"><ele>452.6</ele><time>2026-04-23T16:37:18Z</time></trkpt>
<trkpt lat="46.49807" lon="6.70789"><ele>451.6</ele><time>2026-04-23T16:37:19Z</time></trkpt>
<trkpt lat="46.49804" lon="6.70788"><ele>450.6</ele><time>2026-04-23T16:37:20Z</time></trkpt>
<trkpt lat="46.49802" lon="6.70788"><ele>449.8</ele><time>2026-04-23T16:37:21Z</time></trkpt>
<trkpt lat="46.49798" lon="6.70787"><ele>448.2</ele><time>2026-04-23T16:37:23Z</time></trkpt>
<trkpt lat="46.49794" lon="6.70785"><ele>447</ele><time>2026-04-23T16:37:25Z</time></trkpt>
<trkpt lat="46.49794" lon="6.70784"><ele>446.2</ele><time>2026-04-23T16:37:29Z</time></trkpt>
<trkpt lat="46.49794" lon="6.70784"><ele>446.2</ele><time>2026-04-23T16:37:33Z</time></trkpt>
<trkpt lat="46.49794" lon="6.70784"><ele>446.2</ele><time>2026-04-23T16:37:38Z</time></trkpt>
<trkpt lat="46.49794" lon="6.70784"><ele>446</ele><time>2026-04-23T16:37:42Z</time></trkpt>
<trkpt lat="46.49794" lon="6.70784"><ele>445.8</ele><time>2026-04-23T16:37:50Z</time></trkpt>
<trkpt lat="46.49794" lon="6.70784"><ele>445.8</ele><time>2026-04-23T16:38:01Z</time></trkpt>
<trkpt lat="46.49794" lon="6.70784"><ele>446</ele><time>2026-04-23T16:38:09Z</time></trkpt>
<trkpt lat="46.49794" lon="6.70784"><ele>446</ele><time>2026-04-23T16:38:18Z</time></trkpt>
<trkpt lat="46.49794" lon="6.70785"><ele>446</ele><time>2026-04-23T16:38:31Z</time></trkpt>
<trkpt lat="46.49793" lon="6.70785"><ele>446</ele><time>2026-04-23T16:38:36Z</time></trkpt>
<trkpt lat="46.49791" lon="6.70785"><ele>447.2</ele><time>2026-04-23T16:38:37Z</time></trkpt>
<trkpt lat="46.49783" lon="6.70784"><ele>446</ele><time>2026-04-23T16:38:39Z</time></trkpt>
<trkpt lat="46.49779" lon="6.70783"><ele>445</ele><time>2026-04-23T16:38:40Z</time></trkpt>
<trkpt lat="46.49774" lon="6.70781"><ele>444</ele><time>2026-04-23T16:38:41Z</time></trkpt>
<trkpt lat="46.49769" lon="6.70778"><ele>442.8</ele><time>2026-04-23T16:38:42Z</time></trkpt>
<trkpt lat="46.49764" lon="6.70775"><ele>441.8</ele><time>2026-04-23T16:38:43Z</time></trkpt>
<trkpt lat="46.49759" lon="6.70773"><ele>440.6</ele><time>2026-04-23T16:38:44Z</time></trkpt>
<trkpt lat="46.49754" lon="6.70771"><ele>439.4</ele><time>2026-04-23T16:38:45Z</time></trkpt>
<trkpt lat="46.49748" lon="6.70768"><ele>438</ele><time>2026-04-23T16:38:46Z</time></trkpt>
<trkpt lat="46.49742" lon="6.70765"><ele>436.6</ele><time>2026-04-23T16:38:47Z</time></trkpt>
<trkpt lat="46.49736" lon="6.70762"><ele>434.8</ele><time>2026-04-23T16:38:48Z</time></trkpt>
<trkpt lat="46.49731" lon="6.70758"><ele>433.2</ele><time>2026-04-23T16:38:49Z</time></trkpt>
<trkpt lat="46.49725" lon="6.70754"><ele>431.6</ele><time>2026-04-23T16:38:50Z</time></trkpt>
<trkpt lat="46.4972" lon="6.70752"><ele>430.2</ele><time>2026-04-23T16:38:51Z</time></trkpt>
<trkpt lat="46.49715" lon="6.70752"><ele>429</ele><time>2026-04-23T16:38:52Z</time></trkpt>
<trkpt lat="46.4971" lon="6.70754"><ele>428</ele><time>2026-04-23T16:38:53Z</time></trkpt>
<trkpt lat="46.49707" lon="6.70759"><ele>427.4</ele><time>2026-04-23T16:38:54Z</time></trkpt>
<trkpt lat="46.49696" lon="6.70773"><ele>426.2</ele><time>2026-04-23T16:38:57Z</time></trkpt>
<trkpt lat="46.49692" lon="6.70776"><ele>425.8</ele><time>2026-04-23T16:38:58Z</time></trkpt>
<trkpt lat="46.49683" lon="6.70782"><ele>424.6</ele><time>2026-04-23T16:39:00Z</time></trkpt>
<trkpt lat="46.49674" lon="6.70784"><ele>423.2</ele><time>2026-04-23T16:39:02Z</time></trkpt>
<trkpt lat="46.49664" lon="6.70785"><ele>421.6</ele><time>2026-04-23T16:39:04Z</time></trkpt>
<trkpt lat="46.49657" lon="6.70785"><ele>419.8</ele><time>2026-04-23T16:39:06Z</time></trkpt>
<trkpt lat="46.49655" lon="6.70786"><ele>419</ele><time>2026-04-23T16:39:07Z</time></trkpt>
<trkpt lat="46.49652" lon="6.70787"><ele>418.4</ele><time>2026-04-23T16:39:08Z</time></trkpt>
<trkpt lat="46.49651" lon="6.70788"><ele>417.4</ele><time>2026-04-23T16:39:11Z</time></trkpt>
<trkpt lat="46.49651" lon="6.70788"><ele>417.2</ele><time>2026-04-23T16:39:20Z</time></trkpt>
<trkpt lat="46.49651" lon="6.70788"><ele>417.2</ele><time>2026-04-23T16:39:28Z</time></trkpt>
<trkpt lat="46.49651" lon="6.70788"><ele>417</ele><time>2026-04-23T16:39:30Z</time></trkpt>
<trkpt lat="46.49651" lon="6.70788"><ele>417.2</ele><time>2026-04-23T16:39:39Z</time></trkpt>
<trkpt lat="46.49651" lon="6.70788"><ele>416.8</ele><time>2026-04-23T16:39:48Z</time></trkpt>
<trkpt lat="46.49651" lon="6.70788"><ele>417.2</ele><time>2026-04-23T16:39:52Z</time></trkpt>
<trkpt lat="46.49651" lon="6.70788"><ele>417.2</ele><time>2026-04-23T16:39:53Z</time></trkpt>
<trkpt lat="46.49655" lon="6.70786"><ele>417</ele><time>2026-04-23T16:39:59Z</time></trkpt>
<trkpt lat="46.49655" lon="6.70785"><ele>417.2</ele><time>2026-04-23T16:40:01Z</time></trkpt>
<trkpt lat="46.49656" lon="6.70784"><ele>417.8</ele><time>2026-04-23T16:40:04Z</time></trkpt>
<trkpt lat="46.49655" lon="6.70784"><ele>418</ele><time>2026-04-23T16:40:05Z</time></trkpt>
<trkpt lat="46.49655" lon="6.70783"><ele>417.8</ele><time>2026-04-23T16:40:06Z</time></trkpt>
<trkpt lat="46.49655" lon="6.70782"><ele>417.8</ele><time>2026-04-23T16:40:07Z</time></trkpt>
<trkpt lat="46.49655" lon="6.70782"><ele>417</ele><time>2026-04-23T16:40:13Z</time></trkpt>
<trkpt lat="46.49655" lon="6.70782"><ele>416.8</ele><time>2026-04-23T16:40:18Z</time></trkpt>
<trkpt lat="46.49655" lon="6.70782"><ele>416.8</ele><time>2026-04-23T16:40:22Z</time></trkpt>
<trkpt lat="46.49655" lon="6.70782"><ele>416.8</ele><time>2026-04-23T16:40:27Z</time></trkpt>
<trkpt lat="46.49655" lon="6.70782"><ele>416.6</ele><time>2026-04-23T16:40:29Z</time></trkpt>
<trkpt lat="46.49655" lon="6.70782"><ele>416.8</ele><time>2026-04-23T16:40:38Z</time></trkpt>
<trkpt lat="46.49655" lon="6.70782"><ele>416.8</ele><time>2026-04-23T16:40:48Z</time></trkpt>
<trkpt lat="46.49655" lon="6.70782"><ele>416.4</ele><time>2026-04-23T16:40:59Z</time></trkpt>
<trkpt lat="46.49655" lon="6.70782"><ele>416.2</ele><time>2026-04-23T16:41:04Z</time></trkpt>
<trkpt lat="46.49655" lon="6.70782"><ele>416.2</ele><time>2026-04-23T16:41:09Z</time></trkpt>
<trkpt lat="46.49655" lon="6.70782"><ele>416.4</ele><time>2026-04-23T16:41:16Z</time></trkpt>
<trkpt lat="46.49655" lon="6.70782"><ele>416.4</ele><time>2026-04-23T16:41:27Z</time></trkpt>
<trkpt lat="46.49655" lon="6.70782"><ele>416.4</ele><time>2026-04-23T16:41:28Z</time></trkpt>
<trkpt lat="46.49655" lon="6.70782"><ele>416.4</ele><time>2026-04-23T16:41:31Z</time></trkpt>
<trkpt lat="46.49655" lon="6.70782"><ele>416.4</ele><time>2026-04-23T16:41:33Z</time></trkpt>
<trkpt lat="46.49655" lon="6.70782"><ele>416.4</ele><time>2026-04-23T16:41:43Z</time></trkpt>
<trkpt lat="46.49655" lon="6.70782"><ele>416.4</ele><time>2026-04-23T16:41:50Z</time></trkpt>
<trkpt lat="46.49655" lon="6.70782"><ele>416.4</ele><time>2026-04-23T16:41:57Z</time></trkpt>
<trkpt lat="46.49655" lon="6.70782"><ele>416.4</ele><time>2026-04-23T16:42:04Z</time></trkpt>
<trkpt lat="46.49655" lon="6.70782"><ele>416.4</ele><time>2026-04-23T16:42:09Z</time></trkpt>
<trkpt lat="46.49655" lon="6.70782"><ele>416.4</ele><time>2026-04-23T16:42:14Z</time></trkpt>
<trkpt lat="46.49655" lon="6.70782"><ele>416.4</ele><time>2026-04-23T16:42:21Z</time></trkpt>
<trkpt lat="46.49655" lon="6.70783"><ele>416.4</ele><time>2026-04-23T16:42:29Z</time></trkpt>
<trkpt lat="46.49654" lon="6.70784"><ele>416.4</ele><time>2026-04-23T16:42:35Z</time></trkpt>
<trkpt lat="46.49654" lon="6.70783"><ele>416.4</ele><time>2026-04-23T16:42:41Z</time></trkpt>
<trkpt lat="46.49654" lon="6.70783"><ele>416.4</ele><time>2026-04-23T16:42:50Z</time></trkpt>
<trkpt lat="46.49654" lon="6.70783"><ele>416.4</ele><time>2026-04-23T16:42:58Z</time></trkpt>
<trkpt lat="46.49654" lon="6.70783"><ele>416.4</ele><time>2026-04-23T16:43:04Z</time></trkpt>
<trkpt lat="46.49654" lon="6.70783"><ele>416.4</ele><time>2026-04-23T16:43:05Z</time></trkpt>
<trkpt lat="46.49654" lon="6.70781"><ele>416.4</ele><time>2026-04-23T16:43:09Z</time></trkpt>
<trkpt lat="46.49654" lon="6.70783"><ele>416.4</ele><time>2026-04-23T16:43:12Z</time></trkpt>
<trkpt lat="46.49654" lon="6.70782"><ele>416.4</ele><time>2026-04-23T16:43:18Z</time></trkpt>
<trkpt lat="46.49654" lon="6.70782"><ele>416.4</ele><time>2026-04-23T16:43:20Z</time></trkpt>
<trkpt lat="46.49654" lon="6.70784"><ele>416.4</ele><time>2026-04-23T16:43:25Z</time></trkpt>
<trkpt lat="46.49655" lon="6.70785"><ele>416.4</ele><time>2026-04-23T16:43:28Z</time></trkpt>
<trkpt lat="46.49655" lon="6.70784"><ele>416.4</ele><time>2026-04-23T16:43:35Z</time></trkpt>
<trkpt lat="46.49653" lon="6.70785"><ele>416.4</ele><time>2026-04-23T16:43:44Z</time></trkpt>
<trkpt lat="46.49654" lon="6.70785"><ele>416.4</ele><time>2026-04-23T16:43:52Z</time></trkpt>
<trkpt lat="46.49654" lon="6.70784"><ele>416.4</ele><time>2026-04-23T16:43:59Z</time></trkpt>
<trkpt lat="46.49654" lon="6.70785"><ele>416.4</ele><time>2026-04-23T16:44:06Z</time></trkpt>
<trkpt lat="46.49654" lon="6.70784"><ele>416.4</ele><time>2026-04-23T16:44:12Z</time></trkpt>
<trkpt lat="46.49655" lon="6.70783"><ele>416.4</ele><time>2026-04-23T16:44:20Z</time></trkpt>
<trkpt lat="46.49655" lon="6.70783"><ele>416.4</ele><time>2026-04-23T16:44:28Z</time></trkpt>
<trkpt lat="46.49655" lon="6.70783"><ele>416.4</ele><time>2026-04-23T16:44:35Z</time></trkpt>
<trkpt lat="46.49656" lon="6.70784"><ele>416.4</ele><time>2026-04-23T16:44:43Z</time></trkpt>
<trkpt lat="46.49654" lon="6.70785"><ele>416.4</ele><time>2026-04-23T16:44:52Z</time></trkpt>
<trkpt lat="46.49653" lon="6.70784"><ele>416.4</ele><time>2026-04-23T16:45:00Z</time></trkpt>
<trkpt lat="46.49654" lon="6.70783"><ele>416.4</ele><time>2026-04-23T16:45:04Z</time></trkpt>
<trkpt lat="46.49654" lon="6.70783"><ele>416.4</ele><time>2026-04-23T16:45:07Z</time></trkpt>
<trkpt lat="46.49654" lon="6.70783"><ele>416.4</ele><time>2026-04-23T16:45:15Z</time></trkpt>
<trkpt lat="46.49654" lon="6.70782"><ele>416.4</ele><time>2026-04-23T16:45:21Z</time></trkpt>
<trkpt lat="46.49654" lon="6.70782"><ele>416.4</ele><time>2026-04-23T16:45:22Z</time></trkpt>
<trkpt lat="46.49654" lon="6.70783"><ele>416.4</ele><time>2026-04-23T16:45:30Z</time></trkpt>
<trkpt lat="46.49655" lon="6.70783"><ele>416.4</ele><time>2026-04-23T16:45:37Z</time></trkpt>
<trkpt lat="46.49655" lon="6.70783"><ele>416.4</ele><time>2026-04-23T16:45:46Z</time></trkpt>
<trkpt lat="46.49656" lon="6.70783"><ele>416.4</ele><time>2026-04-23T16:45:52Z</time></trkpt>
<trkpt lat="46.49655" lon="6.70784"><ele>416.4</ele><time>2026-04-23T16:45:56Z</time></trkpt>
<trkpt lat="46.49655" lon="6.70784"><ele>416.4</ele><time>2026-04-23T16:46:09Z</time></trkpt>
<trkpt lat="46.49655" lon="6.70784"><ele>416.4</ele><time>2026-04-23T16:46:12Z</time></trkpt>
<trkpt lat="46.49655" lon="6.70784"><ele>416.4</ele><time>2026-04-23T16:46:15Z</time></trkpt>
<trkpt lat="46.49655" lon="6.70784"><ele>416.4</ele><time>2026-04-23T16:46:20Z</time></trkpt>
<trkpt lat="46.49655" lon="6.70784"><ele>416.4</ele><time>2026-04-23T16:46:30Z</time></trkpt>
<trkpt lat="46.49655" lon="6.70784"><ele>416.4</ele><time>2026-04-23T16:46:36Z</time></trkpt>
<trkpt lat="46.49655" lon="6.70784"><ele>416.4</ele><time>2026-04-23T16:46:41Z</time></trkpt>
<trkpt lat="46.49655" lon="6.70784"><ele>416.4</ele><time>2026-04-23T16:46:43Z</time></trkpt>
<trkpt lat="46.49655" lon="6.70784"><ele>416.4</ele><time>2026-04-23T16:46:51Z</time></trkpt>
<trkpt lat="46.49655" lon="6.70784"><ele>416.4</ele><time>2026-04-23T16:46:57Z</time></trkpt>
<trkpt lat="46.49655" lon="6.70784"><ele>416.4</ele><time>2026-04-23T16:47:10Z</time></trkpt>
<trkpt lat="46.49655" lon="6.70784"><ele>416.4</ele><time>2026-04-23T16:47:18Z</time></trkpt>
<trkpt lat="46.49655" lon="6.70784"><ele>416.4</ele><time>2026-04-23T16:47:26Z</time></trkpt>
<trkpt lat="46.49655" lon="6.70782"><ele>416.4</ele><time>2026-04-23T16:47:30Z</time></trkpt>
<trkpt lat="46.49655" lon="6.70783"><ele>416.4</ele><time>2026-04-23T16:47:31Z</time></trkpt>
<trkpt lat="46.49655" lon="6.70784"><ele>416.4</ele><time>2026-04-23T16:47:37Z</time></trkpt>
<trkpt lat="46.49655" lon="6.70784"><ele>416.4</ele><time>2026-04-23T16:47:42Z</time></trkpt>
<trkpt lat="46.49655" lon="6.70782"><ele>416.4</ele><time>2026-04-23T16:47:45Z</time></trkpt>
<trkpt lat="46.49654" lon="6.70782"><ele>416.4</ele><time>2026-04-23T16:47:51Z</time></trkpt>
<trkpt lat="46.49654" lon="6.70782"><ele>416.4</ele><time>2026-04-23T16:47:58Z</time></trkpt>
<trkpt lat="46.49654" lon="6.70782"><ele>416.4</ele><time>2026-04-23T16:48:07Z</time></trkpt>
<trkpt lat="46.49654" lon="6.7078"><ele>416.4</ele><time>2026-04-23T16:48:16Z</time></trkpt>
<trkpt lat="46.49654" lon="6.70781"><ele>416.4</ele><time>2026-04-23T16:48:22Z</time></trkpt>
<trkpt lat="46.49654" lon="6.70782"><ele>416.4</ele><time>2026-04-23T16:48:30Z</time></trkpt>
<trkpt lat="46.49654" lon="6.70782"><ele>416.4</ele><time>2026-04-23T16:48:37Z</time></trkpt>
<trkpt lat="46.49654" lon="6.70782"><ele>416.4</ele><time>2026-04-23T16:48:46Z</time></trkpt>
<trkpt lat="46.49654" lon="6.70782"><ele>416.4</ele><time>2026-04-23T16:48:50Z</time></trkpt>
<trkpt lat="46.49654" lon="6.70782"><ele>416.4</ele><time>2026-04-23T16:49:02Z</time></trkpt>
<trkpt lat="46.49654" lon="6.70782"><ele>416.4</ele><time>2026-04-23T16:49:04Z</time></trkpt>
<trkpt lat="46.49653" lon="6.70782"><ele>416.4</ele><time>2026-04-23T16:49:09Z</time></trkpt>
<trkpt lat="46.49654" lon="6.70782"><ele>416.4</ele><time>2026-04-23T16:49:11Z</time></trkpt>
<trkpt lat="46.49654" lon="6.70782"><ele>416.4</ele><time>2026-04-23T16:49:15Z</time></trkpt>
<trkpt lat="46.49654" lon="6.70782"><ele>416.4</ele><time>2026-04-23T16:49:17Z</time></trkpt>
<trkpt lat="46.49654" lon="6.70782"><ele>416.4</ele><time>2026-04-23T16:49:18Z</time></trkpt>
<trkpt lat="46.49654" lon="6.70783"><ele>416.4</ele><time>2026-04-23T16:49:33Z</time></trkpt>
<trkpt lat="46.49655" lon="6.70782"><ele>416.4</ele><time>2026-04-23T16:49:41Z</time></trkpt>
<trkpt lat="46.49655" lon="6.70782"><ele>416.4</ele><time>2026-04-23T16:49:42Z</time></trkpt>
<trkpt lat="46.49654" lon="6.70782"><ele>416.4</ele><time>2026-04-23T16:49:45Z</time></trkpt>
<trkpt lat="46.49654" lon="6.70783"><ele>416.4</ele><time>2026-04-23T16:49:48Z</time></trkpt>
<trkpt lat="46.49654" lon="6.70782"><ele>416.4</ele><time>2026-04-23T16:49:56Z</time></trkpt>
<trkpt lat="46.49654" lon="6.70782"><ele>416.4</ele><time>2026-04-23T16:50:03Z</time></trkpt>
<trkpt lat="46.49654" lon="6.70782"><ele>416.4</ele><time>2026-04-23T16:50:11Z</time></trkpt>
<trkpt lat="46.49654" lon="6.70783"><ele>416.4</ele><time>2026-04-23T16:50:15Z</time></trkpt>
<trkpt lat="46.49654" lon="6.70785"><ele>416.4</ele><time>2026-04-23T16:50:20Z</time></trkpt>
<trkpt lat="46.49654" lon="6.70785"><ele>416.4</ele><time>2026-04-23T16:50:23Z</time></trkpt>
<trkpt lat="46.49655" lon="6.70785"><ele>416.4</ele><time>2026-04-23T16:50:30Z</time></trkpt>
<trkpt lat="46.49655" lon="6.70784"><ele>416.4</ele><time>2026-04-23T16:50:32Z</time></trkpt>
<trkpt lat="46.49656" lon="6.70784"><ele>416.4</ele><time>2026-04-23T16:50:38Z</time></trkpt>
<trkpt lat="46.49656" lon="6.70785"><ele>416.4</ele><time>2026-04-23T16:50:45Z</time></trkpt>
<trkpt lat="46.49656" lon="6.70786"><ele>416.4</ele><time>2026-04-23T16:50:52Z</time></trkpt>
<trkpt lat="46.49656" lon="6.70784"><ele>416.4</ele><time>2026-04-23T16:51:00Z</time></trkpt>
<trkpt lat="46.49655" lon="6.70783"><ele>416.4</ele><time>2026-04-23T16:51:06Z</time></trkpt>
<trkpt lat="46.49655" lon="6.70783"><ele>416.4</ele><time>2026-04-23T16:51:13Z</time></trkpt>
<trkpt lat="46.49655" lon="6.70783"><ele>416.4</ele><time>2026-04-23T16:51:14Z</time></trkpt>
<trkpt lat="46.49655" lon="6.70783"><ele>416.4</ele><time>2026-04-23T16:51:18Z</time></trkpt>
<trkpt lat="46.49655" lon="6.70783"><ele>416.4</ele><time>2026-04-23T16:51:24Z</time></trkpt>
<trkpt lat="46.49655" lon="6.70784"><ele>416.4</ele><time>2026-04-23T16:51:25Z</time></trkpt>
<trkpt lat="46.49656" lon="6.70784"><ele>416.4</ele><time>2026-04-23T16:51:29Z</time></trkpt>
<trkpt lat="46.49656" lon="6.70784"><ele>416.4</ele><time>2026-04-23T16:51:34Z</time></trkpt>
<trkpt lat="46.49657" lon="6.70783"><ele>416.4</ele><time>2026-04-23T16:51:40Z</time></trkpt>
<trkpt lat="46.49657" lon="6.70782"><ele>416.4</ele><time>2026-04-23T16:51:42Z</time></trkpt>
<trkpt lat="46.49656" lon="6.70782"><ele>416.4</ele><time>2026-04-23T16:51:45Z</time></trkpt>
<trkpt lat="46.49656" lon="6.70781"><ele>416.4</ele><time>2026-04-23T16:51:50Z</time></trkpt>
<trkpt lat="46.49656" lon="6.70783"><ele>416.4</ele><time>2026-04-23T16:51:57Z</time></trkpt>
<trkpt lat="46.49654" lon="6.70784"><ele>416.4</ele><time>2026-04-23T16:52:06Z</time></trkpt>
<trkpt lat="46.49654" lon="6.70783"><ele>416.4</ele><time>2026-04-23T16:52:13Z</time></trkpt>
<trkpt lat="46.49655" lon="6.70783"><ele>416.4</ele><time>2026-04-23T16:52:20Z</time></trkpt>
<trkpt lat="46.49655" lon="6.70783"><ele>416.4</ele><time>2026-04-23T16:52:26Z</time></trkpt>
<trkpt lat="46.49655" lon="6.70783"><ele>416.4</ele><time>2026-04-23T16:52:31Z</time></trkpt>
<trkpt lat="46.49655" lon="6.70783"><ele>416.4</ele><time>2026-04-23T16:52:38Z</time></trkpt>
<trkpt lat="46.49655" lon="6.70783"><ele>416.4</ele><time>2026-04-23T16:52:42Z</time></trkpt>
<trkpt lat="46.49655" lon="6.70783"><ele>416.4</ele><time>2026-04-23T16:52:49Z</time></trkpt>
<trkpt lat="46.49655" lon="6.70782"><ele>416.4</ele><time>2026-04-23T16:53:01Z</time></trkpt>
<trkpt lat="46.49654" lon="6.70782"><ele>416.4</ele><time>2026-04-23T16:53:07Z</time></trkpt>
<trkpt lat="46.49654" lon="6.70782"><ele>416.4</ele><time>2026-04-23T16:53:08Z</time></trkpt>
<trkpt lat="46.49654" lon="6.70782"><ele>416.4</ele><time>2026-04-23T16:53:18Z</time></trkpt>
<trkpt lat="46.49654" lon="6.70783"><ele>416.4</ele><time>2026-04-23T16:53:19Z</time></trkpt>
<trkpt lat="46.49654" lon="6.70782"><ele>416.4</ele><time>2026-04-23T16:53:22Z</time></trkpt>
<trkpt lat="46.49654" lon="6.70782"><ele>416.4</ele><time>2026-04-23T16:53:30Z</time></trkpt>
<trkpt lat="46.49654" lon="6.70782"><ele>416.4</ele><time>2026-04-23T16:53:37Z</time></trkpt>
<trkpt lat="46.49654" lon="6.70781"><ele>416.4</ele><time>2026-04-23T16:53:43Z</time></trkpt>
<trkpt lat="46.49654" lon="6.70782"><ele>416.4</ele><time>2026-04-23T16:53:48Z</time></trkpt>
<trkpt lat="46.49654" lon="6.70781"><ele>416.4</ele><time>2026-04-23T16:53:53Z</time></trkpt>
<trkpt lat="46.49653" lon="6.70783"><ele>416.4</ele><time>2026-04-23T16:53:58Z</time></trkpt>
<trkpt lat="46.49655" lon="6.70785"><ele>416.4</ele><time>2026-04-23T16:54:04Z</time></trkpt>
<trkpt lat="46.49654" lon="6.70784"><ele>416.4</ele><time>2026-04-23T16:54:10Z</time></trkpt>
<trkpt lat="46.49654" lon="6.70784"><ele>416.4</ele><time>2026-04-23T16:54:16Z</time></trkpt>
<trkpt lat="46.49654" lon="6.70784"><ele>416.4</ele><time>2026-04-23T16:54:23Z</time></trkpt>
<trkpt lat="46.49655" lon="6.70783"><ele>416.4</ele><time>2026-04-23T16:54:29Z</time></trkpt>
<trkpt lat="46.49655" lon="6.70784"><ele>416.4</ele><time>2026-04-23T16:54:31Z</time></trkpt>
<trkpt lat="46.49655" lon="6.70786"><ele>416.4</ele><time>2026-04-23T16:54:33Z</time></trkpt>
<trkpt lat="46.49654" lon="6.70789"><ele>416.4</ele><time>2026-04-23T16:54:39Z</time></trkpt>
<trkpt lat="46.49653" lon="6.7079"><ele>416.4</ele><time>2026-04-23T16:54:45Z</time></trkpt>
<trkpt lat="46.49653" lon="6.7079"><ele>416.4</ele><time>2026-04-23T16:54:53Z</time></trkpt>
<trkpt lat="46.49653" lon="6.7079"><ele>416.4</ele><time>2026-04-23T16:55:02Z</time></trkpt>
<trkpt lat="46.49653" lon="6.7079"><ele>416.4</ele><time>2026-04-23T16:55:12Z</time></trkpt>
<trkpt lat="46.49654" lon="6.7079"><ele>416.4</ele><time>2026-04-23T16:55:18Z</time></trkpt>
<trkpt lat="46.49655" lon="6.70789"><ele>416.2</ele><time>2026-04-23T16:55:19Z</time></trkpt>
<trkpt lat="46.49656" lon="6.70787"><ele>416.2</ele><time>2026-04-23T16:55:21Z</time></trkpt>
<trkpt lat="46.49658" lon="6.70787"><ele>416.4</ele><time>2026-04-23T16:55:22Z</time></trkpt>
<trkpt lat="46.49663" lon="6.70786"><ele>417.4</ele><time>2026-04-23T16:55:26Z</time></trkpt>
<trkpt lat="46.49667" lon="6.70785"><ele>418.2</ele><time>2026-04-23T16:55:29Z</time></trkpt>
<trkpt lat="46.49669" lon="6.70785"><ele>418.6</ele><time>2026-04-23T16:55:30Z</time></trkpt>
<trkpt lat="46.49671" lon="6.70784"><ele>419.4</ele><time>2026-04-23T16:55:34Z</time></trkpt>
<trkpt lat="46.49671" lon="6.70784"><ele>419.4</ele><time>2026-04-23T16:55:35Z</time></trkpt>
<trkpt lat="46.49671" lon="6.70785"><ele>419.4</ele><time>2026-04-23T16:55:37Z</time></trkpt>
<trkpt lat="46.49671" lon="6.70785"><ele>419.4</ele><time>2026-04-23T16:55:39Z</time></trkpt>
<trkpt lat="46.49669" lon="6.70785"><ele>419.4</ele><time>2026-04-23T16:55:40Z</time></trkpt>
<trkpt lat="46.49654" lon="6.70786"><ele>417.8</ele><time>2026-04-23T16:55:44Z</time></trkpt>
<trkpt lat="46.49651" lon="6.70788"><ele>417.2</ele><time>2026-04-23T16:55:45Z</time></trkpt>
<trkpt lat="46.49647" lon="6.70791"><ele>416.6</ele><time>2026-04-23T16:55:46Z</time></trkpt>
<trkpt lat="46.49643" lon="6.70794"><ele>415.8</ele><time>2026-04-23T16:55:47Z</time></trkpt>
<trkpt lat="46.49639" lon="6.70798"><ele>415.2</ele><time>2026-04-23T16:55:48Z</time></trkpt>
<trkpt lat="46.49635" lon="6.70801"><ele>414.6</ele><time>2026-04-23T16:55:49Z</time></trkpt>
<trkpt lat="46.49627" lon="6.70809"><ele>413.4</ele><time>2026-04-23T16:55:51Z</time></trkpt>
<trkpt lat="46.49623" lon="6.70815"><ele>412</ele><time>2026-04-23T16:55:53Z</time></trkpt>
<trkpt lat="46.49623" lon="6.70818"><ele>411.6</ele><time>2026-04-23T16:55:54Z</time></trkpt>
<trkpt lat="46.49625" lon="6.70818"><ele>411</ele><time>2026-04-23T16:55:56Z</time></trkpt>
<trkpt lat="46.49625" lon="6.70817"><ele>411</ele><time>2026-04-23T16:55:57Z</time></trkpt>
<trkpt lat="46.49627" lon="6.7081"><ele>411.4</ele><time>2026-04-23T16:56:00Z</time></trkpt>
<trkpt lat="46.49633" lon="6.70803"><ele>412.2</ele><time>2026-04-23T16:56:03Z</time></trkpt>
<trkpt lat="46.49638" lon="6.70799"><ele>412.8</ele><time>2026-04-23T16:56:05Z</time></trkpt>
<trkpt lat="46.49642" lon="6.70795"><ele>413.4</ele><time>2026-04-23T16:56:07Z</time></trkpt>
<trkpt lat="46.49647" lon="6.70792"><ele>414.6</ele><time>2026-04-23T16:56:10Z</time></trkpt>
<trkpt lat="46.49649" lon="6.70791"><ele>414.8</ele><time>2026-04-23T16:56:11Z</time></trkpt>
<trkpt lat="46.49653" lon="6.70788"><ele>415.6</ele><time>2026-04-23T16:56:15Z</time></trkpt>
<trkpt lat="46.49656" lon="6.70788"><ele>416.2</ele><time>2026-04-23T16:56:18Z</time></trkpt>
<trkpt lat="46.4966" lon="6.70788"><ele>416.8</ele><time>2026-04-23T16:56:21Z</time></trkpt>
<trkpt lat="46.49662" lon="6.70787"><ele>417</ele><time>2026-04-23T16:56:23Z</time></trkpt>
<trkpt lat="46.49662" lon="6.70785"><ele>417.4</ele><time>2026-04-23T16:56:25Z</time></trkpt>
<trkpt lat="46.4966" lon="6.70784"><ele>417.4</ele><time>2026-04-23T16:56:26Z</time></trkpt>
<trkpt lat="46.49654" lon="6.70788"><ele>416.6</ele><time>2026-04-23T16:56:29Z</time></trkpt>
<trkpt lat="46.49653" lon="6.70793"><ele>415.8</ele><time>2026-04-23T16:56:34Z</time></trkpt>
<trkpt lat="46.49653" lon="6.70792"><ele>415.6</ele><time>2026-04-23T16:56:38Z</time></trkpt>
<trkpt lat="46.49653" lon="6.70793"><ele>415.6</ele><time>2026-04-23T16:56:40Z</time></trkpt>
<trkpt lat="46.49652" lon="6.70792"><ele>415.6</ele><time>2026-04-23T16:56:44Z</time></trkpt>
<trkpt lat="46.49651" lon="6.70791"><ele>415.6</ele><time>2026-04-23T16:56:50Z</time></trkpt>
<trkpt lat="46.49651" lon="6.70791"><ele>415.6</ele><time>2026-04-23T16:56:51Z</time></trkpt>
<trkpt lat="46.49653" lon="6.70791"><ele>415.6</ele><time>2026-04-23T16:56:58Z</time></trkpt>
<trkpt lat="46.49653" lon="6.70791"><ele>415.6</ele><time>2026-04-23T16:56:59Z</time></trkpt>
<trkpt lat="46.49653" lon="6.70791"><ele>415.8</ele><time>2026-04-23T16:57:07Z</time></trkpt>
<trkpt lat="46.49653" lon="6.70791"><ele>415.4</ele><time>2026-04-23T16:57:10Z</time></trkpt>
<trkpt lat="46.49653" lon="6.70791"><ele>415.6</ele><time>2026-04-23T16:57:15Z</time></trkpt>
<trkpt lat="46.49653" lon="6.70791"><ele>415.8</ele><time>2026-04-23T16:57:21Z</time></trkpt>
<trkpt lat="46.49653" lon="6.70791"><ele>415.2</ele><time>2026-04-23T16:57:25Z</time></trkpt>
<trkpt lat="46.4965" lon="6.70789"><ele>415.2</ele><time>2026-04-23T16:57:30Z</time></trkpt>
<trkpt lat="46.4965" lon="6.70788"><ele>415</ele><time>2026-04-23T16:57:34Z</time></trkpt>
<trkpt lat="46.4965" lon="6.70788"><ele>414.8</ele><time>2026-04-23T16:57:38Z</time></trkpt>
<trkpt lat="46.4965" lon="6.70788"><ele>414.8</ele><time>2026-04-23T16:57:40Z</time></trkpt>
<trkpt lat="46.4965" lon="6.70788"><ele>414.8</ele><time>2026-04-23T16:57:42Z</time></trkpt>
<trkpt lat="46.4965" lon="6.70788"><ele>415</ele><time>2026-04-23T16:57:43Z</time></trkpt>
<trkpt lat="46.4965" lon="6.70788"><ele>415</ele><time>2026-04-23T16:57:44Z</time></trkpt>
<trkpt lat="46.4965" lon="6.70788"><ele>415.2</ele><time>2026-04-23T16:57:46Z</time></trkpt>
<trkpt lat="46.4965" lon="6.70788"><ele>415</ele><time>2026-04-23T16:57:50Z</time></trkpt>
<trkpt lat="46.49651" lon="6.70788"><ele>414.8</ele><time>2026-04-23T16:57:55Z</time></trkpt>
<trkpt lat="46.4965" lon="6.70788"><ele>414.8</ele><time>2026-04-23T16:58:01Z</time></trkpt>
<trkpt lat="46.4965" lon="6.70787"><ele>414.6</ele><time>2026-04-23T16:58:04Z</time></trkpt>
<trkpt lat="46.4965" lon="6.70788"><ele>414.4</ele><time>2026-04-23T16:58:06Z</time></trkpt>
<trkpt lat="46.4965" lon="6.70788"><ele>414.6</ele><time>2026-04-23T16:58:16Z</time></trkpt>
<trkpt lat="46.4965" lon="6.70788"><ele>414.6</ele><time>2026-04-23T16:58:29Z</time></trkpt>
<trkpt lat="46.4965" lon="6.70787"><ele>414.4</ele><time>2026-04-23T16:58:37Z</time></trkpt>
<trkpt lat="46.4965" lon="6.70788"><ele>414.6</ele><time>2026-04-23T16:58:42Z</time></trkpt>
<trkpt lat="46.4965" lon="6.70787"><ele>414.6</ele><time>2026-04-23T16:58:47Z</time></trkpt>
<trkpt lat="46.4965" lon="6.70788"><ele>414.6</ele><time>2026-04-23T16:58:52Z</time></trkpt>
<trkpt lat="46.4965" lon="6.70788"><ele>414.6</ele><time>2026-04-23T16:58:56Z</time></trkpt>
<trkpt lat="46.4965" lon="6.70788"><ele>414.6</ele><time>2026-04-23T16:59:01Z</time></trkpt>
<trkpt lat="46.4965" lon="6.70788"><ele>414.6</ele><time>2026-04-23T16:59:02Z</time></trkpt>
<trkpt lat="46.4965" lon="6.70789"><ele>414.6</ele><time>2026-04-23T16:59:03Z</time></trkpt>
<trkpt lat="46.49649" lon="6.70787"><ele>414.6</ele><time>2026-04-23T16:59:05Z</time></trkpt>
<trkpt lat="46.49649" lon="6.70788"><ele>414.6</ele><time>2026-04-23T16:59:07Z</time></trkpt>
<trkpt lat="46.49649" lon="6.70789"><ele>414.6</ele><time>2026-04-23T16:59:08Z</time></trkpt>
<trkpt lat="46.49645" lon="6.70794"><ele>415</ele><time>2026-04-23T16:59:10Z</time></trkpt>
<trkpt lat="46.49633" lon="6.70805"><ele>413.4</ele><time>2026-04-23T16:59:13Z</time></trkpt>
<trkpt lat="46.49628" lon="6.70811"><ele>412.8</ele><time>2026-04-23T16:59:14Z</time></trkpt>
<trkpt lat="46.49621" lon="6.70818"><ele>412.2</ele><time>2026-04-23T16:59:15Z</time></trkpt>
<trkpt lat="46.49615" lon="6.70824"><ele>411</ele><time>2026-04-23T16:59:16Z</time></trkpt>
<trkpt lat="46.4961" lon="6.70829"><ele>410</ele><time>2026-04-23T16:59:17Z</time></trkpt>
<trkpt lat="46.49604" lon="6.70835"><ele>408.8</ele><time>2026-04-23T16:59:18Z</time></trkpt>
<trkpt lat="46.49596" lon="6.70841"><ele>407.6</ele><time>2026-04-23T16:59:19Z</time></trkpt>
<trkpt lat="46.49589" lon="6.70845"><ele>406.8</ele><time>2026-04-23T16:59:20Z</time></trkpt>
<trkpt lat="46.49581" lon="6.70847"><ele>405.8</ele><time>2026-04-23T16:59:21Z</time></trkpt>
<trkpt lat="46.49573" lon="6.70848"><ele>404.6</ele><time>2026-04-23T16:59:22Z</time></trkpt>
<trkpt lat="46.49566" lon="6.70848"><ele>403.4</ele><time>2026-04-23T16:59:23Z</time></trkpt>
<trkpt lat="46.4956" lon="6.70847"><ele>402.4</ele><time>2026-04-23T16:59:24Z</time></trkpt>
<trkpt lat="46.49555" lon="6.70846"><ele>401.2</ele><time>2026-04-23T16:59:25Z</time></trkpt>
<trkpt lat="46.49552" lon="6.70845"><ele>400.4</ele><time>2026-04-23T16:59:26Z</time></trkpt>
<trkpt lat="46.49548" lon="6.70846"><ele>399.6</ele><time>2026-04-23T16:59:27Z</time></trkpt>
<trkpt lat="46.49542" lon="6.70851"><ele>398.4</ele><time>2026-04-23T16:59:29Z</time></trkpt>
<trkpt lat="46.4954" lon="6.70855"><ele>398</ele><time>2026-04-23T16:59:30Z</time></trkpt>
<trkpt lat="46.49531" lon="6.70875"><ele>397.6</ele><time>2026-04-23T16:59:34Z</time></trkpt>
<trkpt lat="46.49529" lon="6.70879"><ele>397.6</ele><time>2026-04-23T16:59:35Z</time></trkpt>
<trkpt lat="46.49514" lon="6.70905"><ele>397.4</ele><time>2026-04-23T16:59:41Z</time></trkpt>
<trkpt lat="46.49505" lon="6.70915"><ele>397.8</ele><time>2026-04-23T16:59:45Z</time></trkpt>
<trkpt lat="46.49503" lon="6.70918"><ele>398</ele><time>2026-04-23T16:59:46Z</time></trkpt>
<trkpt lat="46.495" lon="6.70919"><ele>398.2</ele><time>2026-04-23T16:59:47Z</time></trkpt>
<trkpt lat="46.49492" lon="6.70917"><ele>398.2</ele><time>2026-04-23T16:59:50Z</time></trkpt>
<trkpt lat="46.49489" lon="6.70916"><ele>397.8</ele><time>2026-04-23T16:59:51Z</time></trkpt>
<trkpt lat="46.49486" lon="6.7091"><ele>397.4</ele><time>2026-04-23T16:59:52Z</time></trkpt>
<trkpt lat="46.49483" lon="6.70904"><ele>397</ele><time>2026-04-23T16:59:53Z</time></trkpt>
<trkpt lat="46.4948" lon="6.70898"><ele>396.2</ele><time>2026-04-23T16:59:54Z</time></trkpt>
<trkpt lat="46.49476" lon="6.70894"><ele>395.4</ele><time>2026-04-23T16:59:55Z</time></trkpt>
<trkpt lat="46.49472" lon="6.70895"><ele>394.8</ele><time>2026-04-23T16:59:56Z</time></trkpt>
<trkpt lat="46.49469" lon="6.70897"><ele>394.4</ele><time>2026-04-23T16:59:57Z</time></trkpt>
<trkpt lat="46.49462" lon="6.70905"><ele>394</ele><time>2026-04-23T16:59:59Z</time></trkpt>
<trkpt lat="46.49462" lon="6.7091"><ele>394</ele><time>2026-04-23T17:00:00Z</time></trkpt>
<trkpt lat="46.49467" lon="6.7091"><ele>394</ele><time>2026-04-23T17:00:03Z</time></trkpt>
<trkpt lat="46.49467" lon="6.70908"><ele>394.2</ele><time>2026-04-23T17:00:04Z</time></trkpt>
<trkpt lat="46.49467" lon="6.70901"><ele>394.4</ele><time>2026-04-23T17:00:06Z</time></trkpt>
<trkpt lat="46.4947" lon="6.70896"><ele>394.4</ele><time>2026-04-23T17:00:08Z</time></trkpt>
<trkpt lat="46.49472" lon="6.70895"><ele>394.4</ele><time>2026-04-23T17:00:09Z</time></trkpt>
<trkpt lat="46.49476" lon="6.70896"><ele>394.4</ele><time>2026-04-23T17:00:11Z</time></trkpt>
<trkpt lat="46.49477" lon="6.70896"><ele>394.4</ele><time>2026-04-23T17:00:12Z</time></trkpt>
<trkpt lat="46.49478" lon="6.70894"><ele>394.6</ele><time>2026-04-23T17:00:14Z</time></trkpt>
<trkpt lat="46.49476" lon="6.70891"><ele>394.4</ele><time>2026-04-23T17:00:16Z</time></trkpt>
<trkpt lat="46.49465" lon="6.70903"><ele>394</ele><time>2026-04-23T17:00:20Z</time></trkpt>
<trkpt lat="46.49446" lon="6.70933"><ele>393.8</ele><time>2026-04-23T17:00:26Z</time></trkpt>
<trkpt lat="46.49442" lon="6.70938"><ele>393.8</ele><time>2026-04-23T17:00:27Z</time></trkpt>
<trkpt lat="46.49436" lon="6.70948"><ele>393.8</ele><time>2026-04-23T17:00:30Z</time></trkpt>
<trkpt lat="46.49435" lon="6.7095"><ele>394</ele><time>2026-04-23T17:00:34Z</time></trkpt>
<trkpt lat="46.49434" lon="6.70952"><ele>394</ele><time>2026-04-23T17:00:42Z</time></trkpt>
<trkpt lat="46.49435" lon="6.70952"><ele>393.6</ele><time>2026-04-23T17:00:48Z</time></trkpt>
<trkpt lat="46.49435" lon="6.7095"><ele>393.6</ele><time>2026-04-23T17:00:54Z</time></trkpt>
<trkpt lat="46.49439" lon="6.7095"><ele>393.6</ele><time>2026-04-23T17:00:59Z</time></trkpt>
<trkpt lat="46.49439" lon="6.70951"><ele>393.6</ele><time>2026-04-23T17:01:00Z</time></trkpt>
<trkpt lat="46.49438" lon="6.7095"><ele>394.2</ele><time>2026-04-23T17:01:04Z</time></trkpt>
<trkpt lat="46.49437" lon="6.70949"><ele>393.8</ele><time>2026-04-23T17:01:10Z</time></trkpt>
<trkpt lat="46.49437" lon="6.70949"><ele>393.6</ele><time>2026-04-23T17:01:16Z</time></trkpt>
<trkpt lat="46.49438" lon="6.70949"><ele>393.4</ele><time>2026-04-23T17:01:21Z</time></trkpt>
<trkpt lat="46.49437" lon="6.70949"><ele>393.6</ele><time>2026-04-23T17:01:26Z</time></trkpt>
<trkpt lat="46.49437" lon="6.70949"><ele>393.6</ele><time>2026-04-23T17:01:32Z</time></trkpt>
<trkpt lat="46.49439" lon="6.7095"><ele>393.6</ele><time>2026-04-23T17:01:38Z</time></trkpt>
<trkpt lat="46.49439" lon="6.7095"><ele>393.8</ele><time>2026-04-23T17:01:44Z</time></trkpt>
<trkpt lat="46.49437" lon="6.7095"><ele>393.6</ele><time>2026-04-23T17:01:49Z</time></trkpt>
<trkpt lat="46.49435" lon="6.70952"><ele>393.4</ele><time>2026-04-23T17:01:55Z</time></trkpt>
<trkpt lat="46.49435" lon="6.70952"><ele>393.2</ele><time>2026-04-23T17:01:58Z</time></trkpt>
<trkpt lat="46.49435" lon="6.70952"><ele>392.8</ele><time>2026-04-23T17:02:02Z</time></trkpt>
<trkpt lat="46.49436" lon="6.70952"><ele>392.8</ele><time>2026-04-23T17:02:09Z</time></trkpt>
<trkpt lat="46.49437" lon="6.70952"><ele>393</ele><time>2026-04-23T17:02:16Z</time></trkpt>
<trkpt lat="46.49438" lon="6.70953"><ele>393.2</ele><time>2026-04-23T17:02:19Z</time></trkpt>
<trkpt lat="46.49438" lon="6.70951"><ele>393.4</ele><time>2026-04-23T17:02:21Z</time></trkpt>
<trkpt lat="46.49438" lon="6.7095"><ele>393.6</ele><time>2026-04-23T17:02:26Z</time></trkpt>
<trkpt lat="46.4944" lon="6.70952"><ele>393.4</ele><time>2026-04-23T17:02:30Z</time></trkpt>
<trkpt lat="46.49439" lon="6.7095"><ele>393.8</ele><time>2026-04-23T17:02:34Z</time></trkpt>
<trkpt lat="46.49437" lon="6.7095"><ele>393.8</ele><time>2026-04-23T17:02:36Z</time></trkpt>
<trkpt lat="46.49437" lon="6.70951"><ele>393.6</ele><time>2026-04-23T17:02:38Z</time></trkpt>
<trkpt lat="46.49437" lon="6.70952"><ele>393.6</ele><time>2026-04-23T17:02:39Z</time></trkpt>
<trkpt lat="46.49437" lon="6.70952"><ele>393.6</ele><time>2026-04-23T17:02:40Z</time></trkpt>
<trkpt lat="46.49436" lon="6.70953"><ele>393.8</ele><time>2026-04-23T17:02:44Z</time></trkpt>
<trkpt lat="46.49433" lon="6.70951"><ele>393.6</ele><time>2026-04-23T17:02:47Z</time></trkpt>
<trkpt lat="46.49434" lon="6.7095"><ele>393.8</ele><time>2026-04-23T17:02:49Z</time></trkpt>
<trkpt lat="46.49436" lon="6.70949"><ele>393.6</ele><time>2026-04-23T17:02:52Z</time></trkpt>
<trkpt lat="46.49436" lon="6.70949"><ele>393.6</ele><time>2026-04-23T17:02:54Z</time></trkpt>
<trkpt lat="46.49435" lon="6.70949"><ele>393.4</ele><time>2026-04-23T17:02:55Z</time></trkpt>
<trkpt lat="46.49434" lon="6.70951"><ele>393.4</ele><time>2026-04-23T17:02:59Z</time></trkpt>
<trkpt lat="46.49434" lon="6.70951"><ele>393.2</ele><time>2026-04-23T17:03:04Z</time></trkpt>
<trkpt lat="46.49434" lon="6.70951"><ele>392.6</ele><time>2026-04-23T17:03:08Z</time></trkpt>
<trkpt lat="46.49434" lon="6.70951"><ele>392.8</ele><time>2026-04-23T17:03:11Z</time></trkpt>
<trkpt lat="46.49434" lon="6.70951"><ele>392.6</ele><time>2026-04-23T17:03:13Z</time></trkpt>
<trkpt lat="46.49434" lon="6.70951"><ele>392.8</ele><time>2026-04-23T17:03:19Z</time></trkpt>
<trkpt lat="46.49433" lon="6.70951"><ele>392.6</ele><time>2026-04-23T17:03:27Z</time></trkpt>
<trkpt lat="46.49432" lon="6.7095"><ele>392.8</ele><time>2026-04-23T17:03:32Z</time></trkpt>
<trkpt lat="46.49432" lon="6.7095"><ele>392.8</ele><time>2026-04-23T17:03:36Z</time></trkpt>
<trkpt lat="46.49432" lon="6.7095"><ele>392.8</ele><time>2026-04-23T17:03:38Z</time></trkpt>
<trkpt lat="46.49433" lon="6.7095"><ele>392.6</ele><time>2026-04-23T17:03:43Z</time></trkpt>
<trkpt lat="46.49432" lon="6.7095"><ele>392.6</ele><time>2026-04-23T17:03:44Z</time></trkpt>
<trkpt lat="46.49432" lon="6.7095"><ele>392.6</ele><time>2026-04-23T17:03:50Z</time></trkpt>
<trkpt lat="46.49433" lon="6.7095"><ele>392.8</ele><time>2026-04-23T17:03:52Z</time></trkpt>
<trkpt lat="46.49433" lon="6.7095"><ele>392.8</ele><time>2026-04-23T17:03:55Z</time></trkpt>
<trkpt lat="46.49432" lon="6.7095"><ele>392.6</ele><time>2026-04-23T17:03:56Z</time></trkpt>
<trkpt lat="46.49434" lon="6.7095"><ele>392.8</ele><time>2026-04-23T17:04:05Z</time></trkpt>
<trkpt lat="46.49434" lon="6.7095"><ele>392.8</ele><time>2026-04-23T17:04:10Z</time></trkpt>
<trkpt lat="46.49434" lon="6.7095"><ele>393</ele><time>2026-04-23T17:04:12Z</time></trkpt>
<trkpt lat="46.49434" lon="6.70951"><ele>392.6</ele><time>2026-04-23T17:04:22Z</time></trkpt>
<trkpt lat="46.49434" lon="6.7095"><ele>392.6</ele><time>2026-04-23T17:04:25Z</time></trkpt>
<trkpt lat="46.49434" lon="6.7095"><ele>392.8</ele><time>2026-04-23T17:04:28Z</time></trkpt>
<trkpt lat="46.49434" lon="6.7095"><ele>392.6</ele><time>2026-04-23T17:04:29Z</time></trkpt>
<trkpt lat="46.49434" lon="6.7095"><ele>392.6</ele><time>2026-04-23T17:04:36Z</time></trkpt>
<trkpt lat="46.49434" lon="6.7095"><ele>392.8</ele><time>2026-04-23T17:04:45Z</time></trkpt>
<trkpt lat="46.49434" lon="6.7095"><ele>392.8</ele><time>2026-04-23T17:04:47Z</time></trkpt>
<trkpt lat="46.49434" lon="6.7095"><ele>392.8</ele><time>2026-04-23T17:04:50Z</time></trkpt>
<trkpt lat="46.49434" lon="6.7095"><ele>392.8</ele><time>2026-04-23T17:04:59Z</time></trkpt>
<trkpt lat="46.49434" lon="6.7095"><ele>392.8</ele><time>2026-04-23T17:05:03Z</time></trkpt>
<trkpt lat="46.49434" lon="6.7095"><ele>392.8</ele><time>2026-04-23T17:05:04Z</time></trkpt>
<trkpt lat="46.49434" lon="6.7095"><ele>392.8</ele><time>2026-04-23T17:05:10Z</time></trkpt>
<trkpt lat="46.49434" lon="6.7095"><ele>392.8</ele><time>2026-04-23T17:05:21Z</time></trkpt>
<trkpt lat="46.49434" lon="6.7095"><ele>392.8</ele><time>2026-04-23T17:05:27Z</time></trkpt>
<trkpt lat="46.49434" lon="6.7095"><ele>392.8</ele><time>2026-04-23T17:05:34Z</time></trkpt>
<trkpt lat="46.49434" lon="6.7095"><ele>392.8</ele><time>2026-04-23T17:05:43Z</time></trkpt>
<trkpt lat="46.49435" lon="6.70949"><ele>392.8</ele><time>2026-04-23T17:05:45Z</time></trkpt>
<trkpt lat="46.49437" lon="6.70949"><ele>392.8</ele><time>2026-04-23T17:05:47Z</time></trkpt>
<trkpt lat="46.49437" lon="6.70952"><ele>392.6</ele><time>2026-04-23T17:05:53Z</time></trkpt>
<trkpt lat="46.49437" lon="6.70952"><ele>392.6</ele><time>2026-04-23T17:05:59Z</time></trkpt>
<trkpt lat="46.49438" lon="6.70954"><ele>392.4</ele><time>2026-04-23T17:06:07Z</time></trkpt>
<trkpt lat="46.49438" lon="6.70952"><ele>392.8</ele><time>2026-04-23T17:06:12Z</time></trkpt>
</trkseg></trk></gpx>